# Wetter Temperatur Luftdruck Luftfeuchtigkeit Sichtweite Windgeschwindigkeit Windrichtung Zeit
1 Clouds 9 1021 54 10000 0.45 335 11:47 22.04.2021
2 Clouds 9 1021 54 10000 0.45 330 11:23 22.04.2021
3 Clouds 9 1020 56 10000 0.89 218 10:46 22.04.2021
4 Clouds 8 1020 58 10000 0.89 226 10:26 22.04.2021
5 Clouds 8 1020 58 10000 1.34 242 09:49 22.04.2021
6 Clouds 7 1020 57 10000 0.45 12 09:30 22.04.2021
7 Clouds 6 1020 59 10000 0.45 261 08:41 22.04.2021
8 Clouds 6 1020 62 10000 0.89 256 08:22 22.04.2021
9 Clouds 5 1020 68 10000 0.89 233 07:46 22.04.2021
10 Clouds 4 1020 69 10000 0.45 231 07:27 22.04.2021
11 Clouds 4 1019 67 10000 1.34 239 06:40 22.04.2021
12 Clouds 3 1013 67 10000 6.13 280 05:50 22.04.2021
13 Clouds 4 1019 65 10000 0.45 243 05:20 22.04.2021
14 Clouds 5 1019 61 10000 0.45 235 01:39 22.04.2021
15 Clouds 6 1018 54 10000 0.45 26 23:54 21.04.2021
16 Clouds 5 1012 51 10000 5.25 303 23:34 21.04.2021
17 Clouds 6 1012 49 10000 5.74 312 22:44 21.04.2021
18 Clouds 8 1017 51 10000 0.45 359 22:25 21.04.2021
19 Clouds 7 1011 49 10000 6.04 319 21:57 21.04.2021
20 Clouds 7 1011 47 10000 6.04 319 21:38 21.04.2021
21 Clouds 9 1016 47 10000 2.68 309 21:18 21.04.2021
22 Clouds 10 1010 49 10000 6.04 317 20:23 21.04.2021
23 Clouds 12 1009 50 10000 6.04 317 19:45 21.04.2021
24 Clouds 13 1015 52 10000 6.71 311 19:26 21.04.2021
25 Clouds 13 1008 50 10000 6.07 314 18:50 21.04.2021
26 Clouds 13 1008 51 10000 6.07 314 18:31 21.04.2021
27 Clouds 13 1008 51 10000 6.07 314 18:31 21.04.2021
28 Clouds 12 1014 68 10000 6.12 319 17:57 21.04.2021
29 Clouds 12 1014 68 10000 6.12 319 17:39 21.04.2021
30 Clouds 17 1014 33 10000 0.89 27 17:19 21.04.2021
31 Clouds 17 1014 33 10000 0.89 27 16:38 21.04.2021
32 Clouds 17 1014 32 10000 0.89 39 15:46 21.04.2021
33 Clouds 17 1014 32 10000 0.89 39 15:20 21.04.2021
34 Clouds 18 1014 31 10000 0.89 195 14:44 21.04.2021
35 Clear 18 1014 33 10000 0.45 20 14:23 21.04.2021
36 Clear 17 1014 33 10000 0.89 29 13:49 21.04.2021
37 Clear 16 1015 33 10000 1.34 212 13:21 21.04.2021
38 Clear 16 1015 34 10000 4.02 309 12:41 21.04.2021
39 Clear 16 1015 38 10000 0.89 241 12:18 21.04.2021
40 Clear 16 1015 42 10000 0.89 224 11:41 21.04.2021
41 Clear 14 1015 41 10000 0.45 181 11:22 21.04.2021
42 Clear 14 1015 46 10000 0.45 316 10:39 21.04.2021
43 Clear 13 1015 50 10000 0.89 359 09:56 21.04.2021
44 Clear 12 1015 55 10000 3.01 303 09:21 21.04.2021
45 Clear 8 1015 62 10000 0.45 223 08:46 21.04.2021
46 Clear 8 1015 64 10000 2.66 302 08:24 21.04.2021
47 Clear 6 1015 70 10000 2.55 300 07:52 21.04.2021
48 Clear 5 1015 79 10000 2.46 303 07:28 21.04.2021
49 Clear 5 1014 81 10000 2.34 307 06:21 21.04.2021
50 Clear 6 1015 74 10000 1.75 332 02:28 21.04.2021
51 Clear 6 1009 74 10000 2.2 24 00:20 21.04.2021
52 Clear 6 1009 74 10000 2.2 24 23:40 20.04.2021
53 Clear 8 1009 69 10000 2.6 11 22:49 20.04.2021
54 Clear 8 1009 65 10000 2.42 1 22:24 20.04.2021
55 Clear 10 1009 60 10000 2.42 1 21:57 20.04.2021
56 Clear 10 1009 61 10000 2.42 1 21:39 20.04.2021
57 Clear 11 1009 59 10000 2.16 5 21:21 20.04.2021
58 Clear 12 1009 55 10000 2.16 5 20:39 20.04.2021
59 Clear 13 1014 64 10000 2.36 3 20:20 20.04.2021
60 Clear 11 1014 74 10000 2.56 7 19:47 20.04.2021
61 Clear 16 1014 47 10000 2.88 4 19:29 20.04.2021
62 Clear 17 1014 49 10000 1.79 98 18:47 20.04.2021
63 Clear 17 1014 45 10000 3.09 359 18:29 20.04.2021
64 Clear 18 1014 44 10000 2.24 344 17:41 20.04.2021
65 Clear 19 1014 42 10000 2.24 343 16:53 20.04.2021
66 Clear 19 1014 41 10000 0.89 319 16:34 20.04.2021
67 Clear 18 1015 40 10000 1.79 326 15:40 20.04.2021
68 Clear 18 1015 41 10000 3.13 331 15:19 20.04.2021
69 Clear 18 1015 41 10000 0.45 319 14:48 20.04.2021
70 Clear 18 1016 41 10000 2.51 327 14:23 20.04.2021
71 Clear 18 1016 41 10000 2.39 334 14:23 20.04.2021
72 Clear 15 1016 44 10000 3.58 289 13:29 20.04.2021
73 Clear 14 1016 52 10000 3.58 266 12:55 20.04.2021
74 Clear 14 1016 60 10000 0.45 42 12:28 20.04.2021
75 Clear 13 1016 67 10000 0.89 36 11:47 20.04.2021
76 Clear 12 1017 69 10000 0.45 41 11:28 20.04.2021
77 Clear 12 1017 69 10000 0.45 34 10:55 20.04.2021
78 Clear 11 1017 70 10000 0.89 35 10:36 20.04.2021
79 Clear 11 1017 64 10000 2.62 325 10:18 20.04.2021
80 Clear 9 1017 83 10000 2.66 322 09:19 20.04.2021
81 Clear 5 1017 89 10000 2.66 322 08:46 20.04.2021
82 Clouds 6 1017 93 10000 2.63 323 07:59 20.04.2021
83 Clouds 4 1018 91 10000 2.63 323 07:33 20.04.2021
84 Clouds 4 1017 92 10000 2.7 322 05:48 20.04.2021
85 Clouds 4 1017 91 10000 2.7 322 05:30 20.04.2021
86 Clouds 5 1017 91 10000 2.54 336 04:24 20.04.2021
87 Clouds 7 1018 86 10000 2.35 352 00:51 20.04.2021
88 Clouds 8 1018 85 10000 2.31 346 00:20 20.04.2021
89 Clouds 8 1018 84 10000 2.31 346 23:31 19.04.2021
90 Clouds 9 1018 83 10000 2.52 343 22:45 19.04.2021
91 Clouds 9 1018 84 10000 2.98 319 22:26 19.04.2021
92 Clouds 9 1019 84 10000 2.98 319 21:43 19.04.2021
93 Clouds 9 1019 82 10000 3.11 297 21:20 19.04.2021
94 Clouds 10 1019 78 10000 3.11 297 20:41 19.04.2021
95 Clouds 11 1019 75 10000 2.5 319 20:20 19.04.2021
96 Clouds 12 1019 74 10000 2.63 289 19:50 19.04.2021
97 Clouds 13 1019 70 10000 1.89 335 19:27 19.04.2021
98 Clouds 13 1019 70 10000 0.45 35 18:59 19.04.2021
99 Clouds 13 1019 70 10000 0.45 24 18:40 19.04.2021
100 Clouds 14 1019 71 10000 1.82 359 18:19 19.04.2021
101 Clouds 14 1019 71 10000 1.82 359 18:19 19.04.2021
102 Clouds 14 1019 75 10000 1.82 359 17:44 19.04.2021
103 Clouds 13 1019 76 10000 1.93 10 17:24 19.04.2021
104 Clouds 13 1020 84 10000 0.45 27 16:45 19.04.2021
105 Clouds 14 1020 84 10000 2.02 25 16:25 19.04.2021
106 Clouds 16 1014 59 10000 2.02 25 15:43 19.04.2021
107 Rain 11 1020 85 10000 2.24 41 15:24 19.04.2021
108 Rain 11 1021 84 10000 2.24 41 14:52 19.04.2021
109 Rain 12 1021 82 10000 2.24 41 14:31 19.04.2021
110 Clouds 13 1021 83 10000 2.76 58 13:52 19.04.2021
111 Clouds 13 1021 85 10000 2.67 67 13:28 19.04.2021
112 Clouds 13 1021 69 10000 0.45 4 12:48 19.04.2021
113 Clouds 12 1021 74 10000 2.24 358 12:27 19.04.2021
114 Clouds 11 1021 77 10000 2.79 68 11:59 19.04.2021
115 Clouds 10 1021 81 10000 0.89 359 11:39 19.04.2021
116 Clouds 10 1021 79 10000 0.89 29 11:18 19.04.2021
117 Clouds 10 1021 79 10000 0.89 29 11:18 19.04.2021
118 Clouds 10 1021 79 10000 0.89 29 11:18 19.04.2021
119 Clouds 10 1021 81 10000 1.79 327 10:41 19.04.2021
120 Clouds 9 1021 81 10000 1.34 22 10:18 19.04.2021
121 Clouds 9 1021 81 10000 1.34 22 10:18 19.04.2021
122 Clouds 8 1022 83 10000 0.89 347 09:40 19.04.2021
123 Clouds 7 1021 97 10000 0.45 31 09:21 19.04.2021
124 Clouds 7 1021 97 10000 0.89 31 09:21 19.04.2021
125 Clouds 6 1021 97 10000 1.89 60 08:33 19.04.2021
126 Clouds 5 1021 97 10000 1.66 62 07:50 19.04.2021
127 Clouds 6 1021 97 10000 1.3 60 07:21 19.04.2021
128 Clouds 5 1021 97 10000 1.3 60 06:47 19.04.2021
129 Clouds 5 1021 96 10000 1.08 79 04:21 19.04.2021
130 Clouds 7 1021 94 10000 1.65 101 01:49 19.04.2021
131 Clouds 8 1021 94 10000 1.48 93 00:34 19.04.2021
132 Clouds 8 1021 93 10000 1.5 31 23:21 18.04.2021
133 Clouds 8 1021 92 10000 1.5 31 22:57 18.04.2021
134 Clouds 9 1021 92 10000 1.5 31 22:31 18.04.2021
135 Clouds 9 1021 92 10000 2.04 8 21:51 18.04.2021
136 Clouds 9 1021 91 10000 2.41 360 21:28 18.04.2021
137 Clouds 9 1020 88 10000 2.24 2 20:43 18.04.2021
138 Clouds 9 1020 88 10000 2.68 4 20:25 18.04.2021
139 Clouds 9 1020 87 10000 0.45 328 19:56 18.04.2021
140 Clouds 9 1020 87 10000 0.89 23 19:38 18.04.2021
141 Clouds 9 1020 86 10000 1.79 46 19:18 18.04.2021
142 Clouds 10 1020 87 10000 0.89 337 18:44 18.04.2021
143 Clouds 10 1020 87 10000 3.49 6 18:25 18.04.2021
144 Clouds 10 1020 86 10000 1.34 35 17:45 18.04.2021
145 Clouds 10 1020 86 10000 3.61 18 17:27 18.04.2021
146 Clouds 10 1020 85 10000 2.24 14 16:45 18.04.2021
147 Clouds 10 1020 86 10000 2.24 11 16:24 18.04.2021
148 Clouds 11 1020 91 10000 1.34 2 15:43 18.04.2021
149 Clouds 11 1020 93 10000 1.34 287 15:25 18.04.2021
150 Rain 10 1020 93 10000 3.08 23 14:52 18.04.2021
151 Rain 10 1027 99 9436 4.01 28 14:23 18.04.2021
152 Rain 13 1019 70 9436 0.89 335 13:55 18.04.2021
153 Rain 10 1027 99 9436 4.01 28 13:34 18.04.2021
154 Rain 10 1021 82 10000 0.45 98 12:50 18.04.2021
155 Clouds 12 1021 72 10000 0.89 296 12:28 18.04.2021
156 Clouds 11 1021 71 10000 2.24 7 11:43 18.04.2021
157 Clouds 11 1021 73 10000 4.47 347 11:21 18.04.2021
158 Clouds 10 1021 72 10000 2.24 22 10:48 18.04.2021
159 Clouds 10 1021 75 10000 3.13 296 10:23 18.04.2021
160 Clouds 9 1021 76 10000 2.24 337 09:53 18.04.2021
161 Clouds 9 1021 76 10000 2.24 337 09:53 18.04.2021
162 Clouds 10 1021 74 10000 0.89 348 09:34 18.04.2021
163 Clouds 8 1021 77 10000 1.34 306 08:57 18.04.2021
164 Clouds 8 1021 79 10000 1.79 5 08:35 18.04.2021
165 Clouds 7 1021 83 10000 1.91 14 07:59 18.04.2021
166 Clouds 6 1021 84 10000 0.45 343 07:38 18.04.2021
167 Clouds 7 1021 84 10000 1.79 351 05:43 18.04.2021
168 Clouds 7 1021 84 10000 2.68 331 05:24 18.04.2021
169 Clouds 8 1021 86 10000 0.89 311 02:56 18.04.2021
170 Clouds 8 1021 87 10000 0.89 354 02:22 18.04.2021
171 Clouds 8 1021 75 10000 0.45 323 00:40 18.04.2021
172 Clouds 9 1021 72 10000 2.24 320 23:39 17.04.2021
173 Clouds 9 1021 69 10000 0.45 331 22:52 17.04.2021
174 Clouds 9 1021 72 10000 2.93 330 22:31 17.04.2021
175 Clouds 8 1015 71 10000 2.93 330 21:50 17.04.2021
176 Clouds 9 1015 68 10000 2.93 330 21:31 17.04.2021
177 Clouds 9 1015 65 10000 2.76 322 20:59 17.04.2021
178 Clouds 10 1015 62 10000 2.67 342 20:28 17.04.2021
179 Clouds 10 1021 70 10000 2.67 342 19:46 17.04.2021
180 Clouds 10 1021 67 10000 3.02 1 19:22 17.04.2021
181 Clouds 11 1021 66 10000 3.02 1 18:57 17.04.2021
182 Clouds 13 1015 52 10000 3.02 1 18:36 17.04.2021
183 Clouds 12 1021 56 10000 3.98 23 17:58 17.04.2021
184 Clouds 13 1021 53 10000 3.98 23 17:39 17.04.2021
185 Clouds 13 1021 52 10000 4.18 31 16:54 17.04.2021
186 Clouds 13 1021 53 10000 3.8 29 16:28 17.04.2021
187 Clouds 13 1021 51 10000 3.81 29 15:53 17.04.2021
188 Clouds 11 1022 65 10000 1.34 57 14:51 17.04.2021
189 Clouds 11 1022 64 10000 0.89 64 14:32 17.04.2021
190 Clouds 11 1022 51 10000 1.79 290 13:49 17.04.2021
191 Clouds 11 1022 51 10000 4.02 15 13:25 17.04.2021
192 Clouds 9 1022 54 10000 1.79 40 12:42 17.04.2021
193 Clouds 9 1022 56 10000 2.24 23 12:20 17.04.2021
194 Clouds 8 1022 56 10000 1.34 316 11:45 17.04.2021
195 Clouds 8 1017 53 10000 4.39 347 11:27 17.04.2021
196 Clouds 8 1023 62 10000 1.79 256 10:45 17.04.2021
197 Clouds 8 1017 57 10000 4.34 335 10:26 17.04.2021
198 Clouds 7 1017 62 10000 4.34 335 09:39 17.04.2021
199 Clouds 6 1017 66 10000 3.98 317 08:41 17.04.2021
200 Clouds 6 1017 66 10000 3.24 356 08:21 17.04.2021
201 Clouds 5 1024 85 10000 3.18 347 06:47 17.04.2021
202 Rain 5 1024 63 10000 0.45 282 03:55 17.04.2021
203 Rain 5 1024 64 10000 0.45 321 03:37 17.04.2021
204 Clouds 3 1025 60 10000 0.45 302 00:48 17.04.2021
205 Clouds 1 1020 68 10000 3.09 345 00:27 17.04.2021
206 Clouds 3 1020 58 10000 3.09 345 23:46 16.04.2021
207 Clouds 5 1019 51 10000 3.32 346 23:24 16.04.2021
208 Clouds 2 1025 79 10000 3.32 346 22:46 16.04.2021
209 Clouds 3 1025 76 10000 3.53 339 22:21 16.04.2021
210 Clouds 3 1025 76 10000 3.52 339 21:50 16.04.2021
211 Clouds 3 1025 76 10000 3.52 339 21:30 16.04.2021
212 Clouds 8 1019 45 10000 3.56 339 20:50 16.04.2021
213 Clouds 8 1019 44 10000 3.96 349 20:24 16.04.2021
214 Clouds 5 1025 66 10000 3.95 349 19:52 16.04.2021
215 Clouds 10 1024 45 10000 2.24 316 19:29 16.04.2021
216 Clouds 10 1024 42 10000 4.02 337 18:40 16.04.2021
217 Clouds 11 1024 40 10000 1.34 350 18:19 16.04.2021
218 Clouds 11 1024 40 10000 4.02 304 17:38 16.04.2021
219 Clouds 12 1024 40 10000 3.58 5 17:19 16.04.2021
220 Clouds 12 1024 41 10000 1.34 266 16:42 16.04.2021
221 Clouds 12 1024 37 10000 4.92 49 16:23 16.04.2021
222 Clouds 12 1025 39 10000 3.58 1 15:45 16.04.2021
223 Clouds 12 1025 38 10000 2.68 14 15:20 16.04.2021
224 Clouds 12 1025 39 10000 5.36 359 14:42 16.04.2021
225 Clouds 12 1025 42 10000 4.92 358 14:19 16.04.2021
226 Clouds 12 1025 40 10000 4.47 64 13:45 16.04.2021
227 Clouds 11 1025 45 10000 3.58 359 13:20 16.04.2021
228 Clouds 11 1026 44 10000 3.13 309 12:47 16.04.2021
229 Clouds 11 1026 46 10000 3.13 316 12:27 16.04.2021
230 Clouds 10 1026 48 10000 3.58 265 11:52 16.04.2021
231 Clouds 9 1024 54 10000 0.89 1 11:27 16.04.2021
232 Clouds 9 1026 50 10000 4.31 5 10:55 16.04.2021
233 Clouds 8 1026 53 10000 5.81 348 10:35 16.04.2021
234 Clouds 7 1026 57 10000 4.47 2 09:53 16.04.2021
235 Clouds 6 1026 58 10000 2.68 347 09:25 16.04.2021
236 Clouds 6 1026 57 10000 3.13 321 08:55 16.04.2021
237 Clouds 6 1026 59 10000 1.79 319 08:36 16.04.2021
238 Clouds 4 1020 61 10000 4.01 358 08:18 16.04.2021
239 Clouds 5 1026 64 10000 0.89 285 07:35 16.04.2021
240 Clouds 5 1026 64 10000 0.89 285 07:35 16.04.2021
241 Clouds 4 1026 65 10000 1.79 343 06:58 16.04.2021
242 Rain 4 1026 65 10000 4.92 319 05:34 16.04.2021
243 Clouds 4 1026 65 10000 1.79 333 04:21 16.04.2021
244 Clouds 4 1027 72 10000 5.36 303 00:59 16.04.2021
245 Clouds 4 1027 72 10000 5.81 320 00:41 16.04.2021
246 Clouds 4 1028 70 10000 1.79 347 00:19 16.04.2021
247 Clouds 4 1028 63 10000 1.34 53 23:41 15.04.2021
248 Clouds 4 1028 59 10000 3.13 5 23:23 15.04.2021
249 Rain 5 1022 49 10000 3.52 354 22:40 15.04.2021
250 Clouds 6 1027 42 10000 5.36 359 22:21 15.04.2021
251 Clouds 6 1027 50 10000 2.68 8 21:42 15.04.2021
252 Clouds 6 1022 49 10000 3.97 357 21:22 15.04.2021
253 Clouds 6 1022 55 10000 3.97 357 20:45 15.04.2021
254 Clouds 7 1027 54 10000 1.79 5 20:25 15.04.2021
255 Clouds 7 1027 54 10000 1.79 302 19:47 15.04.2021
256 Clouds 7 1027 53 10000 3.13 337 19:27 15.04.2021
257 Clouds 8 1027 47 10000 4.92 1 18:44 15.04.2021
258 Clouds 8 1027 49 10000 4.92 307 18:21 15.04.2021
259 Rain 9 1027 47 10000 2.24 11 17:55 15.04.2021
260 Clouds 9 1028 46 10000 2.68 29 17:37 15.04.2021
261 Rain 9 1028 45 10000 0.89 16 17:18 15.04.2021
262 Rain 9 1028 43 10000 3.58 311 16:42 15.04.2021
263 Rain 9 1028 45 10000 6.26 338 16:22 15.04.2021
264 Clouds 9 1028 42 10000 8.94 324 15:46 15.04.2021
265 Clouds 10 1028 41 10000 6.26 350 15:26 15.04.2021
266 Clouds 10 1029 41 10000 0.45 359 14:42 15.04.2021
267 Clouds 10 1029 38 10000 4.47 352 14:24 15.04.2021
268 Clouds 9 1029 41 10000 5.36 248 13:48 15.04.2021
269 Clouds 9 1029 41 10000 5.36 314 13:23 15.04.2021
270 Clouds 10 1029 42 10000 4.02 341 12:47 15.04.2021
271 Clouds 9 1029 42 10000 3.58 358 12:26 15.04.2021
272 Clouds 9 1030 45 10000 1.79 12 11:47 15.04.2021
273 Clouds 8 1030 50 10000 3.13 343 11:26 15.04.2021
274 Clouds 8 1030 55 10000 4.92 330 10:58 15.04.2021
275 Clouds 7 1030 57 10000 1.34 262 10:34 15.04.2021
276 Clouds 6 1030 57 10000 2.68 350 09:56 15.04.2021
277 Clouds 4 1024 73 10000 4 352 09:29 15.04.2021
278 Clouds 4 1030 62 10000 2.68 345 08:52 15.04.2021
279 Clouds 2 1024 83 10000 3.14 344 08:29 15.04.2021
280 Clouds 1 1030 81 10000 3.14 344 07:33 15.04.2021
281 Clouds -1 1029 86 10000 1.34 279 06:56 15.04.2021
282 Clouds -1 1029 87 10000 2.39 340 06:33 15.04.2021
283 Clouds -1 1029 87 10000 2.43 3 04:54 15.04.2021
284 Clouds 0 1029 85 10000 1.34 300 03:58 15.04.2021
285 Clouds 3 1028 77 10000 2.68 324 23:59 14.04.2021
286 Clouds 3 1028 78 10000 1.79 8 23:32 14.04.2021
287 Clouds 2 1028 80 10000 1.79 314 22:57 14.04.2021
288 Clouds 3 1028 80 10000 1.34 299 22:37 14.04.2021
289 Clouds 3 1028 80 10000 2.68 272 22:19 14.04.2021
290 Clouds 3 1028 80 10000 0.89 203 21:40 14.04.2021
291 Clouds 4 1027 80 10000 1.79 283 21:22 14.04.2021
292 Clouds 4 1027 77 10000 1.34 307 20:39 14.04.2021
293 Clouds 5 1027 76 10000 1.34 289 20:20 14.04.2021
294 Clouds 6 1027 78 10000 2.59 26 19:44 14.04.2021
295 Clouds 8 1027 75 10000 3.88 28 19:19 14.04.2021
296 Clouds 8 1027 73 10000 3.88 28 18:50 14.04.2021
297 Clouds 8 1027 68 10000 1.79 1 18:19 14.04.2021
298 Clouds 9 1027 50 10000 2.68 63 17:55 14.04.2021
299 Clouds 9 1027 50 10000 2.68 314 17:24 14.04.2021
300 Clouds 8 1027 56 10000 3.13 314 16:46 14.04.2021
301 Clouds 9 1027 51 10000 3.13 321 16:22 14.04.2021
302 Clouds 8 1028 61 10000 1.79 227 15:41 14.04.2021
303 Clouds 8 1028 61 10000 4.31 333 15:22 14.04.2021
304 Clouds 8 1022 44 10000 4.31 333 14:44 14.04.2021
305 Clouds 10 1028 50 10000 2.68 341 14:23 14.04.2021
306 Clouds 8 1028 49 10000 0.89 265 13:53 14.04.2021
307 Clouds 8 1029 55 10000 4.92 313 13:00 14.04.2021
308 Clouds 7 1029 59 10000 0.89 345 12:36 14.04.2021
309 Clouds 7 1029 59 10000 0.89 345 12:36 14.04.2021
310 Clouds 7 1029 54 10000 2.68 326 11:43 14.04.2021
311 Clouds 8 1029 53 10000 2.68 19 11:24 14.04.2021
312 Clouds 7 1030 62 10000 0.45 359 10:35 14.04.2021
313 Clouds 7 1024 57 10000 4.17 323 09:59 14.04.2021
314 Clouds 7 1030 64 10000 1.79 287 09:41 14.04.2021
315 Clouds 6 1024 69 10000 4.01 316 09:20 14.04.2021
316 Clear 3 1024 87 10000 4.1 313 08:34 14.04.2021
317 Clouds 0 1024 100 10000 3.96 302 07:58 14.04.2021
318 Clouds -1 1030 92 10000 3.31 290 06:48 14.04.2021
319 Clouds 0 1029 91 10000 3.16 290 06:23 14.04.2021
320 Clouds 0 1029 92 10000 3.18 290 04:34 14.04.2021
321 Clouds 1 1029 89 10000 1.79 309 01:42 14.04.2021
322 Clouds 1 1029 89 10000 1.79 309 01:42 14.04.2021
323 Clouds 1 1029 89 10000 1.79 309 01:42 14.04.2021
324 Clouds 1 1029 88 10000 3.41 294 00:37 14.04.2021
325 Clouds 3 1029 84 10000 1.79 258 23:46 13.04.2021
326 Clouds 3 1029 84 10000 3.58 271 23:27 13.04.2021
327 Clouds 3 1029 85 10000 1.34 297 22:42 13.04.2021
328 Clouds 3 1029 84 10000 1.79 310 22:19 13.04.2021
329 Clouds 3 1029 84 10000 2.24 300 21:45 13.04.2021
330 Clouds 4 1029 86 10000 2.24 273 21:27 13.04.2021
331 Clouds 4 1029 89 10000 3.25 303 20:42 13.04.2021
332 Clouds 5 1029 88 10000 3.8 313 20:21 13.04.2021
333 Rain 6 1023 68 10000 3.8 313 19:48 13.04.2021
334 Clouds 7 1028 61 10000 5.63 311 19:24 13.04.2021
335 Clouds 7 1028 64 10000 3.13 338 18:44 13.04.2021
336 Rain 8 1028 55 10000 1.79 151 18:23 13.04.2021
337 Clouds 9 1028 48 10000 5.81 314 17:37 13.04.2021
338 Clouds 10 1028 50 10000 9.83 293 17:18 13.04.2021
339 Clouds 11 1028 48 10000 0.45 295 16:44 13.04.2021
340 Clouds 11 1028 46 10000 4.02 311 16:21 13.04.2021
341 Clouds 11 1028 43 10000 1.79 273 15:50 13.04.2021
342 Clouds 12 1029 40 10000 5.56 301 15:30 13.04.2021
343 Clouds 11 1029 47 10000 1.79 303 14:47 13.04.2021
344 Clouds 11 1029 43 10000 1.79 333 14:20 13.04.2021
345 Clouds 11 1029 47 10000 5.36 333 13:45 13.04.2021
346 Clouds 10 1029 49 10000 1.79 321 13:24 13.04.2021
347 Clouds 10 1029 54 10000 0.45 258 12:57 13.04.2021
348 Clouds 9 1030 56 10000 3.58 314 12:30 13.04.2021
349 Clouds 8 1030 57 10000 4.47 335 11:58 13.04.2021
350 Clouds 9 1030 61 10000 4.02 333 11:31 13.04.2021
351 Clouds 8 1030 63 10000 1.79 187 10:55 13.04.2021
352 Clouds 6 1024 69 10000 5.57 291 10:24 13.04.2021
353 Clouds 6 1024 68 10000 5.57 291 09:59 13.04.2021
354 Clouds 4 1024 77 10000 5.57 291 09:39 13.04.2021
355 Clouds 4 1024 78 10000 5.54 283 09:18 13.04.2021
356 Clouds 4 1030 71 10000 1.79 261 08:41 13.04.2021
357 Clouds 4 1030 71 10000 1.79 261 08:41 13.04.2021
358 Clouds 0 1024 100 10000 4.47 267 08:20 13.04.2021
359 Clouds 2 1030 83 10000 2.68 262 07:36 13.04.2021
360 Clouds -1 1029 91 10000 2.24 258 06:31 13.04.2021
361 Clouds -1 1029 89 10000 0.45 175 04:52 13.04.2021
362 Clouds -1 1029 89 10000 1.34 258 02:41 13.04.2021
363 Clouds 0 1028 88 10000 1.34 249 00:39 13.04.2021
364 Clouds 1 1028 87 10000 0.89 232 23:49 12.04.2021
365 Clouds 1 1028 87 10000 3.24 271 23:27 12.04.2021
366 Clouds 2 1027 84 10000 0.89 251 22:39 12.04.2021
367 Clouds 2 1027 83 10000 3.21 270 22:18 12.04.2021
368 Clouds 3 1027 84 10000 1.34 247 21:46 12.04.2021
369 Clouds 3 1027 83 10000 3.34 274 21:20 12.04.2021
370 Clouds 5 1027 76 10000 1.79 295 20:41 12.04.2021
371 Clouds 5 1026 76 10000 3.13 285 20:23 12.04.2021
372 Clouds 6 1026 77 10000 0.89 286 19:57 12.04.2021
373 Clouds 6 1026 75 10000 0.89 292 19:38 12.04.2021
374 Clouds 7 1026 73 10000 1.34 293 19:19 12.04.2021
375 Clouds 8 1026 81 10000 0.89 328 18:44 12.04.2021
376 Clouds 9 1025 55 10000 1.34 335 18:25 12.04.2021
377 Clouds 11 1019 34 10000 4.26 286 17:44 12.04.2021
378 Clouds 11 1025 43 10000 1.79 251 17:24 12.04.2021
379 Clouds 10 1025 47 10000 5.47 287 16:47 12.04.2021
380 Clouds 9 1025 50 10000 0.45 303 16:27 12.04.2021
381 Clouds 10 1025 46 10000 3.13 292 15:49 12.04.2021
382 Clouds 9 1019 50 10000 4.57 286 15:31 12.04.2021
383 Clouds 10 1025 47 10000 0.89 275 14:53 12.04.2021
384 Clouds 10 1025 48 10000 0.89 330 14:35 12.04.2021
385 Clouds 9 1025 50 10000 4.92 278 13:53 12.04.2021
386 Clouds 9 1025 49 10000 2.24 252 13:31 12.04.2021
387 Clouds 9 1025 50 10000 6.26 307 12:56 12.04.2021
388 Clouds 8 1025 56 10000 3.13 276 12:36 12.04.2021
389 Clouds 8 1025 56 10000 4.02 271 12:18 12.04.2021
390 Rain 7 1025 63 10000 3.58 299 11:25 12.04.2021
391 Clouds 7 1024 68 10000 2.24 290 10:49 12.04.2021
392 Clouds 6 1024 69 10000 2.24 302 10:27 12.04.2021
393 Rain 6 1024 70 10000 2.68 290 09:51 12.04.2021
394 Rain 6 1024 70 10000 2.68 290 09:51 12.04.2021
395 Clouds 5 1024 75 10000 1.79 319 09:23 12.04.2021
396 Clouds 4 1023 83 10000 4.02 292 08:44 12.04.2021
397 Rain 3 1022 87 10000 2.68 271 07:45 12.04.2021
398 Rain 3 1022 87 10000 1.34 314 07:22 12.04.2021
399 Rain 3 1021 89 10000 1.34 296 06:28 12.04.2021
400 Rain 3 1020 90 10000 1.79 263 05:45 12.04.2021
401 Clouds 3 1019 93 10000 2.24 295 02:26 12.04.2021
402 Rain 3 1017 93 10000 2.68 295 00:27 12.04.2021
403 Rain 3 1017 93 10000 2.68 259 23:54 11.04.2021
404 Rain 3 1017 93 10000 3.58 310 23:32 11.04.2021
405 Rain 3 1016 92 10000 4.94 298 22:50 11.04.2021
406 Rain 4 1016 91 3388 4.02 273 22:28 11.04.2021
407 Rain 4 1015 91 3388 5.81 279 21:59 11.04.2021
408 Clouds 4 1015 88 3388 1.34 295 21:39 11.04.2021
409 Clouds 5 1015 89 10000 5.36 285 21:20 11.04.2021
410 Clouds 5 1014 94 4950 1.34 245 20:42 11.04.2021
411 Clouds 5 1013 94 10000 2.68 290 20:23 11.04.2021
412 Rain 6 1012 83 10000 4.47 293 19:41 11.04.2021
413 Rain 7 1012 82 10000 3.58 285 19:20 11.04.2021
414 Rain 7 1012 80 10000 1.34 227 18:55 11.04.2021
415 Clouds 7 1011 78 10000 3.13 290 18:37 11.04.2021
416 Clouds 8 1011 77 10000 6.26 292 18:18 11.04.2021
417 Clouds 10 1010 74 10000 9.83 287 17:40 11.04.2021
418 Clouds 14 1010 73 10000 3.13 304 17:19 11.04.2021
419 Clouds 15 1008 50 10000 1.79 128 16:41 11.04.2021
420 Clouds 17 1009 57 10000 4.02 285 16:20 11.04.2021
421 Clouds 17 1009 56 10000 0.89 286 15:45 11.04.2021
422 Clouds 17 1009 58 10000 1.79 237 15:24 11.04.2021
423 Clouds 18 1009 54 10000 2.68 319 14:51 11.04.2021
424 Clouds 18 1009 54 10000 2.68 319 14:51 11.04.2021
425 Clouds 18 1009 53 10000 2.24 259 14:22 11.04.2021
426 Clouds 17 1008 57 10000 0.89 263 13:44 11.04.2021
427 Clouds 18 1009 56 10000 5.81 244 13:26 11.04.2021
428 Clouds 19 1008 53 10000 4.02 204 12:41 11.04.2021
429 Clouds 16 1002 69 10000 3.96 219 12:20 11.04.2021
430 Clouds 16 1008 61 10000 0.89 129 11:48 11.04.2021
431 Clouds 15 1009 62 10000 0.89 302 11:21 11.04.2021
432 Clouds 12 1003 87 10000 3.19 203 10:47 11.04.2021
433 Clouds 11 1003 96 10000 3.29 188 10:23 11.04.2021
434 Clouds 13 1009 75 10000 1.34 140 09:51 11.04.2021
435 Clouds 11 1009 86 10000 0.45 112 09:30 11.04.2021
436 Rain 11 1009 91 10000 0.89 88 08:40 11.04.2021
437 Rain 8 1009 93 10000 0.45 87 07:59 11.04.2021
438 Rain 8 1009 93 10000 3.76 184 07:21 11.04.2021
439 Rain 8 1009 93 10000 1.34 155 05:59 11.04.2021
440 Clouds 7 1009 93 10000 3.13 146 05:37 11.04.2021
441 Clouds 8 1010 94 10000 0.89 136 05:18 11.04.2021
442 Clouds 7 1010 94 10000 3.13 165 04:33 11.04.2021
443 Rain 7 1012 94 10000 0.89 91 01:40 11.04.2021
444 Rain 7 1013 94 10000 0.89 142 00:33 11.04.2021
445 Rain 7 1013 94 10000 4.47 105 23:47 10.04.2021
446 Rain 7 1013 93 8902 1.34 94 22:59 10.04.2021
447 Rain 7 1014 93 8902 0.89 70 22:31 10.04.2021
448 Rain 8 1014 92 10000 2.24 101 21:57 10.04.2021
449 Rain 8 1014 92 10000 2.24 101 21:57 10.04.2021
450 Rain 8 1014 89 10000 2.68 105 21:37 10.04.2021
451 Rain 8 1014 87 8597 1.79 111 21:19 10.04.2021
452 Rain 8 1014 85 8597 2.68 62 20:41 10.04.2021
453 Rain 8 1015 84 10000 3.13 125 20:22 10.04.2021
454 Rain 8 1015 81 10000 1.34 142 19:43 10.04.2021
455 Rain 8 1015 79 10000 1.79 102 19:25 10.04.2021
456 Clouds 8 1015 80 10000 1.34 145 18:44 10.04.2021
457 Clouds 8 1016 80 10000 1.34 96 18:25 10.04.2021
458 Clouds 9 1016 78 10000 0.89 158 17:37 10.04.2021
459 Clouds 9 1016 76 10000 1.79 46 16:57 10.04.2021
460 Clouds 9 1016 76 10000 0.89 95 16:26 10.04.2021
461 Clouds 9 1016 77 10000 0.89 155 15:53 10.04.2021
462 Clouds 9 1017 81 10000 0.45 160 15:19 10.04.2021
463 Clouds 9 1017 82 10000 2.38 65 14:41 10.04.2021
464 Clouds 8 1017 85 10000 0.45 134 14:18 10.04.2021
465 Clouds 8 1017 86 10000 0.45 143 13:40 10.04.2021
466 Clouds 8 1016 85 10000 2.77 45 12:49 10.04.2021
467 Clouds 8 1016 87 10000 3.02 36 12:28 10.04.2021
468 Clouds 8 1016 90 10000 3.02 36 11:47 10.04.2021
469 Clouds 7 1016 92 10000 3.11 27 11:25 10.04.2021
470 Clouds 7 1016 92 10000 3.11 27 11:25 10.04.2021
471 Clouds 7 1016 93 10000 3.11 27 10:52 10.04.2021
472 Clouds 8 1016 79 10000 5.36 340 10:31 10.04.2021
473 Clouds 7 1016 85 10000 2.68 39 09:48 10.04.2021
474 Clouds 6 1016 87 10000 2.24 7 09:20 10.04.2021
475 Clouds 6 1015 88 10000 1.79 338 08:47 10.04.2021
476 Clouds 6 1015 90 10000 3.58 5 08:28 10.04.2021
477 Clouds 6 1015 91 10000 3.36 23 07:38 10.04.2021
478 Rain 6 1014 91 10000 1.34 333 07:19 10.04.2021
479 Rain 6 1014 92 10000 2.9 16 06:24 10.04.2021
480 Rain 7 1013 75 10000 2.22 40 03:49 10.04.2021
481 Clouds 6 1013 77 10000 0.89 303 02:51 10.04.2021
482 Clouds 6 1013 77 10000 1.54 22 02:33 10.04.2021
483 Clouds 7 1013 72 10000 1.58 317 00:44 10.04.2021
484 Clouds 7 1013 72 10000 1.81 263 00:25 10.04.2021
485 Clouds 7 1013 72 10000 1.81 263 23:42 09.04.2021
486 Clouds 7 1013 70 10000 2.56 240 22:59 09.04.2021
487 Clouds 8 1013 68 10000 2.56 240 22:38 09.04.2021
488 Clouds 8 1013 68 10000 2.56 240 22:38 09.04.2021
489 Clouds 8 1013 65 10000 2.96 239 21:59 09.04.2021
490 Clouds 9 1013 63 10000 2.96 239 21:38 09.04.2021
491 Clouds 10 1014 61 10000 2.9 244 21:19 09.04.2021
492 Clouds 10 1011 59 10000 0.89 255 20:44 09.04.2021
493 Clouds 11 1013 57 10000 2.91 250 20:23 09.04.2021
494 Clouds 11 1011 55 10000 1.34 213 19:56 09.04.2021
495 Clouds 8 1013 73 10000 2.91 250 19:37 09.04.2021
496 Clouds 12 1013 49 10000 0.45 254 19:19 09.04.2021
497 Clouds 13 1013 45 10000 2.68 278 18:41 09.04.2021
498 Clouds 13 1013 44 10000 1.79 279 18:19 09.04.2021
499 Clouds 14 1013 41 10000 2.68 248 17:40 09.04.2021
500 Clouds 14 1013 43 10000 2.68 278 16:57 09.04.2021
501 Clouds 14 1013 44 10000 3.58 278 16:38 09.04.2021
502 Clouds 13 1013 45 10000 4.02 280 15:57 09.04.2021
503 Clouds 13 1013 45 10000 4.02 290 15:38 09.04.2021
504 Clouds 15 1013 38 10000 0.89 241 15:19 09.04.2021
505 Clouds 15 1014 35 10000 7.15 262 14:41 09.04.2021
506 Clouds 14 1014 37 10000 3.58 247 13:57 09.04.2021
507 Clouds 13 1015 48 10000 2.68 265 13:38 09.04.2021
508 Clouds 12 1015 48 10000 4.02 323 13:19 09.04.2021
509 Clouds 14 1015 40 10000 2.68 193 12:39 09.04.2021
510 Clouds 12 1015 45 10000 0.45 145 11:47 09.04.2021
511 Clouds 10 1016 53 10000 3.58 285 11:23 09.04.2021
512 Clouds 11 1015 45 10000 6.26 223 10:49 09.04.2021
513 Clouds 8 1016 56 10000 4.92 249 10:30 09.04.2021
514 Clouds 8 1016 53 10000 3.13 224 09:51 09.04.2021
515 Clouds 8 1016 51 10000 3.13 213 09:26 09.04.2021
516 Clouds 8 1016 51 10000 7.6 177 08:54 09.04.2021
517 Clouds 6 1016 60 10000 1.34 146 08:22 09.04.2021
518 Clouds 3 1016 71 10000 3.58 196 07:21 09.04.2021
519 Clouds 1 1017 78 10000 3.13 173 06:21 09.04.2021
520 Clouds 1 1018 79 10000 4.81 195 03:54 09.04.2021
521 Clouds 1 1019 78 10000 0.89 100 03:30 09.04.2021
522 Clouds 2 1020 76 10000 0.45 139 00:38 09.04.2021
523 Clouds 2 1020 75 10000 1.79 228 00:20 09.04.2021
524 Clouds 3 1021 74 10000 0.45 206 23:30 08.04.2021
525 Clouds 3 1021 72 10000 0.45 348 22:47 08.04.2021
526 Clouds 3 1021 71 10000 3.8 208 22:27 08.04.2021
527 Clouds 4 1021 68 10000 3.13 199 21:58 08.04.2021
528 Clouds 4 1021 68 10000 3.8 208 21:38 08.04.2021
529 Clouds 4 1021 68 10000 3.54 210 21:20 08.04.2021
530 Clouds 5 1021 67 10000 3.54 210 20:54 08.04.2021
531 Clouds 5 1021 59 10000 0.89 240 20:34 08.04.2021
532 Clouds 6 1021 61 10000 1.34 223 19:57 08.04.2021
533 Clouds 6 1022 58 10000 2.24 272 19:25 08.04.2021
534 Clouds 7 1022 56 10000 1.79 287 18:57 08.04.2021
535 Clouds 7 1022 54 10000 4.92 254 18:38 08.04.2021
536 Clouds 7 1022 53 10000 3.13 255 18:19 08.04.2021
537 Clouds 7 1022 53 10000 5.3 263 17:40 08.04.2021
538 Clouds 8 1022 51 10000 2.24 265 17:18 08.04.2021
539 Clouds 8 1022 49 10000 2.24 279 16:43 08.04.2021
540 Clouds 8 1022 51 10000 3.13 285 16:22 08.04.2021
541 Clouds 8 1022 49 10000 8.49 261 15:43 08.04.2021
542 Clouds 8 1022 52 10000 4.02 262 15:23 08.04.2021
543 Clouds 8 1023 54 10000 6.45 275 14:40 08.04.2021
544 Clouds 8 1022 54 10000 4.02 310 14:20 08.04.2021
545 Clouds 7 1023 63 10000 4.47 272 13:46 08.04.2021
546 Clouds 8 1022 57 10000 8.49 258 13:23 08.04.2021
547 Clouds 8 1022 55 10000 4.92 153 12:53 08.04.2021
548 Clouds 8 1022 57 10000 1.34 280 12:33 08.04.2021
549 Clouds 7 1022 58 10000 5.81 310 11:57 08.04.2021
550 Clouds 7 1022 60 10000 2.24 272 11:25 08.04.2021
551 Clouds 8 1022 58 10000 1.34 299 10:51 08.04.2021
552 Clouds 6 1022 64 10000 4.02 263 10:25 08.04.2021
553 Clouds 6 1022 64 10000 4.02 263 10:25 08.04.2021
554 Clouds 4 1022 76 10000 2.68 328 09:44 08.04.2021
555 Clouds 4 1021 78 10000 3.13 248 09:25 08.04.2021
556 Clouds 5 1021 70 10000 5.36 311 08:40 08.04.2021
557 Clouds 3 1020 83 10000 2.24 20 08:22 08.04.2021
558 Clouds 3 1020 81 10000 1.34 248 07:43 08.04.2021
559 Clouds 2 1018 83 10000 3.13 290 05:45 08.04.2021
560 Clouds 2 1016 81 10000 2.68 293 01:25 08.04.2021
561 Clouds 3 1015 82 10000 1.79 271 00:32 08.04.2021
562 Clouds 3 1015 83 10000 2.24 265 23:48 07.04.2021
563 Clouds 3 1014 84 10000 1.34 262 23:27 07.04.2021
564 Clouds 2 1014 86 10000 3.13 310 22:58 07.04.2021
565 Clouds 2 1014 86 10000 1.34 299 22:39 07.04.2021
566 Clouds 2 1013 86 10000 1.79 302 22:20 07.04.2021
567 Clouds 2 1013 89 10000 4.02 251 21:34 07.04.2021
568 Clouds 2 1013 89 10000 4.02 251 21:34 07.04.2021
569 Clouds 2 1013 88 10000 3.58 255 20:56 07.04.2021
570 Rain 3 1012 86 10000 5.81 263 20:37 07.04.2021
571 Clouds 3 1012 84 10000 2.24 286 20:19 07.04.2021
572 Clouds 5 1012 83 10000 3.58 310 19:40 07.04.2021
573 Clouds 4 1011 84 10000 3.13 237 19:22 07.04.2021
574 Clouds 5 1011 78 10000 4.02 314 18:42 07.04.2021
575 Rain 5 1011 77 10000 1.34 237 18:18 07.04.2021
576 Rain 5 1011 73 10000 5.81 255 17:48 07.04.2021
577 Clouds 5 1011 71 10000 3.13 247 17:30 07.04.2021
578 Rain 6 1011 66 10000 3.13 241 16:47 07.04.2021
579 Clouds 7 1011 54 10000 1.79 310 16:21 07.04.2021
580 Clouds 7 1011 53 10000 2.24 343 15:56 07.04.2021
581 Clouds 7 1011 57 10000 4.02 278 15:38 07.04.2021
582 Clouds 6 1011 56 10000 5.36 303 14:50 07.04.2021
583 Clouds 6 1011 54 10000 4.92 310 14:25 07.04.2021
584 Clouds 6 1011 55 10000 4.92 239 13:46 07.04.2021
585 Clouds 6 1011 56 10000 6.71 242 13:21 07.04.2021
586 Clouds 6 1012 56 10000 2.68 220 12:48 07.04.2021
587 Clouds 6 1012 54 10000 6.71 245 12:21 07.04.2021
588 Clouds 5 1011 52 10000 4.92 278 11:45 07.04.2021
589 Clouds 3 1006 62 10000 7.27 270 11:24 07.04.2021
590 Clouds 5 1011 56 10000 4.92 314 10:51 07.04.2021
591 Clouds 4 1011 56 10000 4.47 251 09:56 07.04.2021
592 Clouds 2 1005 69 10000 6.88 273 09:37 07.04.2021
593 Clouds 2 1005 70 10000 6.53 269 09:19 07.04.2021
594 Clouds 2 1005 75 10000 6.31 269 08:33 07.04.2021
595 Clouds 2 1011 78 10000 3.13 251 07:57 07.04.2021
596 Clouds 0 1004 83 10000 5.67 277 07:29 07.04.2021
597 Clouds 0 1004 84 10000 5.67 277 06:59 07.04.2021
598 Clouds 0 1004 85 10000 5.78 280 06:21 07.04.2021
599 Clouds 1 1008 87 10000 3.58 323 03:54 07.04.2021
600 Clouds 1 1007 87 10000 2.68 316 00:19 07.04.2021
601 Clouds 1 1007 85 10000 2.68 258 23:42 06.04.2021
602 Clouds 1 1007 85 10000 4.47 287 23:18 06.04.2021
603 Clouds 1 1006 87 10000 2.24 302 22:37 06.04.2021
604 Snow 1 1006 88 10000 4.02 287 22:18 06.04.2021
605 Clouds 1 1006 88 10000 2.24 261 21:40 06.04.2021
606 Clouds 1 1006 89 10000 1.34 242 21:21 06.04.2021
607 Clouds 1 1006 89 10000 5.25 274 20:52 06.04.2021
608 Clouds 1 1006 88 10000 4.47 249 20:22 06.04.2021
609 Rain 2 1006 81 10000 5.36 296 19:52 06.04.2021
610 Clouds 2 1005 71 10000 1.34 228 19:33 06.04.2021
611 Clouds 3 1005 61 10000 4.92 278 18:51 06.04.2021
612 Clouds 4 1005 62 10000 2.68 269 18:32 06.04.2021
613 Clouds 4 1006 67 10000 3.58 356 17:57 06.04.2021
614 Clouds 6 1005 49 10000 3.58 303 17:38 06.04.2021
615 Clouds 6 1005 50 10000 4.47 316 17:18 06.04.2021
616 Clouds 7 1005 49 10000 3.58 337 16:41 06.04.2021
617 Rain 4 1000 59 10000 8.39 283 15:53 06.04.2021
618 Clouds 6 1000 53 10000 8.72 282 15:24 06.04.2021
619 Clouds 8 1006 45 10000 5.81 283 14:43 06.04.2021
620 Clouds 7 1006 46 10000 3.58 293 14:24 06.04.2021
621 Clouds 5 1006 51 10000 4.47 293 13:46 06.04.2021
622 Clouds 6 1006 56 10000 5.36 283 13:25 06.04.2021
623 Clouds 7 1007 52 10000 2.24 320 12:44 06.04.2021
624 Clouds 6 1007 49 10000 2.24 225 12:26 06.04.2021
625 Clouds 5 1007 59 10000 3.58 252 11:55 06.04.2021
626 Clouds 5 1007 59 10000 4.92 271 11:36 06.04.2021
627 Clouds 5 1007 61 10000 2.68 255 11:18 06.04.2021
628 Clouds 4 1008 68 10000 5.81 290 10:39 06.04.2021
629 Clouds 4 1008 71 10000 3.13 296 10:21 06.04.2021
630 Clouds 2 1008 75 10000 2.68 283 09:43 06.04.2021
631 Clouds 1 1008 80 10000 4.92 285 08:57 06.04.2021
632 Clouds 1 1008 80 10000 4.02 283 08:19 06.04.2021
633 Clouds -2 1007 91 10000 1.34 268 07:22 06.04.2021
634 Clouds -2 1007 91 10000 3.9 267 06:47 06.04.2021
635 Clouds -2 1007 87 10000 2.93 242 03:54 06.04.2021
636 Clouds -1 1007 85 10000 0.45 129 00:49 06.04.2021
637 Clouds -1 1007 83 10000 2.24 285 00:22 06.04.2021
638 Clouds 0 1007 81 10000 4.02 273 23:52 05.04.2021
639 Clouds 0 1007 80 10000 5.36 292 23:30 05.04.2021
640 Clouds 0 1006 79 10000 1.34 231 22:58 05.04.2021
641 Clouds 0 1006 80 10000 4.92 297 22:38 05.04.2021
642 Clouds 0 1006 80 10000 3.13 314 21:55 05.04.2021
643 Clouds 0 1006 77 10000 1.34 273 21:37 05.04.2021
644 Clouds 0 1006 80 10000 2.68 228 21:18 05.04.2021
645 Clouds 1 1006 78 10000 0.45 227 20:41 05.04.2021
646 Clouds 1 1005 75 10000 2.68 262 20:22 05.04.2021
647 Clouds 2 1005 68 10000 1.79 310 19:37 05.04.2021
648 Clouds 3 1005 62 10000 4.47 287 19:18 05.04.2021
649 Clouds 4 1004 62 10000 4.47 319 18:40 05.04.2021
650 Clouds 3 1004 69 10000 4.02 278 18:19 05.04.2021
651 Clouds 4 1004 60 10000 6.26 276 17:47 05.04.2021
652 Clouds 5 1003 57 10000 8.49 279 17:23 05.04.2021
653 Clouds 4 1003 64 10000 3.58 200 16:45 05.04.2021
654 Clouds 3 1003 66 10000 7.6 179 16:22 05.04.2021
655 Clouds 5 1003 56 10000 4.02 286 15:57 05.04.2021
656 Clouds 6 1003 63 10000 1.34 4 15:35 05.04.2021
657 Clouds 4 1002 68 10000 10.28 309 14:59 05.04.2021
658 Clouds 4 1002 73 10000 3.58 300 14:36 05.04.2021
659 Rain 4 1002 77 5076 7.15 280 13:52 05.04.2021
660 Clouds 4 1002 81 9555 10.73 271 13:27 05.04.2021
661 Clouds 5 1001 83 9555 3.13 299 12:46 05.04.2021
662 Clouds 4 1001 82 5905 3.13 285 12:25 05.04.2021
663 Rain 4 1001 86 5905 5.81 275 11:48 05.04.2021
664 Rain 4 1001 86 126 4.92 283 11:28 05.04.2021
665 Rain 4 1000 85 126 6.26 323 10:55 05.04.2021
666 Rain 3 994 91 126 8.14 311 10:35 05.04.2021
667 Rain 7 999 75 9435 3.13 251 09:48 05.04.2021
668 Rain 7 999 73 10000 4.92 238 09:26 05.04.2021
669 Rain 7 1000 69 10000 2.68 304 08:47 05.04.2021
670 Clouds 7 1001 69 10000 4.92 279 08:27 05.04.2021
671 Rain 7 1001 70 10000 7.15 231 07:58 05.04.2021
672 Clouds 7 1001 70 10000 2.68 279 07:33 05.04.2021
673 Clouds 4 1007 81 10000 4.95 224 03:42 05.04.2021
674 Clouds 4 1011 78 10000 0.89 200 00:56 05.04.2021
675 Clouds 5 1012 76 10000 2.24 259 00:19 05.04.2021
676 Clouds 5 1013 71 10000 2.68 262 23:32 04.04.2021
677 Clouds 6 1014 69 10000 1.79 232 22:58 04.04.2021
678 Clouds 6 1014 68 10000 1.34 265 22:40 04.04.2021
679 Clouds 7 1015 67 10000 3.13 317 22:21 04.04.2021
680 Clouds 7 1016 66 10000 2.24 261 21:22 04.04.2021
681 Clouds 7 1016 67 10000 1.34 296 20:43 04.04.2021
682 Clouds 6 1016 69 10000 4.02 286 20:23 04.04.2021
683 Clouds 7 1017 68 10000 0.45 241 19:41 04.04.2021
684 Clouds 7 1017 65 10000 2.24 263 19:20 04.04.2021
685 Clouds 7 1017 63 10000 4.47 261 18:56 04.04.2021
686 Clouds 8 1017 60 10000 2.24 282 18:36 04.04.2021
687 Clouds 8 1018 60 10000 4.02 283 18:18 04.04.2021
688 Clouds 9 1018 56 10000 2.68 316 17:25 04.04.2021
689 Clouds 9 1019 51 10000 2.24 302 16:57 04.04.2021
690 Clouds 9 1019 50 10000 3.58 271 16:39 04.04.2021
691 Clouds 10 1020 48 10000 5.81 297 15:54 04.04.2021
692 Clouds 10 1015 44 10000 5.65 287 15:32 04.04.2021
693 Clouds 10 1021 56 10000 1.79 304 14:42 04.04.2021
694 Clouds 9 1021 57 10000 1.79 335 14:24 04.04.2021
695 Clouds 9 1022 57 10000 2.24 326 13:28 04.04.2021
696 Clouds 9 1016 45 10000 5.55 281 12:52 04.04.2021
697 Clouds 8 1023 60 10000 1.79 71 12:28 04.04.2021
698 Clouds 8 1023 64 10000 1.34 270 11:51 04.04.2021
699 Clouds 8 1023 67 10000 1.34 0 11:31 04.04.2021
700 Clouds 9 1023 56 10000 0.45 321 10:55 04.04.2021
701 Clouds 8 1023 59 10000 4.92 297 10:32 04.04.2021
702 Clouds 8 1018 53 10000 5.11 281 09:52 04.04.2021
703 Clouds 6 1018 66 10000 4.5 287 09:24 04.04.2021
704 Clouds 6 1018 67 10000 4.5 287 08:50 04.04.2021
705 Clouds 4 1018 72 10000 4.26 285 08:32 04.04.2021
706 Clouds 4 1018 72 10000 4.5 287 08:32 04.04.2021
707 Clouds -1 1024 80 10000 1.96 286 07:22 04.04.2021
708 Clouds 1 1024 79 10000 1.96 285 06:34 04.04.2021
709 Clouds 1 1024 76 10000 1.41 298 04:34 04.04.2021
710 Clear 2 1025 64 10000 1.22 314 01:21 04.04.2021
711 Clear 3 1025 61 10000 1.55 355 00:19 04.04.2021
712 Clear 3 1024 62 10000 1.55 355 23:47 03.04.2021
713 Clear 3 1024 60 10000 2.26 9 23:23 03.04.2021
714 Clear 3 1024 58 10000 2.26 9 22:50 03.04.2021
715 Clear 3 1024 56 10000 2.78 11 22:21 03.04.2021
716 Clear 3 1024 56 10000 2.78 11 22:21 03.04.2021
717 Clear 3 1019 57 10000 2.78 11 21:47 03.04.2021
718 Clear 5 1024 52 10000 0.45 352 21:24 03.04.2021
719 Clear 6 1018 45 10000 3.05 360 20:49 03.04.2021
720 Clouds 7 1024 45 10000 3.13 350 20:28 03.04.2021
721 Clouds 7 1018 41 10000 3.3 1 19:51 03.04.2021
722 Clouds 9 1023 41 10000 3.58 320 19:25 03.04.2021
723 Clouds 9 1023 36 10000 3.13 112 18:51 03.04.2021
724 Clouds 11 1023 37 10000 3.58 357 18:32 03.04.2021
725 Clouds 10 1023 36 10000 3.13 27 17:53 03.04.2021
726 Clouds 12 1023 31 10000 12.52 285 17:26 03.04.2021
727 Clouds 12 1023 30 10000 4.92 327 16:52 03.04.2021
728 Clouds 12 1023 29 10000 4.92 241 16:25 03.04.2021
729 Clouds 12 1023 29 10000 4.47 328 15:51 03.04.2021
730 Clouds 12 1023 28 10000 3.58 309 15:30 03.04.2021
731 Clouds 12 1023 28 10000 3.58 309 15:30 03.04.2021
732 Clouds 12 1023 32 10000 5.81 311 14:44 03.04.2021
733 Clouds 12 1023 32 10000 3.58 324 14:25 03.04.2021
734 Clouds 12 1023 33 10000 8.05 292 13:54 03.04.2021
735 Clouds 11 1023 33 10000 6.71 261 13:29 03.04.2021
736 Clouds 11 1023 34 10000 11.18 343 12:57 03.04.2021
737 Clouds 11 1023 35 10000 8.05 299 12:33 03.04.2021
738 Clouds 10 1024 49 10000 6.26 321 11:41 03.04.2021
739 Clouds 10 1024 48 10000 4.02 16 11:20 03.04.2021
740 Clouds 9 1024 50 10000 5.36 299 10:45 03.04.2021
741 Clouds 9 1024 53 10000 2.68 296 10:26 03.04.2021
742 Clouds 6 1023 86 10000 1.34 162 09:39 03.04.2021
743 Clouds 6 1018 67 10000 5.21 324 09:21 03.04.2021
744 Clouds 4 1017 78 10000 4.65 304 08:35 03.04.2021
745 Clouds 1 1017 92 10000 4.65 304 07:40 03.04.2021
746 Clouds 1 1017 92 10000 4.65 304 07:40 03.04.2021
747 Clouds 2 1022 87 10000 3.13 320 07:22 03.04.2021
748 Clouds 3 1020 86 10000 2.24 261 04:24 03.04.2021
749 Clouds 5 1020 82 10000 3.13 316 02:56 03.04.2021
750 Clouds 5 1020 82 10000 3.58 299 02:31 03.04.2021
751 Clouds 6 1020 76 10000 10.73 289 00:45 03.04.2021
752 Clouds 6 1019 75 10000 7.6 280 00:18 03.04.2021
753 Clouds 6 1019 74 10000 3.58 316 23:44 02.04.2021
754 Clouds 6 1019 74 10000 6.26 302 23:19 02.04.2021
755 Clouds 7 1019 72 10000 3.58 286 22:44 02.04.2021
756 Clouds 7 1019 71 10000 5.36 293 22:25 02.04.2021
757 Clouds 7 1019 70 10000 4.92 302 21:41 02.04.2021
758 Clouds 7 1019 67 10000 1.34 292 21:19 02.04.2021
759 Clouds 7 1019 66 10000 2.68 289 20:45 02.04.2021
760 Clouds 7 1019 65 10000 5.81 286 20:25 02.04.2021
761 Clouds 7 1019 62 10000 5.81 266 19:42 02.04.2021
762 Clouds 8 1019 58 10000 4.02 261 19:23 02.04.2021
763 Clouds 8 1019 56 10000 4.92 286 18:48 02.04.2021
764 Clouds 8 1019 57 10000 3.13 259 18:30 02.04.2021
765 Clouds 9 1019 56 10000 4.47 326 17:57 02.04.2021
766 Clouds 9 1019 55 10000 4.92 300 17:32 02.04.2021
767 Clouds 11 1019 50 10000 5.36 302 16:37 02.04.2021
768 Clouds 12 1019 47 10000 2.24 290 15:47 02.04.2021
769 Clouds 12 1020 48 10000 3.58 197 15:25 02.04.2021
770 Clouds 13 1020 47 10000 3.58 278 14:41 02.04.2021
771 Clear 13 1020 47 10000 3.13 323 14:21 02.04.2021
772 Clear 12 1020 49 10000 6.26 299 13:39 02.04.2021
773 Clear 12 1021 49 10000 1.79 261 13:19 02.04.2021
774 Clear 11 1021 49 10000 4.02 286 12:39 02.04.2021
775 Clear 11 1022 48 10000 4.47 309 12:19 02.04.2021
776 Clear 10 1022 50 10000 3.13 269 11:48 02.04.2021
777 Clear 9 1022 54 10000 2.24 285 11:19 02.04.2021
778 Clear 8 1023 57 10000 2.24 283 10:44 02.04.2021
779 Clear 8 1023 60 10000 2.68 280 10:24 02.04.2021
780 Clear 8 1023 65 10000 0.89 280 09:51 02.04.2021
781 Clear 7 1023 69 10000 0.89 18 09:24 02.04.2021
782 Clear 6 1023 70 10000 2.68 319 08:46 02.04.2021
783 Clouds 3 1018 87 10000 2.43 341 08:27 02.04.2021
784 Clouds 2 1023 87 10000 2.24 306 07:22 02.04.2021
785 Clouds 3 1022 87 10000 3.13 359 06:40 02.04.2021
786 Clouds 5 1017 85 10000 3.56 359 03:46 02.04.2021
787 Clouds 6 1022 82 10000 4.47 340 02:19 02.04.2021
788 Clouds 7 1022 82 10000 4.02 309 00:47 02.04.2021
789 Clouds 7 1022 80 10000 6.26 299 23:58 01.04.2021
790 Clouds 8 1022 77 10000 4.47 347 23:27 01.04.2021
791 Clouds 8 1021 73 10000 6.26 289 22:52 01.04.2021
792 Clouds 8 1021 72 10000 2.68 343 22:19 01.04.2021
793 Clouds 8 1021 71 10000 5.36 319 21:49 01.04.2021
794 Clouds 8 1021 71 10000 4.92 293 21:25 01.04.2021
795 Clouds 8 1020 70 10000 4.92 317 20:43 01.04.2021
796 Clouds 8 1020 71 10000 5.81 359 20:24 01.04.2021
797 Clouds 9 1019 64 10000 5.36 306 19:46 01.04.2021
798 Clouds 10 1019 61 10000 5.36 333 19:27 01.04.2021
799 Clouds 12 1019 66 10000 7.6 16 18:45 01.04.2021
800 Clouds 12 1019 65 10000 4.47 313 18:18 01.04.2021
801 Clouds 13 1018 62 10000 11.62 345 17:51 01.04.2021
802 Clouds 14 1018 59 10000 4.92 12 17:32 01.04.2021
803 Clouds 16 1017 53 10000 7.15 327 16:51 01.04.2021
804 Clouds 17 1017 41 10000 8.05 310 16:28 01.04.2021
805 Clouds 19 1016 36 10000 6.26 334 15:47 01.04.2021
806 Clouds 20 1016 32 10000 3.13 321 15:20 01.04.2021
807 Clouds 19 1016 43 10000 6.27 320 14:45 01.04.2021
808 Clouds 19 1016 43 10000 6.27 320 14:45 01.04.2021
809 Clouds 20 1016 31 10000 4.02 258 14:26 01.04.2021
810 Clouds 20 1016 35 10000 3.13 306 13:55 01.04.2021
811 Clouds 19 1016 35 10000 2.24 317 13:30 01.04.2021
812 Clouds 20 1016 33 10000 0.45 299 12:51 01.04.2021
813 Clouds 19 1016 38 10000 3.13 290 12:32 01.04.2021
814 Clouds 18 1017 45 10000 3.13 279 11:50 01.04.2021
815 Rain 17 1017 49 10000 2.24 278 11:25 01.04.2021
816 Rain 16 1017 51 10000 0.45 287 10:58 01.04.2021
817 Rain 16 1017 58 10000 1.34 333 10:40 01.04.2021
818 Clouds 16 1017 53 10000 0.89 278 10:21 01.04.2021
819 Clouds 14 1017 66 10000 1.34 252 09:30 01.04.2021
820 Clouds 11 1017 69 10000 1.34 169 08:40 01.04.2021
821 Clouds 11 1017 72 10000 3.51 294 08:19 01.04.2021
822 Clouds 10 1017 75 10000 0.45 156 07:21 01.04.2021
823 Clouds 9 1017 75 10000 2.79 287 06:50 01.04.2021
824 Clouds 9 1017 74 10000 2.52 296 04:56 01.04.2021
825 Clear 10 1017 71 10000 1.99 288 02:29 01.04.2021
826 Clear 12 1018 65 10000 2.5 273 23:52 31.03.2021
827 Clear 12 1018 63 10000 2.5 273 23:32 31.03.2021
828 Clear 13 1018 59 10000 0.45 201 22:43 31.03.2021
829 Clear 13 1018 57 10000 1.37 250 22:21 31.03.2021
830 Clear 14 1019 52 10000 1.37 250 21:47 31.03.2021
831 Clear 14 1019 51 10000 1.02 293 21:24 31.03.2021
832 Clear 15 1019 50 10000 1.02 293 20:58 31.03.2021
833 Clear 15 1019 46 10000 1.02 293 20:40 31.03.2021
834 Clear 17 1019 45 10000 1.27 317 20:19 31.03.2021
835 Clear 18 1019 39 10000 1.27 317 19:42 31.03.2021
836 Clouds 20 1019 37 10000 0.88 319 19:19 31.03.2021
837 Clouds 21 1019 31 10000 1.34 95 18:52 31.03.2021
838 Clouds 22 1019 30 10000 0.68 304 18:26 31.03.2021
839 Clouds 23 1019 27 10000 3.13 100 17:38 31.03.2021
840 Clouds 23 1020 27 10000 0.89 136 17:19 31.03.2021
841 Clouds 24 1020 25 10000 1.01 250 16:50 31.03.2021
842 Clouds 24 1020 23 10000 1.34 173 16:31 31.03.2021
843 Clouds 24 1021 25 10000 2.24 176 15:53 31.03.2021
844 Clouds 24 1021 24 10000 0.45 193 15:20 31.03.2021
845 Clouds 24 1022 24 10000 0.45 105 14:49 31.03.2021
846 Clouds 23 1022 23 10000 2.24 166 14:24 31.03.2021
847 Clouds 23 1022 26 10000 2.24 114 13:54 31.03.2021
848 Clouds 22 1023 35 10000 3.13 87 13:22 31.03.2021
849 Clouds 20 1024 44 10000 1.34 184 12:40 31.03.2021
850 Clouds 19 1024 46 10000 2.24 124 12:18 31.03.2021
851 Clouds 17 1024 51 10000 1.79 105 11:23 31.03.2021
852 Clouds 16 1024 54 10000 2.68 127 10:50 31.03.2021
853 Clouds 14 1025 56 10000 1.34 100 10:27 31.03.2021
854 Clouds 16 1025 44 10000 2.38 165 09:56 31.03.2021
855 Clouds 14 1019 50 10000 2.38 165 09:31 31.03.2021
856 Clouds 14 1033 77 10000 2.18 160 08:46 31.03.2021
857 Clouds 9 1023 83 10000 0.45 90 08:27 31.03.2021
858 Clouds 8 1025 67 10000 2.24 164 07:37 31.03.2021
859 Clouds 10 1026 77 10000 1.64 176 05:21 31.03.2021
860 Clouds 11 1027 72 10000 1.34 196 02:42 31.03.2021
861 Clouds 9 1027 75 10000 0.45 199 00:54 31.03.2021
862 Clouds 9 1027 74 10000 0.93 268 00:26 31.03.2021
863 Clouds 10 1027 71 10000 0.93 268 23:57 30.03.2021
864 Clouds 11 1028 69 10000 1.09 287 23:27 30.03.2021
865 Clouds 11 1028 66 10000 1.09 287 22:55 30.03.2021
866 Clouds 12 1028 65 10000 0.45 197 22:37 30.03.2021
867 Clouds 12 1028 65 10000 0.89 204 22:19 30.03.2021
868 Clouds 12 1028 63 10000 0.45 138 21:38 30.03.2021
869 Clear 12 1028 61 10000 1.3 307 21:18 30.03.2021
870 Clear 14 1028 57 10000 1.3 307 20:45 30.03.2021
871 Clouds 14 1028 55 10000 1.46 313 20:26 30.03.2021
872 Clouds 18 1022 41 10000 1.46 313 19:43 30.03.2021
873 Clouds 18 1028 43 10000 1.79 306 19:22 30.03.2021
874 Clouds 16 1028 65 10000 1.79 306 18:34 30.03.2021
875 Clouds 18 1028 58 10000 2.41 302 17:51 30.03.2021
876 Clouds 23 1029 37 10000 0.45 32 17:32 30.03.2021
877 Clear 23 1029 37 10000 0.89 70 16:48 30.03.2021
878 Clear 22 1029 36 10000 1.79 338 16:28 30.03.2021
879 Clear 22 1030 34 10000 1.79 309 15:43 30.03.2021
880 Clear 22 1030 34 10000 0.89 60 15:20 30.03.2021
881 Clear 22 1030 33 10000 1.34 173 14:48 30.03.2021
882 Clear 22 1030 34 10000 2.68 258 14:21 30.03.2021
883 Clear 22 1030 34 10000 2.68 258 14:21 30.03.2021
884 Clear 21 1031 36 10000 0.89 316 13:54 30.03.2021
885 Clear 21 1031 37 10000 4.02 245 13:36 30.03.2021
886 Clear 20 1031 39 10000 3.49 271 12:45 30.03.2021
887 Clear 19 1031 39 10000 3.58 323 12:26 30.03.2021
888 Clear 18 1031 38 10000 1.34 153 11:51 30.03.2021
889 Clear 18 1032 38 10000 0.45 199 11:22 30.03.2021
890 Clear 17 1032 38 10000 3.24 269 10:43 30.03.2021
891 Clear 16 1032 42 10000 2.83 261 10:20 30.03.2021
892 Clear 14 1032 53 10000 0.45 212 09:43 30.03.2021
893 Clouds 13 1025 52 10000 2.24 248 09:25 30.03.2021
894 Clouds 12 1029 57 10000 2.24 248 08:53 30.03.2021
895 Clouds 11 1029 57 10000 2.24 248 08:35 30.03.2021
896 Clouds 7 1028 74 10000 2.39 248 07:50 30.03.2021
897 Clouds 7 1031 71 10000 0.89 138 07:22 30.03.2021
898 Clear 7 1030 71 10000 1.79 173 05:25 30.03.2021
899 Clear 7 1030 68 10000 2.55 257 04:57 30.03.2021
900 Clouds 9 1029 64 10000 3.14 254 00:28 30.03.2021
901 Clouds 9 1029 64 10000 3.14 254 23:31 29.03.2021
902 Clouds 11 1029 64 10000 3.12 249 22:45 29.03.2021
903 Clouds 11 1029 61 10000 3.19 249 22:25 29.03.2021
904 Clouds 12 1028 57 10000 0.45 170 21:43 29.03.2021
905 Clouds 13 1028 55 10000 3.23 256 21:23 29.03.2021
906 Clouds 14 1028 51 10000 3.23 256 20:47 29.03.2021
907 Clouds 14 1028 50 10000 0.45 244 20:26 29.03.2021
908 Clouds 15 1027 51 10000 1.34 170 19:48 29.03.2021
909 Clouds 14 1028 65 10000 3.81 274 19:22 29.03.2021
910 Clouds 14 1028 65 10000 3.81 274 18:42 29.03.2021
911 Clouds 20 1027 37 10000 5.01 275 18:21 29.03.2021
912 Clouds 20 1027 37 10000 5.01 275 17:45 29.03.2021
913 Clouds 20 1027 37 10000 5.75 276 16:59 29.03.2021
914 Clouds 19 1028 39 10000 5.75 276 16:37 29.03.2021
915 Clouds 20 1028 39 10000 6.17 273 16:18 29.03.2021
916 Clouds 20 1028 39 10000 3.13 260 15:35 29.03.2021
917 Clouds 21 1027 32 10000 4.92 316 14:57 29.03.2021
918 Clouds 21 1027 33 10000 3.13 313 14:36 29.03.2021
919 Clouds 19 1027 33 10000 4.92 210 13:53 29.03.2021
920 Clouds 15 1027 56 10000 5.45 259 13:29 29.03.2021
921 Clouds 18 1027 40 10000 0.45 52 12:51 29.03.2021
922 Clouds 18 1027 40 10000 0.45 52 12:51 29.03.2021
923 Clouds 13 1029 57 10000 5.45 259 12:30 29.03.2021
924 Clouds 14 1021 49 10000 4.04 234 11:41 29.03.2021
925 Clouds 14 1021 48 10000 3.8 223 11:22 29.03.2021
926 Clouds 13 1028 59 10000 4.02 197 10:40 29.03.2021
927 Clouds 13 1028 60 10000 2.24 201 09:56 29.03.2021
928 Clouds 12 1028 61 10000 3.13 217 09:23 29.03.2021
929 Clouds 11 1027 63 10000 3.88 215 08:30 29.03.2021
930 Clouds 10 1027 67 10000 2.24 234 07:51 29.03.2021
931 Clouds 10 1027 70 10000 0.45 129 06:42 29.03.2021
932 Clouds 10 1027 69 10000 0.89 119 05:18 29.03.2021
933 Clouds 10 1027 69 10000 3.99 240 02:22 29.03.2021
934 Clouds 10 1027 68 10000 2.24 200 00:26 29.03.2021
935 Clouds 10 1026 66 10000 4.03 236 23:55 28.03.2021
936 Clouds 10 1026 65 10000 2.24 186 23:24 28.03.2021
937 Clouds 10 1026 65 10000 4.19 230 22:42 28.03.2021
938 Clouds 11 1026 65 10000 4.49 229 22:24 28.03.2021
939 Clouds 11 1026 65 10000 4.49 229 22:24 28.03.2021
940 Clouds 11 1026 63 10000 0.45 179 21:46 28.03.2021
941 Clouds 11 1026 61 10000 4.12 243 21:24 28.03.2021
942 Clouds 11 1026 61 10000 4.12 243 20:51 28.03.2021
943 Clouds 11 1026 59 10000 4.12 243 20:33 28.03.2021
944 Clouds 11 1026 61 10000 4.39 259 19:55 28.03.2021
945 Rain 11 1026 59 10000 4.39 259 19:37 28.03.2021
946 Clouds 12 1025 58 10000 6.18 270 19:18 28.03.2021
947 Clouds 12 1020 52 10000 6.18 270 18:37 28.03.2021
948 Clouds 12 1025 51 10000 2.68 241 18:18 28.03.2021
949 Clouds 13 1025 47 10000 1.79 245 17:37 28.03.2021
950 Clouds 13 1026 45 10000 2.24 239 16:56 28.03.2021
951 Clouds 14 1026 47 10000 0.89 77 16:28 28.03.2021
952 Rain 13 1026 46 10000 0.89 208 15:57 28.03.2021
953 Clouds 14 1026 45 10000 3.58 217 15:24 28.03.2021
954 Clouds 13 1026 46 10000 3.58 193 14:47 28.03.2021
955 Clouds 13 1027 50 10000 3.13 190 14:18 28.03.2021
956 Clouds 12 1027 52 10000 0.89 208 13:35 28.03.2021
957 Clouds 12 1027 57 10000 2.24 204 12:57 28.03.2021
958 Clouds 11 1027 54 10000 5.73 233 12:35 28.03.2021
959 Clouds 10 1028 59 10000 2.68 193 11:59 28.03.2021
960 Clouds 10 1027 57 10000 1.79 186 11:37 28.03.2021
961 Clouds 10 1028 61 10000 1.79 180 10:54 28.03.2021
962 Clouds 9 1028 65 10000 0.45 74 10:31 28.03.2021
963 Clouds 7 1028 66 10000 3.58 179 09:53 28.03.2021
964 Clouds 6 1021 64 10000 4.09 214 09:28 28.03.2021
965 Clouds 6 1028 70 10000 0.89 108 08:52 28.03.2021
966 Clouds 4 1028 76 10000 0.89 143 08:34 28.03.2021
967 Clouds 3 1028 84 10000 0.45 191 07:42 28.03.2021
968 Clouds 1 1028 89 10000 1.79 166 06:21 28.03.2021
969 Clouds 1 1027 89 10000 0.89 211 03:50 28.03.2021
970 Clouds 2 1027 89 10000 4.46 248 00:45 28.03.2021
971 Clouds 3 1027 88 10000 4.88 255 23:53 27.03.2021
972 Clouds 3 1026 88 10000 1.79 265 23:35 27.03.2021
973 Clouds 3 1026 86 10000 0.89 292 22:42 27.03.2021
974 Clouds 2 1026 88 10000 4.02 261 22:22 27.03.2021
975 Clouds 3 1025 87 10000 2.24 263 21:45 27.03.2021
976 Clouds 2 1025 87 10000 2.24 247 21:21 27.03.2021
977 Clouds 3 1025 87 10000 0.89 259 20:58 27.03.2021
978 Clouds 3 1024 86 10000 4.92 242 20:37 27.03.2021
979 Clouds 3 1024 86 10000 3.58 254 19:57 27.03.2021
980 Clouds 3 1024 83 10000 0.45 134 19:38 27.03.2021
981 Clouds 4 1023 80 10000 2.24 245 19:20 27.03.2021
982 Clouds 5 1023 74 10000 2.68 292 18:46 27.03.2021
983 Clouds 6 1022 70 10000 2.24 273 18:22 27.03.2021
984 Clouds 8 1021 71 10000 1.34 266 17:37 27.03.2021
985 Clouds 7 1021 70 10000 0.89 290 17:18 27.03.2021
986 Clouds 6 1021 68 10000 2.68 307 16:46 27.03.2021
987 Clouds 6 1021 68 10000 4.47 265 16:25 27.03.2021
988 Rain 5 1021 79 10000 2.68 201 15:45 27.03.2021
989 Clouds 10 1020 55 10000 4.47 259 15:18 27.03.2021
990 Clouds 6 1021 88 10000 0.89 316 14:39 27.03.2021
991 Clouds 8 1019 73 10000 4.47 269 13:39 27.03.2021
992 Clouds 6 1019 81 10000 0.45 242 13:19 27.03.2021
993 Rain 8 1018 69 10000 3.58 265 12:43 27.03.2021
994 Clouds 8 1011 56 10000 8.85 249 11:51 27.03.2021
995 Clouds 11 1017 52 10000 3.58 245 11:32 27.03.2021
996 Clouds 11 1017 54 10000 3.58 231 10:58 27.03.2021
997 Clouds 10 1017 60 10000 4.92 244 10:39 27.03.2021
998 Clouds 9 1016 64 10000 3.58 287 09:58 27.03.2021
999 Clouds 8 1016 75 10000 4.47 261 09:21 27.03.2021
1000 Rain 6 1015 85 10000 1.34 266 08:40 27.03.2021
1001 Rain 7 1015 86 10000 1.79 306 07:54 27.03.2021
1002 Rain 9 1013 74 10000 4.92 287 07:18 27.03.2021
1003 Clouds 9 1011 71 10000 3.13 159 06:42 27.03.2021
1004 Clouds 8 1011 75 10000 0.89 173 04:42 27.03.2021
1005 Clouds 8 1012 75 10000 1.34 148 02:45 27.03.2021
1006 Clouds 8 1013 79 10000 3.64 178 00:45 27.03.2021
1007 Clouds 8 1013 78 10000 3.58 179 00:25 27.03.2021
1008 Clouds 8 1014 77 10000 3.58 179 23:37 26.03.2021
1009 Clouds 9 1014 73 10000 3.3 176 22:40 26.03.2021
1010 Clouds 10 1015 71 10000 0.45 155 21:53 26.03.2021
1011 Clouds 9 1015 69 10000 0.89 128 21:24 26.03.2021
1012 Clouds 9 1015 66 10000 1.34 121 20:58 26.03.2021
1013 Clouds 9 1015 66 10000 1.34 121 20:58 26.03.2021
1014 Clouds 10 1015 64 10000 2.24 136 20:31 26.03.2021
1015 Clouds 10 1015 64 10000 3.23 185 19:53 26.03.2021
1016 Clouds 11 1015 62 10000 0.45 153 19:34 26.03.2021
1017 Clouds 12 1015 58 10000 2.24 148 18:55 26.03.2021
1018 Clouds 12 1015 58 10000 2.24 148 18:55 26.03.2021
1019 Clouds 13 1016 56 10000 0.45 182 18:36 26.03.2021
1020 Clouds 13 1016 53 10000 0.89 169 18:18 26.03.2021
1021 Clouds 14 1013 57 10000 0.89 81 17:41 26.03.2021
1022 Clouds 16 1010 45 10000 3.73 206 16:52 26.03.2021
1023 Clouds 17 1016 43 10000 4.02 158 16:23 26.03.2021
1024 Clouds 16 1018 51 10000 1.79 165 15:43 26.03.2021
1025 Clouds 17 1018 51 10000 2.24 221 14:54 26.03.2021
1026 Clouds 18 1018 45 10000 5.36 162 14:20 26.03.2021
1027 Clouds 17 1018 46 10000 1.34 190 13:33 26.03.2021
1028 Clouds 15 1020 64 10000 1.34 290 12:48 26.03.2021
1029 Clouds 14 1020 67 10000 1.34 212 11:50 26.03.2021
1030 Clouds 14 1020 68 10000 1.79 259 11:31 26.03.2021
1031 Clouds 13 1020 77 10000 0.45 127 10:45 26.03.2021
1032 Clouds 14 1020 57 10000 1.74 217 10:27 26.03.2021
1033 Clouds 13 1020 65 10000 1.74 217 09:41 26.03.2021
1034 Clouds 11 1020 77 10000 1.62 191 08:59 26.03.2021
1035 Clouds 10 1020 82 10000 1.62 191 08:35 26.03.2021
1036 Clouds 9 1020 86 10000 0.99 191 07:58 26.03.2021
1037 Clouds 8 1020 87 10000 0.87 252 07:22 26.03.2021
1038 Clouds 7 1020 87 10000 0.87 252 06:57 26.03.2021
1039 Clouds 7 1020 88 10000 1.41 277 06:26 26.03.2021
1040 Clouds 7 1020 87 10000 1.79 272 05:21 26.03.2021
1041 Rain 8 1020 78 10000 2 249 01:50 26.03.2021
1042 Clouds 8 1020 76 10000 1.66 274 00:23 26.03.2021
1043 Clouds 10 1020 76 10000 1.66 274 23:44 25.03.2021
1044 Clouds 8 1020 75 10000 2.14 281 22:51 25.03.2021
1045 Clouds 9 1020 76 10000 1.87 269 22:28 25.03.2021
1046 Clouds 11 1020 71 10000 1.87 269 21:50 25.03.2021
1047 Clouds 12 1020 69 10000 1.87 269 21:31 25.03.2021
1048 Clouds 11 1020 68 10000 0.95 264 20:43 25.03.2021
1049 Clouds 11 1020 68 10000 0.95 264 20:43 25.03.2021
1050 Clouds 11 1020 67 10000 0.7 275 20:25 25.03.2021
1051 Clouds 11 1019 63 10000 0.7 275 19:45 25.03.2021
1052 Clouds 12 1019 62 10000 1.86 298 19:27 25.03.2021
1053 Clouds 12 1019 58 10000 1.86 298 18:47 25.03.2021
1054 Clouds 13 1019 56 10000 1.25 297 18:27 25.03.2021
1055 Clouds 13 1013 52 10000 1.25 297 17:51 25.03.2021
1056 Clouds 14 1013 49 10000 1.25 297 17:33 25.03.2021
1057 Clouds 16 1019 48 10000 0.68 305 16:52 25.03.2021
1058 Clouds 16 1019 47 10000 0.45 225 16:31 25.03.2021
1059 Clouds 16 1019 46 10000 1.79 299 15:45 25.03.2021
1060 Clouds 16 1019 44 10000 0.84 222 15:22 25.03.2021
1061 Clouds 16 1013 47 10000 0.84 222 14:46 25.03.2021
1062 Clouds 14 1019 51 10000 0.89 284 13:56 25.03.2021
1063 Clouds 14 1020 49 10000 1.34 283 13:24 25.03.2021
1064 Clouds 14 1020 53 10000 1.34 298 12:45 25.03.2021
1065 Clouds 16 1020 47 10000 1.34 184 12:21 25.03.2021
1066 Clouds 16 1020 49 10000 0.45 100 11:53 25.03.2021
1067 Clouds 16 1020 49 10000 0.45 100 11:53 25.03.2021
1068 Clouds 15 1020 49 10000 0.89 108 11:31 25.03.2021
1069 Clouds 14 1021 52 10000 1.79 324 10:57 25.03.2021
1070 Clouds 14 1021 53 10000 0.89 344 10:39 25.03.2021
1071 Clouds 13 1021 54 10000 0.45 296 10:18 25.03.2021
1072 Clouds 12 1021 59 10000 0.89 321 09:43 25.03.2021
1073 Clouds 12 1021 59 10000 0.79 301 09:21 25.03.2021
1074 Clouds 7 1015 74 10000 0.79 301 08:30 25.03.2021
1075 Clouds 9 1020 68 10000 0.45 227 07:26 25.03.2021
1076 Clouds 4 1016 80 10000 1.23 256 06:43 25.03.2021
1077 Clouds 3 1016 80 10000 1.35 271 06:22 25.03.2021
1078 Clouds 3 1020 87 10000 1.37 284 04:50 25.03.2021
1079 Clouds 5 1020 83 10000 1.55 231 01:25 25.03.2021
1080 Clouds 6 1020 82 10000 0.89 153 00:19 25.03.2021
1081 Clouds 6 1020 81 10000 0.45 225 23:40 24.03.2021
1082 Clouds 6 1020 80 10000 1.58 217 23:19 24.03.2021
1083 Clouds 6 1020 80 10000 0.89 199 22:39 24.03.2021
1084 Clouds 7 1020 79 10000 0.45 201 21:51 24.03.2021
1085 Clouds 7 1020 78 10000 1.64 220 21:33 24.03.2021
1086 Clouds 7 1020 76 10000 1.62 221 20:59 24.03.2021
1087 Clouds 8 1020 75 10000 1.62 221 20:41 24.03.2021
1088 Clouds 8 1020 74 10000 1.39 211 20:18 24.03.2021
1089 Clouds 8 1020 70 10000 1.39 211 19:33 24.03.2021
1090 Clouds 10 1020 68 10000 0.68 232 18:56 24.03.2021
1091 Clouds 11 1020 63 10000 0.68 232 18:37 24.03.2021
1092 Clear 11 1020 60 10000 0.9 282 18:19 24.03.2021
1093 Clear 14 1020 51 10000 0.9 282 17:33 24.03.2021
1094 Clear 15 1020 47 10000 3.13 261 16:59 24.03.2021
1095 Clear 16 1021 46 10000 0.89 262 16:40 24.03.2021
1096 Clear 16 1021 46 10000 0.45 207 16:19 24.03.2021
1097 Clear 16 1021 47 10000 2.24 175 15:41 24.03.2021
1098 Clear 16 1021 45 10000 0.45 280 15:20 24.03.2021
1099 Clear 16 1022 45 10000 0.45 36 14:41 24.03.2021
1100 Clear 16 1022 47 10000 1.79 258 14:21 24.03.2021
1101 Clear 15 1022 48 10000 2.86 262 13:44 24.03.2021
1102 Clear 15 1023 49 10000 0.89 223 13:24 24.03.2021
1103 Clear 15 1023 49 10000 0.45 194 12:40 24.03.2021
1104 Clear 14 1024 50 10000 0.45 286 12:20 24.03.2021
1105 Clear 14 1024 51 10000 2.68 273 11:41 24.03.2021
1106 Clear 13 1024 57 10000 1.34 207 10:49 24.03.2021
1107 Clear 11 1025 59 10000 0.89 163 10:31 24.03.2021
1108 Clear 11 1025 64 10000 1.79 152 09:58 24.03.2021
1109 Clear 10 1025 66 10000 2.27 238 09:36 24.03.2021
1110 Clear 9 1025 68 10000 0.89 148 09:18 24.03.2021
1111 Clear 8 1025 71 10000 2.24 180 08:43 24.03.2021
1112 Clear 7 1025 77 10000 1.34 204 07:50 24.03.2021
1113 Clear 6 1018 82 10000 2.01 231 07:25 24.03.2021
1114 Clear 6 1025 80 10000 2.01 233 06:49 24.03.2021
1115 Clear 5 1024 80 10000 1.34 276 03:19 24.03.2021
1116 Clouds 3 1024 85 10000 0.89 206 00:44 24.03.2021
1117 Clouds 4 1024 81 10000 0.89 136 23:52 23.03.2021
1118 Clouds 4 1024 81 10000 2.1 239 23:20 23.03.2021
1119 Clouds 3 1024 82 10000 2.1 239 22:51 23.03.2021
1120 Clouds 4 1024 84 10000 2.27 239 22:27 23.03.2021
1121 Clouds 5 1024 81 10000 2.27 239 21:47 23.03.2021
1122 Clouds 4 1024 82 10000 1.62 232 21:29 23.03.2021
1123 Clouds 3 1024 83 10000 1.62 232 20:47 23.03.2021
1124 Clouds 5 1024 82 10000 1.34 172 20:25 23.03.2021
1125 Clouds 4 1024 80 10000 1.62 265 19:50 23.03.2021
1126 Clouds 5 1024 78 10000 2.37 284 19:26 23.03.2021
1127 Clouds 5 1024 78 10000 2.44 248 19:26 23.03.2021
1128 Clouds 7 1024 72 10000 0.45 170 18:59 23.03.2021
1129 Clouds 8 1024 71 10000 2.44 248 18:37 23.03.2021
1130 Clouds 8 1024 70 10000 2.06 263 18:18 23.03.2021
1131 Clouds 8 1024 67 10000 0.89 289 17:42 23.03.2021
1132 Clouds 8 1024 65 10000 2.68 272 17:20 23.03.2021
1133 Clouds 9 1024 63 10000 0.89 241 16:25 23.03.2021
1134 Clouds 9 1024 64 10000 3.65 289 15:48 23.03.2021
1135 Clouds 9 1024 64 10000 4.92 268 15:22 23.03.2021
1136 Clouds 8 1025 66 10000 3.13 248 14:45 23.03.2021
1137 Clouds 8 1025 65 10000 3.58 248 14:19 23.03.2021
1138 Clouds 8 1025 66 10000 2.68 230 13:47 23.03.2021
1139 Clouds 8 1025 65 10000 4.47 242 13:24 23.03.2021
1140 Clouds 8 1025 66 10000 0.45 269 12:44 23.03.2021
1141 Clouds 8 1025 69 10000 2.24 304 12:24 23.03.2021
1142 Clouds 7 1025 70 10000 3.13 310 11:48 23.03.2021
1143 Clouds 7 1025 73 10000 1.79 296 11:21 23.03.2021
1144 Clouds 7 1025 73 10000 1.34 289 10:42 23.03.2021
1145 Clouds 8 1025 71 10000 1.34 289 10:20 23.03.2021
1146 Clouds 7 1025 75 10000 1.34 295 09:51 23.03.2021
1147 Clouds 7 1025 83 10000 2.68 276 09:23 23.03.2021
1148 Clouds 6 1025 86 10000 2.24 278 08:55 23.03.2021
1149 Clouds 6 1025 86 10000 0.45 272 08:37 23.03.2021
1150 Clouds 6 1025 83 10000 2.24 292 08:18 23.03.2021
1151 Rain 5 1025 83 10000 1.34 290 07:27 23.03.2021
1152 Clouds 5 1025 81 10000 1.79 276 06:52 23.03.2021
1153 Clouds 5 1024 78 10000 2.68 300 03:24 23.03.2021
1154 Clouds 5 1023 78 10000 3.13 283 02:29 23.03.2021
1155 Clouds 6 1023 79 10000 0.89 304 23:47 22.03.2021
1156 Rain 6 1023 79 10000 3.13 290 23:18 22.03.2021
1157 Clouds 6 1017 71 10000 3.93 289 22:42 22.03.2021
1158 Clouds 6 1017 70 10000 3.71 286 22:20 22.03.2021
1159 Clouds 6 1017 65 10000 3.71 286 21:47 22.03.2021
1160 Clouds 6 1017 62 10000 3.47 279 21:26 22.03.2021
1161 Clouds 6 1017 62 10000 3.47 279 20:44 22.03.2021
1162 Clouds 7 1017 60 10000 3.63 280 20:25 22.03.2021
1163 Clouds 6 1022 60 10000 3.63 280 19:58 22.03.2021
1164 Clouds 7 1016 61 10000 3.63 280 19:38 22.03.2021
1165 Clouds 7 1016 61 10000 3.63 280 19:38 22.03.2021
1166 Clouds 8 1021 58 10000 2.24 290 19:20 22.03.2021
1167 Clear 7 1021 56 10000 3.57 291 18:41 22.03.2021
1168 Clear 8 1021 52 10000 2.63 287 18:22 22.03.2021
1169 Clear 9 1020 46 10000 2.68 273 17:49 22.03.2021
1170 Clear 9 1021 44 10000 1.34 306 17:22 22.03.2021
1171 Clear 11 1021 41 10000 4.02 293 16:55 22.03.2021
1172 Clear 11 1021 39 10000 1.79 279 16:37 22.03.2021
1173 Clear 11 1021 40 10000 2.24 299 15:43 22.03.2021
1174 Clear 12 1021 41 10000 1.34 287 15:23 22.03.2021
1175 Clear 11 1021 43 10000 2.68 317 14:58 22.03.2021
1176 Clear 11 1021 43 10000 1.34 306 14:34 22.03.2021
1177 Clear 11 1021 43 10000 4.47 300 13:52 22.03.2021
1178 Clear 11 1021 43 10000 4.47 300 13:52 22.03.2021
1179 Clear 11 1021 44 10000 4.92 320 13:33 22.03.2021
1180 Clouds 11 1022 48 10000 0.45 200 12:59 22.03.2021
1181 Clouds 11 1022 49 10000 3.13 278 12:38 22.03.2021
1182 Clouds 11 1022 50 10000 3.58 285 12:18 22.03.2021
1183 Clouds 10 1022 55 10000 3.13 265 11:40 22.03.2021
1184 Clouds 9 1022 58 10000 0.89 282 11:20 22.03.2021
1185 Clouds 7 1022 65 10000 5.36 276 10:42 22.03.2021
1186 Clouds 7 1022 67 10000 4.02 282 10:20 22.03.2021
1187 Clouds 6 1022 71 10000 5.36 290 09:37 22.03.2021
1188 Clouds 5 1022 71 10000 4.02 314 08:59 22.03.2021
1189 Clouds 5 1022 72 10000 1.34 39 08:40 22.03.2021
1190 Clouds 4 1014 75 10000 4.38 309 08:21 22.03.2021
1191 Clouds 4 1021 80 10000 1.79 252 07:43 22.03.2021
1192 Clouds 3 1021 83 10000 0.89 292 06:52 22.03.2021
1193 Clouds 2 1020 84 10000 2.24 287 05:19 22.03.2021
1194 Clouds 3 1013 78 10000 3.84 291 00:55 22.03.2021
1195 Clouds 3 1013 79 10000 3.36 290 00:21 22.03.2021
1196 Clouds 3 1013 80 10000 3.36 290 23:52 21.03.2021
1197 Clouds 3 1018 79 10000 2.68 310 23:19 21.03.2021
1198 Clouds 3 1012 79 10000 3.16 297 22:55 21.03.2021
1199 Clouds 4 1012 74 10000 3.14 304 21:56 21.03.2021
1200 Clouds 4 1012 74 10000 3.14 304 21:38 21.03.2021
1201 Clouds 4 1012 72 10000 2.88 315 21:20 21.03.2021
1202 Clouds 4 1017 82 10000 5.36 315 20:41 21.03.2021
1203 Clouds 6 1011 69 10000 3.23 326 20:22 21.03.2021
1204 Clouds 5 1011 64 10000 3.23 326 19:52 21.03.2021
1205 Clouds 6 1011 62 10000 3.4 326 19:21 21.03.2021
1206 Clouds 6 1016 75 10000 8.05 275 18:47 21.03.2021
1207 Clouds 8 1016 66 10000 3.13 272 18:27 21.03.2021
1208 Clouds 8 1010 54 10000 4.44 337 17:46 21.03.2021
1209 Clouds 9 1015 56 10000 3.13 265 17:20 21.03.2021
1210 Clouds 10 1015 55 10000 4.92 309 16:57 21.03.2021
1211 Clouds 9 1015 56 10000 4.47 249 16:30 21.03.2021
1212 Clouds 10 1015 53 10000 6.26 286 15:58 21.03.2021
1213 Clouds 10 1015 53 10000 5.36 273 15:38 21.03.2021
1214 Clouds 10 1015 56 10000 6.71 285 15:19 21.03.2021
1215 Clouds 10 1015 56 10000 5.81 300 14:42 21.03.2021
1216 Clouds 9 1015 59 10000 4.47 335 14:24 21.03.2021
1217 Clouds 8 1015 73 10000 2.68 45 13:52 21.03.2021
1218 Clouds 8 1015 64 10000 7.15 313 12:46 21.03.2021
1219 Clouds 7 1009 66 10000 7.5 310 12:27 21.03.2021
1220 Clouds 7 1016 69 10000 4.02 310 11:53 21.03.2021
1221 Clouds 6 1016 71 10000 1.79 300 11:28 21.03.2021
1222 Clouds 6 1016 68 10000 4.92 295 10:59 21.03.2021
1223 Clouds 6 1015 64 10000 3.58 275 10:41 21.03.2021
1224 Clouds 6 1015 63 10000 7.6 261 10:21 21.03.2021
1225 Clouds 6 1015 75 10000 3.58 273 09:44 21.03.2021
1226 Clouds 6 1015 70 10000 9.39 263 09:26 21.03.2021
1227 Clouds 7 1015 78 10000 4.92 296 08:39 21.03.2021
1228 Clouds 7 1015 74 10000 3.58 293 08:21 21.03.2021
1229 Clouds 6 1015 83 10000 5.81 286 07:38 21.03.2021
1230 Clouds 5 1015 87 10000 2.68 306 06:52 21.03.2021
1231 Clouds 5 1016 86 10000 2.68 232 05:25 21.03.2021
1232 Clouds 5 1019 77 10000 2.24 272 02:23 21.03.2021
1233 Clouds 5 1020 66 10000 3.13 172 00:42 21.03.2021
1234 Clouds 4 1020 65 10000 2.68 310 00:22 21.03.2021
1235 Clouds 4 1020 62 10000 3.13 254 23:48 20.03.2021
1236 Clouds 4 1021 58 10000 0.89 309 23:22 20.03.2021
1237 Clouds 4 1021 58 10000 0.89 309 23:22 20.03.2021
1238 Clouds 4 1021 56 10000 4.47 237 22:55 20.03.2021
1239 Clouds 4 1021 55 10000 0.89 187 22:22 20.03.2021
1240 Clouds 4 1022 53 10000 5.81 242 21:47 20.03.2021
1241 Clouds 4 1022 55 10000 0.45 265 21:25 20.03.2021
1242 Clouds 4 1023 54 10000 1.79 248 20:45 20.03.2021
1243 Clouds 4 1023 54 10000 1.79 179 20:23 20.03.2021
1244 Clouds 4 1023 51 10000 2.24 248 19:51 20.03.2021
1245 Clouds 4 1023 50 10000 1.34 235 19:28 20.03.2021
1246 Clouds 4 1024 49 10000 1.34 272 18:50 20.03.2021
1247 Clouds 4 1024 47 10000 2.68 278 18:27 20.03.2021
1248 Clouds 4 1024 44 10000 1.34 244 17:56 20.03.2021
1249 Clouds 5 1025 42 10000 1.34 344 17:33 20.03.2021
1250 Clouds 5 1025 40 10000 3.58 242 16:56 20.03.2021
1251 Clouds 5 1025 39 10000 3.13 223 16:37 20.03.2021
1252 Clouds 6 1026 38 10000 1.79 255 16:18 20.03.2021
1253 Clouds 6 1026 36 10000 2.24 256 15:40 20.03.2021
1254 Clouds 6 1026 36 10000 2.24 256 15:40 20.03.2021
1255 Clouds 7 1027 38 10000 0.45 272 14:53 20.03.2021
1256 Clouds 6 1027 36 10000 1.34 258 14:31 20.03.2021
1257 Clouds 6 1028 36 10000 2.68 290 13:56 20.03.2021
1258 Clouds 6 1028 39 10000 3.53 269 13:24 20.03.2021
1259 Clouds 6 1029 41 10000 1.34 180 12:28 20.03.2021
1260 Clouds 6 1030 38 10000 3.58 255 11:55 20.03.2021
1261 Clouds 5 1030 45 10000 0.89 249 11:36 20.03.2021
1262 Clouds 5 1030 46 10000 2.68 254 11:18 20.03.2021
1263 Clouds 3 1031 56 10000 1.34 244 10:39 20.03.2021
1264 Clouds 3 1031 57 10000 2.68 296 10:20 20.03.2021
1265 Clouds 3 1031 59 10000 1.34 119 09:43 20.03.2021
1266 Clear 2 1031 62 10000 1.34 271 09:21 20.03.2021
1267 Clear 1 1031 61 10000 1.79 224 08:49 20.03.2021
1268 Clear -2 1031 73 10000 1.34 297 08:18 20.03.2021
1269 Clear -3 1031 82 10000 1.79 319 07:41 20.03.2021
1270 Clear -3 1031 82 10000 1.7 325 07:20 20.03.2021
1271 Clear -2 1030 83 10000 0.45 328 06:38 20.03.2021
1272 Clear -3 1030 82 10000 1.74 6 05:27 20.03.2021
1273 Clear -3 1030 80 10000 0.89 335 03:43 20.03.2021
1274 Clear -3 1029 76 10000 0.89 330 01:31 20.03.2021
1275 Clear -3 1029 74 10000 2.68 340 23:46 19.03.2021
1276 Clear -3 1029 72 10000 3.58 286 23:19 19.03.2021
1277 Clear -2 1028 72 10000 0.45 347 22:43 19.03.2021
1278 Clear -2 1028 70 10000 1.34 351 22:22 19.03.2021
1279 Clear -2 1028 69 10000 2.24 286 21:39 19.03.2021
1280 Clear -1 1027 69 10000 1.79 307 21:20 19.03.2021
1281 Clear -1 1027 64 10000 4.02 23 20:45 19.03.2021
1282 Clear 0 1027 65 10000 1.34 337 20:26 19.03.2021
1283 Clear 0 1026 64 10000 6.71 359 19:48 19.03.2021
1284 Clouds 1 1026 62 10000 2.68 15 19:23 19.03.2021
1285 Clouds 1 1026 66 10000 2.24 345 18:49 19.03.2021
1286 Clouds 2 1025 64 10000 1.79 39 18:30 19.03.2021
1287 Clouds 3 1025 61 10000 5.36 273 17:58 19.03.2021
1288 Clouds 3 1025 62 10000 4.92 60 17:38 19.03.2021
1289 Clouds 4 1024 61 10000 2.24 28 17:18 19.03.2021
1290 Clouds 4 1025 61 10000 4.02 39 16:44 19.03.2021
1291 Clouds 4 1024 65 10000 2.68 1 16:25 19.03.2021
1292 Clouds 6 1024 70 10000 1.79 359 15:34 19.03.2021
1293 Rain 5 1024 77 10000 5.81 359 14:53 19.03.2021
1294 Clouds 6 1024 55 10000 4.02 335 14:34 19.03.2021
1295 Clouds 7 1024 60 10000 6.08 30 13:53 19.03.2021
1296 Clouds 7 1024 58 10000 2.24 9 13:19 19.03.2021
1297 Clouds 6 1024 59 10000 4.02 343 12:47 19.03.2021
1298 Clouds 6 1023 61 10000 1.79 287 12:24 19.03.2021
1299 Clouds 6 1024 64 10000 1.79 282 11:34 19.03.2021
1300 Clear 6 1024 69 10000 2.24 333 10:52 19.03.2021
1301 Clouds 4 1023 72 10000 1.79 9 10:25 19.03.2021
1302 Clouds 3 1024 78 10000 4.92 9 09:46 19.03.2021
1303 Clouds 3 1023 79 10000 1.34 4 09:26 19.03.2021
1304 Clouds 3 1023 80 10000 2.24 351 08:52 19.03.2021
1305 Clouds 2 1023 82 10000 1.34 0 08:29 19.03.2021
1306 Clouds 0 1022 85 10000 1.34 348 07:50 19.03.2021
1307 Clouds 0 1022 86 10000 3.58 359 07:32 19.03.2021
1308 Clouds 0 1021 89 10000 2.24 327 05:54 19.03.2021
1309 Clouds 0 1019 92 10000 1.34 326 02:37 19.03.2021
1310 Clouds 1 1019 88 5333 3.05 13 23:57 18.03.2021
1311 Clouds 1 1019 89 5333 3.05 13 23:30 18.03.2021
1312 Clouds 1 1019 89 5333 3.05 13 23:30 18.03.2021
1313 Clouds 1 1019 89 9557 2.61 12 22:58 18.03.2021
1314 Clouds 1 1018 88 10000 1.34 306 22:27 18.03.2021
1315 Clouds 1 1019 86 10000 0.89 297 21:56 18.03.2021
1316 Clouds 2 1019 85 10000 2.15 20 21:38 18.03.2021
1317 Clouds 2 1019 83 10000 1.79 334 20:43 18.03.2021
1318 Clouds 2 1019 83 10000 1.79 333 20:23 18.03.2021
1319 Clouds 2 1019 83 10000 2.24 357 19:45 18.03.2021
1320 Clouds 2 1019 83 10000 0.45 330 19:25 18.03.2021
1321 Clouds 2 1019 82 10000 0.89 282 18:54 18.03.2021
1322 Clouds 3 1019 82 10000 2.24 311 18:27 18.03.2021
1323 Clouds 5 1019 77 10000 1.79 296 17:49 18.03.2021
1324 Clouds 5 1019 76 10000 4.47 286 17:25 18.03.2021
1325 Clouds 6 1019 71 10000 4.47 289 16:46 18.03.2021
1326 Clouds 6 1020 67 10000 2.68 306 16:26 18.03.2021
1327 Clouds 8 1020 60 10000 3.13 310 15:45 18.03.2021
1328 Clouds 8 1020 59 10000 2.68 316 15:23 18.03.2021
1329 Clouds 9 1020 59 10000 3.58 330 14:53 18.03.2021
1330 Clouds 9 1020 60 10000 1.79 239 14:32 18.03.2021
1331 Clouds 7 1021 64 10000 2.24 359 13:53 18.03.2021
1332 Clouds 7 1021 81 10000 3.38 315 13:26 18.03.2021
1333 Clouds 7 1022 82 10000 0.89 213 12:44 18.03.2021
1334 Clouds 7 1022 82 10000 0.89 208 12:25 18.03.2021
1335 Clouds 7 1023 74 10000 1.79 345 11:53 18.03.2021
1336 Clouds 7 1023 78 10000 3.13 12 11:32 18.03.2021
1337 Clouds 7 1023 84 10000 1.34 67 10:49 18.03.2021
1338 Clouds 7 1024 82 10000 2.68 309 10:27 18.03.2021
1339 Clouds 5 1024 86 10000 1.79 309 09:56 18.03.2021
1340 Clouds 3 1024 90 10000 0.89 252 09:29 18.03.2021
1341 Clouds 5 1024 87 10000 1.34 259 08:52 18.03.2021
1342 Clouds 3 1018 82 10000 2.87 287 08:32 18.03.2021
1343 Clouds 3 1018 82 10000 2.87 287 08:32 18.03.2021
1344 Clouds 1 1025 87 10000 2.47 283 07:54 18.03.2021
1345 Clouds -1 1025 92 10000 2.15 287 07:29 18.03.2021
1346 Clouds -1 1024 91 10000 1.82 287 06:37 18.03.2021
1347 Clouds -1 1025 91 10000 1.62 294 06:18 18.03.2021
1348 Clouds 0 1025 92 10000 1.38 302 03:41 18.03.2021
1349 Clouds 0 1025 94 10000 1.7 13 00:38 18.03.2021
1350 Clouds 0 1025 94 10000 2.06 19 22:59 17.03.2021
1351 Clouds 0 1025 93 10000 2.06 19 22:36 17.03.2021
1352 Clear 0 1025 93 10000 2.4 4 22:18 17.03.2021
1353 Clear 0 1025 93 10000 2.4 4 21:47 17.03.2021
1354 Clear 0 1025 93 10000 2.27 357 21:29 17.03.2021
1355 Clear 1 1024 94 10000 2.27 357 20:45 17.03.2021
1356 Clear 1 1025 94 10000 1.34 283 20:26 17.03.2021
1357 Clear 2 1024 94 10000 2.34 353 19:57 17.03.2021
1358 Clouds 3 1024 94 10000 2.38 357 19:25 17.03.2021
1359 Rain 3 1025 88 10000 2.68 28 18:59 17.03.2021
1360 Rain 3 1025 88 10000 2.68 28 18:59 17.03.2021
1361 Rain 4 1025 84 10000 2.68 11 18:40 17.03.2021
1362 Clouds 5 1024 85 10000 2.68 22 17:59 17.03.2021
1363 Clouds 6 1024 86 10000 1.79 320 17:32 17.03.2021
1364 Rain 6 1023 82 10000 1.79 52 16:57 17.03.2021
1365 Rain 6 1023 69 10000 3.58 62 16:38 17.03.2021
1366 Clouds 7 1023 67 10000 0.45 62 16:19 17.03.2021
1367 Clouds 6 1023 80 10000 3.13 285 15:40 17.03.2021
1368 Rain 7 1023 57 10000 2.24 300 14:46 17.03.2021
1369 Clouds 7 1023 61 10000 2.24 299 14:28 17.03.2021
1370 Clouds 7 1023 62 10000 1.79 338 13:58 17.03.2021
1371 Clouds 7 1023 60 10000 2.68 16 13:40 17.03.2021
1372 Clouds 7 1023 60 10000 0.45 351 13:18 17.03.2021
1373 Clouds 7 1023 60 10000 3.13 333 12:36 17.03.2021
1374 Clouds 6 1023 63 3219 1.79 16 12:18 17.03.2021
1375 Clouds 5 1023 65 3219 2.68 297 11:37 17.03.2021
1376 Clouds 5 1023 67 4465 6.26 304 11:18 17.03.2021
1377 Clouds 5 1023 70 4465 5.36 320 10:40 17.03.2021
1378 Clouds 4 1023 70 10000 2.24 320 10:19 17.03.2021
1379 Clouds 4 1023 74 10000 4.02 307 09:42 17.03.2021
1380 Clouds 4 1023 76 10000 3.13 300 09:20 17.03.2021
1381 Clouds 3 1023 77 10000 2.24 319 08:45 17.03.2021
1382 Clouds 3 1023 79 10000 3.13 324 08:25 17.03.2021
1383 Clouds 2 1022 80 10000 3.58 279 07:38 17.03.2021
1384 Clouds 2 1022 78 5713 1.79 282 06:48 17.03.2021
1385 Clouds 1 1015 80 4522 3.7 310 05:28 17.03.2021
1386 Clouds 2 1021 79 5058 3.58 290 03:31 17.03.2021
1387 Clouds 2 1021 83 10000 3.58 283 01:58 17.03.2021
1388 Clouds 1 1021 80 10000 2.68 293 00:33 17.03.2021
1389 Clouds 2 1021 78 10000 2.24 295 23:27 16.03.2021
1390 Clouds 3 1020 75 10000 1.79 282 22:45 16.03.2021
1391 Clouds 3 1020 74 10000 4.47 276 22:26 16.03.2021
1392 Clouds 3 1020 73 10000 2.24 276 21:44 16.03.2021
1393 Clouds 4 1020 72 10000 2.24 278 21:26 16.03.2021
1394 Clouds 4 1020 74 10000 1.34 306 20:57 16.03.2021
1395 Clouds 4 1020 72 10000 1.79 292 20:20 16.03.2021
1396 Clouds 4 1019 75 10000 0.89 300 19:51 16.03.2021
1397 Clouds 4 1019 75 10000 2.68 331 19:29 16.03.2021
1398 Clouds 5 1019 72 10000 2.68 320 18:58 16.03.2021
1399 Clouds 5 1019 69 10000 4.47 310 18:39 16.03.2021
1400 Clouds 6 1019 64 10000 2.24 289 18:20 16.03.2021
1401 Clouds 7 1019 62 10000 4.92 310 17:41 16.03.2021
1402 Clouds 7 1019 67 10000 4.92 282 17:22 16.03.2021
1403 Clouds 7 1019 61 10000 4.02 323 16:49 16.03.2021
1404 Clouds 8 1019 59 10000 8.05 290 16:25 16.03.2021
1405 Clouds 9 1019 61 10000 2.24 347 15:46 16.03.2021
1406 Clouds 9 1019 56 10000 3.13 227 15:21 16.03.2021
1407 Clouds 8 1013 55 10000 6.1 308 14:57 16.03.2021
1408 Clouds 9 1019 54 10000 4.47 272 14:39 16.03.2021
1409 Clouds 8 1013 59 10000 6.37 303 14:19 16.03.2021
1410 Clouds 8 1013 60 10000 6.37 303 13:46 16.03.2021
1411 Clouds 7 1013 63 10000 6.48 299 13:23 16.03.2021
1412 Clouds 8 1019 62 10000 3.58 300 12:50 16.03.2021
1413 Clouds 7 1019 63 10000 6.83 292 12:31 16.03.2021
1414 Clouds 7 1019 66 10000 1.79 224 11:43 16.03.2021
1415 Clear 7 1019 65 10000 4.02 289 11:22 16.03.2021
1416 Clear 7 1019 69 10000 3.58 343 10:28 16.03.2021
1417 Clear 5 1019 71 10000 2.68 293 09:57 16.03.2021
1418 Clear 5 1019 72 10000 6.26 316 09:36 16.03.2021
1419 Clear 5 1019 75 10000 5.81 296 09:18 16.03.2021
1420 Clear 6 1019 66 10000 3.58 273 08:45 16.03.2021
1421 Clear 4 1012 77 10000 5.96 304 08:26 16.03.2021
1422 Clear 1 1012 93 10000 5.96 304 07:36 16.03.2021
1423 Clouds 1 1017 90 10000 3.13 282 06:40 16.03.2021
1424 Clouds 2 1017 89 10000 4.02 268 05:59 16.03.2021
1425 Clouds 2 1016 88 10000 2.68 286 05:34 16.03.2021
1426 Clouds 4 1014 82 10000 1.79 320 02:46 16.03.2021
1427 Clouds 4 1014 80 10000 4.92 304 02:24 16.03.2021
1428 Clouds 4 1012 89 10000 2.68 327 00:25 16.03.2021
1429 Clouds 4 1012 79 10000 4.02 306 23:29 15.03.2021
1430 Clouds 4 1011 81 10000 4.92 309 22:56 15.03.2021
1431 Clouds 4 1011 81 10000 4.92 309 22:56 15.03.2021
1432 Clouds 4 1011 82 10000 4.47 289 22:36 15.03.2021
1433 Clouds 5 1011 81 10000 7.6 297 22:18 15.03.2021
1434 Clouds 5 1010 79 10000 6.71 285 21:39 15.03.2021
1435 Clouds 5 1010 78 10000 4.02 323 21:21 15.03.2021
1436 Clouds 5 1010 76 10000 4.02 289 20:45 15.03.2021
1437 Clouds 5 1010 75 10000 5.36 289 20:26 15.03.2021
1438 Clouds 5 1009 79 10000 2.24 309 19:56 15.03.2021
1439 Clouds 5 1009 82 10000 4.92 299 19:38 15.03.2021
1440 Clouds 5 1009 79 10000 4.92 8 19:19 15.03.2021
1441 Clouds 5 1008 79 10000 8.05 285 18:40 15.03.2021
1442 Clouds 5 1008 80 10000 4.92 285 18:22 15.03.2021
1443 Clouds 6 1007 80 10000 5.36 286 17:43 15.03.2021
1444 Clouds 7 1007 77 10000 6.71 320 17:22 15.03.2021
1445 Clouds 7 1006 70 10000 6.26 296 16:44 15.03.2021
1446 Clouds 7 1006 70 10000 6.26 296 16:44 15.03.2021
1447 Clouds 9 1006 79 10000 4.02 302 15:56 15.03.2021
1448 Clouds 9 1006 73 8673 2.68 323 15:28 15.03.2021
1449 Rain 10 1007 69 8673 3.13 282 14:56 15.03.2021
1450 Clouds 9 1000 65 8673 7.63 286 14:38 15.03.2021
1451 Rain 9 1000 65 10000 6.3 277 14:19 15.03.2021
1452 Clouds 8 1007 69 10000 2.68 128 13:44 15.03.2021
1453 Clouds 9 1007 66 10000 1.34 221 13:23 15.03.2021
1454 Clouds 7 1001 71 10000 6.08 280 12:45 15.03.2021
1455 Clouds 8 1007 60 10000 4.92 303 12:18 15.03.2021
1456 Clouds 8 1008 65 10000 2.24 295 11:45 15.03.2021
1457 Clouds 8 1008 66 10000 2.68 302 11:26 15.03.2021
1458 Clouds 6 1008 75 10000 5.36 309 10:43 15.03.2021
1459 Clouds 6 1008 77 10000 3.58 259 10:24 15.03.2021
1460 Clouds 5 1008 77 10000 1.34 271 09:48 15.03.2021
1461 Clouds 5 1008 79 10000 1.34 186 09:29 15.03.2021
1462 Clouds 4 1008 83 10000 0.89 283 08:46 15.03.2021
1463 Clouds 4 1008 84 6436 0.89 239 08:25 15.03.2021
1464 Clouds 4 1008 86 6436 1.79 251 07:42 15.03.2021
1465 Clouds 4 1008 85 591 1.34 244 07:22 15.03.2021
1466 Rain 2 1008 91 131 0.45 165 06:21 15.03.2021
1467 Clouds 2 1008 89 10000 0.89 265 03:36 15.03.2021
1468 Clouds 4 1009 87 10000 1.79 204 00:50 15.03.2021
1469 Clouds 4 1009 85 10000 4.47 309 23:24 14.03.2021
1470 Clouds 4 1009 85 10000 4.02 273 22:59 14.03.2021
1471 Clouds 4 1009 84 10000 0.89 227 22:38 14.03.2021
1472 Rain 4 1009 84 10000 0.89 261 22:18 14.03.2021
1473 Rain 5 1009 81 10000 1.79 234 21:39 14.03.2021
1474 Clouds 5 1009 79 10000 0.89 296 21:18 14.03.2021
1475 Rain 6 1009 75 10000 5.21 255 20:42 14.03.2021
1476 Clouds 6 1009 73 10000 1.34 268 20:23 14.03.2021
1477 Clouds 6 1009 71 10000 3.13 244 19:42 14.03.2021
1478 Clouds 6 1009 72 10000 2.68 261 19:20 14.03.2021
1479 Clouds 6 1008 72 10000 3.58 285 18:41 14.03.2021
1480 Clouds 7 1008 72 10000 4.92 263 17:58 14.03.2021
1481 Clouds 7 1007 72 10000 1.79 258 17:38 14.03.2021
1482 Clouds 8 1007 69 10000 2.68 261 17:19 14.03.2021
1483 Clouds 9 1007 62 10000 4.92 263 16:42 14.03.2021
1484 Clouds 10 1007 59 10000 3.13 214 16:23 14.03.2021
1485 Clouds 11 1007 56 10000 4.02 223 15:49 14.03.2021
1486 Clouds 10 1007 63 10000 2.68 295 15:25 14.03.2021
1487 Clouds 9 1007 63 10000 3.13 313 14:41 14.03.2021
1488 Clouds 9 1007 63 10000 1.79 276 14:20 14.03.2021
1489 Clouds 9 1007 71 10000 5.36 300 13:48 14.03.2021
1490 Clouds 8 1007 78 10000 2.68 287 13:27 14.03.2021
1491 Rain 8 1007 66 10000 6.71 262 12:44 14.03.2021
1492 Rain 8 1007 66 10000 3.58 309 12:26 14.03.2021
1493 Clouds 7 1006 68 10000 4.02 276 11:42 14.03.2021
1494 Clouds 7 1006 69 10000 5.36 296 11:23 14.03.2021
1495 Clouds 7 1005 73 10000 6.26 194 10:38 14.03.2021
1496 Clouds 6 1005 73 10000 6.71 223 10:20 14.03.2021
1497 Clouds 6 1005 74 10000 8.49 266 09:59 14.03.2021
1498 Clouds 6 1005 78 10000 5.36 187 09:41 14.03.2021
1499 Clouds 5 1005 81 10000 3.58 255 09:21 14.03.2021
1500 Clouds 5 1004 85 10000 3.58 313 08:40 14.03.2021
1501 Rain 4 1003 84 9496 3.58 252 07:59 14.03.2021
1502 Clouds 4 1002 86 9496 6.26 316 07:34 14.03.2021
1503 Rain 4 1001 88 10000 8.49 254 06:27 14.03.2021
1504 Clouds 5 997 70 10000 4.02 266 02:21 14.03.2021
1505 Clouds 5 996 74 10000 5.36 262 00:49 14.03.2021
1506 Clouds 5 995 73 10000 9.83 237 00:19 14.03.2021
1507 Clouds 5 995 73 10000 5.81 208 23:42 13.03.2021
1508 Clouds 4 995 79 10000 4.02 204 23:22 13.03.2021
1509 Clouds 5 995 74 10000 2.68 273 22:50 13.03.2021
1510 Clouds 5 995 73 10000 7.6 239 22:25 13.03.2021
1511 Clouds 5 995 77 10000 2.24 194 21:41 13.03.2021
1512 Clouds 5 995 75 10000 1.79 300 21:20 13.03.2021
1513 Clouds 6 994 73 10000 2.24 175 20:49 13.03.2021
1514 Clouds 6 995 76 10000 0.45 143 20:30 13.03.2021
1515 Clouds 5 994 82 10000 3.13 213 19:47 13.03.2021
1516 Clouds 5 994 82 10000 1.79 275 19:29 13.03.2021
1517 Clouds 4 994 87 10000 0.89 197 18:43 13.03.2021
1518 Clouds 5 994 85 10000 2.68 143 18:22 13.03.2021
1519 Clouds 5 994 83 10000 6.29 228 17:58 13.03.2021
1520 Clouds 6 994 81 10000 4.02 169 17:35 13.03.2021
1521 Rain 7 993 62 10000 0.89 237 16:59 13.03.2021
1522 Clouds 7 993 65 10000 0.89 79 16:39 13.03.2021
1523 Clouds 9 994 65 10000 3.13 290 15:59 13.03.2021
1524 Clouds 11 993 58 10000 4.92 224 15:25 13.03.2021
1525 Clouds 11 993 61 10000 5.36 237 14:47 13.03.2021
1526 Clouds 9 993 63 10000 6.26 234 14:25 13.03.2021
1527 Clouds 9 993 63 10000 6.26 234 14:25 13.03.2021
1528 Clouds 9 993 57 10000 4.47 201 13:46 13.03.2021
1529 Rain 9 993 64 10000 0.45 108 13:23 13.03.2021
1530 Rain 7 987 89 10000 8.93 235 12:43 13.03.2021
1531 Clouds 10 987 68 10000 10.83 227 12:20 13.03.2021
1532 Clouds 9 995 70 10000 6.26 291 11:46 13.03.2021
1533 Clouds 8 988 81 10000 9.9 214 11:28 13.03.2021
1534 Clouds 8 995 75 10000 4.47 266 10:49 13.03.2021
1535 Rain 7 995 76 10000 6.26 163 10:25 13.03.2021
1536 Clouds 7 996 79 10000 5.36 184 09:42 13.03.2021
1537 Rain 6 997 84 10000 3.13 119 08:58 13.03.2021
1538 Rain 6 998 82 10000 2.68 189 08:39 13.03.2021
1539 Clouds 6 998 82 10000 4.92 138 08:19 13.03.2021
1540 Rain 5 999 84 10000 5.36 162 07:41 13.03.2021
1541 Clouds 4 1001 89 10000 2.68 166 05:50 13.03.2021
1542 Clouds 4 1002 90 10000 3.58 208 02:54 13.03.2021
1543 Rain 5 1003 88 10000 1.79 293 00:50 13.03.2021
1544 Rain 5 1002 90 10000 2.24 190 23:54 12.03.2021
1545 Clouds 5 1002 89 10000 0.89 149 23:32 12.03.2021
1546 Clouds 5 1002 87 10000 5.75 239 22:42 12.03.2021
1547 Clouds 5 1002 87 10000 2.68 266 22:23 12.03.2021
1548 Rain 5 1003 86 10000 6.71 263 21:44 12.03.2021
1549 Rain 5 1003 86 10000 6.71 263 21:44 12.03.2021
1550 Rain 6 1003 81 10000 4.02 278 21:25 12.03.2021
1551 Rain 8 1002 68 10000 3.58 272 20:55 12.03.2021
1552 Clouds 7 1002 69 10000 4.02 12 20:32 12.03.2021
1553 Clouds 7 1002 66 10000 4.47 210 19:58 12.03.2021
1554 Clouds 8 1002 64 10000 3.13 211 19:39 12.03.2021
1555 Clouds 8 1002 62 10000 3.58 337 19:21 12.03.2021
1556 Clouds 8 1003 59 10000 2.68 149 18:36 12.03.2021
1557 Clouds 9 1003 56 10000 3.58 177 17:54 12.03.2021
1558 Clouds 10 1004 52 10000 2.24 223 17:36 12.03.2021
1559 Clouds 10 1004 50 10000 4.47 187 17:18 12.03.2021
1560 Clouds 10 1004 48 10000 2.24 221 16:40 12.03.2021
1561 Clouds 11 1005 48 10000 0.89 241 15:52 12.03.2021
1562 Clouds 12 1005 43 10000 1.79 327 15:31 12.03.2021
1563 Clouds 11 1005 44 10000 5.36 162 14:48 12.03.2021
1564 Clouds 11 1006 44 10000 6.26 272 14:21 12.03.2021
1565 Clouds 12 1006 45 10000 4.02 201 13:44 12.03.2021
1566 Clouds 11 999 43 10000 8.74 248 13:23 12.03.2021
1567 Clouds 11 1006 44 10000 3.13 234 12:57 12.03.2021
1568 Clouds 10 1006 51 10000 2.24 320 12:38 12.03.2021
1569 Clouds 11 1006 51 10000 4.92 290 12:19 12.03.2021
1570 Clouds 10 1007 53 10000 4.47 266 11:50 12.03.2021
1571 Clouds 9 1007 55 10000 4.47 176 11:22 12.03.2021
1572 Clouds 8 1007 59 10000 3.58 265 10:50 12.03.2021
1573 Clouds 9 1007 66 10000 6.26 259 10:25 12.03.2021
1574 Clouds 8 1007 71 10000 4.02 230 09:54 12.03.2021
1575 Clouds 8 1006 76 10000 5.81 272 09:24 12.03.2021
1576 Clouds 7 1006 70 10000 5.36 255 08:44 12.03.2021
1577 Rain 5 1005 84 10000 5.36 228 07:57 12.03.2021
1578 Clouds 5 1005 88 10000 6.71 254 07:32 12.03.2021
1579 Clouds 4 1004 89 10000 1.79 299 06:49 12.03.2021
1580 Clouds 4 1003 90 10000 2.68 289 06:26 12.03.2021
1581 Clouds 5 1001 81 10000 0.45 303 02:21 12.03.2021
1582 Clouds 7 999 78 10000 0.45 189 00:42 12.03.2021
1583 Clouds 6 999 81 10000 4.47 251 23:30 11.03.2021
1584 Clouds 6 998 84 10000 5.81 258 22:49 11.03.2021
1585 Clouds 7 998 83 10000 1.34 208 22:29 11.03.2021
1586 Clouds 7 998 82 10000 0.89 105 21:51 11.03.2021
1587 Rain 7 998 81 10000 1.34 278 21:30 11.03.2021
1588 Clear 7 998 80 10000 1.79 242 20:54 11.03.2021
1589 Clear 7 997 80 10000 0.45 273 20:35 11.03.2021
1590 Clear 7 997 78 10000 4.47 280 19:59 11.03.2021
1591 Clear 7 997 78 10000 1.34 228 19:41 11.03.2021
1592 Rain 9 997 69 10000 4.02 266 19:22 11.03.2021
1593 Clouds 9 996 69 10000 13.41 261 18:46 11.03.2021
1594 Clouds 10 996 67 10000 2.68 259 18:28 11.03.2021
1595 Rain 11 989 64 10000 7.83 263 17:43 11.03.2021
1596 Clouds 13 988 65 10000 8.7 256 16:53 11.03.2021
1597 Rain 13 994 48 10000 4.02 231 16:27 11.03.2021
1598 Clouds 15 994 51 10000 3.13 316 15:48 11.03.2021
1599 Clouds 11 996 86 10000 3.13 273 15:22 11.03.2021
1600 Clouds 11 997 83 10000 5.81 286 14:46 11.03.2021
1601 Clouds 11 997 73 7968 4.02 280 14:19 11.03.2021
1602 Clouds 10 996 72 7968 6.26 186 13:49 11.03.2021
1603 Clouds 12 996 72 7968 4.02 197 13:31 11.03.2021
1604 Clouds 11 997 70 10000 4.47 190 12:58 11.03.2021
1605 Clouds 12 997 67 10000 6.26 183 12:39 11.03.2021
1606 Clouds 12 997 67 10000 5.81 210 12:21 11.03.2021
1607 Clouds 11 998 73 10000 4.47 190 11:43 11.03.2021
1608 Clouds 10 998 71 10000 5.36 197 11:21 11.03.2021
1609 Clouds 8 999 82 10000 5.36 180 10:42 11.03.2021
1610 Clouds 8 999 83 10000 4.02 172 10:20 11.03.2021
1611 Rain 7 1000 86 10000 5.36 170 09:44 11.03.2021
1612 Rain 7 1000 83 10000 4.47 207 09:23 11.03.2021
1613 Clouds 6 1001 81 10000 1.79 138 08:47 11.03.2021
1614 Clouds 6 1001 82 10000 2.24 172 08:19 11.03.2021
1615 Clouds 5 1001 84 10000 4.47 139 07:30 11.03.2021
1616 Clouds 5 1002 84 10000 4.92 186 06:50 11.03.2021
1617 Clouds 5 1003 85 10000 2.24 158 06:30 11.03.2021
1618 -273 0 0 0 0 0 03:54 11.03.2021
1619 Clouds 4 1010 76 10000 2.68 166 01:19 11.03.2021
1620 Clouds 4 1012 74 10000 2.24 90 23:48 10.03.2021
1621 Clouds 5 1012 73 10000 3.13 134 23:19 10.03.2021
1622 Clouds 5 1012 73 10000 3.13 134 23:19 10.03.2021
1623 Clouds 5 1013 72 10000 2.68 107 22:39 10.03.2021
1624 Clouds 5 1013 72 10000 2.68 107 22:39 10.03.2021
1625 Clouds 5 1014 72 10000 1.34 155 21:47 10.03.2021
1626 Clouds 5 1014 73 10000 2.24 67 21:26 10.03.2021
1627 Clouds 5 1015 72 10000 1.34 141 20:58 10.03.2021
1628 Clouds 5 1015 71 10000 5.36 148 20:37 10.03.2021
1629 Clouds 5 1015 70 10000 1.79 100 20:19 10.03.2021
1630 Clouds 5 1016 69 10000 3.13 170 19:39 10.03.2021
1631 Clouds 5 1016 69 10000 1.79 124 19:20 10.03.2021
1632 Clouds 5 1017 69 10000 1.79 183 18:37 10.03.2021
1633 Clouds 6 1016 67 10000 1.34 134 18:18 10.03.2021
1634 Clouds 7 1016 61 10000 0.89 100 17:41 10.03.2021
1635 Clouds 7 1017 60 10000 0.89 118 17:19 10.03.2021
1636 Clouds 8 1017 55 10000 1.79 101 16:52 10.03.2021
1637 Clouds 9 1017 52 10000 1.34 201 16:29 10.03.2021
1638 Clouds 9 1017 52 10000 0.45 153 15:54 10.03.2021
1639 Clouds 9 1018 54 10000 3.58 217 15:36 10.03.2021
1640 Clouds 7 1012 53 10000 3.07 183 15:18 10.03.2021
1641 Clouds 8 1012 50 10000 3.37 177 14:23 10.03.2021
1642 Clouds 8 1013 48 10000 3.37 177 13:58 10.03.2021
1643 Clouds 8 1016 41 10000 1.79 45 13:34 10.03.2021
1644 Clouds 8 1013 48 10000 3.24 183 12:53 10.03.2021
1645 Clouds 8 1013 48 10000 3.24 183 12:32 10.03.2021
1646 Clouds 6 1013 55 10000 3 183 11:58 10.03.2021
1647 Clouds 7 1014 50 10000 3 183 11:30 10.03.2021
1648 Clouds 7 1014 50 10000 2.62 182 10:56 10.03.2021
1649 Clouds 6 1017 53 10000 0.89 116 10:34 10.03.2021
1650 Clouds 5 1017 58 10000 0.45 78 09:57 10.03.2021
1651 Clouds 6 1021 55 10000 2.24 118 09:39 10.03.2021
1652 Clouds 4 1014 50 10000 1.52 149 09:19 10.03.2021
1653 Clouds 3 1021 61 10000 1.34 156 08:45 10.03.2021
1654 Clouds 3 1021 61 10000 0.45 103 08:27 10.03.2021
1655 Clouds 2 1020 62 10000 1.57 105 07:48 10.03.2021
1656 Clouds 2 1020 63 7753 1.16 76 07:29 10.03.2021
1657 Clouds -1 1013 68 7753 1.16 76 06:52 10.03.2021
1658 Clouds 3 1019 72 4841 2.37 117 03:29 10.03.2021
1659 Snow 2 1013 65 46 3.55 103 00:42 10.03.2021
1660 Clouds 3 1019 75 49 3.59 106 23:49 09.03.2021
1661 Clouds 4 1019 73 58 3.41 114 22:58 09.03.2021
1662 Clouds 4 1018 71 58 3.41 114 22:38 09.03.2021
1663 Clouds 4 1019 69 52 3.1 123 22:18 09.03.2021
1664 Clouds 4 1018 66 52 3.1 123 21:44 09.03.2021
1665 Clouds 2 1013 61 46 2.65 140 21:24 09.03.2021
1666 Clouds 3 1013 55 46 2.65 140 20:56 09.03.2021
1667 Clouds 3 1013 55 46 2.64 140 20:38 09.03.2021
1668 Clouds 3 1013 55 49 2.59 155 20:19 09.03.2021
1669 Clouds 3 1013 57 49 2.59 155 19:45 09.03.2021
1670 Clouds 3 1013 62 69 2.73 160 19:25 09.03.2021
1671 Clouds 3 1012 59 55 2.65 147 18:42 09.03.2021
1672 Clouds 3 1012 59 605 2.44 156 18:23 09.03.2021
1673 Clouds 4 1012 54 606 2.44 156 17:49 09.03.2021
1674 Clouds 4 1012 54 6110 2.72 172 17:28 09.03.2021
1675 Clouds 5 1012 52 6008 2.72 172 16:41 09.03.2021
1676 Clouds 5 1012 52 10000 3.2 190 16:23 09.03.2021
1677 Clouds 5 1012 49 10000 3.2 190 15:57 09.03.2021
1678 Rain 7 1018 46 10000 4.92 170 15:28 09.03.2021
1679 Clouds 6 1012 44 10000 3.33 191 14:52 09.03.2021
1680 Clouds 7 1018 51 10000 1.79 153 14:27 09.03.2021
1681 Clouds 7 1019 52 10000 0.89 107 13:43 09.03.2021
1682 Clouds 7 1019 50 10000 4.92 135 13:22 09.03.2021
1683 Clouds 6 1019 57 10000 4.92 86 12:56 09.03.2021
1684 Clouds 6 1019 57 10000 4.92 86 12:38 09.03.2021
1685 Clouds 6 1020 58 10000 4.47 94 11:58 09.03.2021
1686 Clouds 7 1020 54 10000 4.47 193 11:39 09.03.2021
1687 Clouds 6 1020 57 10000 3.13 87 11:19 09.03.2021
1688 Clouds 4 1020 60 10000 3.13 142 10:41 09.03.2021
1689 Clouds 3 1020 64 10000 2.68 100 10:22 09.03.2021
1690 Clouds 3 1021 65 10000 3.13 105 09:58 09.03.2021
1691 Clouds 2 1021 67 10000 1.34 112 09:37 09.03.2021
1692 Clouds 1 1021 67 10000 3.58 111 09:18 09.03.2021
1693 Clouds 1 1021 68 10000 3.65 146 08:35 09.03.2021
1694 Clouds 1 1021 71 10000 2.99 142 07:50 09.03.2021
1695 Clouds 0 1021 73 10000 0.89 101 07:31 09.03.2021
1696 Clouds -1 1021 75 10000 2.68 146 06:59 09.03.2021
1697 Clouds -1 1021 75 10000 2.68 146 06:59 09.03.2021
1698 Clouds -1 1021 75 10000 0.89 119 05:54 09.03.2021
1699 Clouds 0 1021 69 10000 2.03 155 03:51 09.03.2021
1700 Clouds -1 1022 73 10000 2.13 153 00:18 09.03.2021
1701 Clouds -1 1022 73 10000 2.13 153 23:42 08.03.2021
1702 Clouds -1 1022 73 10000 2.06 141 23:23 08.03.2021
1703 Clouds 0 1022 73 10000 2.06 141 22:44 08.03.2021
1704 Clouds 0 1023 72 10000 2.2 128 22:26 08.03.2021
1705 Clouds 0 1023 72 10000 2.2 128 21:53 08.03.2021
1706 Clouds 0 1023 71 10000 2.2 128 21:34 08.03.2021
1707 Clouds 0 1023 73 10000 2.07 116 20:45 08.03.2021
1708 Clouds 0 1023 72 10000 1.99 101 20:25 08.03.2021
1709 Clouds -1 1023 71 10000 1.99 101 19:55 08.03.2021
1710 Clouds 0 1023 67 10000 2.01 86 19:28 08.03.2021
1711 Clouds 1 1023 63 10000 2.04 89 18:39 08.03.2021
1712 Clear 2 1023 60 10000 1.84 76 18:20 08.03.2021
1713 Clear 4 1023 49 10000 1.84 76 17:51 08.03.2021
1714 Clear 5 1023 46 10000 1.7 75 17:25 08.03.2021
1715 Clear 7 1023 42 10000 1.7 75 16:46 08.03.2021
1716 Clear 7 1023 39 10000 2.07 82 16:28 08.03.2021
1717 Clear 8 1023 40 10000 1.79 36 15:49 08.03.2021
1718 Clear 8 1023 41 10000 3.58 105 15:26 08.03.2021
1719 Clear 7 1023 39 10000 0.89 333 14:43 08.03.2021
1720 Clear 7 1023 40 10000 2.68 49 14:20 08.03.2021
1721 Clear 7 1024 39 10000 0.89 35 13:38 08.03.2021
1722 Clouds 7 1024 41 10000 0.45 335 13:19 08.03.2021
1723 Clouds 7 1024 47 10000 0.45 101 12:42 08.03.2021
1724 Clouds 7 1024 46 10000 2.79 66 12:42 08.03.2021
1725 Clouds 6 1024 48 10000 2.68 0 12:23 08.03.2021
1726 Clouds 6 1024 50 10000 1.34 28 11:40 08.03.2021
1727 Clouds 6 1024 58 10000 0.89 71 11:19 08.03.2021
1728 Clouds 4 1024 65 10000 1.34 2 10:43 08.03.2021
1729 Clouds 4 1024 67 10000 3.58 359 10:24 08.03.2021
1730 Clouds 3 1024 74 10000 1.34 16 09:41 08.03.2021
1731 Clouds 2 1024 77 10000 2.68 344 09:23 08.03.2021
1732 Clouds 2 1024 77 10000 2.68 344 09:23 08.03.2021
1733 Clouds 0 1017 83 10000 2.34 22 08:29 08.03.2021
1734 Clouds -4 1017 99 10000 2.5 13 07:24 08.03.2021
1735 Clouds -1 1022 90 10000 1.79 313 06:44 08.03.2021
1736 Clouds 2 1020 89 10000 2.24 285 03:39 08.03.2021
1737 Rain 2 1020 89 236 4.02 287 00:45 08.03.2021
1738 Rain 3 1020 85 3149 4.47 266 23:59 07.03.2021
1739 Rain 3 1020 82 3149 0.89 247 23:39 07.03.2021
1740 Rain 3 1020 78 6029 2.24 237 23:20 07.03.2021
1741 Clouds 3 1020 75 6029 1.34 224 22:44 07.03.2021
1742 Clouds 3 1020 76 198 0.89 204 22:26 07.03.2021
1743 Clouds 3 1020 75 198 1.34 304 21:45 07.03.2021
1744 Clouds 3 1020 76 9795 0.89 220 21:26 07.03.2021
1745 Clouds 3 1020 72 9795 2.24 231 20:49 07.03.2021
1746 Clouds 3 1020 71 9795 0.89 217 20:31 07.03.2021
1747 Clouds 3 1020 69 10000 5.16 281 19:58 07.03.2021
1748 Clouds 4 1020 69 10000 5.16 281 19:39 07.03.2021
1749 Clouds 4 1020 69 10000 4.23 286 19:20 07.03.2021
1750 Clouds 4 1020 68 10000 4.23 286 18:47 07.03.2021
1751 Clouds 4 1020 67 10000 3.75 282 18:20 07.03.2021
1752 Clouds 4 1020 66 10000 3.75 282 17:44 07.03.2021
1753 Clouds 4 1020 64 10000 4.59 294 17:21 07.03.2021
1754 Clouds 4 1020 64 10000 4.59 294 17:21 07.03.2021
1755 Clouds 5 1020 63 10000 4.59 294 16:59 07.03.2021
1756 Clouds 5 1021 62 10000 4.59 294 16:39 07.03.2021
1757 Clouds 5 1021 62 10000 4.59 294 16:39 07.03.2021
1758 Clouds 5 1021 61 10000 5.81 256 16:19 07.03.2021
1759 Clouds 5 1021 60 10000 3.13 293 15:45 07.03.2021
1760 Clouds 5 1021 58 10000 4.02 293 15:24 07.03.2021
1761 Clouds 5 1022 59 10000 1.79 280 14:39 07.03.2021
1762 Clouds 6 1022 58 10000 1.79 295 14:21 07.03.2021
1763 Clouds 5 1023 56 10000 4.02 319 13:42 07.03.2021
1764 Clouds 4 1023 58 10000 4.47 271 13:23 07.03.2021
1765 Clouds 5 1024 58 10000 3.13 295 12:47 07.03.2021
1766 Clouds 5 1024 58 10000 2.68 314 12:29 07.03.2021
1767 Clouds 5 1025 58 10000 2.24 272 11:52 07.03.2021
1768 Clouds 4 1025 60 10000 4.92 290 11:23 07.03.2021
1769 Clouds 4 1025 60 10000 2.68 276 10:50 07.03.2021
1770 Clouds 3 1025 60 10000 7.6 300 10:31 07.03.2021
1771 Clouds 3 1026 62 10000 3.13 259 09:51 07.03.2021
1772 Clear 3 1026 65 10000 4.47 289 09:26 07.03.2021
1773 Clear 3 1026 71 10000 1.34 273 08:48 07.03.2021
1774 Clear 2 1019 68 10000 4.21 275 08:25 07.03.2021
1775 Clear 2 1026 76 10000 1.34 228 07:51 07.03.2021
1776 Clouds 3 1028 83 10000 3.18 268 02:44 07.03.2021
1777 Clouds 3 1028 82 10000 2.24 266 02:24 07.03.2021
1778 Clouds 4 1029 80 10000 0.45 266 00:24 07.03.2021
1779 Clouds 4 1029 79 10000 2.24 249 23:39 06.03.2021
1780 Clouds 4 1029 80 10000 1.34 235 23:19 06.03.2021
1781 Clouds 3 1029 82 10000 2.68 271 22:41 06.03.2021
1782 Clouds 3 1029 81 10000 1.79 241 22:21 06.03.2021
1783 Clouds 4 1030 79 10000 0.45 282 21:40 06.03.2021
1784 Clouds 4 1030 78 10000 0.89 231 21:20 06.03.2021
1785 Clouds 4 1030 77 10000 3.2 285 20:41 06.03.2021
1786 Clouds 4 1030 74 10000 1.34 268 19:55 06.03.2021
1787 Clouds 4 1030 74 10000 2.24 261 19:37 06.03.2021
1788 Clouds 4 1031 73 10000 1.79 266 19:18 06.03.2021
1789 Clouds 3 1025 77 10000 2.9 293 18:41 06.03.2021
1790 Clouds 4 1031 73 10000 1.79 280 18:20 06.03.2021
1791 Clouds 5 1031 74 10000 1.79 283 17:48 06.03.2021
1792 Clouds 5 1031 75 10000 0.89 309 17:27 06.03.2021
1793 Clouds 5 1031 74 10000 1.34 271 16:53 06.03.2021
1794 Clouds 5 1031 72 10000 2.68 286 16:31 06.03.2021
1795 Clouds 5 1031 71 10000 1.79 286 15:56 06.03.2021
1796 Clouds 6 1031 70 10000 4.47 289 15:38 06.03.2021
1797 Clouds 6 1032 69 10000 3.13 300 15:18 06.03.2021
1798 Clouds 6 1032 66 10000 1.79 201 14:31 06.03.2021
1799 Clouds 6 1032 63 10000 4.02 282 13:55 06.03.2021
1800 Clouds 6 1032 62 10000 3.58 261 13:37 06.03.2021
1801 Clouds 6 1033 62 10000 2.68 223 13:18 06.03.2021
1802 Clouds 6 1033 61 10000 3.13 295 12:42 06.03.2021
1803 Clouds 5 1033 64 10000 1.34 197 12:18 06.03.2021
1804 Clouds 4 1034 63 10000 3.13 287 11:38 06.03.2021
1805 Clouds 4 1034 60 10000 1.79 159 11:19 06.03.2021
1806 Clouds 4 1034 64 10000 2.68 302 10:43 06.03.2021
1807 Clear 3 1034 67 10000 2.24 249 09:58 06.03.2021
1808 Clear 2 1034 70 10000 4.02 231 09:26 06.03.2021
1809 Clear 2 1034 70 10000 5.22 284 08:58 06.03.2021
1810 Clear 2 1034 63 10000 4.02 230 08:32 06.03.2021
1811 Clear 2 1034 67 10000 3.58 258 07:56 06.03.2021
1812 Clear -1 1033 76 10000 1.79 258 07:23 06.03.2021
1813 Clear -2 1033 83 10000 1.34 271 06:44 06.03.2021
1814 Clear -3 1033 84 10000 2.87 274 03:49 06.03.2021
1815 Clear -2 1033 83 10000 2.43 284 02:24 06.03.2021
1816 Clear -2 1033 82 10000 2.36 287 00:47 06.03.2021
1817 Clear -2 1032 82 10000 2.44 288 23:52 05.03.2021
1818 Clear -2 1032 81 10000 2.3 283 23:24 05.03.2021
1819 Clear -1 1032 80 10000 2.3 283 22:45 05.03.2021
1820 Clear -1 1031 79 10000 0.45 173 22:22 05.03.2021
1821 Clear -1 1031 77 10000 0.89 175 21:53 05.03.2021
1822 Clear -1 1031 76 10000 1.94 289 21:34 05.03.2021
1823 Clear 0 1031 74 10000 1.79 302 20:54 05.03.2021
1824 Clear 1 1031 72 10000 1.85 314 20:27 05.03.2021
1825 Clear 1 1030 72 10000 1.85 314 19:59 05.03.2021
1826 Clear 0 1030 67 10000 2.01 319 19:27 05.03.2021
1827 Clear 1 1030 59 10000 0.45 289 18:58 05.03.2021
1828 Clear 1 1030 55 10000 0.45 290 18:40 05.03.2021
1829 Clear 2 1029 53 10000 0.45 309 18:21 05.03.2021
1830 Clear 5 1029 47 10000 0.45 319 17:36 05.03.2021
1831 Clear 5 1029 45 10000 0.45 355 17:36 05.03.2021
1832 Clear 6 1028 42 10000 4.47 287 16:50 05.03.2021
1833 Clouds 7 1028 43 10000 1.34 337 16:25 05.03.2021
1834 Clouds 7 1028 40 10000 3.13 0 15:59 05.03.2021
1835 Clouds 7 1028 41 10000 2.24 306 15:41 05.03.2021
1836 Clouds 7 1028 42 10000 2.68 310 15:22 05.03.2021
1837 Clouds 7 1028 44 10000 4.02 23 14:38 05.03.2021
1838 Clouds 7 1028 42 10000 4.47 320 13:59 05.03.2021
1839 Clouds 7 1027 45 10000 2.68 320 13:22 05.03.2021
1840 Clouds 6 1028 48 10000 4.92 321 12:56 05.03.2021
1841 Clouds 6 1027 54 10000 3.95 7 12:23 05.03.2021
1842 Clouds 5 1027 65 10000 3.13 9 11:37 05.03.2021
1843 Clouds 4 1027 69 10000 4.02 357 11:18 05.03.2021
1844 Clouds 5 1027 72 10000 4.02 9 10:42 05.03.2021
1845 Clouds 4 1027 75 10000 2.68 31 10:23 05.03.2021
1846 Clouds 4 1027 76 10000 1.34 347 09:50 05.03.2021
1847 Clouds 3 1027 74 10000 1.34 334 09:27 05.03.2021
1848 Clouds 2 1026 78 10000 0.45 352 08:46 05.03.2021
1849 Clouds 1 1020 83 10000 2.62 350 08:27 05.03.2021
1850 Clouds 1 1026 82 10000 2.24 333 07:58 05.03.2021
1851 Clouds 1 1025 84 10000 1.79 18 07:29 05.03.2021
1852 Clouds 1 1024 86 10000 1.79 341 06:33 05.03.2021
1853 Clouds 1 1023 86 10000 1.79 358 05:32 05.03.2021
1854 Clouds 3 1020 90 10000 1.79 359 00:53 05.03.2021
1855 Clouds 3 1019 88 407 3.13 26 23:44 04.03.2021
1856 Clouds 3 1019 89 396 0.89 276 23:22 04.03.2021
1857 Clouds 3 1019 91 10000 1.79 8 22:29 04.03.2021
1858 Rain 3 1018 89 10000 1.34 319 21:53 04.03.2021
1859 Clouds 3 1018 87 10000 2.04 321 21:29 04.03.2021
1860 Clouds 3 1018 85 10000 1.34 299 20:56 04.03.2021
1861 Clouds 3 1018 85 10000 0.45 326 20:38 04.03.2021
1862 Clouds 3 1018 85 10000 1.92 306 20:18 04.03.2021
1863 Rain 3 1018 84 10000 1.92 306 19:43 04.03.2021
1864 Rain 3 1018 84 10000 2.19 321 19:23 04.03.2021
1865 Rain 3 1018 84 10000 2.73 322 18:45 04.03.2021
1866 Rain 3 1018 84 10000 3.27 325 18:26 04.03.2021
1867 Clouds 3 1018 85 10000 2.24 287 17:47 04.03.2021
1868 Clouds 3 1018 85 10000 1.79 309 17:29 04.03.2021
1869 Clouds 3 1018 84 10000 2.68 335 16:50 04.03.2021
1870 Clouds 3 1018 84 10000 1.79 311 16:31 04.03.2021
1871 Clouds 4 1018 82 10000 3.13 300 15:56 04.03.2021
1872 Clouds 4 1018 81 10000 2.68 302 15:34 04.03.2021
1873 Clouds 4 1018 84 10000 3.58 285 14:53 04.03.2021
1874 Clouds 4 1018 84 10000 2.24 317 14:31 04.03.2021
1875 Clouds 4 1019 83 10000 3.13 303 13:52 04.03.2021
1876 Clouds 4 1019 84 10000 2.24 314 13:33 04.03.2021
1877 Clouds 4 1019 82 10000 2.24 290 12:58 04.03.2021
1878 Clouds 4 1019 83 10000 4.02 295 12:40 04.03.2021
1879 Rain 4 1019 81 10000 2.68 282 11:49 04.03.2021
1880 Clouds 4 1019 81 10000 1.79 282 11:28 04.03.2021
1881 Clouds 4 1019 81 10000 1.79 278 10:56 04.03.2021
1882 Clouds 4 1019 81 10000 3.13 307 10:34 04.03.2021
1883 Clouds 4 1020 84 10000 3.13 335 09:47 04.03.2021
1884 Clouds 4 1020 84 10000 0.89 300 09:25 04.03.2021
1885 Clouds 4 1020 84 10000 4.02 303 08:42 04.03.2021
1886 Clouds 4 1020 85 10000 1.34 296 08:22 04.03.2021
1887 Clouds 4 1020 87 10000 4.99 290 07:35 04.03.2021
1888 Clouds 3 1020 90 10000 2.24 282 06:28 04.03.2021
1889 Clouds 3 1020 91 10000 1.34 314 05:42 04.03.2021
1890 Clear 4 1022 88 10000 3.34 279 01:49 04.03.2021
1891 Clouds 6 1022 85 10000 3.56 289 23:36 03.03.2021
1892 Clouds 7 1023 82 10000 0.45 187 22:29 03.03.2021
1893 Clouds 8 1023 80 10000 3.64 271 21:57 03.03.2021
1894 Clouds 8 1023 78 10000 3.64 271 21:39 03.03.2021
1895 Clouds 7 1023 77 10000 3.61 261 21:21 03.03.2021
1896 Clouds 8 1023 75 10000 3.61 261 20:43 03.03.2021
1897 Clouds 8 1023 71 10000 3.5 261 20:24 03.03.2021
1898 Clouds 9 1023 73 10000 1.79 247 19:48 03.03.2021
1899 Clouds 9 1023 71 10000 3.38 262 19:29 03.03.2021
1900 Clouds 10 1023 73 10000 1.79 251 18:53 03.03.2021
1901 Clouds 10 1023 78 10000 3.21 263 18:34 03.03.2021
1902 Clouds 12 1023 75 10000 2.72 273 17:57 03.03.2021
1903 Clouds 13 1024 68 10000 2.4 281 17:21 03.03.2021
1904 Clouds 14 1024 62 10000 0.89 148 16:52 03.03.2021
1905 Clear 14 1024 56 10000 2.34 271 16:27 03.03.2021
1906 Clear 15 1025 53 10000 2.34 271 15:53 03.03.2021
1907 Clear 15 1025 51 10000 0.89 175 15:32 03.03.2021
1908 Clear 16 1025 56 10000 2.68 159 14:45 03.03.2021
1909 Clear 15 1026 57 10000 0.45 186 14:26 03.03.2021
1910 Clear 14 1026 59 10000 2.77 258 13:42 03.03.2021
1911 Clear 14 1027 60 10000 2.62 260 13:21 03.03.2021
1912 Clear 13 1027 61 10000 0.89 184 12:43 03.03.2021
1913 Clear 12 1028 64 10000 2.53 254 12:23 03.03.2021
1914 Clear 12 1028 64 10000 2.53 254 12:23 03.03.2021
1915 Clear 11 1028 68 10000 3.13 182 11:45 03.03.2021
1916 Clear 11 1028 70 10000 0.89 90 11:27 03.03.2021
1917 Clear 8 1029 80 10000 0.45 112 10:45 03.03.2021
1918 Clear 7 1029 84 10000 2.24 160 10:22 03.03.2021
1919 Clear 4 1023 77 10000 1.7 245 09:43 03.03.2021
1920 Clear 7 1029 71 10000 1.35 234 08:54 03.03.2021
1921 Clear 2 1030 87 10000 0.88 224 08:25 03.03.2021
1922 Clear 4 1029 80 10000 0.88 224 07:58 03.03.2021
1923 Clear 4 1029 80 10000 0.88 224 07:33 03.03.2021
1924 Clear 0 1025 83 10000 0.81 211 06:45 03.03.2021
1925 Clear 1 1025 83 10000 1.18 187 05:44 03.03.2021
1926 Clear 1 1025 83 10000 1.27 164 04:49 03.03.2021
1927 Clear 1 1025 83 10000 1.38 160 04:24 03.03.2021
1928 Clear 2 1028 82 10000 2.04 165 00:37 03.03.2021
1929 Clear 3 1029 82 10000 2.16 166 23:35 02.03.2021
1930 Clear 2 1032 91 10000 2.28 161 22:53 02.03.2021
1931 Clear 4 1029 81 10000 2.31 150 22:23 02.03.2021
1932 Clear 4 1029 81 10000 2.31 150 21:59 02.03.2021
1933 Clear 3 1032 90 10000 2.31 150 21:37 02.03.2021
1934 Clear 3 1032 89 10000 2.28 146 21:18 02.03.2021
1935 Clear 3 1032 89 10000 2.28 146 20:41 02.03.2021
1936 Clear 4 1032 89 10000 2.41 142 20:21 02.03.2021
1937 Clear 4 1032 88 10000 2.41 142 19:49 02.03.2021
1938 Clear 4 1032 88 10000 2.41 142 19:30 02.03.2021
1939 Clear 5 1032 86 10000 2.52 134 18:55 02.03.2021
1940 Clear 6 1032 85 10000 2.41 136 18:36 02.03.2021
1941 Clear 6 1032 83 10000 2.25 130 18:18 02.03.2021
1942 Clear 7 1032 78 10000 2.25 130 17:40 02.03.2021
1943 Clear 8 1032 77 10000 2.03 120 17:20 02.03.2021
1944 Clear 12 1033 70 10000 0.89 97 16:48 02.03.2021
1945 Clear 12 1033 66 10000 0.89 110 15:59 02.03.2021
1946 Clear 11 1033 69 10000 1.79 7 15:29 02.03.2021
1947 Clear 13 1028 55 10000 2.83 105 14:56 02.03.2021
1948 Clear 11 1028 63 10000 2.57 112 14:21 02.03.2021
1949 Clear 9 1029 67 10000 2.57 112 13:48 02.03.2021
1950 Clear 11 1033 58 10000 2.49 118 13:28 02.03.2021
1951 Clear 12 1033 58 10000 2.55 123 12:51 02.03.2021
1952 Clear 10 1034 61 10000 2.41 128 12:26 02.03.2021
1953 Clear 10 1034 61 10000 2.41 128 11:53 02.03.2021
1954 Clear 9 1034 66 10000 2.33 139 11:29 02.03.2021
1955 Clear 9 1034 66 10000 2.33 139 10:57 02.03.2021
1956 Clear 4 1036 83 10000 0.45 112 10:31 02.03.2021
1957 Clear 4 1036 86 10000 1.34 104 09:44 02.03.2021
1958 Clear 3 1036 87 10000 2.19 145 09:25 02.03.2021
1959 Clear 3 1036 88 10000 2.19 145 08:56 02.03.2021
1960 Clear 2 1036 89 10000 2.19 145 08:35 02.03.2021
1961 Clear 2 1036 91 10000 2.13 143 07:52 02.03.2021
1962 Clear 1 1035 91 10000 0.45 107 06:50 02.03.2021
1963 Clear 1 1035 92 10000 0.89 93 05:54 02.03.2021
1964 Clear 1 1035 92 10000 1.88 141 05:33 02.03.2021
1965 Clear 2 1035 90 10000 1.34 76 04:39 02.03.2021
1966 Clear 2 1035 88 10000 0.89 135 01:43 02.03.2021
1967 Clear 2 1035 88 10000 0.45 84 01:22 02.03.2021
1968 Clear 2 1035 87 10000 0.89 149 23:45 01.03.2021
1969 Clear 2 1035 88 10000 0.45 167 23:20 01.03.2021
1970 Clear 2 1035 88 10000 0.45 158 22:39 01.03.2021
1971 Clear 3 1035 87 10000 1.66 123 22:21 01.03.2021
1972 Clear 3 1035 87 10000 1.66 123 21:43 01.03.2021
1973 Clear 3 1035 87 10000 3.13 179 21:23 01.03.2021
1974 Clear 3 1035 87 10000 3.13 179 21:23 01.03.2021
1975 Clear 3 1035 87 10000 0.89 138 20:46 01.03.2021
1976 Clear 3 1035 86 10000 2.68 152 20:27 01.03.2021
1977 Clear 4 1035 86 10000 0.89 141 19:45 01.03.2021
1978 Clear 4 1035 86 10000 1.79 149 19:27 01.03.2021
1979 Clear 4 1035 84 10000 1.79 153 18:44 01.03.2021
1980 Clear 4 1035 84 10000 1.53 142 18:24 01.03.2021
1981 Clear 4 1035 84 10000 1.34 86 17:49 01.03.2021
1982 Clear 5 1035 81 10000 0.89 107 17:24 01.03.2021
1983 Clear 6 1036 81 10000 1.34 118 16:48 01.03.2021
1984 Clear 7 1030 68 10000 1.73 139 16:30 01.03.2021
1985 Clear 9 1030 58 10000 1.95 132 15:58 01.03.2021
1986 Clear 11 1030 55 10000 1.95 132 15:38 01.03.2021
1987 Clear 11 1030 55 10000 1.87 129 15:18 01.03.2021
1988 Clear 7 1036 75 10000 3.13 36 14:40 01.03.2021
1989 Clear 9 1036 72 10000 0.89 28 14:21 01.03.2021
1990 Clear 7 1036 70 10000 1.34 153 13:38 01.03.2021
1991 Clouds 7 1037 69 10000 0.89 63 13:20 01.03.2021
1992 Clouds 7 1037 69 10000 1.79 104 12:43 01.03.2021
1993 Clouds 7 1037 70 10000 1.34 138 12:25 01.03.2021
1994 Clouds 7 1037 73 10000 0.45 155 11:57 01.03.2021
1995 Clouds 6 1037 75 10000 1.79 175 11:29 01.03.2021
1996 Clouds 4 1038 77 10000 0.45 73 10:42 01.03.2021
1997 Clouds 4 1038 77 10000 2.68 162 10:22 01.03.2021
1998 Clouds 4 1038 78 10000 1.79 28 09:53 01.03.2021
1999 Clouds 4 1037 80 10000 1.34 127 09:34 01.03.2021
2000 Clouds 4 1037 81 10000 1.43 175 08:57 01.03.2021
2001 Clouds 4 1037 84 10000 2.24 165 08:33 01.03.2021
2002 Clouds 2 1031 100 10000 0.5 198 07:33 01.03.2021
2003 Clear 3 1037 88 10000 1.34 125 06:25 01.03.2021
2004 Clear 3 1036 89 10000 0.45 220 02:40 01.03.2021
2005 Clouds 3 1037 89 10000 1.66 276 23:54 28.02.2021
2006 Clouds 3 1037 89 10000 1.69 268 23:20 28.02.2021
2007 Clouds 3 1037 90 10000 1.69 268 22:44 28.02.2021
2008 Clouds 3 1037 90 10000 0.89 199 22:21 28.02.2021
2009 Clouds 3 1037 90 10000 0.45 241 21:46 28.02.2021
2010 Clouds 3 1037 90 10000 1.15 304 21:23 28.02.2021
2011 Clouds 3 1037 91 10000 1.15 304 20:49 28.02.2021
2012 Clouds 3 1037 91 10000 1.79 333 20:30 28.02.2021
2013 Clouds 3 1036 91 10000 3.13 314 19:47 28.02.2021
2014 Clouds 4 1037 91 10000 1.34 347 19:27 28.02.2021
2015 Clouds 3 1037 90 10000 0.89 282 18:47 28.02.2021
2016 Clouds 4 1036 89 10000 1.79 343 18:28 28.02.2021
2017 Clouds 4 1036 88 10000 0.89 272 17:58 28.02.2021
2018 Clouds 4 1036 87 10000 3.13 290 17:38 28.02.2021
2019 Clouds 9 1035 79 10000 1.85 331 17:20 28.02.2021
2020 Clouds 9 1035 79 10000 1.85 331 16:48 28.02.2021
2021 Clouds 10 1035 73 10000 2.49 330 16:29 28.02.2021
2022 Clouds 10 1035 73 10000 2.49 330 15:52 28.02.2021
2023 Clouds 10 1035 72 10000 2.55 327 15:28 28.02.2021
2024 Clouds 10 1035 72 10000 2.55 327 14:58 28.02.2021
2025 Clouds 10 1035 72 10000 2.55 327 14:35 28.02.2021
2026 Clouds 10 1036 71 10000 2.46 314 13:59 28.02.2021
2027 Clouds 10 1036 71 10000 2.46 314 13:38 28.02.2021
2028 Clear 6 1044 91 10000 0.45 223 13:19 28.02.2021
2029 Clear 6 1045 90 10000 0.45 223 12:54 28.02.2021
2030 Clear 6 1045 90 10000 0.45 227 12:35 28.02.2021
2031 Clear 6 1038 82 10000 1.34 310 11:58 28.02.2021
2032 Clear 6 1038 82 10000 0.89 7 11:40 28.02.2021
2033 Clear 6 1038 82 10000 0.89 326 11:21 28.02.2021
2034 Clear 6 1038 83 10000 0.89 323 10:43 28.02.2021
2035 Clear 6 1038 82 10000 4.02 299 10:25 28.02.2021
2036 Clear 6 1038 88 10000 1.34 223 09:40 28.02.2021
2037 Clear 5 1038 88 10000 0.45 204 09:21 28.02.2021
2038 Clear 4 1038 89 10000 3.21 298 08:45 28.02.2021
2039 Clear 4 1038 87 10000 2.82 283 08:26 28.02.2021
2040 Clear 3 1038 92 10000 1.79 242 07:46 28.02.2021
2041 Clear 2 1038 93 10000 0.89 247 07:28 28.02.2021
2042 Clear 1 1038 91 10000 0.89 66 06:25 28.02.2021
2043 Clear 2 1038 91 10000 1.9 263 05:23 28.02.2021
2044 Clear 2 1039 91 10000 1.82 239 02:40 28.02.2021
2045 Clouds 3 1039 89 10000 0.45 160 01:36 28.02.2021
2046 Clouds 4 1039 88 10000 1.44 255 00:43 28.02.2021
2047 Clouds 4 1039 88 10000 1.02 263 00:23 28.02.2021
2048 Clouds 5 1039 87 10000 1.02 263 23:44 27.02.2021
2049 Clouds 5 1039 86 10000 0.31 237 23:19 27.02.2021
2050 Clouds 3 1037 80 10000 0.31 237 22:44 27.02.2021
2051 Clouds 6 1039 83 10000 0.52 21 22:19 27.02.2021
2052 Clouds 4 1037 78 10000 0.52 21 21:41 27.02.2021
2053 Clouds 6 1039 78 10000 1.16 6 21:23 27.02.2021
2054 Clouds 6 1039 77 10000 1.16 6 20:48 27.02.2021
2055 Clouds 7 1039 76 10000 1.91 349 20:27 27.02.2021
2056 Clouds 7 1039 74 10000 1.91 349 19:45 27.02.2021
2057 Clouds 7 1039 74 10000 1.79 310 19:27 27.02.2021
2058 Clouds 7 1039 73 10000 2.24 310 18:45 27.02.2021
2059 Clouds 7 1039 73 10000 0.45 290 18:21 27.02.2021
2060 Clouds 7 1038 73 10000 1.34 314 17:57 27.02.2021
2061 Clouds 7 1038 73 10000 1.34 307 17:36 27.02.2021
2062 Clouds 7 1038 73 10000 1.34 285 17:18 27.02.2021
2063 Clouds 8 1038 72 10000 2.88 324 16:48 27.02.2021
2064 Clouds 8 1039 72 10000 0.45 357 16:26 27.02.2021
2065 Clouds 8 1038 72 10000 1.79 335 15:43 27.02.2021
2066 Clouds 8 1038 71 10000 2.24 12 15:18 27.02.2021
2067 Clouds 8 1038 72 10000 1.34 278 14:40 27.02.2021
2068 Clouds 8 1038 73 10000 2.68 279 14:20 27.02.2021
2069 Clouds 7 1039 75 10000 1.79 297 13:40 27.02.2021
2070 Clouds 7 1039 74 10000 2.24 334 13:19 27.02.2021
2071 Clouds 7 1039 75 10000 1.34 297 12:45 27.02.2021
2072 Clouds 7 1039 75 10000 4.02 282 12:24 27.02.2021
2073 Clouds 7 1039 76 10000 3.58 295 11:47 27.02.2021
2074 Clouds 7 1039 76 10000 4.47 309 11:29 27.02.2021
2075 Clouds 7 1038 76 10000 1.34 266 10:50 27.02.2021
2076 Clouds 7 1038 77 10000 4.02 314 10:32 27.02.2021
2077 Clouds 6 1038 78 10000 1.79 285 09:53 27.02.2021
2078 Clouds 6 1038 78 10000 3.13 256 09:31 27.02.2021
2079 Clouds 6 1038 80 10000 3.13 286 08:43 27.02.2021
2080 Clouds 5 1035 81 10000 0.89 274 08:24 27.02.2021
2081 Clouds 5 1037 81 10000 0.45 184 07:44 27.02.2021
2082 Clear 4 1037 81 10000 0.45 340 06:55 27.02.2021
2083 Clouds 4 1034 87 10000 4.92 280 01:24 27.02.2021
2084 Clear 4 1034 84 10000 4.02 252 00:30 27.02.2021
2085 Clear 6 1034 82 10000 4.02 307 23:41 26.02.2021
2086 Clouds 6 1034 81 10000 3.13 273 23:21 26.02.2021
2087 Clouds 7 1033 78 10000 1.34 307 22:34 26.02.2021
2088 Clear 7 1033 77 10000 0.89 313 21:54 26.02.2021
2089 Clear 7 1032 76 10000 1.34 328 21:35 26.02.2021
2090 Clear 7 1032 73 10000 3.58 271 20:56 26.02.2021
2091 Clear 6 1032 79 10000 0.45 13 20:37 26.02.2021
2092 Clear 8 1032 70 10000 4.47 293 20:18 26.02.2021
2093 Clouds 8 1032 66 10000 3.58 296 19:27 26.02.2021
2094 Clouds 8 1031 66 10000 1.34 296 18:57 26.02.2021
2095 Clouds 8 1031 68 10000 0.89 280 18:25 26.02.2021
2096 Clouds 8 1031 68 10000 3.58 286 17:59 26.02.2021
2097 Clouds 8 1031 66 10000 3.58 290 17:38 26.02.2021
2098 Clouds 9 1030 63 10000 2.24 297 17:19 26.02.2021
2099 Clouds 9 1030 61 10000 2.68 292 16:46 26.02.2021
2100 Clouds 10 1030 60 10000 4.02 313 16:28 26.02.2021
2101 Clouds 11 1030 63 10000 2.24 313 15:45 26.02.2021
2102 Clouds 11 1030 62 10000 3.58 276 15:27 26.02.2021
2103 Clouds 9 1031 67 10000 4.47 297 14:58 26.02.2021
2104 Clouds 10 1031 66 10000 4.02 299 14:36 26.02.2021
2105 Clouds 10 1031 67 10000 1.34 293 13:59 26.02.2021
2106 Clouds 10 1031 67 10000 3.58 276 13:39 26.02.2021
2107 Clouds 10 1031 72 10000 4.02 282 13:20 26.02.2021
2108 Clouds 10 1031 72 10000 4.02 282 13:20 26.02.2021
2109 Rain 10 1031 75 10000 1.79 280 12:33 26.02.2021
2110 Clouds 9 1031 76 10000 2.68 293 11:47 26.02.2021
2111 Rain 8 1031 80 10000 5.36 280 11:20 26.02.2021
2112 Rain 9 1031 79 10000 3.13 309 10:44 26.02.2021
2113 Clouds 8 1031 89 10000 2.68 286 09:49 26.02.2021
2114 Rain 8 1031 91 10000 0.89 307 09:29 26.02.2021
2115 Rain 8 1030 92 10000 3.96 320 08:51 26.02.2021
2116 Rain 8 1030 92 10000 3.73 332 08:18 26.02.2021
2117 Rain 8 1029 90 10000 3.73 332 07:41 26.02.2021
2118 Clouds 9 1029 83 10000 3.13 306 06:35 26.02.2021
2119 Rain 9 1028 83 10000 4.47 328 05:21 26.02.2021
2120 Clouds 10 1028 80 10000 2.24 348 02:54 26.02.2021
2121 Clouds 10 1027 81 10000 1.79 326 01:29 26.02.2021
2122 Clouds 9 1026 83 10000 0.45 179 23:44 25.02.2021
2123 Clouds 10 1026 82 10000 2.24 319 23:25 25.02.2021
2124 Clouds 10 1027 81 10000 1.34 191 22:47 25.02.2021
2125 Clouds 10 1027 82 10000 0.45 211 21:58 25.02.2021
2126 Clouds 10 1027 82 10000 0.89 217 21:36 25.02.2021
2127 Clouds 10 1027 82 10000 1.9 286 21:18 25.02.2021
2128 Clouds 10 1027 81 10000 0.45 197 20:40 25.02.2021
2129 Clear 11 1027 79 10000 0.45 189 20:21 25.02.2021
2130 Clear 11 1027 77 10000 2.21 281 19:51 25.02.2021
2131 Clear 12 1027 74 10000 2.48 283 19:21 25.02.2021
2132 Clear 12 1026 73 10000 2.66 280 18:56 25.02.2021
2133 Clear 13 1026 69 10000 2.91 283 18:19 25.02.2021
2134 Clear 15 1026 63 10000 2.91 283 17:46 25.02.2021
2135 Clear 16 1026 59 10000 0.45 317 17:25 25.02.2021
2136 Clear 18 1026 51 10000 1.79 265 16:43 25.02.2021
2137 Clear 18 1026 48 10000 3.58 297 16:24 25.02.2021
2138 Clear 19 1025 45 10000 4.02 245 15:30 25.02.2021
2139 Clear 19 1025 44 10000 1.79 227 14:49 25.02.2021
2140 Clear 19 1025 45 10000 0.45 77 14:22 25.02.2021
2141 Clear 19 1026 46 10000 0.45 90 13:51 25.02.2021
2142 Clear 18 1026 47 10000 0.45 290 13:25 25.02.2021
2143 Clear 18 1026 49 10000 2.24 292 12:53 25.02.2021
2144 Clear 18 1026 53 10000 2.68 199 12:21 25.02.2021
2145 Clear 16 1027 59 10000 1.34 213 11:45 25.02.2021
2146 Clear 15 1027 63 10000 1.34 230 11:19 25.02.2021
2147 Clear 14 1027 69 10000 0.89 201 10:45 25.02.2021
2148 Clear 13 1027 74 10000 1.34 263 10:23 25.02.2021
2149 Clear 13 1024 71 10000 0.45 90 09:42 25.02.2021
2150 Clear 9 1027 86 10000 0.89 166 08:56 25.02.2021
2151 Clear 8 1027 89 10000 2.67 200 08:25 25.02.2021
2152 Clear 7 1021 81 10000 0.45 72 07:56 25.02.2021
2153 Clear 7 1022 81 10000 0.45 81 07:31 25.02.2021
2154 Clear 7 1022 81 10000 0.45 104 06:53 25.02.2021
2155 Clear 8 1023 81 10000 0.45 174 01:59 25.02.2021
2156 Clear 7 1028 89 10000 2.91 184 01:37 25.02.2021
2157 Clear 7 1028 88 10000 2.65 193 00:41 25.02.2021
2158 Clear 8 1028 88 10000 2.91 191 23:53 24.02.2021
2159 Clear 8 1028 87 10000 3.11 190 23:28 24.02.2021
2160 Clear 8 1029 86 10000 3.11 190 22:45 24.02.2021
2161 Clear 9 1029 86 10000 3.21 193 22:25 24.02.2021
2162 Clear 9 1029 85 10000 3.21 193 21:46 24.02.2021
2163 Clear 10 1029 84 10000 0.45 127 21:19 24.02.2021
2164 Clear 11 1029 82 10000 3.19 201 20:41 24.02.2021
2165 Clear 11 1029 81 10000 3.06 206 20:22 24.02.2021
2166 Clear 12 1030 79 10000 3.06 206 19:36 24.02.2021
2167 Clear 12 1030 78 10000 0.45 179 19:18 24.02.2021
2168 Clear 12 1030 78 10000 0.45 179 19:18 24.02.2021
2169 Clear 13 1030 76 10000 0.89 159 18:42 24.02.2021
2170 Clear 13 1030 75 10000 0.89 166 18:22 24.02.2021
2171 Clear 15 1029 69 10000 0.89 190 17:39 24.02.2021
2172 Clear 16 1029 67 10000 2.68 211 17:20 24.02.2021
2173 Clear 17 1030 64 10000 1.34 139 16:45 24.02.2021
2174 Clear 18 1029 59 10000 2.95 223 16:20 24.02.2021
2175 Clear 19 1030 54 10000 0.89 142 15:47 24.02.2021
2176 Clear 19 1030 53 10000 4.92 231 15:25 24.02.2021
2177 Clear 19 1030 51 10000 0.89 210 14:43 24.02.2021
2178 Clear 20 1030 52 10000 1.34 279 14:25 24.02.2021
2179 Clear 19 1031 53 10000 1.79 196 13:41 24.02.2021
2180 Clouds 19 1031 53 10000 1.79 180 13:22 24.02.2021
2181 Clouds 19 1031 57 10000 0.45 197 12:46 24.02.2021
2182 Clouds 19 1032 59 10000 2.68 160 12:27 24.02.2021
2183 Clouds 18 1032 61 10000 0.45 177 11:51 24.02.2021
2184 Clouds 17 1032 63 10000 1.34 223 11:24 24.02.2021
2185 Clouds 15 1032 69 10000 3.13 204 10:38 24.02.2021
2186 Clear 14 1032 71 10000 0.89 182 10:19 24.02.2021
2187 Clouds 11 1033 78 10000 2.98 219 09:22 24.02.2021
2188 Clouds 11 1033 79 10000 0.89 241 08:45 24.02.2021
2189 Clouds 10 1032 81 10000 1.34 165 08:24 24.02.2021
2190 Clouds 8 1032 87 10000 3.54 229 07:21 24.02.2021
2191 Clear 8 1032 88 10000 1.34 186 06:56 24.02.2021
2192 Clear 7 1033 87 10000 3.63 220 04:40 24.02.2021
2193 Clouds 9 1032 82 10000 3.52 207 00:44 24.02.2021
2194 Clouds 10 1032 79 10000 1.79 175 23:38 23.02.2021
2195 Clouds 10 1032 80 10000 0.89 173 22:43 23.02.2021
2196 Clouds 10 1033 81 10000 1.34 207 22:22 23.02.2021
2197 Clouds 11 1033 80 10000 1.34 160 21:47 23.02.2021
2198 Clouds 11 1032 80 10000 1.34 194 21:24 23.02.2021
2199 Clouds 11 1032 78 10000 1.34 200 20:56 23.02.2021
2200 Clouds 11 1032 78 10000 1.79 167 20:37 23.02.2021
2201 Clouds 12 1032 77 10000 0.45 200 20:18 23.02.2021
2202 Clouds 12 1032 77 10000 0.45 149 19:41 23.02.2021
2203 Clear 12 1032 76 10000 0.45 167 19:22 23.02.2021
2204 Clear 12 1032 75 10000 3.32 221 18:44 23.02.2021
2205 Clear 13 1032 74 10000 0.89 129 18:24 23.02.2021
2206 Clear 14 1031 72 10000 0.89 77 17:49 23.02.2021
2207 Clear 16 1031 69 10000 2.45 217 17:26 23.02.2021
2208 Clear 17 1031 64 10000 2.45 217 16:44 23.02.2021
2209 Clear 18 1032 59 10000 3.02 241 16:21 23.02.2021
2210 Clear 18 1032 54 10000 2.24 239 15:45 23.02.2021
2211 Clear 18 1032 54 10000 0.45 248 15:27 23.02.2021
2212 Clear 18 1032 53 10000 1.34 286 14:46 23.02.2021
2213 Clear 19 1032 52 10000 4.47 268 14:28 23.02.2021
2214 Clear 19 1032 55 10000 7.15 235 13:59 23.02.2021
2215 Clear 19 1032 56 10000 5.21 246 13:34 23.02.2021
2216 Clouds 16 1032 62 10000 1.34 165 12:57 23.02.2021
2217 Clouds 15 1032 64 10000 2.24 94 12:24 23.02.2021
2218 Clouds 15 1025 49 10000 4.32 229 11:55 23.02.2021
2219 Clouds 14 1025 54 10000 3.64 214 11:26 23.02.2021
2220 Clouds 12 1031 70 10000 3.64 214 10:55 23.02.2021
2221 Clouds 9 1025 69 10000 3.64 214 10:37 23.02.2021
2222 Clouds 9 1032 70 10000 1.34 94 09:58 23.02.2021
2223 Clouds 7 1025 74 10000 2.83 198 09:38 23.02.2021
2224 Clouds 8 1032 70 10000 0.89 143 09:20 23.02.2021
2225 Clouds 8 1032 70 10000 0.89 143 09:20 23.02.2021
2226 Clouds 7 1032 76 10000 2.06 194 08:44 23.02.2021
2227 Clouds 6 1031 79 10000 2.05 197 08:20 23.02.2021
2228 Clouds 6 1030 83 10000 2.37 197 06:52 23.02.2021
2229 Clouds 6 1029 82 10000 1.8 239 05:25 23.02.2021
2230 Clouds 6 1029 84 10000 2.19 241 02:37 23.02.2021
2231 Clouds 8 1023 76 10000 0.89 123 01:55 23.02.2021
2232 Clear 8 1020 78 10000 0.89 113 00:19 23.02.2021
2233 Clear 7 1019 78 10000 0.45 135 23:28 22.02.2021
2234 Clear 7 1025 83 10000 2.67 225 22:42 22.02.2021
2235 Clear 7 1025 84 10000 2.4 204 22:21 22.02.2021
2236 Clear 7 1025 86 10000 0.45 170 21:56 22.02.2021
2237 Clear 7 1025 85 10000 2.4 204 21:38 22.02.2021
2238 Clear 7 1024 86 10000 2.22 187 21:19 22.02.2021
2239 Clear 7 1024 86 10000 0.89 81 20:43 22.02.2021
2240 Clear 7 1024 86 10000 1.34 165 20:24 22.02.2021
2241 Clear 8 1024 85 10000 1.59 167 19:44 22.02.2021
2242 Clear 8 1024 84 10000 0.89 160 19:26 22.02.2021
2243 Clear 8 1024 83 10000 1.91 185 18:47 22.02.2021
2244 Clear 8 1024 82 10000 2.16 177 18:29 22.02.2021
2245 Clear 9 1023 79 10000 2.16 177 17:49 22.02.2021
2246 Clear 13 1023 76 10000 2.54 144 17:20 22.02.2021
2247 Clear 13 1022 69 10000 0.89 124 16:48 22.02.2021
2248 Clear 14 1022 65 10000 1.34 105 16:29 22.02.2021
2249 Clear 15 1022 60 10000 2.24 138 15:31 22.02.2021
2250 Clear 15 1022 61 10000 1.79 149 14:53 22.02.2021
2251 Clear 13 1022 62 10000 1.79 95 14:35 22.02.2021
2252 Clear 14 1022 61 10000 1.34 121 13:54 22.02.2021
2253 Clear 14 1022 62 10000 0.89 118 13:33 22.02.2021
2254 Clear 13 1015 48 10000 2.24 145 12:48 22.02.2021
2255 Clear 12 1022 66 10000 1.34 86 12:23 22.02.2021
2256 Clear 11 1015 56 10000 1.97 152 11:52 22.02.2021
2257 Clear 11 1015 56 10000 1.97 152 11:31 22.02.2021
2258 Clear 9 1020 71 10000 0.89 103 10:59 22.02.2021
2259 Clear 8 1015 63 10000 2.22 152 10:39 22.02.2021
2260 Clear 8 1015 61 10000 2.67 150 10:19 22.02.2021
2261 Clear 6 1015 69 10000 2.66 150 09:37 22.02.2021
2262 Clear 6 1015 69 10000 2.44 162 09:19 22.02.2021
2263 Clear 5 1018 74 10000 0.45 90 08:49 22.02.2021
2264 Clear 4 1021 79 10000 0.45 110 08:20 22.02.2021
2265 Clear 2 1019 82 10000 0.45 66 07:42 22.02.2021
2266 Clear 2 1018 82 10000 0.45 78 07:20 22.02.2021
2267 Clear 2 1017 82 10000 0.45 146 06:26 22.02.2021
2268 Clear 3 1017 81 10000 0.89 104 04:25 22.02.2021
2269 Clear 4 1017 80 10000 0.45 108 03:22 22.02.2021
2270 Clear 5 1019 86 10000 0.89 104 00:54 22.02.2021
2271 Clear 6 1019 86 10000 2.68 122 00:29 22.02.2021
2272 Clear 6 1019 85 10000 2.24 95 23:57 21.02.2021
2273 Clear 6 1019 86 10000 1.34 159 23:25 21.02.2021
2274 Clear 7 1018 86 10000 1.34 152 22:30 21.02.2021
2275 Clear 7 1018 86 10000 0.45 53 21:52 21.02.2021
2276 Clear 7 1018 86 10000 0.89 172 21:34 21.02.2021
2277 Clear 8 1018 84 10000 3.14 174 20:58 21.02.2021
2278 Clear 9 1018 82 10000 3.14 174 20:38 21.02.2021
2279 Clear 9 1018 79 10000 2.92 174 20:18 21.02.2021
2280 Clear 9 1017 75 10000 0.89 119 19:44 21.02.2021
2281 Clear 9 1017 76 10000 2.24 156 19:24 21.02.2021
2282 Clear 10 1017 76 10000 0.89 175 18:39 21.02.2021
2283 Clear 11 1017 75 10000 0.89 153 18:21 21.02.2021
2284 Clear 14 1017 68 10000 2.68 127 17:28 21.02.2021
2285 Clear 14 1017 65 10000 4.02 139 16:55 21.02.2021
2286 Clear 14 1017 58 10000 2.24 186 16:33 21.02.2021
2287 Clear 16 1018 57 10000 4.92 146 15:54 21.02.2021
2288 Clear 17 1018 54 10000 6.26 131 15:21 21.02.2021
2289 Clear 17 1018 53 10000 4.02 141 14:42 21.02.2021
2290 Clear 17 1018 53 10000 4.02 141 14:42 21.02.2021
2291 Clear 17 1018 53 10000 1.79 105 14:22 21.02.2021
2292 Clear 17 1018 53 10000 2.24 165 13:46 21.02.2021
2293 Clear 17 1018 55 10000 0.89 93 13:23 21.02.2021
2294 Clear 16 1019 58 10000 2.12 251 12:31 21.02.2021
2295 Clear 14 1019 62 10000 4.47 160 11:45 21.02.2021
2296 Clear 13 1019 65 10000 2.24 73 11:20 21.02.2021
2297 Clouds 11 1019 71 10000 3.58 100 10:25 21.02.2021
2298 Clouds 10 1019 75 10000 1.79 87 09:57 21.02.2021
2299 Clouds 9 1019 77 10000 0.89 95 09:39 21.02.2021
2300 Clouds 8 1019 80 10000 1.34 84 09:19 21.02.2021
2301 Clouds 8 1019 73 10000 0.45 97 08:32 21.02.2021
2302 Clouds 4 1018 90 10000 2.68 148 07:43 21.02.2021
2303 Clouds 4 1017 90 10000 3.06 178 07:21 21.02.2021
2304 Clouds 4 1017 89 10000 1.34 122 04:58 21.02.2021
2305 Clouds 5 1017 89 10000 3.58 152 02:32 21.02.2021
2306 Clouds 5 1017 88 10000 1.34 143 00:52 21.02.2021
2307 Clouds 6 1017 88 10000 1.34 160 00:20 21.02.2021
2308 Clouds 6 1017 87 10000 2.24 118 23:31 20.02.2021
2309 Clouds 6 1017 88 10000 2.24 139 22:54 20.02.2021
2310 Clouds 6 1017 88 10000 0.89 204 22:31 20.02.2021
2311 Clouds 7 1017 87 10000 0.45 165 21:47 20.02.2021
2312 Clouds 7 1017 86 10000 4.16 170 21:27 20.02.2021
2313 Clear 8 1017 85 10000 1.79 189 20:56 20.02.2021
2314 Clear 8 1017 83 10000 0.89 167 20:36 20.02.2021
2315 Clear 8 1017 84 10000 1.79 111 19:59 20.02.2021
2316 Clear 8 1017 84 10000 1.79 153 19:40 20.02.2021
2317 Clouds 8 1017 84 10000 1.34 105 18:54 20.02.2021
2318 Clouds 8 1017 84 10000 0.89 152 18:31 20.02.2021
2319 Clouds 10 1017 80 10000 1.79 103 17:47 20.02.2021
2320 Clouds 10 1017 77 10000 2.68 169 17:28 20.02.2021
2321 Clouds 12 1017 74 10000 3.13 84 16:49 20.02.2021
2322 Clouds 13 1018 71 10000 4.47 95 16:23 20.02.2021
2323 Clouds 13 1018 67 10000 2.24 114 15:42 20.02.2021
2324 Clouds 14 1018 65 10000 4.92 94 14:52 20.02.2021
2325 Clouds 14 1018 66 10000 2.68 160 14:25 20.02.2021
2326 Clouds 13 1018 67 10000 4.92 118 13:58 20.02.2021
2327 Clouds 13 1018 68 10000 2.24 136 13:39 20.02.2021
2328 Clouds 13 1018 68 10000 4.02 125 13:20 20.02.2021
2329 Clouds 12 1019 68 10000 3.13 74 12:44 20.02.2021
2330 Clouds 11 1019 70 10000 0.89 104 11:54 20.02.2021
2331 Clouds 10 1020 72 10000 4.47 70 11:35 20.02.2021
2332 Clouds 8 1020 74 10000 3.58 28 10:52 20.02.2021
2333 Clouds 7 1019 74 10000 4.09 163 10:27 20.02.2021
2334 Clouds 5 1020 77 10000 2.68 35 09:47 20.02.2021
2335 Clouds 4 1020 80 10000 1.34 103 08:56 20.02.2021
2336 Clouds 4 1020 77 10000 1.34 124 08:27 20.02.2021
2337 Clouds 2 1020 87 10000 0.89 111 07:50 20.02.2021
2338 Clouds 4 1019 81 10000 0.45 81 02:32 20.02.2021
2339 Clouds 4 1019 81 10000 3.64 167 02:32 20.02.2021
2340 Clouds 4 1019 80 10000 0.89 91 01:59 20.02.2021
2341 Clouds 4 1019 81 10000 0.89 118 01:18 20.02.2021
2342 Clouds 4 1019 81 10000 3.49 171 00:39 20.02.2021
2343 Clouds 3 1019 81 10000 0.45 91 23:42 19.02.2021
2344 Clouds 4 1019 82 10000 3.37 172 22:48 19.02.2021
2345 Clouds 3 1019 83 10000 0.89 117 22:26 19.02.2021
2346 Clouds 3 1019 84 10000 1.34 103 21:47 19.02.2021
2347 Clouds 3 1019 84 10000 0.45 81 21:28 19.02.2021
2348 Clouds 3 1019 83 10000 0.45 95 20:47 19.02.2021
2349 Clouds 3 1019 83 10000 3.03 190 20:27 19.02.2021
2350 Clouds 3 1019 80 10000 3.03 190 19:51 19.02.2021
2351 Clouds 3 1019 81 10000 0.45 167 19:23 19.02.2021
2352 Clouds 3 1019 83 10000 2.83 191 18:56 19.02.2021
2353 Clouds 4 1019 82 10000 2.92 199 18:33 19.02.2021
2354 Clouds 6 1019 79 10000 3.07 196 17:48 19.02.2021
2355 Clouds 9 1019 70 10000 2.89 195 16:51 19.02.2021
2356 Clouds 10 1019 64 10000 1.79 165 16:23 19.02.2021
2357 Clouds 10 1019 62 10000 1.34 173 15:57 19.02.2021
2358 Clouds 11 1019 61 10000 0.89 166 15:31 19.02.2021
2359 Clouds 11 1019 60 10000 0.45 232 14:56 19.02.2021
2360 Clouds 11 1019 60 10000 2.68 186 14:38 19.02.2021
2361 Clouds 11 1019 61 10000 1.34 306 13:58 19.02.2021
2362 Clouds 10 1019 61 10000 3.28 252 13:39 19.02.2021
2363 Clouds 10 1019 63 10000 1.34 293 13:19 19.02.2021
2364 Clouds 9 1019 65 10000 2.24 187 12:41 19.02.2021
2365 Clouds 9 1019 66 10000 1.34 296 12:22 19.02.2021
2366 Clouds 9 1019 68 10000 2.24 269 11:50 19.02.2021
2367 Clouds 8 1019 70 10000 1.79 285 11:22 19.02.2021
2368 Clouds 8 1019 72 10000 1.79 259 10:47 19.02.2021
2369 Clear 7 1019 74 10000 4.47 261 10:21 19.02.2021
2370 Clear 6 1018 77 10000 5.81 231 09:40 19.02.2021
2371 Clear 6 1018 79 10000 4.02 242 09:22 19.02.2021
2372 Clear 5 1018 81 10000 3.13 261 08:50 19.02.2021
2373 Clear 4 1018 79 10000 2.24 261 08:23 19.02.2021
2374 Clear 3 1017 90 10000 1.79 197 07:48 19.02.2021
2375 Clouds 3 1017 89 10000 4.65 255 07:27 19.02.2021
2376 Clouds 4 1016 88 10000 0.45 159 06:53 19.02.2021
2377 Clouds 5 1015 85 10000 2.68 256 05:27 19.02.2021
2378 Clouds 5 1014 88 10000 4.02 261 04:41 19.02.2021
2379 Clouds 4 1011 83 10000 5.58 215 01:47 19.02.2021
2380 Rain 5 1010 84 10000 2.68 213 00:37 19.02.2021
2381 Rain 5 1010 85 10000 0.89 149 23:55 18.02.2021
2382 Rain 5 1010 85 10000 1.34 124 23:35 18.02.2021
2383 Rain 6 1010 84 10000 4.02 118 22:50 18.02.2021
2384 Rain 6 1011 80 10000 3.13 184 22:29 18.02.2021
2385 Clouds 6 1010 78 10000 3.13 118 21:51 18.02.2021
2386 Clouds 6 1011 79 10000 0.89 5 21:25 18.02.2021
2387 Rain 6 1011 79 10000 1.79 119 20:44 18.02.2021
2388 Rain 6 1011 76 10000 4.92 119 20:24 18.02.2021
2389 Clouds 6 1012 78 10000 1.79 136 19:47 18.02.2021
2390 Clouds 6 1012 79 10000 2.68 134 19:28 18.02.2021
2391 Clouds 6 1012 79 10000 2.68 141 18:54 18.02.2021
2392 Clouds 6 1012 79 10000 6.26 97 18:31 18.02.2021
2393 Clouds 6 1013 80 10000 5.36 163 17:59 18.02.2021
2394 Clouds 6 1013 80 10000 3.58 131 17:41 18.02.2021
2395 Clouds 7 1014 77 10000 1.79 125 17:19 18.02.2021
2396 Clouds 8 1014 75 10000 3.13 124 16:41 18.02.2021
2397 Clouds 8 1014 74 10000 1.34 81 16:22 18.02.2021
2398 Clouds 9 1015 72 10000 2.68 121 15:39 18.02.2021
2399 Clouds 9 1015 71 10000 3.13 119 15:21 18.02.2021
2400 Clouds 9 1015 71 10000 4.92 136 14:49 18.02.2021
2401 Clouds 9 1016 71 10000 4.47 76 14:29 18.02.2021
2402 Clouds 10 1016 66 10000 2.24 143 13:46 18.02.2021
2403 Clouds 9 1010 66 10000 4.62 170 13:20 18.02.2021
2404 Clouds 9 1017 64 10000 0.89 155 12:53 18.02.2021
2405 Clouds 8 1018 68 10000 2.68 93 12:23 18.02.2021
2406 Clouds 8 1018 68 10000 1.34 112 11:47 18.02.2021
2407 Clouds 8 1018 68 10000 1.34 112 11:47 18.02.2021
2408 Clouds 6 1012 78 10000 3.99 165 11:27 18.02.2021
2409 Clouds 7 1018 74 10000 0.45 125 10:52 18.02.2021
2410 Clouds 6 1018 76 10000 0.89 152 10:34 18.02.2021
2411 Clouds 5 1019 80 10000 1.34 81 09:51 18.02.2021
2412 Clouds 5 1019 83 10000 0.89 152 09:26 18.02.2021
2413 Clouds 3 1019 86 10000 0.45 121 08:48 18.02.2021
2414 Clouds 3 1019 88 10000 1.79 121 08:29 18.02.2021
2415 Clouds 2 1019 90 10000 2.95 173 07:37 18.02.2021
2416 Clouds 2 1019 89 10000 2.54 175 06:59 18.02.2021
2417 Clouds 4 1019 84 10000 0.89 117 04:48 18.02.2021
2418 Clouds 4 1019 83 10000 2.22 222 23:57 17.02.2021
2419 Clouds 4 1019 83 10000 2.22 222 23:38 17.02.2021
2420 Clouds 4 1019 84 10000 2.39 224 22:56 17.02.2021
2421 Clouds 4 1018 84 10000 0.89 211 22:38 17.02.2021
2422 Clouds 4 1018 84 10000 2.48 228 22:18 17.02.2021
2423 Clouds 4 1018 83 10000 2.48 228 21:41 17.02.2021
2424 Clouds 4 1018 83 10000 0.45 114 21:19 17.02.2021
2425 Clouds 4 1019 83 10000 0.45 162 20:40 17.02.2021
2426 Clouds 4 1018 83 10000 0.45 152 19:59 17.02.2021
2427 Clouds 5 1019 83 10000 2.42 248 19:37 17.02.2021
2428 Clouds 5 1018 83 10000 2.96 256 18:58 17.02.2021
2429 Clouds 5 1018 83 10000 1.79 165 18:37 17.02.2021
2430 Clouds 6 1018 82 10000 3.23 262 17:47 17.02.2021
2431 Clouds 6 1018 82 10000 3.54 271 17:23 17.02.2021
2432 Clouds 7 1018 78 10000 0.45 138 16:54 17.02.2021
2433 Clouds 8 1018 74 10000 2.68 249 16:29 17.02.2021
2434 Clouds 9 1017 73 10000 4.11 276 15:59 17.02.2021
2435 Clouds 9 1011 68 10000 4.11 276 15:40 17.02.2021
2436 Clouds 9 1017 71 10000 2.24 275 15:21 17.02.2021
2437 Clouds 8 1017 72 10000 2.24 255 14:44 17.02.2021
2438 Clouds 9 1017 71 10000 2.24 258 14:25 17.02.2021
2439 Clouds 9 1017 69 10000 2.24 279 13:43 17.02.2021
2440 Clouds 8 1010 75 10000 5.01 269 12:59 17.02.2021
2441 Clouds 8 1009 77 10000 5.18 269 12:26 17.02.2021
2442 Clouds 7 1009 81 10000 5.18 269 11:59 17.02.2021
2443 Clouds 8 1016 75 10000 3.13 269 11:36 17.02.2021
2444 Clouds 7 1009 82 10000 5.41 267 11:18 17.02.2021
2445 Clouds 7 1009 84 10000 5.41 267 10:43 17.02.2021
2446 Clouds 7 1009 82 10000 4.8 265 10:21 17.02.2021
2447 Clouds 6 1016 82 10000 2.68 223 09:44 17.02.2021
2448 Clouds 6 1016 83 10000 4.02 265 09:25 17.02.2021
2449 Clouds 5 1015 86 10000 2.24 273 08:42 17.02.2021
2450 Clouds 5 1015 89 10000 0.89 183 08:21 17.02.2021
2451 Clouds 4 1014 90 10000 0.89 241 07:26 17.02.2021
2452 Clouds 4 1013 90 10000 3.58 286 05:53 17.02.2021
2453 Clouds 3 1011 87 10000 3.35 249 02:34 17.02.2021
2454 Clouds 3 1011 88 10000 3 225 01:55 17.02.2021
2455 Clouds 2 1011 92 10000 3.32 215 00:33 17.02.2021
2456 Clouds 2 1011 91 10000 1.79 173 23:55 16.02.2021
2457 Clouds 2 1011 91 10000 4.02 153 23:36 16.02.2021
2458 Clouds 2 1012 91 8601 0.89 124 22:44 16.02.2021
2459 Clouds 2 1012 90 2693 2.68 53 22:25 16.02.2021
2460 Clouds 3 1012 90 2746 2.24 163 21:57 16.02.2021
2461 Clouds 3 1012 90 2746 1.34 152 21:39 16.02.2021
2462 Clouds 3 1012 90 71 1.79 128 21:20 16.02.2021
2463 Clouds 2 1013 91 71 2.24 149 20:42 16.02.2021
2464 Clouds 2 1013 91 41 0.89 176 20:20 16.02.2021
2465 Clouds 2 1013 91 41 2.24 131 19:44 16.02.2021
2466 Clouds 2 1013 90 53 3.13 139 19:25 16.02.2021
2467 Clouds 2 1014 89 53 1.79 97 18:41 16.02.2021
2468 Clouds 2 1015 89 49 0.89 94 18:23 16.02.2021
2469 Clouds 3 1015 88 49 1.34 94 17:53 16.02.2021
2470 Clouds 3 1015 86 42 2.71 157 17:27 16.02.2021
2471 Clouds 5 1016 84 42 0.45 176 16:52 16.02.2021
2472 Clouds 5 1016 84 42 0.45 176 16:52 16.02.2021
2473 Clouds 4 1010 85 42 2.71 157 16:30 16.02.2021
2474 Clouds 4 1010 85 42 2.71 157 16:30 16.02.2021
2475 Clouds 4 1010 86 44 1.97 160 15:56 16.02.2021
2476 Clouds 4 1011 87 44 1.97 160 15:33 16.02.2021
2477 Clouds 4 1011 87 63 1.41 149 14:58 16.02.2021
2478 Clouds 5 1011 85 63 1.41 149 14:38 16.02.2021
2479 Clouds 6 1011 81 55 1.49 210 14:19 16.02.2021
2480 Clouds 4 1012 89 55 1.49 210 13:40 16.02.2021
2481 Rain 4 1012 90 133 2.14 195 12:59 16.02.2021
2482 Clouds 3 1013 95 133 2.14 195 12:40 16.02.2021
2483 Clouds 3 1013 95 8367 3.35 166 12:19 16.02.2021
2484 Clouds 2 1014 100 8485 3.33 167 11:39 16.02.2021
2485 Clouds 2 1014 100 10000 2.28 194 11:20 16.02.2021
2486 Clouds 2 1014 100 10000 2.28 194 10:46 16.02.2021
2487 Clouds 3 1014 100 10000 2.14 163 10:27 16.02.2021
2488 Clouds 2 1014 100 10000 2.14 163 09:53 16.02.2021
2489 Clouds 3 1021 91 10000 1.34 151 09:26 16.02.2021
2490 Clouds 2 1021 91 10000 1.9 210 08:51 16.02.2021
2491 Clouds 3 1022 90 10000 2.11 249 08:28 16.02.2021
2492 Clouds 2 1022 91 10000 2.11 249 07:45 16.02.2021
2493 Clouds 2 1022 91 10000 0.45 184 06:51 16.02.2021
2494 Clouds 1 1022 92 10000 3.54 275 02:42 16.02.2021
2495 Clouds 0 1022 93 10000 2.99 235 23:55 15.02.2021
2496 Clouds 0 1022 92 10000 2.59 206 23:29 15.02.2021
2497 Clouds 0 1022 92 10000 0.45 127 22:50 15.02.2021
2498 Rain 0 1022 92 10000 1.34 201 22:28 15.02.2021
2499 Rain 0 1022 93 10000 1.34 158 21:48 15.02.2021
2500 Rain 0 1022 93 10000 1.79 141 21:25 15.02.2021
2501 Snow 0 1023 94 10000 2.24 183 20:57 15.02.2021
2502 Snow 0 1023 94 10000 3.58 165 20:39 15.02.2021
2503 Snow -1 1024 93 2286 6.26 103 19:51 15.02.2021
2504 Snow -1 1024 93 2286 3.13 143 19:30 15.02.2021
2505 Snow -1 1024 93 589 2.24 60 18:59 15.02.2021
2506 Snow -1 1024 92 589 6.26 160 18:30 15.02.2021
2507 Snow -2 1025 90 701 5.81 175 17:59 15.02.2021
2508 Snow -2 1025 89 701 5.81 170 17:40 15.02.2021
2509 Snow -1 1026 88 10000 5.36 159 17:21 15.02.2021
2510 Snow 0 1027 76 10000 4.92 149 16:47 15.02.2021
2511 Snow 0 1027 67 10000 3.58 170 16:26 15.02.2021
2512 Clouds 0 1028 64 10000 6.54 159 15:46 15.02.2021
2513 Snow 0 1029 63 10000 4.47 139 15:20 15.02.2021
2514 Snow 0 1029 64 10000 4.47 179 14:49 15.02.2021
2515 Snow 0 1029 63 2813 2.24 136 14:21 15.02.2021
2516 Snow -1 1029 62 2813 2.68 136 13:50 15.02.2021
2517 Clouds -1 1030 63 10000 4.92 183 13:28 15.02.2021
2518 Clouds -1 1031 63 10000 4.92 122 12:54 15.02.2021
2519 Clouds -1 1032 62 10000 4.47 143 12:36 15.02.2021
2520 Clouds -2 1033 62 10000 5.81 127 11:59 15.02.2021
2521 Clouds -2 1033 63 10000 6.26 107 11:39 15.02.2021
2522 Clouds -3 1033 65 10000 2.24 86 11:18 15.02.2021
2523 Clouds -4 1034 67 10000 0.89 146 10:42 15.02.2021
2524 Clouds -3 1034 70 10000 4.47 91 10:21 15.02.2021
2525 Clouds -6 1035 74 10000 6.26 93 09:52 15.02.2021
2526 Clouds -6 1035 74 10000 4.02 124 09:32 15.02.2021
2527 Clouds -6 1035 74 10000 4.02 124 09:32 15.02.2021
2528 Clouds -7 1036 81 10000 0.45 98 08:37 15.02.2021
2529 Clouds -7 1031 82 10000 0.45 96 07:38 15.02.2021
2530 Clouds -8 1031 83 10000 0.45 98 06:45 15.02.2021
2531 Clouds -8 1032 83 10000 3.93 158 05:37 15.02.2021
2532 Clouds -8 1033 82 10000 0.45 132 02:22 15.02.2021
2533 Clouds -9 1039 86 10000 3.13 141 00:33 15.02.2021
2534 Clouds -9 1039 87 10000 2.24 88 23:33 14.02.2021
2535 Clouds -9 1039 87 10000 1.34 115 22:52 14.02.2021
2536 Clouds -9 1039 87 10000 1.79 135 22:34 14.02.2021
2537 Clouds -9 1039 86 10000 3.58 136 21:58 14.02.2021
2538 Clouds -9 1039 86 10000 3.58 129 21:38 14.02.2021
2539 Clouds -9 1040 86 10000 4.02 91 21:19 14.02.2021
2540 Clouds -10 1040 86 10000 3.06 168 20:39 14.02.2021
2541 Clouds -10 1040 86 10000 0.89 110 20:20 14.02.2021
2542 Clouds -10 1040 86 10000 2.9 172 19:40 14.02.2021
2543 Clouds -9 1041 86 10000 1.79 66 18:51 14.02.2021
2544 Clouds -9 1040 85 10000 1.79 187 18:29 14.02.2021
2545 Clouds -9 1041 83 10000 2.84 161 17:51 14.02.2021
2546 Clouds -8 1041 81 10000 2.84 161 17:32 14.02.2021
2547 Clouds -6 1041 79 10000 0.45 110 16:48 14.02.2021
2548 Clouds -5 1041 76 10000 1.34 162 16:25 14.02.2021
2549 Clouds -5 1042 75 10000 2.24 38 15:49 14.02.2021
2550 Clear -6 1042 74 10000 1.34 67 15:29 14.02.2021
2551 Clear -5 1042 69 10000 2.18 153 14:45 14.02.2021
2552 Clear -4 1042 68 10000 1.98 166 14:25 14.02.2021
2553 Clear -5 1042 68 10000 1.34 146 13:44 14.02.2021
2554 Clear -5 1043 68 10000 2.49 155 13:26 14.02.2021
2555 Clear -7 1043 71 10000 2.24 148 12:37 14.02.2021
2556 Clear -7 1044 72 10000 1.79 175 12:18 14.02.2021
2557 Clear -3 1042 55 10000 2.27 153 11:43 14.02.2021
2558 Clear -9 1044 73 10000 0.89 70 11:20 14.02.2021
2559 Clear -6 1042 71 10000 2.07 157 10:34 14.02.2021
2560 Clear -9 1038 60 10000 2.1 158 09:54 14.02.2021
2561 Clear -11 1038 65 10000 2.1 158 09:36 14.02.2021
2562 Clear -12 1045 81 10000 1.75 168 09:18 14.02.2021
2563 Clear -14 1045 85 10000 0.45 127 08:25 14.02.2021
2564 Clear -12 1038 83 10000 0.45 102 07:48 14.02.2021
2565 Clear -11 1039 83 10000 0.96 174 06:37 14.02.2021
2566 Clear -12 1039 84 10000 1.28 184 04:35 14.02.2021
2567 Clear -12 1044 91 10000 0.87 223 03:23 14.02.2021
2568 Clear -10 1044 91 10000 0.45 209 01:33 14.02.2021
2569 Clear -10 1044 92 10000 1.47 250 00:45 14.02.2021
2570 Clear -9 1044 92 10000 0.45 262 23:58 13.02.2021
2571 Clear -10 1044 92 10000 1.8 260 23:37 13.02.2021
2572 Clear -9 1044 93 10000 1.67 261 23:19 13.02.2021
2573 Clear -13 1043 83 10000 0.45 167 22:32 13.02.2021
2574 Clear -12 1043 84 10000 0.89 200 21:53 13.02.2021
2575 Clear -11 1043 83 10000 2.68 213 21:34 13.02.2021
2576 Clear -9 1043 85 10000 1.73 281 20:49 13.02.2021
2577 Clear -9 1043 86 10000 1.86 289 20:28 13.02.2021
2578 Clear -7 1043 86 10000 0.89 194 19:49 13.02.2021
2579 Clear -7 1043 86 10000 0.89 194 19:49 13.02.2021
2580 Clear -6 1037 88 10000 1.73 292 19:24 13.02.2021
2581 Clear -6 1037 87 10000 1.69 289 18:50 13.02.2021
2582 Clear -5 1037 83 10000 1.83 295 18:28 13.02.2021
2583 Clear -4 1036 83 10000 1.83 295 17:45 13.02.2021
2584 Clear -4 1043 83 10000 1.89 299 17:26 13.02.2021
2585 Clear -4 1036 82 10000 1.89 299 16:55 13.02.2021
2586 Clear -4 1036 79 10000 1.89 299 16:37 13.02.2021
2587 Clouds -4 1036 77 10000 1.89 291 15:57 13.02.2021
2588 Clouds -2 1043 75 10000 1.51 295 15:27 13.02.2021
2589 Clouds -2 1043 71 10000 2.68 238 14:41 13.02.2021
2590 Clouds -1 1043 71 10000 1.64 315 14:19 13.02.2021
2591 Clouds -3 1043 70 10000 1.64 315 13:40 13.02.2021
2592 Clear -3 1043 70 10000 0.89 259 13:22 13.02.2021
2593 Clear -3 1043 69 10000 0.89 285 12:38 13.02.2021
2594 Clear -4 1043 71 10000 1.73 300 12:18 13.02.2021
2595 Clear -3 1043 71 10000 0.45 234 11:40 13.02.2021
2596 Clear -4 1043 72 10000 1.62 296 11:18 13.02.2021
2597 Clear -6 1043 74 10000 0.45 206 10:43 13.02.2021
2598 Clear -8 1043 75 10000 1.9 289 10:23 13.02.2021
2599 Clear -9 1043 77 10000 0.89 139 09:50 13.02.2021
2600 Clear -11 1043 79 10000 0.45 184 09:29 13.02.2021
2601 Clear -11 1036 61 10000 2.14 296 08:52 13.02.2021
2602 Clear -11 1039 83 10000 2.15 304 08:26 13.02.2021
2603 Clear -11 1038 83 10000 2.15 304 07:43 13.02.2021
2604 Clear -11 1037 83 10000 1.98 308 06:25 13.02.2021
2605 Clear -11 1036 82 10000 1.93 310 05:18 13.02.2021
2606 Clear -11 1036 83 10000 1.89 312 03:44 13.02.2021
2607 Clear -12 1040 91 10000 1.84 340 01:25 13.02.2021
2608 Clear -13 1040 82 10000 1.92 354 00:19 13.02.2021
2609 Clear -13 1040 83 10000 1.92 354 23:46 12.02.2021
2610 Clear -12 1040 83 10000 1.93 1 23:20 12.02.2021
2611 Clear -12 1039 82 10000 1.93 1 22:37 12.02.2021
2612 Clear -12 1039 82 10000 1.94 13 22:18 12.02.2021
2613 Clear -11 1039 83 10000 1.94 13 21:42 12.02.2021
2614 Clear -11 1039 82 10000 2.36 24 21:22 12.02.2021
2615 Clear -10 1038 82 10000 2.36 24 20:45 12.02.2021
2616 Clear -9 1038 82 10000 2.79 23 20:26 12.02.2021
2617 Clear -8 1038 83 10000 2.79 23 19:55 12.02.2021
2618 Clear -8 1038 83 10000 2.81 21 19:29 12.02.2021
2619 Clear -7 1038 83 10000 3.33 20 18:38 12.02.2021
2620 Clear -7 1038 81 10000 3.18 23 18:18 12.02.2021
2621 Clear -7 1032 79 10000 3.18 23 17:41 12.02.2021
2622 Clear -3 1037 74 10000 3.07 27 16:54 12.02.2021
2623 Clear -2 1037 71 10000 2.8 26 16:21 12.02.2021
2624 Clear -2 1037 67 10000 2.68 2 15:44 12.02.2021
2625 Clear -2 1037 66 10000 2.24 320 15:20 12.02.2021
2626 Clear -1 1037 63 10000 2.68 345 14:39 12.02.2021
2627 Clear -1 1037 64 10000 2.72 36 13:56 12.02.2021
2628 Clear -1 1037 67 10000 2.72 36 13:37 12.02.2021
2629 Clouds -3 1037 79 10000 2.41 33 12:55 12.02.2021
2630 Clouds -3 1036 81 10000 2.18 28 12:36 12.02.2021
2631 Clouds -2 1037 72 10000 0.89 11 11:48 12.02.2021
2632 Clouds -4 1036 86 10000 1.85 20 11:22 12.02.2021
2633 Clouds -5 1036 90 10000 0.45 31 10:52 12.02.2021
2634 Clouds -6 1036 90 10000 0.45 59 10:34 12.02.2021
2635 Clouds -6 1036 91 10000 0.45 53 09:44 12.02.2021
2636 Clouds -6 1030 87 10000 1.77 13 09:24 12.02.2021
2637 Clouds -7 1030 89 10000 1.77 13 08:48 12.02.2021
2638 Clouds -8 1030 91 10000 1.63 12 08:27 12.02.2021
2639 Clouds -8 1029 92 10000 1.63 12 07:53 12.02.2021
2640 Clouds -8 1029 92 10000 1.63 12 07:53 12.02.2021
2641 Clouds -8 1029 93 10000 1.63 12 07:31 12.02.2021
2642 Clouds -8 1029 93 5120 2.08 12 06:55 12.02.2021
2643 Clouds -8 1028 92 3786 2.4 8 05:39 12.02.2021
2644 Clouds -8 1034 84 5464 2.27 343 04:22 12.02.2021
2645 Clouds -9 1033 87 1708 2.12 344 01:23 12.02.2021
2646 Clouds -9 1027 93 3714 2.24 340 23:40 11.02.2021
2647 Clouds -9 1027 93 10000 2.24 340 23:22 11.02.2021
2648 Clouds -8 1027 89 10000 2.24 340 22:46 11.02.2021
2649 Clouds -8 1027 89 10000 2.32 340 22:24 11.02.2021
2650 Clouds -8 1026 92 10000 2.32 340 21:54 11.02.2021
2651 Clouds -7 1026 93 10000 2.56 340 21:36 11.02.2021
2652 Clouds -7 1026 91 10000 2.56 340 21:18 11.02.2021
2653 Clouds -6 1026 91 10000 2.56 340 20:41 11.02.2021
2654 Clouds -5 1031 84 10000 2.68 214 20:21 11.02.2021
2655 Clouds -5 1031 83 10000 0.45 283 19:47 11.02.2021
2656 Clouds -6 1026 88 10000 2.98 324 19:27 11.02.2021
2657 Clouds -6 1026 79 10000 2.98 324 18:47 11.02.2021
2658 Clouds -5 1031 83 10000 3.04 318 18:25 11.02.2021
2659 Clouds -5 1031 83 10000 1.34 290 17:51 11.02.2021
2660 Clouds -4 1030 81 10000 0.89 317 17:22 11.02.2021
2661 Clouds -4 1030 79 10000 2.68 295 16:53 11.02.2021
2662 Clouds -3 1024 68 10000 2.91 313 16:34 11.02.2021
2663 Clouds -4 1024 70 10000 2.83 316 15:58 11.02.2021
2664 Clouds -3 1024 68 10000 2.83 316 15:38 11.02.2021
2665 Clouds -2 1029 69 10000 3.13 285 15:20 11.02.2021
2666 Clouds -2 1023 65 10000 3.21 326 14:38 11.02.2021
2667 Clouds -2 1029 69 10000 2.68 292 14:19 11.02.2021
2668 Clouds -1 1023 62 10000 3.59 330 13:37 11.02.2021
2669 Clouds -2 1023 68 10000 3.74 327 13:18 11.02.2021
2670 Clouds -1 1023 63 10000 3.59 322 12:44 11.02.2021
2671 Clouds -3 1025 75 10000 0.45 355 12:21 11.02.2021
2672 Clouds -4 1024 79 10000 0.45 147 11:41 11.02.2021
2673 Clouds -4 1024 80 10000 0.45 297 11:20 11.02.2021
2674 Clouds -3 1028 77 10000 2.68 287 10:42 11.02.2021
2675 Clouds -6 1028 88 10000 0.89 345 10:23 11.02.2021
2676 Clouds -5 1028 80 10000 2.24 271 09:42 11.02.2021
2677 Clouds -7 1021 87 10000 3.33 314 09:19 11.02.2021
2678 Clouds -6 1028 83 10000 1.34 290 08:50 11.02.2021
2679 Clouds -8 1020 92 3784 3.29 316 07:58 11.02.2021
2680 Clouds -8 1020 92 3784 3.29 316 07:58 11.02.2021
2681 Clouds -8 1020 91 2185 3.41 320 06:51 11.02.2021
2682 Clouds -8 1019 92 2185 3.41 320 06:32 11.02.2021
2683 Clouds -8 1017 92 10000 3.07 325 03:54 11.02.2021
2684 Clear -9 1022 93 10000 3.24 341 02:28 11.02.2021
2685 Clouds -10 1021 92 10000 3.01 341 00:46 11.02.2021
2686 Clouds -7 1015 95 10000 2.83 340 00:19 11.02.2021
2687 Clouds -8 1014 95 10000 2.83 340 23:39 10.02.2021
2688 Clouds -9 1019 88 10000 2.75 337 22:51 10.02.2021
2689 Clouds -9 1019 88 10000 2.47 329 22:27 10.02.2021
2690 Clouds -10 1018 87 10000 2.47 329 21:55 10.02.2021
2691 Clouds -9 1018 86 10000 2.47 329 21:37 10.02.2021
2692 Clouds -9 1018 86 10000 2.47 329 21:37 10.02.2021
2693 Clouds -11 1012 94 10000 2.21 324 21:18 10.02.2021
2694 Clouds -10 1012 93 10000 2.21 324 20:40 10.02.2021
2695 Clear -8 1017 85 10000 2.09 329 20:22 10.02.2021
2696 Clear -8 1016 86 10000 2.09 329 19:44 10.02.2021
2697 Clouds -7 1016 86 10000 2.07 338 19:23 10.02.2021
2698 Clouds -8 1016 87 10000 2.52 340 18:40 10.02.2021
2699 Clouds -8 1016 88 10000 2.63 345 18:21 10.02.2021
2700 Clouds -7 1015 87 10000 2.63 345 17:50 10.02.2021
2701 Clouds -7 1015 86 10000 2.41 347 17:22 10.02.2021
2702 Clouds -5 1014 84 10000 2.41 347 16:52 10.02.2021
2703 Clouds -5 1014 83 10000 2.25 349 16:29 10.02.2021
2704 Clouds -4 1013 79 10000 2.25 349 15:47 10.02.2021
2705 Clouds -4 1013 79 10000 2.24 356 15:23 10.02.2021
2706 Clouds -4 1013 79 10000 1.34 303 14:47 10.02.2021
2707 Clouds -4 1013 78 10000 2.19 353 14:27 10.02.2021
2708 Clouds -3 1012 75 10000 2.24 276 13:51 10.02.2021
2709 Clouds -2 1006 68 10000 1.8 349 13:28 10.02.2021
2710 Clouds -4 1006 74 10000 2.14 344 12:48 10.02.2021
2711 Clouds -5 1012 85 10000 1.97 340 12:29 10.02.2021
2712 Clouds -6 1012 87 10000 1.97 340 11:48 10.02.2021
2713 Clouds -6 1012 87 10000 1.97 329 11:29 10.02.2021
2714 Clouds -4 1005 76 10000 1.97 329 10:52 10.02.2021
2715 Clouds -9 1011 91 6134 1.8 305 10:21 10.02.2021
2716 Clouds -7 1005 83 6134 1.8 305 09:44 10.02.2021
2717 Clouds -8 1005 85 3761 1.6 287 09:22 10.02.2021
2718 Clouds -9 1005 87 3761 1.6 287 08:50 10.02.2021
2719 Clouds -9 1005 89 3761 1.6 287 08:30 10.02.2021
2720 Clouds -10 1011 85 2641 1.36 318 07:22 10.02.2021
2721 Clouds -11 1010 83 3994 1.9 313 04:54 10.02.2021
2722 Clouds -12 1004 90 6123 1.63 275 01:21 10.02.2021
2723 Clouds -11 1004 91 5283 1.64 278 23:42 09.02.2021
2724 Clouds -11 1004 91 3065 1.58 273 23:24 09.02.2021
2725 Clouds -11 1004 92 3065 1.58 273 22:42 09.02.2021
2726 Clouds -11 1004 91 2714 1.09 292 22:23 09.02.2021
2727 Clouds -10 1004 91 2714 1.09 292 21:47 09.02.2021
2728 Clouds -10 1004 91 4634 1.36 310 21:21 09.02.2021
2729 Clouds -10 1004 90 4634 1.36 310 20:43 09.02.2021
2730 Clouds -10 1004 91 10000 1.57 307 20:24 09.02.2021
2731 Clouds -9 1004 91 10000 1.57 307 19:44 09.02.2021
2732 Clouds -9 1004 91 10000 1.71 304 19:22 09.02.2021
2733 Clouds -9 1004 90 3397 1.57 311 18:49 09.02.2021
2734 Clouds -9 1004 90 3397 1.57 311 18:30 09.02.2021
2735 Clouds -9 1004 88 9964 1.64 302 17:50 09.02.2021
2736 Clouds -9 1004 88 9964 1.64 302 17:50 09.02.2021
2737 Clouds -9 1003 88 10000 1.43 326 17:27 09.02.2021
2738 Clouds -9 1003 86 10000 1.43 326 16:54 09.02.2021
2739 Clouds -7 1008 78 4049 1.55 323 16:20 09.02.2021
2740 Clouds -6 1009 75 4049 1.55 323 15:58 09.02.2021
2741 Clouds -8 1003 82 4049 1.55 323 15:39 09.02.2021
2742 Clouds -7 1003 82 5019 1.51 323 15:20 09.02.2021
2743 Clouds -7 1002 75 5019 1.51 323 14:42 09.02.2021
2744 Clouds -7 1002 75 5499 1.34 352 14:21 09.02.2021
2745 Clouds -7 1002 73 5477 1.34 352 13:41 09.02.2021
2746 Clouds -7 1002 72 3206 1.43 349 13:20 09.02.2021
2747 Clouds -7 1002 75 3206 1.43 349 12:43 09.02.2021
2748 Clouds -7 1002 75 1807 1.57 355 12:24 09.02.2021
2749 Clouds -7 1002 74 1807 1.57 355 11:44 09.02.2021
2750 Clouds -7 1002 76 1856 1.53 357 11:21 09.02.2021
2751 Clouds -8 1002 77 1856 1.53 357 10:57 09.02.2021
2752 Clouds -8 1002 81 1924 1.44 358 10:21 09.02.2021
2753 Clouds -9 1001 85 1924 1.44 358 09:54 09.02.2021
2754 Snow -11 1001 87 2452 1.39 357 09:26 09.02.2021
2755 Clouds -9 1008 83 2452 1.39 357 08:57 09.02.2021
2756 Clouds -12 1001 88 2297 1.5 10 08:29 09.02.2021
2757 Clouds -11 1007 85 2297 1.5 10 07:53 09.02.2021
2758 Clouds -13 1000 90 852 1.28 34 05:35 09.02.2021
2759 Snow -11 1006 84 464 1.26 54 03:49 09.02.2021
2760 Snow -10 1005 85 272 1.55 61 01:57 09.02.2021
2761 Snow -11 1005 86 558 2 54 00:31 09.02.2021
2762 Snow -10 1004 86 369 2.17 58 23:44 08.02.2021
2763 Snow -10 1004 86 957 2.57 55 23:19 08.02.2021
2764 Snow -10 1004 85 957 2.57 55 22:43 08.02.2021
2765 Snow -9 1004 86 235 1.34 4 22:22 08.02.2021
2766 Snow -9 1004 85 235 2.85 55 21:49 08.02.2021
2767 Snow -9 1004 85 235 1.79 66 21:30 08.02.2021
2768 Clouds -9 1004 85 147 1.79 25 20:55 08.02.2021
2769 Snow -9 1004 85 147 0.89 74 20:36 08.02.2021
2770 Snow -9 1004 85 147 0.89 74 20:36 08.02.2021
2771 Snow -9 1004 85 145 0.89 355 20:18 08.02.2021
2772 Snow -9 1004 84 262 2.24 26 19:41 08.02.2021
2773 Snow -9 1004 85 149 0.45 29 19:21 08.02.2021
2774 Snow -9 1004 84 149 1.34 43 18:44 08.02.2021
2775 Snow -9 1004 85 203 2.24 57 18:19 08.02.2021
2776 Snow -8 1004 81 203 1.34 70 17:43 08.02.2021
2777 Snow -8 1004 80 254 0.89 47 17:23 08.02.2021
2778 Clouds -8 1003 82 257 2.24 340 16:43 08.02.2021
2779 Snow -8 1003 81 472 2.24 1 16:21 08.02.2021
2780 Snow -8 1003 83 472 1.79 2 15:42 08.02.2021
2781 Snow -8 1003 79 911 1.79 23 15:20 08.02.2021
2782 Snow -8 1004 80 911 2.24 16 14:51 08.02.2021
2783 Snow -7 1003 77 911 2.24 21 14:31 08.02.2021
2784 Snow -7 1004 76 469 1.79 38 13:56 08.02.2021
2785 Snow -7 1004 77 209 2.68 47 13:33 08.02.2021
2786 Snow -7 1004 78 163 3.58 53 12:55 08.02.2021
2787 Snow -7 1004 81 163 3.58 29 12:36 08.02.2021
2788 Snow -8 1005 82 161 5.81 16 11:48 08.02.2021
2789 Snow -8 1005 84 160 1.79 35 11:22 08.02.2021
2790 Snow -8 1005 83 160 2.24 8 10:45 08.02.2021
2791 Snow -8 1005 84 155 4.47 52 10:24 08.02.2021
2792 Snow -8 1006 83 155 4.02 32 09:53 08.02.2021
2793 Snow -8 1006 84 155 3.13 15 09:35 08.02.2021
2794 Snow -8 1006 85 153 4.47 9 08:47 08.02.2021
2795 Snow -8 1005 85 193 0.89 319 08:21 08.02.2021
2796 Snow -8 1005 82 193 4.92 14 07:35 08.02.2021
2797 Snow -8 1005 82 262 3.58 1 06:29 08.02.2021
2798 Snow -7 1006 86 146 1.79 338 02:37 08.02.2021
2799 Snow -7 1006 86 215 3.58 359 01:50 08.02.2021
2800 Snow -7 1006 86 184 4.47 35 00:23 08.02.2021
2801 Snow -7 1006 85 184 2.24 359 23:52 07.02.2021
2802 Snow -7 1006 86 172 4.02 359 23:27 07.02.2021
2803 Snow -7 1006 87 172 4.47 66 22:55 07.02.2021
2804 Snow -7 1006 87 172 7.15 350 22:37 07.02.2021
2805 Snow -7 1006 86 199 4.92 18 22:19 07.02.2021
2806 Snow -7 1006 85 199 8.49 55 21:47 07.02.2021
2807 Snow -7 1006 86 195 3.13 62 21:21 07.02.2021
2808 Snow -7 1007 87 195 3.58 88 20:48 07.02.2021
2809 Snow -7 1007 87 278 5.36 18 20:27 07.02.2021
2810 Snow -7 1007 87 278 4.02 23 19:43 07.02.2021
2811 Snow -6 1007 85 232 2.68 42 19:25 07.02.2021
2812 Snow -6 1007 87 232 2.68 46 18:44 07.02.2021
2813 Snow -6 1007 87 192 6.71 50 18:26 07.02.2021
2814 Snow -6 1007 88 192 4.47 5 17:45 07.02.2021
2815 Snow -6 1007 87 162 11.62 32 17:22 07.02.2021
2816 Snow -6 1007 87 162 3.13 52 16:59 07.02.2021
2817 Snow -6 1006 88 162 4.47 73 16:41 07.02.2021
2818 Snow -6 1006 88 177 5.81 50 16:20 07.02.2021
2819 Snow -6 1006 86 177 5.36 359 15:44 07.02.2021
2820 Snow -6 1007 86 320 3.13 42 15:21 07.02.2021
2821 Snow -6 1007 85 320 5.81 107 14:44 07.02.2021
2822 Snow -6 1007 85 162 4.47 359 14:26 07.02.2021
2823 Snow -6 1007 85 162 6.71 70 13:45 07.02.2021
2824 Snow -6 1007 85 186 4.47 38 13:27 07.02.2021
2825 Snow -6 1008 85 191 5.36 64 12:42 07.02.2021
2826 Snow -6 1008 86 206 3.13 83 12:21 07.02.2021
2827 Snow -6 1008 87 205 5.36 12 11:43 07.02.2021
2828 Snow -6 1009 85 276 9.39 29 11:24 07.02.2021
2829 Snow -6 1009 84 276 5.36 0 10:42 07.02.2021
2830 Snow -6 1009 85 169 3.58 29 10:22 07.02.2021
2831 Snow -6 1009 86 169 4.92 354 09:43 07.02.2021
2832 Snow -6 1009 87 145 3.13 40 09:20 07.02.2021
2833 Snow -6 1010 89 140 5.81 39 08:22 07.02.2021
2834 Snow -6 1010 90 254 5.36 22 06:34 07.02.2021
2835 Snow -6 1010 90 254 5.36 22 06:34 07.02.2021
2836 Snow -6 1011 90 357 4.02 25 05:56 07.02.2021
2837 Snow -5 1013 90 1407 3.58 62 03:49 07.02.2021
2838 Snow -4 1013 82 10000 9.83 86 01:24 07.02.2021
2839 Snow -3 1013 82 4306 6.71 77 00:32 07.02.2021
2840 Snow -3 1014 79 10000 5.81 359 23:44 06.02.2021
2841 Snow -3 1014 80 10000 5.81 43 22:40 06.02.2021
2842 Snow -3 1014 80 10000 8.49 40 21:40 06.02.2021
2843 Snow -2 1014 80 10000 1.34 7 21:21 06.02.2021
2844 Snow -2 1015 80 10000 8.94 16 20:51 06.02.2021
2845 Snow -2 1015 80 10000 6.71 108 20:25 06.02.2021
2846 Clouds -2 1015 79 10000 3.13 71 19:57 06.02.2021
2847 Clouds -2 1015 79 10000 5.36 14 19:31 06.02.2021
2848 Clouds -1 1016 78 10000 4.47 56 18:49 06.02.2021
2849 Snow -1 1016 78 10000 11.18 36 18:31 06.02.2021
2850 Snow -1 1016 77 10000 5.36 47 17:48 06.02.2021
2851 Clouds -1 1016 77 10000 5.36 16 17:22 06.02.2021
2852 Clouds -1 1016 78 10000 8.49 39 16:59 06.02.2021
2853 Snow -1 1016 77 10000 4.92 90 16:41 06.02.2021
2854 Clouds -1 1016 78 10000 4.47 40 16:22 06.02.2021
2855 Clouds -1 1016 77 10000 4.92 47 15:48 06.02.2021
2856 Clouds 0 1016 78 10000 2.68 35 15:22 06.02.2021
2857 Snow 0 1017 78 10000 2.68 66 14:45 06.02.2021
2858 Snow 0 1017 78 10000 3.58 8 14:26 06.02.2021
2859 Clouds 0 1017 78 10000 2.24 69 13:49 06.02.2021
2860 Clouds 0 1017 80 10000 5.81 21 13:29 06.02.2021
2861 Clouds -1 1018 83 10000 2.68 45 12:22 06.02.2021
2862 Clouds -1 1018 84 10000 2.24 57 11:57 06.02.2021
2863 Clouds -1 1018 84 10000 3.13 63 11:38 06.02.2021
2864 Snow -1 1018 86 9515 4.92 9 11:19 06.02.2021
2865 Snow -1 1018 87 9532 3.58 52 10:42 06.02.2021
2866 Snow -1 1019 88 413 2.68 55 10:23 06.02.2021
2867 Snow -1 1019 88 413 3.58 40 09:37 06.02.2021
2868 Snow -1 1019 89 175 2.68 69 09:18 06.02.2021
2869 Snow -1 1019 91 175 1.34 36 08:49 06.02.2021
2870 Snow -1 1019 91 179 1.34 59 08:28 06.02.2021
2871 Snow -1 1018 88 205 5.81 49 06:40 06.02.2021
2872 Clouds -1 1017 90 957 3.58 60 04:45 06.02.2021
2873 Snow 0 1017 92 466 4.92 62 02:39 06.02.2021
2874 Clouds 0 1017 92 1821 1.34 29 00:49 06.02.2021
2875 Snow 0 1017 92 10000 0.45 15 00:21 06.02.2021
2876 Snow 0 1017 92 10000 0.45 14 23:59 05.02.2021
2877 Clouds 0 1017 92 10000 3.58 39 23:29 05.02.2021
2878 Clouds 0 1017 93 10000 1.34 18 22:49 05.02.2021
2879 Clouds 0 1016 93 10000 0.89 40 22:24 05.02.2021
2880 Snow 0 1016 93 10000 0.89 87 21:54 05.02.2021
2881 Clouds 0 1016 93 391 0.89 69 21:35 05.02.2021
2882 Snow 0 1016 93 391 2.24 59 20:52 05.02.2021
2883 Rain 0 1016 93 76 2.68 43 19:57 05.02.2021
2884 Rain 0 1016 94 76 4.92 107 19:39 05.02.2021
2885 Rain 0 1016 94 99 4.92 32 19:18 05.02.2021
2886 Snow 0 1016 94 99 1.79 90 18:38 05.02.2021
2887 Snow 0 1016 94 52 4.02 4 18:19 05.02.2021
2888 Snow 0 1016 94 52 0.45 43 17:35 05.02.2021
2889 Snow 1 1016 94 54 0.45 1 16:58 05.02.2021
2890 Snow 1 1016 94 54 5.35 83 16:39 05.02.2021
2891 Snow 1 1016 94 3637 4.98 85 16:20 05.02.2021
2892 Snow 1 1016 94 3637 1.79 79 15:45 05.02.2021
2893 Snow 1 1016 93 10000 0.45 4 15:22 05.02.2021
2894 Snow 1 1016 93 10000 2.68 66 14:38 05.02.2021
2895 Snow 2 1016 92 10000 4.02 359 14:20 05.02.2021
2896 Snow 2 1016 90 10000 4.92 98 13:48 05.02.2021
2897 Rain 2 1016 88 10000 0.89 53 13:30 05.02.2021
2898 Rain 2 1016 88 10000 0.89 53 13:30 05.02.2021
2899 Clouds 2 1017 87 10000 1.34 4 12:44 05.02.2021
2900 Clouds 2 1017 87 10000 3.13 91 12:23 05.02.2021
2901 Clouds 2 1018 88 10000 2.68 142 11:39 05.02.2021
2902 Clouds 2 1018 88 10000 1.34 71 11:20 05.02.2021
2903 Clouds 2 1018 89 10000 0.89 18 10:49 05.02.2021
2904 Clouds 2 1018 90 10000 4.02 8 10:25 05.02.2021
2905 Clouds 2 1018 91 10000 5.81 95 09:43 05.02.2021
2906 Clouds 2 1018 91 10000 1.34 63 09:25 05.02.2021
2907 Clouds 2 1018 92 10000 3.13 94 08:47 05.02.2021
2908 Clouds 2 1018 92 10000 3.58 57 07:52 05.02.2021
2909 Clouds 2 1017 92 10000 1.79 64 07:34 05.02.2021
2910 Clouds 2 1017 92 10000 2.68 47 06:42 05.02.2021
2911 Clouds 2 1017 92 10000 2.68 111 05:35 05.02.2021
2912 Clouds 2 1017 91 10000 2.68 79 02:52 05.02.2021
2913 Clouds 2 1017 91 10000 1.34 74 02:24 05.02.2021
2914 Clouds 2 1017 91 10000 1.79 79 00:39 05.02.2021
2915 Clouds 2 1017 91 7248 1.79 131 00:19 05.02.2021
2916 Clouds 2 1017 91 7248 2.24 107 23:55 04.02.2021
2917 Clouds 2 1017 93 7248 2.68 60 23:36 04.02.2021
2918 Clouds 2 1017 93 7291 2.39 64 23:18 04.02.2021
2919 Clouds 3 1017 93 7358 2.39 64 22:46 04.02.2021
2920 Clouds 3 1017 93 5600 1.34 74 22:25 04.02.2021
2921 Clouds 2 1017 92 5600 0.45 19 21:42 04.02.2021
2922 Clouds 2 1017 92 4335 2.29 83 21:19 04.02.2021
2923 Clouds 2 1016 91 4335 0.89 103 20:46 04.02.2021
2924 Clouds 2 1017 91 4898 2.75 70 20:28 04.02.2021
2925 Clouds 3 1016 91 4898 2.75 70 19:42 04.02.2021
2926 Clouds 3 1016 91 7463 2.81 63 18:56 04.02.2021
2927 Clouds 3 1016 91 10000 0.89 47 18:25 04.02.2021
2928 Clouds 3 1016 91 10000 1.34 79 17:53 04.02.2021
2929 Clouds 3 1016 90 10000 1.67 83 17:26 04.02.2021
2930 Clouds 3 1016 89 10000 1.67 83 16:56 04.02.2021
2931 Clouds 3 1016 88 10000 1.67 83 16:38 04.02.2021
2932 Clouds 3 1016 87 10000 0.89 79 16:18 04.02.2021
2933 Clouds 3 1016 87 10000 0.89 79 16:18 04.02.2021
2934 Clouds 3 1015 87 10000 0.45 49 15:39 04.02.2021
2935 Clouds 3 1015 85 10000 1.34 100 15:20 04.02.2021
2936 Clouds 3 1015 86 10000 1.48 98 14:47 04.02.2021
2937 Clouds 3 1015 86 10000 1.69 82 14:20 04.02.2021
2938 Clouds 1 1009 10 10000 1.69 82 13:45 04.02.2021
2939 Clouds 3 1015 90 10000 1.79 351 13:25 04.02.2021
2940 Clouds 3 1015 90 10000 0.89 344 12:54 04.02.2021
2941 Rain 2 1014 90 10000 1.74 71 11:57 04.02.2021
2942 Clouds 2 1014 91 10000 1.74 71 11:37 04.02.2021
2943 Clouds 2 1013 91 10000 2.01 64 11:18 04.02.2021
2944 Clouds 2 1013 91 10000 2.01 64 10:34 04.02.2021
2945 Clouds 2 1012 92 10000 1.93 43 09:45 04.02.2021
2946 Clouds 2 1012 91 10000 1.78 14 09:23 04.02.2021
2947 Clouds 2 1012 92 10000 0.45 309 08:57 04.02.2021
2948 Rain 2 1011 92 10000 1.34 311 08:26 04.02.2021
2949 Clouds 2 1010 92 10000 2.35 339 07:57 04.02.2021
2950 Clouds 2 1010 92 10000 2.24 328 07:34 04.02.2021
2951 Clouds 2 1009 92 9661 1.34 287 06:53 04.02.2021
2952 Rain 2 1008 92 9661 1.79 299 06:34 04.02.2021
2953 Clouds 4 1003 92 10000 3.16 300 02:41 04.02.2021
2954 Rain 4 1002 92 10000 4.08 304 02:23 04.02.2021
2955 Clouds 4 999 91 10000 1.79 155 00:31 04.02.2021
2956 Clouds 4 998 90 10000 7.15 283 23:39 03.02.2021
2957 Rain 7 997 90 10000 4.02 283 22:41 03.02.2021
2958 Clouds 7 996 90 10000 5.36 218 22:21 03.02.2021
2959 Clouds 6 995 90 10000 8.94 275 21:55 03.02.2021
2960 Clouds 7 994 87 10000 2.24 304 21:25 03.02.2021
2961 Rain 8 994 90 10000 8.94 252 20:58 03.02.2021
2962 Rain 7 994 93 10000 1.79 244 20:38 03.02.2021
2963 Rain 7 994 94 10000 2.68 237 20:18 03.02.2021
2964 Clouds 7 994 94 10000 2.24 162 19:41 03.02.2021
2965 Clouds 7 994 94 10000 4.3 209 19:18 03.02.2021
2966 Rain 7 994 94 10000 4.28 213 18:46 03.02.2021
2967 Clouds 7 994 93 9509 1.34 189 18:19 03.02.2021
2968 Clouds 7 994 94 9509 1.79 124 17:51 03.02.2021
2969 Clouds 7 994 94 9509 0.45 91 17:30 03.02.2021
2970 Clouds 6 995 93 10000 2.93 166 16:53 03.02.2021
2971 Rain 6 995 93 10000 0.45 101 16:29 03.02.2021
2972 Rain 5 991 10 10000 2.78 174 15:45 03.02.2021
2973 Rain 7 996 90 8417 0.89 125 15:25 03.02.2021
2974 Rain 6 991 97 8417 2.86 192 14:53 03.02.2021
2975 Rain 6 991 97 8417 2.86 192 14:53 03.02.2021
2976 Clouds 8 997 88 7168 0.89 160 14:26 03.02.2021
2977 Rain 8 998 86 7168 3.13 203 13:54 03.02.2021
2978 Rain 8 998 87 10000 0.89 148 13:28 03.02.2021
2979 Rain 8 999 87 10000 0.89 197 12:49 03.02.2021
2980 Clouds 8 999 90 10000 1.34 186 12:27 03.02.2021
2981 Clouds 7 1000 92 10000 4.09 197 11:59 03.02.2021
2982 Clouds 7 1000 93 10000 4.09 197 11:37 03.02.2021
2983 Clouds 6 1001 93 10000 3.88 203 10:58 03.02.2021
2984 Clouds 5 1001 94 10000 0.45 204 10:23 03.02.2021
2985 Clouds 5 1001 94 10000 4.03 207 09:51 03.02.2021
2986 Clouds 4 1001 94 10000 4.03 207 09:32 03.02.2021
2987 Clouds 4 1001 94 10000 0.89 146 08:54 03.02.2021
2988 Clouds 4 1001 95 10000 0.45 148 08:35 03.02.2021
2989 Clouds 5 1001 95 10000 3.58 179 07:43 03.02.2021
2990 Clouds 3 1001 95 10000 1.34 122 06:42 03.02.2021
2991 Clouds 2 1001 94 10000 2.63 200 04:55 03.02.2021
2992 Clouds 2 1001 94 10000 2.63 200 04:34 03.02.2021
2993 Clouds 2 1001 95 10000 2.1 187 03:49 03.02.2021
2994 Clouds 2 1001 95 9151 1.82 215 02:38 03.02.2021
2995 Clouds 2 1001 95 9861 1.26 227 01:21 03.02.2021
2996 Clouds 2 1001 95 10000 1.45 225 00:23 03.02.2021
2997 Clouds 2 1001 95 10000 1.45 225 23:42 02.02.2021
2998 Clouds 2 1000 95 9107 0.44 178 23:23 02.02.2021
2999 Rain 2 1000 95 9107 0.44 178 22:43 02.02.2021
3000 Clouds 2 1000 95 4050 0.41 163 22:19 02.02.2021
3001 Clouds 2 1000 95 4050 0.41 163 21:44 02.02.2021
3002 Clouds 2 1000 95 3167 1.31 125 21:23 02.02.2021
3003 Rain 2 1000 95 3167 1.31 125 20:49 02.02.2021
3004 Clouds 2 1000 95 274 2.12 124 20:21 02.02.2021
3005 Clouds 2 1000 95 274 2.12 123 19:51 02.02.2021
3006 Clouds 2 1000 95 274 2.12 123 19:33 02.02.2021
3007 Rain 2 1000 95 250 2.86 125 18:56 02.02.2021
3008 Rain 2 1000 95 250 2.86 125 18:37 02.02.2021
3009 Rain 2 1000 95 344 2.8 117 18:19 02.02.2021
3010 Rain 2 1000 94 344 1.34 40 17:38 02.02.2021
3011 Rain 2 1001 93 467 0.45 79 17:19 02.02.2021
3012 Rain 2 1001 92 467 2.62 117 16:48 02.02.2021
3013 Rain 2 1001 91 236 2.95 106 16:27 02.02.2021
3014 Rain 2 1001 91 236 1.34 70 15:56 02.02.2021
3015 Rain 2 1001 89 236 3.13 55 15:30 02.02.2021
3016 Rain 3 1002 85 481 2.68 80 14:53 02.02.2021
3017 Snow 1 997 92 481 2.28 114 14:34 02.02.2021
3018 Rain 3 1003 83 1664 2.24 91 13:58 02.02.2021
3019 Rain 3 1003 83 1664 0.89 122 13:40 02.02.2021
3020 Clouds 1 997 91 6862 1.44 121 13:22 02.02.2021
3021 Snow 1 998 89 2794 1.59 119 12:47 02.02.2021
3022 Clouds 1 998 89 10000 0.65 185 11:55 02.02.2021
3023 Clouds 2 998 85 10000 0.65 185 11:36 02.02.2021
3024 Clouds 2 998 85 10000 0.5 240 11:18 02.02.2021
3025 Clouds 2 998 88 10000 0.52 241 10:42 02.02.2021
3026 Clouds 2 1005 87 10000 1.36 292 10:22 02.02.2021
3027 Clouds 2 1005 89 10000 1.37 291 09:39 02.02.2021
3028 Clouds 2 1005 90 10000 2.14 292 09:20 02.02.2021
3029 Clouds 1 1005 90 10000 2.14 292 08:36 02.02.2021
3030 Clouds 1 1005 91 10000 2.52 286 07:44 02.02.2021
3031 Clouds 1 1004 91 10000 4.06 282 06:49 02.02.2021
3032 Clouds 1 1004 91 9271 0.45 265 06:31 02.02.2021
3033 Clouds 1 1004 91 10000 4.06 282 06:31 02.02.2021
3034 Clouds 1 1004 91 9345 4.61 281 05:50 02.02.2021
3035 Clouds 1 1002 91 10000 1.34 206 02:57 02.02.2021
3036 Clouds 1 1002 91 10000 2.82 272 02:24 02.02.2021
3037 Clouds 1 1001 88 10000 2.57 277 00:38 02.02.2021
3038 Clouds 1 1000 88 10000 2.09 271 23:55 01.02.2021
3039 Clouds 1 999 87 10000 1.69 261 22:57 01.02.2021
3040 Clouds 1 999 87 10000 1.69 261 22:57 01.02.2021
3041 Clouds 0 999 87 10000 1.69 261 22:38 01.02.2021
3042 Clouds 0 999 87 10000 1.38 233 22:19 01.02.2021
3043 Clouds 0 999 87 10000 1.38 233 21:42 01.02.2021
3044 Clouds 0 999 87 10000 1.62 182 21:21 01.02.2021
3045 Clouds 0 998 86 10000 1.62 182 20:42 01.02.2021
3046 Clouds 0 998 86 10000 2.06 163 20:24 01.02.2021
3047 Clouds 0 998 86 10000 0.45 146 19:42 01.02.2021
3048 Clouds 0 998 86 10000 1.34 121 19:21 01.02.2021
3049 Snow 0 998 85 10000 3.21 139 18:51 01.02.2021
3050 Snow 0 998 84 10000 2.24 81 18:29 01.02.2021
3051 Snow 0 997 82 10000 0.89 132 17:48 01.02.2021
3052 Snow 0 997 82 10000 1.34 117 17:27 01.02.2021
3053 Clouds 0 997 80 10000 0.89 86 16:58 01.02.2021
3054 Clouds 0 997 79 10000 2.68 86 16:33 01.02.2021
3055 Clouds 0 997 78 10000 1.79 122 15:50 01.02.2021
3056 Clouds 0 997 77 10000 1.79 115 15:21 01.02.2021
3057 Clouds 1 997 74 10000 1.34 81 14:57 01.02.2021
3058 Clouds 1 997 74 10000 3.58 128 14:39 01.02.2021
3059 Clouds 1 997 73 10000 0.89 115 13:56 01.02.2021
3060 Clouds 0 997 73 10000 4.02 159 13:38 01.02.2021
3061 Clouds 0 997 71 10000 0.89 42 13:20 01.02.2021
3062 Clouds -1 998 74 10000 5.81 151 12:44 01.02.2021
3063 Clouds -1 998 74 10000 2.24 101 12:23 01.02.2021
3064 Clouds -1 998 72 10000 4.47 87 11:42 01.02.2021
3065 Clouds -1 998 72 10000 2.24 81 11:20 01.02.2021
3066 Clouds -2 999 75 10000 3.13 108 10:46 01.02.2021
3067 Clouds -3 999 79 10000 0.45 71 10:20 01.02.2021
3068 Clouds -4 999 82 10000 0.45 31 09:45 01.02.2021
3069 Clouds -4 999 84 10000 1.34 84 09:24 01.02.2021
3070 Clouds -5 1000 86 10000 2.24 62 08:54 01.02.2021
3071 Clouds -6 999 88 10000 1.34 135 07:53 01.02.2021
3072 Snow -6 999 89 10000 0.45 36 06:43 01.02.2021
3073 Clouds -7 999 89 10000 3.33 116 04:32 01.02.2021
3074 Clouds -9 1001 88 10000 2.97 114 01:46 01.02.2021
3075 Clouds -9 1002 87 10000 3 124 23:46 31.01.2021
3076 Clouds -8 1002 88 10000 2.79 129 22:56 31.01.2021
3077 Clouds -8 1002 87 10000 2.79 129 22:36 31.01.2021
3078 Clouds -8 1002 87 10000 3.08 126 22:18 31.01.2021
3079 Clouds -7 1003 88 10000 3.08 126 21:41 31.01.2021
3080 Clouds -7 1003 88 10000 2.59 129 21:19 31.01.2021
3081 Clouds -6 1003 89 10000 2.59 129 20:41 31.01.2021
3082 Clouds -6 1003 89 10000 2.28 134 20:19 31.01.2021
3083 Clouds -6 1003 89 10000 2.28 134 20:19 31.01.2021
3084 Clouds -5 1004 90 10000 2.17 146 19:38 31.01.2021
3085 Clouds -5 1004 90 10000 1.98 147 19:19 31.01.2021
3086 Clouds -4 1004 88 10000 1.98 147 18:44 31.01.2021
3087 Clouds -4 1004 89 10000 1.9 143 18:24 31.01.2021
3088 Clouds -6 1004 88 10000 1.9 143 17:57 31.01.2021
3089 Clouds -5 1005 88 10000 1.9 143 17:38 31.01.2021
3090 Clouds -5 1005 87 10000 0.45 101 17:19 31.01.2021
3091 Clouds -3 1005 84 10000 1.83 143 16:41 31.01.2021
3092 Clouds -3 1005 82 10000 0.45 115 16:20 31.01.2021
3093 Clouds -2 1005 79 10000 1.66 144 15:48 31.01.2021
3094 Clouds -2 1006 78 10000 0.89 152 15:18 31.01.2021
3095 Clouds -1 1006 75 10000 0.45 197 14:36 31.01.2021
3096 Clouds -1 1006 75 10000 0.45 197 14:36 31.01.2021
3097 Clear -1 1006 75 10000 0.45 128 14:18 31.01.2021
3098 Clear 0 1006 73 10000 2.24 186 13:39 31.01.2021
3099 Clear 0 1007 73 10000 0.45 119 13:18 31.01.2021
3100 Clear 0 1007 75 10000 0.45 127 12:45 31.01.2021
3101 Clear -1 1007 77 10000 1.85 193 12:20 31.01.2021
3102 Clear -2 1008 80 10000 0.89 87 11:39 31.01.2021
3103 Clear -2 1008 81 10000 0.89 118 11:20 31.01.2021
3104 Clear -5 1008 84 10000 1.92 192 10:45 31.01.2021
3105 Clear -6 1008 83 10000 1.98 199 10:26 31.01.2021
3106 Clear -7 1008 85 10000 1.98 199 09:41 31.01.2021
3107 Clear -8 1008 86 10000 1.99 201 08:53 31.01.2021
3108 Clear -9 1008 87 10000 1.99 201 08:31 31.01.2021
3109 Clouds -8 1008 88 10000 0.97 208 06:47 31.01.2021
3110 Clouds -9 1001 94 10000 0.1 77 04:55 31.01.2021
3111 Clouds -6 1001 97 10000 1.1 77 00:38 31.01.2021
3112 Clouds -6 1001 97 10000 1.2 68 00:20 31.01.2021
3113 Clouds -5 1001 98 10000 1.46 57 23:28 30.01.2021
3114 Clouds -5 1001 99 10000 1.46 57 22:45 30.01.2021
3115 Clouds -4 1000 98 10000 1.05 41 22:23 30.01.2021
3116 Clouds -4 1000 99 10000 1.05 41 21:39 30.01.2021
3117 Clouds -4 1000 99 10000 1.13 20 21:20 30.01.2021
3118 Clouds -3 1000 99 10000 1.13 20 20:44 30.01.2021
3119 Clouds -1 1005 89 10000 0.99 17 20:25 30.01.2021
3120 Clouds -1 1005 89 10000 0.99 17 19:43 30.01.2021
3121 Clouds -1 1005 89 10000 0.12 70 19:24 30.01.2021
3122 Clouds -1 1005 89 10000 1 34 18:41 30.01.2021
3123 Clouds -1 1005 89 10000 1.16 57 18:21 30.01.2021
3124 Clouds 0 1005 89 10000 1.16 57 17:57 30.01.2021
3125 Clouds 0 1005 89 10000 1.36 47 17:19 30.01.2021
3126 Clouds 0 1005 88 10000 1.36 47 16:44 30.01.2021
3127 Clouds 1 1004 87 10000 1.2 18 16:24 30.01.2021
3128 Clouds 1 1004 86 10000 1.2 18 15:55 30.01.2021
3129 Clouds 1 1004 85 10000 1.2 18 15:37 30.01.2021
3130 Clouds 0 998 89 10000 1 338 15:19 30.01.2021
3131 Clouds 1 998 87 10000 1 338 14:42 30.01.2021
3132 Clouds 2 1004 85 10000 1.79 172 14:19 30.01.2021
3133 Clouds 1 998 82 10000 1.14 314 13:30 30.01.2021
3134 Clouds 2 998 77 10000 0.75 279 12:49 30.01.2021
3135 Clouds 2 998 78 10000 1.13 346 12:28 30.01.2021
3136 Clouds 2 998 81 10000 1.13 346 11:57 30.01.2021
3137 Clouds 1 999 80 10000 1.54 328 11:28 30.01.2021
3138 Clouds 1 999 85 10000 1.54 328 10:48 30.01.2021
3139 Clouds 1 1005 89 10000 1.99 331 09:48 30.01.2021
3140 Clouds -1 1004 95 5634 0.45 344 09:29 30.01.2021
3141 Clouds -1 1004 91 5634 1.34 295 08:47 30.01.2021
3142 Clouds -2 1004 93 6429 0.89 293 07:48 30.01.2021
3143 Clouds -2 1002 92 3916 2.24 295 06:51 30.01.2021
3144 Snow -1 1001 92 1357 3.82 325 05:43 30.01.2021
3145 Snow -1 999 92 141 3.13 337 03:35 30.01.2021
3146 Snow -1 997 92 130 0.89 327 02:25 30.01.2021
3147 Snow -1 996 93 130 1.34 23 01:30 30.01.2021
3148 Snow -1 996 93 428 3.13 5 00:39 30.01.2021
3149 Snow -1 995 93 459 2.68 39 00:20 30.01.2021
3150 Snow -1 995 93 459 4.47 7 23:45 29.01.2021
3151 Snow -1 995 92 992 1.79 26 23:22 29.01.2021
3152 Snow -1 995 91 992 3.1 88 22:44 29.01.2021
3153 Snow -1 995 91 2690 2.68 55 22:20 29.01.2021
3154 Snow -1 995 91 2690 0.89 71 21:37 29.01.2021
3155 Snow -1 995 91 1810 2.68 67 21:19 29.01.2021
3156 Snow -1 995 92 1810 1.79 316 20:41 29.01.2021
3157 Snow -1 995 92 5415 2.24 115 20:21 29.01.2021
3158 Snow -1 995 92 5415 1.79 104 19:38 29.01.2021
3159 Snow -1 995 92 350 2.68 119 19:19 29.01.2021
3160 Snow -1 995 91 350 0.89 73 18:42 29.01.2021
3161 Snow -1 995 91 398 1.34 57 17:45 29.01.2021
3162 Snow -1 995 90 137 2.24 52 17:22 29.01.2021
3163 Snow -1 995 89 137 1.79 101 16:47 29.01.2021
3164 Snow -1 995 89 121 2.24 104 16:24 29.01.2021
3165 Snow 0 995 88 121 2.24 112 15:52 29.01.2021
3166 Snow 0 995 87 121 1.79 84 15:34 29.01.2021
3167 Snow 0 995 86 157 4.62 109 14:56 29.01.2021
3168 Snow 1 995 86 631 0.89 95 14:18 29.01.2021
3169 Snow 1 995 86 631 3.58 73 13:45 29.01.2021
3170 Snow 1 996 83 2583 2.68 97 13:26 29.01.2021
3171 Snow 2 996 64 1764 7.15 88 12:30 29.01.2021
3172 Snow 2 996 69 6688 3.13 105 11:51 29.01.2021
3173 Clouds 1 996 72 9267 3.13 141 11:20 29.01.2021
3174 Snow 1 997 73 9267 3.13 80 10:53 29.01.2021
3175 Snow 1 997 77 9267 3.13 87 10:35 29.01.2021
3176 Clouds 0 998 79 10000 6.26 87 09:50 29.01.2021
3177 Snow 0 998 79 10000 6.26 87 09:29 29.01.2021
3178 Snow 0 998 80 10000 5.36 88 08:48 29.01.2021
3179 Clouds -1 999 81 5336 4.02 84 08:25 29.01.2021
3180 Clouds -1 1000 82 5336 2.68 86 07:43 29.01.2021
3181 Clouds -1 1000 81 10000 2.68 115 07:23 29.01.2021
3182 Clouds -1 1000 82 10000 2.24 117 06:34 29.01.2021
3183 Clouds 0 1003 81 10000 3.13 108 03:53 29.01.2021
3184 Clouds 0 1005 81 10000 1.44 99 00:47 29.01.2021
3185 Clouds -1 1005 82 10000 1.73 64 00:22 29.01.2021
3186 Clouds -1 1005 82 10000 1.73 64 00:22 29.01.2021
3187 Clouds -1 1005 84 10000 1.73 64 23:47 28.01.2021
3188 Clouds -1 1005 84 10000 1.47 30 23:27 28.01.2021
3189 Clouds -1 1005 82 10000 1.47 30 22:59 28.01.2021
3190 Clouds 0 1005 80 10000 1.47 30 22:39 28.01.2021
3191 Clouds 0 1005 80 10000 2.74 46 22:21 28.01.2021
3192 Clouds 0 1005 80 10000 2.74 46 22:21 28.01.2021
3193 Clouds 0 1005 81 10000 0.89 293 21:42 28.01.2021
3194 Clouds 0 1005 80 10000 0.89 1 21:22 28.01.2021
3195 Clouds 1 1004 79 10000 1.79 15 20:45 28.01.2021
3196 Clouds 1 1005 77 10000 1.34 352 20:19 28.01.2021
3197 Snow 1 1004 77 10000 2.68 0 19:52 28.01.2021
3198 Clouds 1 1004 76 10000 2.24 16 19:29 28.01.2021
3199 Rain 2 1003 80 10000 2.24 66 18:50 28.01.2021
3200 Snow 2 1003 80 10000 1.79 316 18:31 28.01.2021
3201 Clouds 2 1003 80 10000 2.68 307 17:54 28.01.2021
3202 Clouds 2 1002 80 10000 1.34 343 17:35 28.01.2021
3203 Clouds 2 1002 80 10000 0.89 319 16:59 28.01.2021
3204 Clouds 3 1002 80 10000 4.02 327 16:40 28.01.2021
3205 Clouds 3 1002 80 10000 3.13 344 16:20 28.01.2021
3206 Clouds 4 1002 79 10000 4.02 355 15:36 28.01.2021
3207 Clouds 4 1002 78 10000 0.45 35 14:55 28.01.2021
3208 Rain 4 1002 79 10000 1.34 43 14:37 28.01.2021
3209 Clouds 5 1002 79 10000 2.24 11 14:18 28.01.2021
3210 Clouds 5 1003 80 10000 1.34 49 13:39 28.01.2021
3211 Clouds 5 1003 81 10000 2.68 15 12:51 28.01.2021
3212 Clouds 3 998 78 10000 3.19 50 12:33 28.01.2021
3213 Clouds 3 998 79 10000 2.57 37 11:58 28.01.2021
3214 Clouds 5 1004 85 10000 2.57 37 11:39 28.01.2021
3215 Clouds 5 1005 86 10000 2.31 22 11:19 28.01.2021
3216 Clouds 5 1005 86 10000 1.34 217 10:49 28.01.2021
3217 Clouds 5 1005 87 10000 2.25 340 10:27 28.01.2021
3218 Clouds 5 1006 89 10000 1.79 273 09:44 28.01.2021
3219 Clouds 4 1006 90 10000 0.89 280 09:22 28.01.2021
3220 Clouds 4 1006 90 10000 2.68 272 08:48 28.01.2021
3221 Clouds 4 1006 90 10000 2.24 223 08:18 28.01.2021
3222 Clouds 4 1007 90 10000 2.24 248 07:42 28.01.2021
3223 Clouds 4 1007 91 10000 2.68 263 06:49 28.01.2021
3224 Clouds 4 1007 90 10000 3.58 141 05:28 28.01.2021
3225 Clouds 4 1008 90 10000 0.89 299 03:49 28.01.2021
3226 Clouds 3 1009 88 10000 3.37 242 00:58 28.01.2021
3227 Clouds 2 1009 87 10000 3.33 221 23:47 27.01.2021
3228 Clouds 2 1009 86 10000 3.07 207 23:23 27.01.2021
3229 Clouds 2 1009 86 10000 0.89 179 22:41 27.01.2021
3230 Clouds 2 1009 85 10000 2.24 208 22:21 27.01.2021
3231 Clouds 2 1009 85 10000 3.13 217 21:42 27.01.2021
3232 Clouds 2 1009 85 10000 2.24 153 21:22 27.01.2021
3233 Clouds 2 1009 84 10000 3.13 148 20:50 27.01.2021
3234 Clouds 2 1010 83 10000 0.89 158 20:23 27.01.2021
3235 Clouds 2 1010 83 10000 2.68 194 19:49 27.01.2021
3236 Clouds 2 1010 82 10000 1.34 187 19:23 27.01.2021
3237 Clouds 2 1010 82 10000 0.89 148 18:45 27.01.2021
3238 Clouds 2 1010 82 10000 3.69 191 18:24 27.01.2021
3239 Clouds 2 1011 81 10000 3.69 191 17:52 27.01.2021
3240 Clouds 2 1011 80 10000 2.24 149 17:34 27.01.2021
3241 Clouds 3 1011 77 10000 0.89 214 16:57 27.01.2021
3242 Clouds 3 1011 76 10000 3.58 196 16:38 27.01.2021
3243 Clouds 3 1011 75 10000 2.68 90 16:20 27.01.2021
3244 Clouds 3 1011 74 10000 1.34 162 15:49 27.01.2021
3245 Clouds 4 1011 74 10000 3.13 176 15:29 27.01.2021
3246 Clear 5 1012 70 10000 1.34 184 14:24 27.01.2021
3247 Clouds 5 1012 70 10000 2.68 151 13:53 27.01.2021
3248 Clouds 6 1013 70 10000 3.13 194 13:35 27.01.2021
3249 Clouds 5 1013 73 10000 4.02 183 12:42 27.01.2021
3250 Clouds 5 1014 74 10000 1.79 95 12:23 27.01.2021
3251 Clouds 4 1014 78 10000 2.24 151 11:47 27.01.2021
3252 Clouds 3 1014 82 10000 1.79 187 11:23 27.01.2021
3253 Clouds 2 1015 86 10000 0.89 187 10:45 27.01.2021
3254 Clouds 2 1015 88 10000 0.45 173 10:22 27.01.2021
3255 Clouds 1 1015 90 10000 1.34 179 09:55 27.01.2021
3256 Clouds 1 1015 91 10000 0.45 170 09:28 27.01.2021
3257 Clouds 0 1016 92 10000 1.34 90 08:42 27.01.2021
3258 Clouds 0 1016 91 10000 2.48 226 07:49 27.01.2021
3259 Clouds 0 1016 91 10000 2.82 245 07:30 27.01.2021
3260 Clouds 1 1016 93 10000 0.89 218 06:38 27.01.2021
3261 Clouds -1 1016 91 10000 2.79 252 05:55 27.01.2021
3262 Clouds 0 1016 91 10000 0.45 163 05:34 27.01.2021
3263 Clouds 0 1016 92 10000 3.17 261 02:46 27.01.2021
3264 Clouds 0 1016 92 10000 0.45 223 02:20 27.01.2021
3265 Clouds 0 1017 93 10000 1.34 241 01:32 27.01.2021
3266 Clouds -1 1017 92 10000 3.45 268 00:27 27.01.2021
3267 Clouds 0 1017 93 10000 0.45 218 23:40 26.01.2021
3268 Clouds 0 1017 93 10000 1.79 254 23:19 26.01.2021
3269 Clouds 0 1016 92 10000 0.45 263 22:39 26.01.2021
3270 Clouds 0 1016 91 10000 1.34 276 22:19 26.01.2021
3271 Clouds 0 1016 91 10000 4.34 278 21:51 26.01.2021
3272 Clouds 1 1016 90 10000 0.45 266 21:24 26.01.2021
3273 Clouds 2 1016 86 10000 1.79 231 20:54 26.01.2021
3274 Clouds 2 1016 85 10000 4.92 262 20:36 26.01.2021
3275 Clouds 2 1016 85 10000 1.34 289 20:18 26.01.2021
3276 Clouds 2 1016 85 10000 1.34 289 20:18 26.01.2021
3277 Clouds 2 1016 84 10000 2.68 249 19:40 26.01.2021
3278 Clouds 2 1016 84 10000 1.79 256 19:19 26.01.2021
3279 Clouds 1 1016 86 10000 3.13 218 18:42 26.01.2021
3280 Clouds 1 1015 85 10000 5.81 252 18:23 26.01.2021
3281 Clouds 1 1015 86 10000 3.58 248 17:47 26.01.2021
3282 Clouds 1 1015 84 10000 2.24 268 17:23 26.01.2021
3283 Clouds 2 1015 83 10000 4.28 282 16:52 26.01.2021
3284 Clouds 2 1015 84 10000 0.89 271 16:21 26.01.2021
3285 Clouds 3 1014 82 10000 1.34 167 15:53 26.01.2021
3286 Clouds 3 1014 81 10000 3.94 285 15:35 26.01.2021
3287 Clouds 3 1014 80 10000 3.73 304 14:49 26.01.2021
3288 Clouds 3 1014 80 10000 3.73 304 14:30 26.01.2021
3289 Clouds 4 1014 82 10000 3.63 315 13:59 26.01.2021
3290 Clouds 3 1013 83 10000 3.13 286 13:29 26.01.2021
3291 Clouds 3 1013 83 10000 1.34 234 12:55 26.01.2021
3292 Clouds 3 1013 83 10000 0.89 313 12:37 26.01.2021
3293 Clouds 2 1013 83 10000 3.58 299 12:18 26.01.2021
3294 Clouds 2 1013 82 10000 0.45 295 11:43 26.01.2021
3295 Clouds 2 1012 83 10000 2.67 334 10:59 26.01.2021
3296 Clouds 1 1012 84 10000 2.67 334 10:34 26.01.2021
3297 Clouds 1 1012 87 10000 1.4 319 09:51 26.01.2021
3298 Clouds 1 1012 87 10000 1.4 319 09:32 26.01.2021
3299 Snow 0 1011 90 10000 0.87 180 08:56 26.01.2021
3300 Snow 0 1011 92 10000 0.87 180 08:38 26.01.2021
3301 Snow 0 1011 90 1321 0.89 214 07:54 26.01.2021
3302 Snow 0 1010 89 224 1.34 169 06:56 26.01.2021
3303 Snow 0 1010 88 188 2.79 182 05:46 26.01.2021
3304 Snow 0 1010 87 2681 2.85 223 05:25 26.01.2021
3305 Clouds -1 1010 87 10000 1.34 135 03:31 26.01.2021
3306 Clouds -1 1010 89 10000 3.13 246 00:59 26.01.2021
3307 Clouds -1 1010 89 10000 3.46 256 00:24 26.01.2021
3308 Clouds 0 1009 87 10000 3.58 252 23:28 25.01.2021
3309 Clouds 1 1009 83 10000 1.34 275 22:44 25.01.2021
3310 Clouds 1 1009 83 10000 1.34 275 22:44 25.01.2021
3311 Clouds 1 1009 83 10000 3.13 268 22:25 25.01.2021
3312 Clouds 1 1008 83 10000 3.13 261 21:41 25.01.2021
3313 Clouds 1 1008 83 10000 1.34 276 21:18 25.01.2021
3314 Clouds 1 1008 83 10000 2.24 272 20:41 25.01.2021
3315 Clouds 1 1008 83 10000 4.02 245 20:23 25.01.2021
3316 Clouds 1 1007 83 10000 0.89 254 19:47 25.01.2021
3317 Clouds 1 1007 82 10000 1.34 261 19:23 25.01.2021
3318 Clouds 1 1007 85 10000 3.18 276 18:45 25.01.2021
3319 Clouds 1 1007 88 10000 0.89 189 18:24 25.01.2021
3320 Clouds 0 1006 89 10000 2.95 279 17:48 25.01.2021
3321 Clouds 0 1006 88 10000 2.77 279 17:25 25.01.2021
3322 Clouds 1 1006 86 10000 2.77 279 16:49 25.01.2021
3323 Clouds 2 1006 84 10000 0.89 255 16:26 25.01.2021
3324 Clouds 2 1005 82 10000 0.45 232 15:55 25.01.2021
3325 Clouds 3 1005 81 10000 0.89 258 15:36 25.01.2021
3326 Clouds 3 1005 77 10000 2.24 254 14:59 25.01.2021
3327 Clouds 4 1004 71 10000 2.24 271 14:39 25.01.2021
3328 Clouds 5 1004 68 10000 2.24 244 14:18 25.01.2021
3329 Clouds 4 1004 75 10000 0.89 249 13:44 25.01.2021
3330 Clouds 4 1004 75 10000 0.45 227 13:21 25.01.2021
3331 Clouds 4 1004 77 10000 1.79 276 12:44 25.01.2021
3332 Clouds 3 1004 80 10000 2.97 274 12:19 25.01.2021
3333 Clouds 3 1004 84 10000 1.34 324 11:31 25.01.2021
3334 Clouds 2 1004 89 10000 0.89 189 10:53 25.01.2021
3335 Clouds 1 1004 90 10000 0.89 203 10:22 25.01.2021
3336 Clouds 2 1003 90 10000 2.52 267 09:54 25.01.2021
3337 Clouds 1 1003 90 10000 2.54 267 09:31 25.01.2021
3338 Clouds 0 1003 90 10000 0.89 180 08:53 25.01.2021
3339 Clouds 0 1003 90 10000 0.45 118 08:23 25.01.2021
3340 Clouds 1 1002 90 10000 2.08 255 07:30 25.01.2021
3341 Clouds 0 1002 92 10000 2.06 244 06:47 25.01.2021
3342 Clouds 0 1001 89 10000 2.5 264 02:59 25.01.2021
3343 Clouds 0 1000 90 10000 3.07 266 00:52 25.01.2021
3344 Clouds 1 1000 92 3124 3.21 282 23:40 24.01.2021
3345 Clouds 1 1000 92 131 2.73 281 23:19 24.01.2021
3346 Clouds 1 999 92 131 0.89 215 22:41 24.01.2021
3347 Clouds 1 999 92 72 2.51 285 22:20 24.01.2021
3348 Clouds 1 999 90 72 0.45 242 21:44 24.01.2021
3349 Clouds 1 999 91 6428 2.28 292 21:23 24.01.2021
3350 Clouds 1 999 91 6428 2.28 292 20:44 24.01.2021
3351 Clouds 1 999 91 2284 2.41 311 20:20 24.01.2021
3352 Clouds 1 998 89 2284 0.45 223 19:51 24.01.2021
3353 Clouds 1 998 90 142 1.34 313 19:27 24.01.2021
3354 Clouds 1 998 91 142 2.85 315 18:58 24.01.2021
3355 Clouds 1 998 91 86 2.43 314 18:39 24.01.2021
3356 Clouds 2 998 91 80 0.45 208 18:20 24.01.2021
3357 Clouds 2 998 90 80 0.45 297 17:50 24.01.2021
3358 Snow 2 998 89 67 4.02 280 17:28 24.01.2021
3359 Snow 2 998 89 67 1.79 282 16:57 24.01.2021
3360 Clouds 2 997 88 67 1.79 289 16:37 24.01.2021
3361 Clouds 2 997 89 114 0.45 320 16:18 24.01.2021
3362 Clouds 2 997 90 114 1.79 266 15:43 24.01.2021
3363 Clouds 2 997 90 521 1.34 324 15:18 24.01.2021
3364 Clouds 2 997 90 521 2.24 359 14:39 24.01.2021
3365 Clouds 2 996 90 4247 0.89 19 13:48 24.01.2021
3366 Clouds 2 996 90 6637 2.05 62 13:27 24.01.2021
3367 Rain 2 996 90 10000 2.44 54 12:50 24.01.2021
3368 Clouds 2 996 90 10000 2.68 78 12:20 24.01.2021
3369 Clouds 2 996 90 10000 2.68 78 12:20 24.01.2021
3370 Clouds 2 996 90 10000 2.24 55 11:52 24.01.2021
3371 Rain 2 996 89 10000 1.79 26 11:24 24.01.2021
3372 Clouds 2 996 91 10000 1.34 9 10:49 24.01.2021
3373 Clouds 2 996 91 10000 3.92 110 10:29 24.01.2021
3374 Clouds 1 996 92 10000 1.34 36 09:44 24.01.2021
3375 Clouds 1 996 93 10000 3.13 111 09:18 24.01.2021
3376 Clouds 0 996 93 10000 3.15 116 08:26 24.01.2021
3377 Clouds -1 995 93 10000 3.12 137 03:48 24.01.2021
3378 Clouds -1 996 93 10000 1.34 111 02:18 24.01.2021
3379 Clouds 0 996 93 10000 2.96 167 00:28 24.01.2021
3380 Clouds 0 996 93 10000 2.96 167 00:28 24.01.2021
3381 Clouds 0 996 92 10000 2.96 167 23:59 23.01.2021
3382 Clouds -1 996 92 10000 2.96 167 23:33 23.01.2021
3383 Clouds 0 996 92 10000 2.61 167 22:58 23.01.2021
3384 Clouds 0 996 91 10000 2.61 167 22:40 23.01.2021
3385 Clouds -1 996 91 10000 0.89 73 21:59 23.01.2021
3386 Clouds -1 996 91 10000 2.68 131 21:23 23.01.2021
3387 Clouds 1 996 90 10000 2.56 188 20:55 23.01.2021
3388 Clouds 1 996 90 10000 1.34 166 20:37 23.01.2021
3389 Clouds 1 996 90 10000 3.09 187 20:19 23.01.2021
3390 Clouds 1 996 89 10000 3.09 187 19:43 23.01.2021
3391 Clouds 1 996 89 10000 3.1 190 19:20 23.01.2021
3392 Clouds 2 996 88 10000 2.66 202 18:42 23.01.2021
3393 Clouds 2 996 87 10000 2.76 203 18:21 23.01.2021
3394 Clouds 1 996 86 10000 0.89 194 17:36 23.01.2021
3395 Clouds 2 996 85 10000 0.45 208 17:18 23.01.2021
3396 Clouds 4 996 85 10000 0.45 191 16:42 23.01.2021
3397 Clouds 4 996 83 10000 1.79 201 15:57 23.01.2021
3398 Clouds 5 996 81 10000 3.13 158 15:30 23.01.2021
3399 Clouds 6 996 75 10000 3.13 201 14:46 23.01.2021
3400 Clouds 6 996 76 10000 0.89 152 14:25 23.01.2021
3401 Clouds 6 996 76 10000 0.45 80 13:49 23.01.2021
3402 Clouds 5 997 78 10000 1.34 194 13:24 23.01.2021
3403 Clouds 4 997 81 10000 1.79 273 12:45 23.01.2021
3404 Clouds 4 997 82 10000 1.79 187 12:25 23.01.2021
3405 Clouds 3 998 84 10000 0.56 229 11:42 23.01.2021
3406 Clouds 3 998 85 10000 0.45 177 11:18 23.01.2021
3407 Clouds 2 999 86 10000 1.94 289 10:27 23.01.2021
3408 Snow 2 999 87 10000 1.94 289 09:54 23.01.2021
3409 Snow 1 999 87 10000 2.07 288 09:29 23.01.2021
3410 Clouds 1 999 88 10000 2.07 288 08:44 23.01.2021
3411 Rain 2 999 88 10000 1.92 281 07:50 23.01.2021
3412 Snow 1 999 88 10000 0.45 165 06:59 23.01.2021
3413 Rain 2 998 88 10000 0.99 326 03:34 23.01.2021
3414 Clouds 2 998 90 10000 1.03 306 00:34 23.01.2021
3415 Clouds 2 998 90 10000 1.16 264 23:36 22.01.2021
3416 Clouds 2 998 91 10000 1.68 213 22:45 22.01.2021
3417 Clouds 1 998 90 10000 1.97 212 22:22 22.01.2021
3418 Clouds 1 997 90 10000 1.97 212 21:45 22.01.2021
3419 Clouds 1 997 90 10000 1.97 212 21:45 22.01.2021
3420 Clouds 1 998 90 10000 2.15 212 21:25 22.01.2021
3421 Clouds 1 997 89 10000 2.15 212 20:54 22.01.2021
3422 Clouds 2 997 89 10000 2.15 212 20:32 22.01.2021
3423 Clouds 1 997 89 10000 0.89 225 19:48 22.01.2021
3424 Clouds 2 996 88 10000 1.79 163 19:21 22.01.2021
3425 Clouds 2 996 88 10000 0.45 138 18:50 22.01.2021
3426 Clouds 3 996 88 10000 0.89 114 18:27 22.01.2021
3427 Clouds 3 996 87 10000 2.49 246 17:58 22.01.2021
3428 Clouds 3 996 86 10000 2.49 246 17:39 22.01.2021
3429 Clouds 5 995 82 10000 2.12 253 16:59 22.01.2021
3430 Clouds 5 995 80 10000 2.24 176 16:36 22.01.2021
3431 Clouds 7 995 76 10000 1.79 208 15:55 22.01.2021
3432 Clouds 7 995 75 10000 1.34 179 15:25 22.01.2021
3433 Clouds 7 994 73 10000 3.13 280 14:43 22.01.2021
3434 Clouds 7 994 75 10000 1.79 265 14:25 22.01.2021
3435 Clouds 7 993 74 10000 2.68 208 13:46 22.01.2021
3436 Rain 7 993 75 10000 3.83 252 13:27 22.01.2021
3437 Rain 7 993 75 10000 1.79 182 12:42 22.01.2021
3438 Clouds 7 993 76 10000 0.89 313 12:19 22.01.2021
3439 Clouds 7 993 77 10000 5.51 276 11:42 22.01.2021
3440 Clouds 6 993 79 10000 2.24 177 10:49 22.01.2021
3441 Rain 6 993 79 10000 1.79 237 10:29 22.01.2021
3442 Clouds 7 992 80 10000 0.89 245 09:46 22.01.2021
3443 Clouds 7 991 80 10000 3.13 292 08:59 22.01.2021
3444 Clouds 7 991 83 10000 3.58 280 08:32 22.01.2021
3445 Rain 8 989 77 10000 5.36 261 08:00 22.01.2021
3446 Clouds 9 988 74 10000 2.24 183 07:23 22.01.2021
3447 Clouds 9 990 76 10000 9.83 156 02:38 22.01.2021
3448 Clouds 8 991 81 10000 7.15 112 00:31 22.01.2021
3449 Clouds 7 992 79 10000 8.94 79 23:50 21.01.2021
3450 Rain 7 992 77 10000 3.58 107 23:29 21.01.2021
3451 Rain 7 993 73 10000 2.68 110 22:48 21.01.2021
3452 Rain 7 994 73 10000 2.24 131 22:21 21.01.2021
3453 Rain 7 995 73 10000 2.24 139 21:43 21.01.2021
3454 Rain 7 995 72 10000 2.68 81 21:19 21.01.2021
3455 Clouds 6 996 76 10000 1.79 232 20:47 21.01.2021
3456 Clouds 6 996 78 10000 1.34 223 20:26 21.01.2021
3457 Clouds 6 996 79 10000 1.79 166 19:51 21.01.2021
3458 Clouds 6 996 79 10000 2.24 210 19:28 21.01.2021
3459 Clouds 6 996 79 10000 2.68 170 18:56 21.01.2021
3460 Clouds 6 996 81 10000 1.79 118 18:38 21.01.2021
3461 Clouds 6 996 80 10000 2.68 135 18:19 21.01.2021
3462 Clouds 6 996 77 10000 2.24 163 17:42 21.01.2021
3463 Clouds 6 996 76 10000 3.13 176 17:19 21.01.2021
3464 Clouds 8 996 74 10000 2.24 81 16:42 21.01.2021
3465 Clouds 8 996 73 10000 0.89 218 16:24 21.01.2021
3466 Clouds 8 996 72 10000 0.45 153 15:58 21.01.2021
3467 Clouds 8 996 71 10000 3.58 228 15:33 21.01.2021
3468 Clouds 9 996 70 10000 1.34 200 14:52 21.01.2021
3469 Clouds 9 996 69 10000 4.02 200 14:34 21.01.2021
3470 Clouds 8 996 70 10000 5.36 217 13:48 21.01.2021
3471 Clouds 8 996 70 10000 0.89 214 13:27 21.01.2021
3472 Clouds 9 996 68 10000 5.36 276 12:55 21.01.2021
3473 Clouds 9 996 67 10000 2.24 283 12:37 21.01.2021
3474 Clouds 9 996 68 10000 1.34 280 12:18 21.01.2021
3475 Clouds 10 996 63 10000 2.68 211 11:43 21.01.2021
3476 Clouds 10 996 63 10000 2.68 211 11:43 21.01.2021
3477 Clouds 11 995 61 10000 2.68 215 11:23 21.01.2021
3478 Clouds 10 995 61 10000 3.58 217 10:45 21.01.2021
3479 Clouds 10 995 62 10000 3.58 139 10:25 21.01.2021
3480 Clouds 9 994 62 10000 5.81 141 09:43 21.01.2021
3481 Clouds 7 995 68 10000 4.02 153 09:24 21.01.2021
3482 Clouds 6 995 67 10000 1.34 88 08:39 21.01.2021
3483 Clouds 6 995 68 10000 4.47 125 07:59 21.01.2021
3484 Clouds 6 995 67 10000 3.58 152 07:26 21.01.2021
3485 Clouds 6 995 66 10000 3.58 107 06:46 21.01.2021
3486 Clouds 7 996 67 10000 3.58 148 05:20 21.01.2021
3487 Clouds 6 998 71 10000 6.33 187 02:27 21.01.2021
3488 Clouds 6 999 72 10000 3.58 173 00:47 21.01.2021
3489 Clouds 7 1000 71 10000 5.81 208 23:53 20.01.2021
3490 Clouds 7 1000 71 10000 4.02 112 23:32 20.01.2021
3491 Clouds 6 1000 72 10000 4.92 167 22:58 20.01.2021
3492 Clouds 6 1000 73 10000 6.26 163 22:37 20.01.2021
3493 Clouds 7 1000 73 10000 3.13 175 21:58 20.01.2021
3494 Rain 7 1000 73 10000 2.24 153 21:40 20.01.2021
3495 Rain 7 1000 73 10000 0.89 194 21:19 20.01.2021
3496 Clouds 7 1001 73 10000 1.34 143 20:38 20.01.2021
3497 Rain 7 1000 73 10000 2.68 149 20:18 20.01.2021
3498 Rain 7 1001 75 10000 2.68 179 19:42 20.01.2021
3499 Clouds 7 1001 72 10000 1.79 176 19:23 20.01.2021
3500 Clouds 7 1001 69 10000 2.24 149 18:42 20.01.2021
3501 Clouds 7 1001 71 10000 4.92 180 17:57 20.01.2021
3502 Clouds 7 1001 74 10000 3.13 167 17:39 20.01.2021
3503 Clouds 7 1002 75 10000 1.79 194 16:57 20.01.2021
3504 Clouds 7 1002 74 10000 5.36 139 16:38 20.01.2021
3505 Clouds 7 1002 70 10000 1.79 172 15:52 20.01.2021
3506 Clouds 8 1002 68 10000 2.68 131 15:34 20.01.2021
3507 Clouds 8 1002 67 10000 3.13 165 14:51 20.01.2021
3508 Clouds 8 1002 66 10000 2.68 184 14:24 20.01.2021
3509 Clouds 8 1002 66 10000 4.47 152 13:50 20.01.2021
3510 Clouds 8 1002 69 10000 4.02 203 13:31 20.01.2021
3511 Clouds 8 1003 66 10000 7.6 156 12:45 20.01.2021
3512 Clouds 7 1003 68 10000 2.68 129 12:20 20.01.2021
3513 Clouds 7 1003 67 10000 2.68 151 11:39 20.01.2021
3514 Clouds 7 1003 68 10000 2.24 210 11:18 20.01.2021
3515 Clouds 6 1004 69 10000 5.81 167 10:43 20.01.2021
3516 Clouds 6 1004 71 10000 6.26 146 10:18 20.01.2021
3517 Clouds 5 1004 77 10000 3.13 193 09:31 20.01.2021
3518 Clouds 5 1005 77 10000 4.92 189 08:59 20.01.2021
3519 Clouds 4 1004 78 10000 2.24 182 08:34 20.01.2021
3520 Clouds 4 1004 79 10000 4.47 143 07:59 20.01.2021
3521 Clouds 4 1004 79 10000 0.45 93 07:37 20.01.2021
3522 Clouds 4 1005 80 10000 0.45 153 06:56 20.01.2021
3523 Clouds 5 1006 86 10000 0.45 152 03:34 20.01.2021
3524 Clouds 6 1006 87 10000 1.79 166 01:51 20.01.2021
3525 Clouds 6 1006 86 10000 4.02 245 00:49 20.01.2021
3526 Clouds 6 1006 85 10000 2.24 197 23:50 19.01.2021
3527 Clouds 6 1006 86 10000 5.36 262 23:32 19.01.2021
3528 Rain 6 1005 87 10000 1.79 259 22:58 19.01.2021
3529 Rain 6 1005 89 10000 6.46 246 22:38 19.01.2021
3530 Rain 6 1005 89 10000 1.34 234 22:20 19.01.2021
3531 Rain 6 1005 90 10000 1.79 258 21:54 19.01.2021
3532 Rain 5 1005 90 10000 3.13 241 21:32 19.01.2021
3533 Rain 5 1005 91 10000 0.45 172 20:49 19.01.2021
3534 Rain 5 1005 90 10000 4.47 193 20:27 19.01.2021
3535 Rain 5 1005 91 10000 1.34 170 19:56 19.01.2021
3536 Clouds 5 1005 90 10000 0.45 190 19:34 19.01.2021
3537 Clouds 5 1004 88 8846 0.45 128 18:59 19.01.2021
3538 Clouds 4 1004 88 10000 4.82 238 18:38 19.01.2021
3539 Clouds 4 1004 88 10000 1.34 310 18:20 19.01.2021
3540 Clouds 4 1004 88 10000 2.68 199 17:42 19.01.2021
3541 Clouds 4 1004 88 10000 0.89 208 17:19 19.01.2021
3542 Clouds 4 1004 88 10000 4.54 221 16:39 19.01.2021
3543 Clouds 3 1004 89 10000 1.79 183 16:18 19.01.2021
3544 Clouds 3 1004 88 10000 0.89 121 15:50 19.01.2021
3545 Clouds 4 1004 86 10000 1.34 208 15:30 19.01.2021
3546 Clouds 3 1004 86 10000 1.34 207 14:44 19.01.2021
3547 Rain 4 1004 87 10000 3.13 176 14:26 19.01.2021
3548 Rain 3 1005 87 10000 1.79 201 13:49 19.01.2021
3549 Rain 3 1006 87 10000 4.92 158 13:23 19.01.2021
3550 Rain 2 1006 88 10000 0.45 79 12:51 19.01.2021
3551 Rain 2 1007 89 10000 3.13 182 12:30 19.01.2021
3552 Rain 2 1008 88 10000 4.02 73 11:52 19.01.2021
3553 Rain 2 1008 88 10000 2.24 162 11:29 19.01.2021
3554 Rain 3 1009 85 10000 2.68 199 10:59 19.01.2021
3555 Rain 3 1010 83 10000 4.02 162 10:40 19.01.2021
3556 Rain 4 1010 80 10000 2.68 186 10:18 19.01.2021
3557 Rain 4 1011 79 10000 2.24 124 09:42 19.01.2021
3558 Rain 3 1011 80 10000 2.68 197 09:19 19.01.2021
3559 Clouds 3 1012 87 10000 1.79 129 08:33 19.01.2021
3560 Clouds 3 1013 86 10000 2.68 112 07:51 19.01.2021
3561 Clouds 3 1014 87 10000 4.47 197 06:59 19.01.2021
3562 Clouds 3 1015 86 10000 3.8 229 04:18 19.01.2021
3563 Clouds 3 1017 86 10000 2.24 245 02:22 19.01.2021
3564 Clouds 3 1017 85 10000 0.45 19 00:34 19.01.2021
3565 Clouds 3 1017 84 10000 5.36 265 23:48 18.01.2021
3566 Clouds 3 1017 84 10000 4.92 235 23:25 18.01.2021
3567 Clouds 3 1017 84 10000 5.36 262 22:43 18.01.2021
3568 Clouds 3 1017 85 10000 3.58 272 22:21 18.01.2021
3569 Clouds 3 1017 85 10000 5.81 254 21:47 18.01.2021
3570 Clouds 3 1017 86 191 4.02 262 21:23 18.01.2021
3571 Clouds 3 1017 86 191 4.02 258 20:57 18.01.2021
3572 Clouds 3 1017 86 191 2.24 259 20:34 18.01.2021
3573 Rain 3 1018 85 325 4.92 278 19:54 18.01.2021
3574 Rain 3 1017 84 325 1.34 262 19:35 18.01.2021
3575 Clouds 3 1018 84 2126 5.86 254 18:51 18.01.2021
3576 Clouds 3 1018 84 2126 0.89 153 18:32 18.01.2021
3577 Clouds 3 1018 85 10000 0.45 66 17:50 18.01.2021
3578 Clouds 3 1018 84 10000 5.22 251 17:31 18.01.2021
3579 Clouds 3 1018 85 10000 0.45 215 16:54 18.01.2021
3580 Rain 3 1018 85 10000 0.45 45 16:32 18.01.2021
3581 Rain 4 1019 83 10000 0.45 206 15:56 18.01.2021
3582 Rain 4 1019 82 10000 0.89 221 15:37 18.01.2021
3583 Rain 4 1019 82 10000 0.45 193 15:19 18.01.2021
3584 Clouds 4 1019 81 10000 1.79 265 14:42 18.01.2021
3585 Clouds 4 1019 80 10000 2.24 218 14:23 18.01.2021
3586 Clouds 4 1019 80 10000 3.89 249 13:45 18.01.2021
3587 Clouds 4 1020 80 10000 1.79 247 13:22 18.01.2021
3588 Clouds 4 1020 80 10000 2.24 225 12:47 18.01.2021
3589 Clouds 4 1021 81 10000 1.79 273 12:19 18.01.2021
3590 Clouds 4 1021 81 10000 2.68 248 11:48 18.01.2021
3591 Clouds 4 1021 83 10000 1.34 293 11:27 18.01.2021
3592 Clouds 3 1021 86 10000 4.6 273 10:53 18.01.2021
3593 Clouds 3 1022 88 10000 0.89 224 10:34 18.01.2021
3594 Rain 2 1022 90 10000 4.47 232 09:43 18.01.2021
3595 Clouds 1 1022 92 10000 3.58 238 09:19 18.01.2021
3596 Clouds 1 1022 93 10000 1.79 248 08:43 18.01.2021
3597 Clouds 1 1021 90 10000 3.9 277 07:55 18.01.2021
3598 Clouds 0 1021 89 10000 2.71 274 06:44 18.01.2021
3599 Snow -2 1021 88 171 1.34 197 04:57 18.01.2021
3600 Snow -2 1021 87 171 1.34 197 04:30 18.01.2021
3601 Snow -2 1021 86 557 1 186 03:53 18.01.2021
3602 Snow -2 1021 85 557 1 186 03:31 18.01.2021
3603 Snow -2 1021 84 452 0.96 187 02:59 18.01.2021
3604 Clouds -3 1021 83 1155 1.38 176 02:20 18.01.2021
3605 Clouds -3 1021 85 5448 2 173 00:43 18.01.2021
3606 Clouds -3 1021 86 10000 2.18 167 00:20 18.01.2021
3607 Clouds -3 1021 87 10000 2.18 167 23:44 17.01.2021
3608 Clouds -3 1021 88 10000 2.51 160 23:20 17.01.2021
3609 Clouds -4 1021 89 10000 0.45 111 22:28 17.01.2021
3610 Clouds -4 1021 89 10000 2.65 163 21:59 17.01.2021
3611 Clouds -4 1021 89 10000 2.65 163 21:39 17.01.2021
3612 Clouds -4 1021 89 10000 2.87 159 21:21 17.01.2021
3613 Clouds -4 1021 89 10000 0.89 111 20:47 17.01.2021
3614 Clouds -4 1021 89 10000 0.89 111 20:47 17.01.2021
3615 Clouds -4 1022 88 10000 2.83 155 20:25 17.01.2021
3616 Clouds -4 1022 88 10000 2.83 155 19:42 17.01.2021
3617 Clouds -4 1022 89 10000 2.7 155 19:21 17.01.2021
3618 Clouds -4 1022 89 10000 2.7 155 18:41 17.01.2021
3619 Clouds -4 1022 89 10000 2.55 150 18:21 17.01.2021
3620 Clouds -4 1021 88 10000 2.55 150 17:47 17.01.2021
3621 Clouds -4 1021 88 10000 2.41 147 17:26 17.01.2021
3622 Clouds -2 1021 85 10000 2.41 147 16:44 17.01.2021
3623 Clouds -2 1021 84 10000 2.22 144 16:20 17.01.2021
3624 Clouds -1 1021 81 10000 1.34 93 15:43 17.01.2021
3625 Clouds -1 1020 81 10000 0.45 52 15:24 17.01.2021
3626 Clouds -1 1020 81 10000 2.24 94 14:49 17.01.2021
3627 Clouds -1 1020 80 10000 1.79 124 14:26 17.01.2021
3628 Clouds 0 1020 79 10000 0.89 149 13:45 17.01.2021
3629 Clouds 0 1020 80 10000 1.34 118 13:27 17.01.2021
3630 Clouds -1 1020 83 10000 1.79 156 12:53 17.01.2021
3631 Clouds -1 1021 84 10000 1.34 80 12:31 17.01.2021
3632 Clouds -1 1021 86 10000 2.24 57 11:59 17.01.2021
3633 Clouds -2 1021 87 10000 1.79 110 11:24 17.01.2021
3634 Clouds -3 1021 88 10000 2.72 147 10:48 17.01.2021
3635 Clouds -4 1021 88 10000 0.89 105 10:21 17.01.2021
3636 Clouds -4 1020 89 10000 1.34 111 09:42 17.01.2021
3637 Clouds -5 1020 89 10000 2.35 134 08:46 17.01.2021
3638 Clouds -5 1020 89 10000 2.32 125 07:46 17.01.2021
3639 Clouds -4 1019 89 10000 1.3 129 04:29 17.01.2021
3640 Clouds -4 1019 89 10000 1.24 148 02:48 17.01.2021
3641 Clouds -3 1020 89 10000 1.31 165 00:51 17.01.2021
3642 Clouds -3 1020 89 10000 1.17 212 00:20 17.01.2021
3643 Clouds -3 1020 88 10000 1.17 212 23:51 16.01.2021
3644 Clouds -3 1020 88 10000 1.8 232 23:20 16.01.2021
3645 Clouds -3 1020 88 10000 0.45 199 22:49 16.01.2021
3646 Clouds -3 1020 88 10000 1.68 228 21:59 16.01.2021
3647 Clouds -3 1020 88 10000 1.68 228 21:40 16.01.2021
3648 Clouds -3 1020 87 10000 1.5 235 21:20 16.01.2021
3649 Clouds -2 1021 86 10000 1.5 235 20:45 16.01.2021
3650 Clouds -2 1021 83 10000 0.96 253 20:22 16.01.2021
3651 Clouds -2 1021 83 10000 0.96 253 19:48 16.01.2021
3652 Clouds -2 1021 84 10000 1.05 301 19:29 16.01.2021
3653 Clouds -2 1022 84 10000 1.11 289 18:45 16.01.2021
3654 Clouds -3 1022 83 10000 2.01 289 18:26 16.01.2021
3655 Clouds -3 1022 83 10000 2.01 289 17:50 16.01.2021
3656 Clouds -3 1022 80 10000 2.01 289 17:30 16.01.2021
3657 Clouds -1 1023 73 10000 2.53 293 16:50 16.01.2021
3658 Clouds -1 1023 71 10000 1.34 234 16:31 16.01.2021
3659 Clouds -1 1023 69 10000 3.13 280 15:55 16.01.2021
3660 Clouds 0 1023 68 10000 2.68 254 15:36 16.01.2021
3661 Clouds 0 1023 63 10000 2.68 290 14:31 16.01.2021
3662 Clouds 0 1024 67 10000 3.13 279 13:52 16.01.2021
3663 Clouds 0 1024 68 10000 1.34 290 13:30 16.01.2021
3664 Clouds -1 1025 70 10000 2.68 271 12:47 16.01.2021
3665 Clouds -1 1025 70 10000 0.89 280 12:22 16.01.2021
3666 Clouds -1 1025 71 10000 1.79 304 11:55 16.01.2021
3667 Clear -1 1026 72 10000 0.89 269 11:26 16.01.2021
3668 Clear -1 1026 73 10000 2.24 309 10:51 16.01.2021
3669 Clear -1 1026 76 10000 1.34 306 10:33 16.01.2021
3670 Clear -2 1027 78 10000 2.24 320 09:54 16.01.2021
3671 Clouds -2 1027 79 10000 1.34 296 09:19 16.01.2021
3672 Clouds -2 1027 77 10000 1.79 309 08:18 16.01.2021
3673 Clouds -2 1027 80 10000 1.79 186 06:49 16.01.2021
3674 Clouds -2 1028 74 10000 2.68 269 04:53 16.01.2021
3675 Clouds -2 1028 73 10000 2.85 301 03:18 16.01.2021
3676 Clouds -2 1028 70 10000 0.45 248 02:42 16.01.2021
3677 Clouds -2 1028 66 10000 4.47 295 00:46 16.01.2021
3678 Clouds -2 1028 68 10000 1.79 324 00:23 16.01.2021
3679 Clouds -2 1028 67 10000 1.34 317 23:37 15.01.2021
3680 Clouds -2 1028 66 10000 3.13 321 22:41 15.01.2021
3681 Clouds -2 1028 67 10000 2.68 326 22:21 15.01.2021
3682 Clouds -3 1022 64 10000 2.86 331 21:43 15.01.2021
3683 Clouds -3 1022 64 10000 3.04 334 20:49 15.01.2021
3684 Clouds -1 1027 73 10000 7.15 304 20:24 15.01.2021
3685 Clouds -1 1027 72 10000 3.58 296 20:24 15.01.2021
3686 Clouds -1 1027 73 10000 3.13 304 19:58 15.01.2021
3687 Clouds -1 1027 72 10000 2.24 283 19:39 15.01.2021
3688 Clouds -1 1027 70 10000 1.79 316 19:21 15.01.2021
3689 Clouds -1 1027 66 10000 3.58 292 18:42 15.01.2021
3690 Clouds -1 1027 69 10000 2.68 359 18:18 15.01.2021
3691 Clouds -1 1026 73 10000 4.02 333 17:41 15.01.2021
3692 Clouds -1 1026 76 10000 5.36 317 17:21 15.01.2021
3693 Clouds 0 1026 76 10000 2.68 331 16:46 15.01.2021
3694 Clouds 0 1026 76 10000 5.36 327 16:24 15.01.2021
3695 Clouds 0 1026 81 10000 2.68 296 15:41 15.01.2021
3696 Clouds 0 1025 82 10000 2.68 7 15:21 15.01.2021
3697 Clouds 0 1025 83 10000 3.58 345 14:48 15.01.2021
3698 Clouds 0 1025 84 9462 2.68 283 14:27 15.01.2021
3699 Clouds 0 1025 82 9462 5.36 338 13:43 15.01.2021
3700 Clouds 0 1025 83 7789 3.13 314 13:23 15.01.2021
3701 Clouds 0 1025 83 7789 6.71 272 12:59 15.01.2021
3702 Clouds 1 1025 85 10000 4.02 311 12:34 15.01.2021
3703 Clouds 1 1025 85 8587 3.58 303 11:59 15.01.2021
3704 Clouds 0 1025 86 8587 3.58 292 11:41 15.01.2021
3705 Clouds 0 1025 87 10000 2.24 239 10:58 15.01.2021
3706 Clouds 0 1025 87 10000 0.45 286 10:39 15.01.2021
3707 Clouds 0 1025 87 10000 2.24 287 10:19 15.01.2021
3708 Snow 0 1025 87 10000 1.34 359 09:46 15.01.2021
3709 Clouds 0 1025 88 7302 0.89 320 09:27 15.01.2021
3710 Clouds 0 1025 89 7673 1.79 286 08:27 15.01.2021
3711 Clouds 0 1024 90 7673 2.68 283 07:41 15.01.2021
3712 Clouds 0 1024 90 10000 1.79 317 07:21 15.01.2021
3713 Clouds -1 1017 95 10000 2.6 332 05:56 15.01.2021
3714 Rain 2 1022 89 2502 0.45 334 02:26 15.01.2021
3715 Clouds 1 1022 88 10000 0.89 275 00:32 15.01.2021
3716 Clouds 1 1021 87 10000 2.24 317 23:30 14.01.2021
3717 Clouds 1 1021 86 10000 2.68 287 22:52 14.01.2021
3718 Clouds 1 1021 86 2021 0.89 200 22:28 14.01.2021
3719 Clouds 1 1021 85 2021 1.34 304 21:58 14.01.2021
3720 Clouds 1 1021 85 2021 3.13 307 21:39 14.01.2021
3721 Clouds 1 1021 85 6633 3.13 306 21:20 14.01.2021
3722 Clouds 1 1021 83 6633 0.89 282 20:43 14.01.2021
3723 Clouds 2 1021 83 8769 1.34 334 19:57 14.01.2021
3724 Clouds 2 1021 82 8769 3.13 304 19:36 14.01.2021
3725 Clouds 2 1021 82 10000 0.89 283 19:18 14.01.2021
3726 Clouds 1 1021 82 10000 1.34 299 18:42 14.01.2021
3727 Clouds 1 1021 80 10000 1.34 327 17:59 14.01.2021
3728 Clouds 2 1021 80 10000 1.34 295 17:33 14.01.2021
3729 Clouds 2 1020 79 10000 0.45 316 16:56 14.01.2021
3730 Clouds 2 1020 78 10000 2.68 292 16:35 14.01.2021
3731 Clouds 2 1020 77 10000 1.34 263 15:55 14.01.2021
3732 Clouds 2 1020 76 10000 1.79 333 15:32 14.01.2021
3733 Clouds 2 1020 76 10000 4.02 302 14:49 14.01.2021
3734 Clouds 3 1019 78 10000 3.13 335 14:31 14.01.2021
3735 Clouds 3 1019 77 10000 2.24 307 13:56 14.01.2021
3736 Clouds 4 1019 80 10000 4.02 314 13:25 14.01.2021
3737 Clouds 3 1019 79 10000 4.47 326 12:58 14.01.2021
3738 Clouds 3 1019 81 10000 2.68 297 12:24 14.01.2021
3739 Clouds 3 1019 83 10000 2.68 304 11:59 14.01.2021
3740 Clouds 3 1019 85 10000 2.68 22 11:41 14.01.2021
3741 Clouds 2 1019 87 10000 3.13 321 11:20 14.01.2021
3742 Clouds 2 1019 87 10000 3.58 306 10:43 14.01.2021
3743 Clouds 2 1019 89 10000 2.24 280 10:19 14.01.2021
3744 Clouds 2 1018 90 10000 3.58 317 09:44 14.01.2021
3745 Clouds 2 1018 89 10000 3.13 316 09:22 14.01.2021
3746 Clouds 2 1017 90 10000 2.68 299 08:40 14.01.2021
3747 Clouds 2 1016 90 10000 4.47 327 08:21 14.01.2021
3748 Clouds 2 1015 91 10000 2.24 347 07:42 14.01.2021
3749 Clouds 2 1014 92 10000 6.71 300 06:43 14.01.2021
3750 Snow 1 1012 92 6820 5.36 300 05:34 14.01.2021
3751 Clouds 1 1007 80 10000 3.13 313 00:36 14.01.2021
3752 Clouds 1 1007 80 10000 8.49 276 23:51 13.01.2021
3753 Clouds 1 1007 81 10000 5.36 228 23:21 13.01.2021
3754 Clouds 1 1006 79 10000 6.71 244 22:28 13.01.2021
3755 Clouds 1 1006 86 10000 4.02 276 21:50 13.01.2021
3756 Clouds 1 1006 86 10000 4.92 282 21:28 13.01.2021
3757 Clouds 1 1006 92 10000 1.79 271 20:58 13.01.2021
3758 Clouds 1 1005 93 10000 0.45 249 20:30 13.01.2021
3759 Snow 1 1005 92 10000 1.79 263 19:57 13.01.2021
3760 Snow 1 1005 92 10000 8.94 297 19:37 13.01.2021
3761 Snow 1 1005 94 9274 4.47 304 19:19 13.01.2021
3762 Snow 1 1006 94 856 4.47 295 18:40 13.01.2021
3763 Rain 4 1004 77 10000 5.81 272 17:51 13.01.2021
3764 Rain 4 1005 77 10000 10.73 224 17:25 13.01.2021
3765 Clouds 4 1006 78 10000 4.92 239 16:51 13.01.2021
3766 Clouds 4 1006 79 10000 6.26 275 16:22 13.01.2021
3767 Clouds 3 1006 80 10000 5.81 295 15:56 13.01.2021
3768 Clouds 3 1007 80 10000 5.36 238 15:38 13.01.2021
3769 Clouds 4 1008 79 10000 4.02 272 14:49 13.01.2021
3770 Clouds 5 1008 76 10000 4.92 215 13:55 13.01.2021
3771 Clouds 4 1009 79 10000 3.13 244 13:32 13.01.2021
3772 Clouds 4 1009 79 10000 3.58 263 12:59 13.01.2021
3773 Clouds 4 1010 79 10000 7.6 300 12:39 13.01.2021
3774 Clouds 4 1010 81 10000 6.26 262 12:19 13.01.2021
3775 Clouds 4 1010 80 10000 4.02 239 11:45 13.01.2021
3776 Clouds 3 1011 82 10000 2.68 296 11:22 13.01.2021
3777 Clouds 3 1011 83 10000 1.79 314 10:42 13.01.2021
3778 Clouds 3 1011 84 10000 1.79 292 10:24 13.01.2021
3779 Clouds 3 1011 86 10000 2.68 245 09:37 13.01.2021
3780 Clouds 2 1011 88 10000 3.13 232 08:57 13.01.2021
3781 Clouds 2 1011 89 10000 2.68 256 08:33 13.01.2021
3782 Clouds 2 1011 89 10000 2.68 256 08:33 13.01.2021
3783 Clouds 2 1011 86 10000 6.26 297 07:53 13.01.2021
3784 Clouds 2 1011 87 10000 2.24 203 07:24 13.01.2021
3785 Clouds 1 1011 88 10000 0.89 247 04:21 13.01.2021
3786 Clouds 1 1011 89 10000 3.13 259 03:52 13.01.2021
3787 Clouds 1 1011 90 10000 0.89 303 03:31 13.01.2021
3788 Clouds 1 1011 89 10000 0.89 254 02:46 13.01.2021
3789 Clouds 1 1010 90 10000 2.68 292 00:38 13.01.2021
3790 Clouds 2 1009 88 10000 2.24 310 23:31 12.01.2021
3791 Clouds 2 1008 90 10000 0.89 121 22:47 12.01.2021
3792 Clouds 2 1008 90 10000 1.79 302 22:25 12.01.2021
3793 Clouds 2 1008 91 10000 5.36 287 21:54 12.01.2021
3794 Clouds 2 1008 92 10000 1.34 279 21:35 12.01.2021
3795 Clouds 2 1007 90 10000 0.89 273 20:57 12.01.2021
3796 Clouds 2 1007 89 10000 3.58 283 20:38 12.01.2021
3797 Clouds 2 1007 89 10000 7.15 271 20:20 12.01.2021
3798 Clouds 2 1006 93 10000 3.13 271 19:39 12.01.2021
3799 Clouds 2 1005 95 10000 1.34 289 18:52 12.01.2021
3800 Clouds 2 1005 95 10000 2.24 231 18:25 12.01.2021
3801 Clouds 1 1005 93 10000 0.45 323 17:56 12.01.2021
3802 Clouds 1 1005 93 10000 0.45 249 17:33 12.01.2021
3803 Clouds 2 1005 92 10000 3.13 269 16:45 12.01.2021
3804 Clouds 2 1005 91 10000 1.79 269 16:27 12.01.2021
3805 Clouds 2 1004 89 10000 1.79 269 15:50 12.01.2021
3806 Clouds 3 1004 88 10000 1.79 295 15:27 12.01.2021
3807 Rain 3 1003 87 10000 3.58 309 14:55 12.01.2021
3808 Rain 4 1003 83 10000 2.24 279 14:36 12.01.2021
3809 Rain 4 1003 87 1015 4.47 304 14:18 12.01.2021
3810 Rain 4 1002 87 1015 6.71 276 13:43 12.01.2021
3811 Rain 6 1002 83 90 3.58 227 12:38 12.01.2021
3812 Clouds 5 1002 85 7321 0.89 197 11:55 12.01.2021
3813 Clouds 5 1002 85 7076 1.79 187 11:36 12.01.2021
3814 Clouds 4 1003 87 10000 1.34 239 10:44 12.01.2021
3815 Clouds 4 1003 87 10000 3.58 223 10:20 12.01.2021
3816 Rain 4 1003 88 10000 4.47 199 09:54 12.01.2021
3817 Rain 3 1003 89 10000 2.68 200 09:24 12.01.2021
3818 Rain 3 1003 89 10000 1.34 206 08:39 12.01.2021
3819 Rain 3 1004 89 10000 3.13 131 08:20 12.01.2021
3820 Rain 3 1004 88 10000 4.02 204 07:34 12.01.2021
3821 Rain 3 1005 86 10000 0.45 184 06:20 12.01.2021
3822 Clouds 3 1005 86 10000 2.24 266 05:26 12.01.2021
3823 Rain 3 1007 89 10000 4.47 224 03:24 12.01.2021
3824 Rain 2 1008 89 10000 3.58 217 02:18 12.01.2021
3825 Rain 3 1009 82 10000 7.15 179 01:27 12.01.2021
3826 Clouds 3 1010 79 10000 2.24 160 23:46 11.01.2021
3827 Clouds 3 1010 80 10000 4.92 79 23:23 11.01.2021
3828 Clouds 3 1011 79 10000 4.02 166 22:57 11.01.2021
3829 Clouds 3 1011 79 10000 2.24 118 22:39 11.01.2021
3830 Clouds 3 1011 79 10000 3.13 156 22:18 11.01.2021
3831 Clouds 3 1012 80 10000 2.68 182 21:37 11.01.2021
3832 Clouds 3 1012 80 10000 5.36 180 21:18 11.01.2021
3833 Clouds 3 1013 81 10000 3.58 221 20:41 11.01.2021
3834 Clouds 3 1013 81 10000 3.58 221 20:41 11.01.2021
3835 Clouds 3 1013 81 10000 2.24 131 20:22 11.01.2021
3836 Clouds 3 1013 81 10000 3.13 167 19:54 11.01.2021
3837 Rain 3 1014 80 10000 4.92 183 19:25 11.01.2021
3838 Rain 2 1014 78 10000 2.24 223 18:45 11.01.2021
3839 Rain 2 1015 78 10000 4.02 176 18:25 11.01.2021
3840 Rain 2 1015 79 10000 2.24 201 17:54 11.01.2021
3841 Clouds 2 1015 79 10000 2.68 170 17:36 11.01.2021
3842 Rain 2 1015 80 10000 1.34 183 17:18 11.01.2021
3843 Rain 2 1016 80 10000 1.34 136 16:38 11.01.2021
3844 Rain 2 1016 80 10000 0.89 167 16:19 11.01.2021
3845 Clouds 3 1016 80 10000 0.89 213 15:47 11.01.2021
3846 Clouds 3 1016 79 9871 0.89 160 15:26 11.01.2021
3847 Clouds 3 1016 79 9871 1.79 149 14:39 11.01.2021
3848 Clouds 3 1017 80 5256 0.89 183 13:50 11.01.2021
3849 Clouds 3 1017 82 10000 2.24 179 13:26 11.01.2021
3850 Clouds 3 1018 83 10000 2.24 204 12:52 11.01.2021
3851 Rain 2 1018 84 10000 1.34 149 12:32 11.01.2021
3852 Clouds 2 1019 84 10000 1.79 166 11:56 11.01.2021
3853 Clouds 2 1020 82 10000 2.24 234 11:34 11.01.2021
3854 Rain 2 1020 81 10000 0.45 179 10:51 11.01.2021
3855 Snow 2 1020 82 10000 3.57 236 10:26 11.01.2021
3856 Snow 2 1020 84 10000 0.45 182 09:44 11.01.2021
3857 Clouds 1 1020 85 10000 3.58 172 09:22 11.01.2021
3858 Clouds 1 1020 86 10000 0.45 177 08:46 11.01.2021
3859 Clouds 1 1020 86 10000 0.89 194 08:19 11.01.2021
3860 Clouds 1 1021 87 10000 0.45 206 07:30 11.01.2021
3861 Clouds 1 1021 86 10000 3.39 237 06:59 11.01.2021
3862 Clouds 1 1021 87 8272 0.45 169 06:26 11.01.2021
3863 Snow 0 1022 89 10000 0.89 191 01:46 11.01.2021
3864 Clouds 0 1022 91 10000 3.13 182 00:38 11.01.2021
3865 Clouds -1 1022 92 10000 1.34 138 23:45 10.01.2021
3866 Clouds -2 1022 91 10000 3.28 226 22:49 10.01.2021
3867 Clouds -2 1022 91 10000 0.89 211 22:28 10.01.2021
3868 Clouds -2 1023 91 10000 0.89 204 21:56 10.01.2021
3869 Clouds -2 1023 91 10000 3.07 223 21:36 10.01.2021
3870 Clouds -2 1023 91 10000 0.45 173 21:18 10.01.2021
3871 Clouds -2 1023 92 10000 0.45 191 20:39 10.01.2021
3872 Clouds -2 1023 91 10000 2.77 220 20:21 10.01.2021
3873 Clouds -2 1023 91 10000 0.45 124 19:38 10.01.2021
3874 Clouds -2 1023 91 10000 2.55 218 19:20 10.01.2021
3875 Clouds -2 1023 90 10000 2.55 218 18:43 10.01.2021
3876 Clouds -2 1023 90 10000 2.48 223 18:20 10.01.2021
3877 Clouds -2 1023 91 10000 2.1 224 17:23 10.01.2021
3878 Clouds -1 1024 92 10000 2.1 224 16:46 10.01.2021
3879 Clouds -1 1024 91 10000 1.65 222 16:28 10.01.2021
3880 Clouds -1 1024 91 10000 1.34 169 15:39 10.01.2021
3881 Clouds -1 1024 91 10000 0.45 176 15:21 10.01.2021
3882 Clouds 0 1024 89 10000 0.45 162 14:40 10.01.2021
3883 Clouds 0 1024 88 10000 0.45 91 14:22 10.01.2021
3884 Clouds 0 1024 87 10000 1.34 148 13:42 10.01.2021
3885 Clouds 1 1025 88 10000 2.24 149 13:24 10.01.2021
3886 Clouds 0 1025 87 10000 0.89 182 12:51 10.01.2021
3887 Clouds 1 1025 89 10000 1.79 149 12:33 10.01.2021
3888 Clouds 0 1025 90 10000 2.85 201 11:55 10.01.2021
3889 Clouds -1 1026 92 10000 0.45 153 11:20 10.01.2021
3890 Clouds 0 1026 93 10000 2.84 195 10:51 10.01.2021
3891 Clouds -1 1026 93 10000 3.13 152 10:24 10.01.2021
3892 Clouds -2 1026 93 10000 0.89 117 09:45 10.01.2021
3893 Clouds -2 1026 92 10000 1.34 88 08:38 10.01.2021
3894 Clouds -2 1026 91 10000 1.34 238 07:46 10.01.2021
3895 Clouds -2 1025 92 10000 1.34 165 06:50 10.01.2021
3896 Clouds -2 1025 92 10000 1.47 298 06:18 10.01.2021
3897 Clouds -2 1025 91 10000 1.83 302 05:27 10.01.2021
3898 Clouds 0 1025 92 10000 1.68 292 01:58 10.01.2021
3899 Clouds 0 1024 91 10000 2.46 290 00:23 10.01.2021
3900 Clouds 0 1024 90 10000 0.89 314 23:41 09.01.2021
3901 Clouds 1 1024 89 10000 1.34 289 23:20 09.01.2021
3902 Clouds 1 1024 89 10000 1.34 319 22:22 09.01.2021
3903 Clouds 1 1024 89 10000 3.13 296 21:59 09.01.2021
3904 Clouds 1 1024 89 10000 3.13 296 21:59 09.01.2021
3905 Clouds 1 1024 90 10000 2.68 292 21:39 09.01.2021
3906 Clouds 1 1024 90 10000 1.79 286 21:21 09.01.2021
3907 Clouds 1 1024 90 10000 0.89 319 20:56 09.01.2021
3908 Clouds 1 1024 90 10000 0.89 304 20:36 09.01.2021
3909 Clouds 1 1023 90 10000 2.68 275 19:40 09.01.2021
3910 Clouds 1 1024 90 10000 3.13 276 19:21 09.01.2021
3911 Clouds 1 1023 90 5519 1.79 286 18:38 09.01.2021
3912 Clouds 1 1023 90 4592 3.69 297 18:19 09.01.2021
3913 Clouds 1 1023 90 4592 0.45 244 17:42 09.01.2021
3914 Clouds 1 1023 91 10000 2.68 307 17:22 09.01.2021
3915 Clouds 1 1023 91 10000 4.47 300 16:29 09.01.2021
3916 Clouds 1 1022 90 10000 1.79 285 15:47 09.01.2021
3917 Clouds 1 1022 89 7819 2.68 324 15:27 09.01.2021
3918 Clouds 1 1022 90 7819 1.79 297 14:38 09.01.2021
3919 Clouds 1 1022 90 10000 4.02 297 14:20 09.01.2021
3920 Clouds 1 1022 91 10000 3.58 282 13:47 09.01.2021
3921 Clouds 1 1022 91 10000 2.24 299 13:28 09.01.2021
3922 Clouds 2 1022 90 2721 3.58 280 12:48 09.01.2021
3923 Clouds 2 1022 91 1216 1.34 285 12:22 09.01.2021
3924 Clouds 2 1022 89 1216 2.68 293 11:50 09.01.2021
3925 Clouds 2 1022 89 4949 3.13 292 11:29 09.01.2021
3926 Clouds 1 1022 89 4949 2.68 314 10:52 09.01.2021
3927 Clouds 1 1022 91 4949 1.34 283 10:30 09.01.2021
3928 Clouds 1 1022 92 117 0.89 290 09:46 09.01.2021
3929 Clouds 1 1022 92 143 2.24 290 09:25 09.01.2021
3930 Snow 0 1021 92 42 3.91 328 08:28 09.01.2021
3931 Snow 0 1020 93 35 0.45 282 06:57 09.01.2021
3932 Snow 0 1020 93 35 4.02 299 06:39 09.01.2021
3933 Snow 0 1019 91 55 0.89 275 04:47 09.01.2021
3934 Snow 0 1018 92 128 4.22 275 03:21 09.01.2021
3935 Snow 0 1018 91 128 0.89 278 02:30 09.01.2021
3936 Snow 0 1018 90 492 2.24 241 01:45 09.01.2021
3937 Snow 0 1017 89 2247 0.45 228 00:36 09.01.2021
3938 Snow 0 1017 85 10000 2.68 278 23:57 08.01.2021
3939 Clouds 1 1017 86 10000 0.89 306 22:58 08.01.2021
3940 Clouds 1 1016 87 9720 0.45 324 22:18 08.01.2021
3941 Clouds 1 1016 88 9720 1.34 292 21:37 08.01.2021
3942 Clouds 1 1016 87 358 3.57 296 20:46 08.01.2021
3943 Snow 1 1016 87 120 1.79 309 20:25 08.01.2021
3944 Snow 1 1016 88 120 0.45 272 19:55 08.01.2021
3945 Snow 1 1015 89 27 1.79 279 19:22 08.01.2021
3946 Snow 1 1015 90 39 2.26 292 18:36 08.01.2021
3947 Snow 1 1015 89 56 2.31 305 18:18 08.01.2021
3948 Snow 1 1015 88 56 2.31 305 17:44 08.01.2021
3949 Snow 1 1014 88 65 2.59 319 17:20 08.01.2021
3950 Snow 1 1014 85 65 2.59 319 16:33 08.01.2021
3951 Snow 2 1014 85 30 1.79 319 15:43 08.01.2021
3952 Clouds 2 1013 84 25 1.79 290 14:56 08.01.2021
3953 Clouds 2 1013 86 25 2.68 286 14:35 08.01.2021
3954 Clouds 2 1013 86 27 1.79 313 13:41 08.01.2021
3955 Clouds 2 1013 87 48 1.34 286 13:18 08.01.2021
3956 Clouds 2 1013 86 48 2.99 284 12:46 08.01.2021
3957 Clouds 2 1013 87 6837 0.45 273 12:19 08.01.2021
3958 Clouds 2 1013 88 6837 3.17 282 11:44 08.01.2021
3959 Snow 2 1013 88 9435 1.34 254 11:25 08.01.2021
3960 Snow 2 1013 88 9499 3.01 279 10:52 08.01.2021
3961 Snow 1 1013 88 9435 1.34 251 10:32 08.01.2021
3962 Clouds 2 1013 87 5223 2.78 275 09:45 08.01.2021
3963 Snow 1 1013 87 446 2.46 271 09:27 08.01.2021
3964 Clouds 1 1012 88 446 0.89 232 08:33 08.01.2021
3965 Clouds 1 1011 88 9957 0.45 259 07:26 08.01.2021
3966 Clouds 1 1011 88 10000 1.3 262 05:55 08.01.2021
3967 Clouds 0 1011 89 10000 0.45 148 23:48 07.01.2021
3968 Clouds 0 1011 90 10000 1.65 228 23:30 07.01.2021
3969 Clouds 0 1011 91 10000 1.66 235 22:47 07.01.2021
3970 Clouds 0 1010 90 10000 1.85 234 22:26 07.01.2021
3971 Clouds 0 1011 91 10000 1.85 234 21:46 07.01.2021
3972 Clouds 0 1011 91 10000 2.09 229 21:27 07.01.2021
3973 Clouds 0 1011 89 10000 2.09 229 20:47 07.01.2021
3974 Clouds 1 1010 89 10000 2.32 229 20:29 07.01.2021
3975 Clouds 1 1011 89 10000 2.32 229 19:45 07.01.2021
3976 Clouds 1 1011 88 10000 2.39 235 19:23 07.01.2021
3977 Clouds 2 1011 86 10000 2.29 237 18:38 07.01.2021
3978 Clouds 2 1011 86 10000 2.57 242 18:19 07.01.2021
3979 Clouds 2 1011 86 10000 2.76 252 17:30 07.01.2021
3980 Clouds 2 1011 85 10000 2.78 252 16:54 07.01.2021
3981 Clouds 2 1011 83 10000 2.79 252 16:30 07.01.2021
3982 Clouds 2 1011 81 10000 1.34 252 15:48 07.01.2021
3983 Clouds 2 1011 81 10000 0.45 259 15:29 07.01.2021
3984 Clouds 2 1011 80 10000 3.58 271 14:27 07.01.2021
3985 Clouds 2 1011 79 10000 1.34 261 13:49 07.01.2021
3986 Clouds 2 1011 80 10000 4.68 271 13:22 07.01.2021
3987 Clouds 2 1011 83 10000 4.76 271 12:51 07.01.2021
3988 Clouds 2 1011 83 10000 4.88 269 12:21 07.01.2021
3989 Clouds 2 1012 84 10000 4.88 269 11:38 07.01.2021
3990 Clouds 2 1012 85 10000 4.74 264 10:54 07.01.2021
3991 Clouds 1 1012 86 10000 2.68 228 10:35 07.01.2021
3992 Clouds 1 1012 88 10000 0.45 158 09:50 07.01.2021
3993 Clouds 1 1012 89 10000 1.34 244 09:32 07.01.2021
3994 Clouds 0 1012 90 10000 4.02 242 08:40 07.01.2021
3995 Clouds 0 1012 90 7719 1.79 258 08:21 07.01.2021
3996 Clouds 0 1011 91 7779 4.92 218 07:40 07.01.2021
3997 Clouds 0 1011 94 10000 2.24 258 05:52 07.01.2021
3998 Clouds 1 1011 85 10000 2.68 259 01:34 07.01.2021
3999 Clouds 1 1011 86 6178 2.68 254 23:58 06.01.2021
4000 Clouds 1 1011 87 9692 2.24 249 22:51 06.01.2021
4001 Clouds 1 1011 87 10000 1.34 19 22:23 06.01.2021
4002 Clouds 1 1011 85 10000 4.02 241 21:41 06.01.2021
4003 Clouds 1 1011 85 10000 2.24 304 21:22 06.01.2021
4004 Clouds 1 1011 85 10000 2.24 304 21:22 06.01.2021
4005 Clouds 1 1011 86 10000 0.45 225 20:42 06.01.2021
4006 Clouds 1 1011 87 10000 1.79 265 20:22 06.01.2021
4007 Clouds 1 1011 86 10000 1.34 304 19:47 06.01.2021
4008 Clouds 1 1011 87 10000 6.26 279 19:27 06.01.2021
4009 Clouds 1 1011 89 10000 1.79 310 18:46 06.01.2021
4010 Clouds 1 1011 89 10000 0.89 252 18:28 06.01.2021
4011 Clouds 1 1011 92 10000 3.13 279 17:46 06.01.2021
4012 Clouds 1 1011 92 70 0.89 275 17:27 06.01.2021
4013 Clouds 1 1011 92 70 1.34 251 16:57 06.01.2021
4014 Clouds 1 1011 91 42 2.24 272 16:21 06.01.2021
4015 Clouds 1 1011 90 42 1.79 314 15:59 06.01.2021
4016 Clouds 2 1012 87 42 0.89 300 15:39 06.01.2021
4017 Clouds 2 1012 82 70 3.58 287 15:21 06.01.2021
4018 Clouds 2 1012 84 70 3.13 282 14:31 06.01.2021
4019 Clouds 3 1012 83 83 2.24 247 13:55 06.01.2021
4020 Clouds 2 1012 84 2496 1.34 306 13:27 06.01.2021
4021 Clouds 3 1012 84 2496 1.34 289 12:58 06.01.2021
4022 Clouds 3 1012 84 50 1.34 330 12:32 06.01.2021
4023 Clouds 3 1013 85 50 2.68 341 11:46 06.01.2021
4024 Clouds 2 1013 85 88 2.68 316 11:23 06.01.2021
4025 Clouds 3 1013 86 87 2.68 241 10:43 06.01.2021
4026 Clouds 2 1014 89 102 1.79 313 09:52 06.01.2021
4027 Clouds 2 1014 91 102 1.79 297 09:32 06.01.2021
4028 Clouds 2 1014 93 142 1.79 328 08:52 06.01.2021
4029 Clouds 2 1014 93 1153 3.58 268 08:20 06.01.2021
4030 Clouds 2 1014 94 1153 4.92 306 07:53 06.01.2021
4031 Rain 2 1014 93 82 2.68 293 06:44 06.01.2021
4032 Clouds 2 1014 92 76 2.68 29 05:30 06.01.2021
4033 Clouds 3 1015 92 80 1.34 345 04:21 06.01.2021
4034 Clouds 3 1015 93 95 1.79 359 02:44 06.01.2021
4035 Clouds 3 1015 93 109 4.92 297 02:21 06.01.2021
4036 Clouds 3 1015 90 10000 2.68 328 23:57 05.01.2021
4037 Clouds 3 1016 89 10000 3.13 314 22:59 05.01.2021
4038 Clouds 3 1016 89 10000 3.13 311 22:40 05.01.2021
4039 Clouds 3 1016 90 6572 2.68 359 22:20 05.01.2021
4040 Clouds 2 1016 90 6572 2.24 334 21:37 05.01.2021
4041 Clouds 3 1016 92 275 1.79 347 20:37 05.01.2021
4042 Clouds 2 1016 93 9659 2.24 22 20:18 05.01.2021
4043 Clouds 2 1016 94 9659 1.34 5 19:41 05.01.2021
4044 Clouds 2 1016 94 10000 5.81 352 19:21 05.01.2021
4045 Clouds 2 1016 94 5973 3.58 343 18:42 05.01.2021
4046 Clouds 2 1016 94 155 1.34 326 18:23 05.01.2021
4047 Clouds 2 1016 94 155 0.89 313 17:49 05.01.2021
4048 Rain 2 1016 94 115 1.34 331 17:26 05.01.2021
4049 Clouds 2 1016 94 114 0.89 345 16:52 05.01.2021
4050 Clouds 2 1017 94 8339 1.34 22 16:21 05.01.2021
4051 Clouds 2 1017 93 8460 0.89 4 15:50 05.01.2021
4052 Clouds 2 1017 92 10000 3.13 344 14:57 05.01.2021
4053 Clouds 2 1017 91 10000 8.05 338 14:38 05.01.2021
4054 Clouds 2 1017 91 1179 3.58 351 13:50 05.01.2021
4055 Clouds 2 1017 91 1179 2.24 343 13:30 05.01.2021
4056 Clouds 2 1017 92 52 3.86 31 12:49 05.01.2021
4057 Clouds 2 1018 93 7865 2.68 333 12:28 05.01.2021
4058 Clouds 2 1018 93 7865 1.79 36 11:39 05.01.2021
4059 Rain 2 1018 93 1368 2.24 42 11:20 05.01.2021
4060 Clouds 1 1018 93 1368 0.89 341 10:43 05.01.2021
4061 Clouds 2 1018 93 481 4.09 48 09:58 05.01.2021
4062 Clouds 1 1018 93 481 1.34 7 09:37 05.01.2021
4063 Clouds 1 1018 93 159 1.34 18 08:42 05.01.2021
4064 Snow 1 1018 93 5119 0.45 296 08:18 05.01.2021
4065 Snow 1 1018 93 3353 1.34 358 05:29 05.01.2021
4066 Clouds 1 1018 93 74 1.79 29 02:37 05.01.2021
4067 Clouds 1 1018 92 118 1.34 9 00:23 05.01.2021
4068 Clouds 1 1018 92 118 2.68 14 23:40 04.01.2021
4069 Clouds 1 1018 92 51 1.34 14 23:21 04.01.2021
4070 Clouds 1 1017 93 51 3.27 55 22:45 04.01.2021
4071 Clouds 1 1017 93 61 0.89 38 21:58 04.01.2021
4072 Clouds 1 1017 93 61 0.45 359 21:39 04.01.2021
4073 Clouds 1 1017 93 92 3.71 61 20:58 04.01.2021
4074 Clouds 1 1017 93 92 0.45 74 20:37 04.01.2021
4075 Clouds 1 1017 93 79 1.34 344 20:18 04.01.2021
4076 Clouds 1 1017 93 79 0.45 9 19:41 04.01.2021
4077 Clouds 1 1017 93 46 2.68 0 19:19 04.01.2021
4078 Clouds 1 1017 93 46 0.45 18 19:19 04.01.2021
4079 Clouds 1 1017 93 93 0.45 98 18:43 04.01.2021
4080 Clouds 1 1017 93 1362 2.24 7 17:56 04.01.2021
4081 Clouds 1 1017 93 1362 1.34 5 17:37 04.01.2021
4082 Rain 1 1017 93 1691 0.89 347 17:18 04.01.2021
4083 Clouds 1 1017 93 1691 0.89 22 16:40 04.01.2021
4084 Rain 1 1017 93 8271 3.28 52 16:22 04.01.2021
4085 Clouds 1 1017 92 8271 3.28 52 15:47 04.01.2021
4086 Rain 1 1017 92 4447 0.45 14 15:24 04.01.2021
4087 Clouds 1 1017 92 230 3.13 359 13:58 04.01.2021
4088 Clouds 1 1017 92 230 0.45 4 13:36 04.01.2021
4089 Clouds 1 1017 92 138 3.7 50 12:57 04.01.2021
4090 Clouds 1 1018 92 138 3.7 50 12:31 04.01.2021
4091 Clouds 1 1018 92 184 2.68 359 11:52 04.01.2021
4092 Rain 1 1018 92 407 0.45 1 11:20 04.01.2021
4093 Clouds 1 1018 92 407 2.24 357 10:46 04.01.2021
4094 Rain 1 1018 93 125 3.13 324 10:23 04.01.2021
4095 Clouds 1 1018 93 125 0.89 350 09:49 04.01.2021
4096 Rain 1 1018 93 71 0.45 2 09:18 04.01.2021
4097 Clouds 0 1018 94 71 1.34 4 08:41 04.01.2021
4098 Snow 0 1018 94 87 2.24 357 07:48 04.01.2021
4099 Rain 0 1018 94 85 1.34 2 07:18 04.01.2021
4100 Rain 1 1017 94 105 4.47 343 05:21 04.01.2021
4101 Clouds 1 1017 93 237 0.89 359 02:34 04.01.2021
4102 Rain 1 1017 94 162 4.02 57 00:29 04.01.2021
4103 Clouds 1 1016 94 162 3.58 359 23:47 03.01.2021
4104 Snow 1 1016 94 155 1.34 352 23:19 03.01.2021
4105 Snow 1 1016 94 155 2.24 21 22:49 03.01.2021
4106 Clouds 1 1016 94 155 0.89 19 22:30 03.01.2021
4107 Snow 2 1016 94 116 0.89 23 21:47 03.01.2021
4108 Rain 2 1016 94 100 1.79 36 21:25 03.01.2021
4109 Clouds 1 1016 94 100 0.45 79 20:43 03.01.2021
4110 Rain 1 1015 94 174 2.24 16 20:24 03.01.2021
4111 Clouds 1 1015 94 174 2.24 23 19:55 03.01.2021
4112 Clouds 1 1015 94 174 1.34 38 19:34 03.01.2021
4113 Clouds 2 1015 94 151 1.34 67 18:54 03.01.2021
4114 Clouds 1 1015 94 1468 2.24 22 18:36 03.01.2021
4115 Clouds 0 1015 95 573 5.68 54 17:59 03.01.2021
4116 Clouds 0 1013 95 573 5.68 54 17:40 03.01.2021
4117 Rain 0 1015 95 135 4.97 51 17:22 03.01.2021
4118 Clouds 1 1015 95 135 4.97 51 16:42 03.01.2021
4119 Rain 0 1014 95 84 4.65 47 16:19 03.01.2021
4120 Snow 1 1014 95 84 4.65 47 15:45 03.01.2021
4121 Snow 1 1014 95 65 5.37 42 15:26 03.01.2021
4122 Snow 0 1014 95 65 5.37 42 14:50 03.01.2021
4123 Snow 1 1014 95 59 5.86 39 14:27 03.01.2021
4124 Snow 1 1014 95 59 5.86 39 13:40 03.01.2021
4125 Snow 1 1014 95 94 6.03 37 13:21 03.01.2021
4126 Snow 1 1014 95 111 5.72 44 12:24 03.01.2021
4127 Snow 1 1015 95 111 5.72 44 11:42 03.01.2021
4128 Snow 1 1015 95 35 3.13 14 11:24 03.01.2021
4129 Snow 0 1014 95 35 4.02 359 10:34 03.01.2021
4130 Snow 1 1015 95 44 2.68 359 09:55 03.01.2021
4131 Snow 0 1015 95 44 4.92 354 09:33 03.01.2021
4132 Snow 1 1015 95 142 7.15 19 08:57 03.01.2021
4133 Snow 1 1015 88 2646 1.79 309 07:33 03.01.2021
4134 Clouds 2 1015 81 10000 1.79 11 05:53 03.01.2021
4135 Clear 1 1010 95 10000 3.12 47 02:27 03.01.2021
4136 Clear 1 1010 96 10000 3.12 47 01:44 03.01.2021
4137 Clear 1 1010 96 10000 3.12 47 01:44 03.01.2021
4138 Clouds 2 1016 87 10000 2.68 35 00:18 03.01.2021
4139 Clouds 1 1011 94 10000 2.63 74 23:27 02.01.2021
4140 Clouds 1 1011 94 10000 2.63 74 23:27 02.01.2021
4141 Clouds 1 1011 93 10000 2.63 74 22:51 02.01.2021
4142 Clouds 1 1011 93 10000 2.63 74 22:32 02.01.2021
4143 Clouds 1 1010 94 10000 2.43 71 21:50 02.01.2021
4144 Clouds 1 1010 95 10000 2.43 71 21:31 02.01.2021
4145 Clouds 0 1010 96 10000 2.08 79 20:50 02.01.2021
4146 Clouds 0 1010 97 10000 2.07 91 20:28 02.01.2021
4147 Clouds 0 1010 97 10000 2.07 91 19:52 02.01.2021
4148 Clouds 2 1015 85 10000 1.84 67 19:20 02.01.2021
4149 Clouds 2 1015 84 10000 1.84 67 18:56 02.01.2021
4150 Clouds 2 1015 84 10000 1.84 67 18:38 02.01.2021
4151 Clouds -1 1010 10 10000 1.33 83 18:19 02.01.2021
4152 Clouds 1 1010 96 10000 1.33 83 17:38 02.01.2021
4153 Clouds 3 1015 85 10000 1.05 98 16:58 02.01.2021
4154 Clouds 4 1015 84 10000 0.84 92 16:23 02.01.2021
4155 Clouds 4 1015 84 10000 0.84 92 15:54 02.01.2021
4156 Clouds 4 1015 82 10000 0.64 97 15:32 02.01.2021
4157 Clouds 5 1015 79 10000 0.45 60 14:55 02.01.2021
4158 Clouds 5 1015 77 10000 0.64 97 14:35 02.01.2021
4159 Clouds 5 1015 77 10000 0.18 110 13:49 02.01.2021
4160 Clouds 5 1014 76 10000 0.74 196 13:22 02.01.2021
4161 Clouds 5 1015 77 10000 0.74 196 12:48 02.01.2021
4162 Clouds 5 1015 78 10000 1.13 197 12:28 02.01.2021
4163 Clouds 5 1015 80 10000 0.89 122 11:44 02.01.2021
4164 Clouds 4 1015 81 10000 1.47 202 11:21 02.01.2021
4165 Clouds 3 1015 82 10000 1.47 202 10:42 02.01.2021
4166 Clouds 3 1015 83 10000 1.61 222 10:24 02.01.2021
4167 Clouds 2 1015 84 10000 1.61 222 09:43 02.01.2021
4168 Clouds 2 1015 85 10000 1.81 227 09:23 02.01.2021
4169 Clouds 2 1015 86 10000 1.81 227 08:49 02.01.2021
4170 Clouds 2 1015 86 10000 1.84 237 08:25 02.01.2021
4171 Clouds 2 1014 85 10000 1.84 237 07:44 02.01.2021
4172 Clouds 2 1014 85 10000 1.74 241 07:21 02.01.2021
4173 Clouds 2 1014 85 10000 1.55 229 06:40 02.01.2021
4174 Clouds 2 1013 85 10000 1.31 238 05:28 02.01.2021
4175 Clouds 3 1012 82 10000 2.27 217 00:58 02.01.2021
4176 Clouds 3 1012 82 10000 2.21 217 00:37 02.01.2021
4177 Clouds 3 1012 81 10000 2.33 211 23:54 01.01.2021
4178 Clouds 3 1012 79 10000 0.89 228 23:21 01.01.2021
4179 Clouds 3 1011 78 10000 2.42 211 22:47 01.01.2021
4180 Clouds 3 1011 79 10000 0.89 182 22:25 01.01.2021
4181 Clouds 2 1011 80 10000 1.79 183 21:44 01.01.2021
4182 Clouds 2 1011 81 10000 0.45 148 21:22 01.01.2021
4183 Clouds 3 1010 80 10000 1.34 191 20:54 01.01.2021
4184 Clouds 3 1010 79 10000 0.45 263 20:22 01.01.2021
4185 Clouds 3 1010 80 10000 1.34 200 19:59 01.01.2021
4186 Clouds 3 1010 81 10000 2.14 215 19:41 01.01.2021
4187 Clouds 3 1010 81 10000 2.1 213 19:20 01.01.2021
4188 Clouds 2 1004 82 10000 2.1 213 18:42 01.01.2021
4189 Clouds 2 1004 82 10000 2.16 216 18:23 01.01.2021
4190 Clouds 2 1003 84 10000 2.16 216 17:44 01.01.2021
4191 Clouds 3 1009 84 10000 2.06 217 17:23 01.01.2021
4192 Clouds 3 1009 85 10000 2.06 217 16:45 01.01.2021
4193 Clouds 3 1009 86 10000 2.11 218 16:25 01.01.2021
4194 Clouds 4 1009 84 10000 0.45 261 15:39 01.01.2021
4195 Clouds 4 1009 82 10000 1.81 229 14:44 01.01.2021
4196 Clouds 5 1008 81 10000 1.91 250 14:26 01.01.2021
4197 Clouds 5 1008 81 10000 1.91 250 13:39 01.01.2021
4198 Clouds 4 1008 83 10000 2.04 250 12:52 01.01.2021
4199 Clouds 4 1008 79 10000 1.34 232 12:27 01.01.2021
4200 Rain 4 1008 80 10000 2.03 250 11:43 01.01.2021
4201 Rain 4 1008 83 10000 2 241 11:22 01.01.2021
4202 Rain 3 1008 85 10000 2 241 10:56 01.01.2021
4203 Clouds 3 1008 85 10000 2 241 10:30 01.01.2021
4204 Clouds 2 1008 88 10000 1.77 244 09:39 01.01.2021
4205 Clouds 1 1008 88 10000 1.46 250 08:52 01.01.2021
4206 Clouds 1 1008 88 10000 1.28 247 08:25 01.01.2021
4207 Clouds 1 1006 87 10000 1.26 245 04:52 01.01.2021
4208 Clouds 2 1006 86 10000 1.5 221 02:25 01.01.2021
4209 Clouds 0 999 98 10000 1.96 201 00:38 01.01.2021
4210 Clouds 2 1005 85 10000 2.21 197 00:20 01.01.2021
4211 Clouds 2 1005 85 10000 2.65 189 23:22 31.12.2020
4212 Clouds 2 1005 85 10000 2.65 189 22:56 31.12.2020
4213 Clouds 2 1005 85 10000 2.65 189 22:37 31.12.2020
4214 Clouds 2 1005 85 10000 2.54 177 22:19 31.12.2020
4215 Clouds 2 1005 85 10000 2.54 177 21:44 31.12.2020
4216 Clouds 2 1005 85 10000 0.45 158 21:21 31.12.2020
4217 Rain 2 1005 85 10000 2.59 163 20:48 31.12.2020
4218 Clouds 2 1005 84 10000 2.68 157 20:18 31.12.2020
4219 Clouds 2 1005 84 10000 1.34 162 19:45 31.12.2020
4220 Rain 2 1005 84 10000 1.79 124 19:24 31.12.2020
4221 Clouds 2 1005 84 10000 3.13 166 18:42 31.12.2020
4222 Clouds 2 1005 85 10000 1.34 119 18:23 31.12.2020
4223 Clouds 2 1005 84 10000 2.68 155 17:44 31.12.2020
4224 Clouds 2 1005 85 10000 1.34 139 17:22 31.12.2020
4225 Clouds 3 1005 83 10000 1.34 151 16:40 31.12.2020
4226 Clouds 2 1005 83 10000 3.13 172 16:21 31.12.2020
4227 Clouds 3 1005 81 10000 3.13 162 15:45 31.12.2020
4228 Clouds 3 1005 80 10000 1.34 177 15:22 31.12.2020
4229 Clouds 3 1005 79 10000 1.34 114 14:56 31.12.2020
4230 Clouds 3 1005 80 10000 1.34 125 14:37 31.12.2020
4231 Clouds 3 1005 79 10000 2.24 118 14:19 31.12.2020
4232 Clouds 4 1005 78 10000 3.13 149 13:39 31.12.2020
4233 Clouds 3 1005 79 10000 1.34 165 13:20 31.12.2020
4234 Clouds 4 1005 76 10000 2.24 210 12:53 31.12.2020
4235 Clouds 4 1006 77 10000 2.68 197 12:35 31.12.2020
4236 Clouds 3 1006 81 10000 2.68 172 11:52 31.12.2020
4237 Clouds 3 1006 83 10000 1.79 204 11:32 31.12.2020
4238 Clouds 2 1006 88 10000 1.34 94 10:50 31.12.2020
4239 Clouds 2 1007 88 10000 0.45 93 10:29 31.12.2020
4240 Clouds 1 1007 90 10000 2.24 143 09:58 31.12.2020
4241 Clouds 1 1007 91 10000 1.34 159 09:36 31.12.2020
4242 Clouds 1 1007 93 10000 0.89 201 08:51 31.12.2020
4243 Clouds 0 1007 92 10000 0.89 151 08:33 31.12.2020
4244 Clouds 0 1007 92 10000 0.45 172 07:59 31.12.2020
4245 Clouds 0 1007 92 10000 0.89 159 07:33 31.12.2020
4246 Clouds 0 1006 91 10000 4.05 208 06:29 31.12.2020
4247 Clouds 0 1006 91 10000 1.79 225 05:29 31.12.2020
4248 Clouds 2 1006 89 10000 0.89 193 02:58 31.12.2020
4249 Clouds 2 1006 89 10000 0.89 184 02:26 31.12.2020
4250 Clouds 3 1006 88 10000 3.19 223 01:48 31.12.2020
4251 Clouds 3 1005 89 10000 0.89 153 01:28 31.12.2020
4252 Clouds 2 1005 89 10000 3.47 225 00:51 31.12.2020
4253 Clouds 2 1005 89 10000 2.68 183 23:55 30.12.2020
4254 Clouds 2 1005 88 10000 1.79 217 23:20 30.12.2020
4255 Clouds 2 1004 86 10000 2.24 256 22:52 30.12.2020
4256 Clouds 3 1004 85 10000 2.68 179 22:32 30.12.2020
4257 Clouds 3 1004 83 10000 2.24 232 21:49 30.12.2020
4258 Clouds 3 1004 83 10000 1.79 163 21:25 30.12.2020
4259 Clouds 3 1004 83 10000 0.89 189 20:52 30.12.2020
4260 Clouds 3 1004 84 10000 2.68 158 20:25 30.12.2020
4261 Clouds 3 1004 86 10000 1.79 235 19:42 30.12.2020
4262 Clouds 3 1004 88 10000 2.24 193 19:23 30.12.2020
4263 Clouds 3 1004 17 10000 3.61 214 19:23 30.12.2020
4264 Clouds 3 1004 89 10000 1.34 197 18:57 30.12.2020
4265 Clouds 3 1003 90 10000 2.24 244 18:37 30.12.2020
4266 Clouds 3 1003 91 10000 3.52 214 18:19 30.12.2020
4267 Clouds 2 1003 91 10000 3.52 214 17:41 30.12.2020
4268 Clouds 2 1003 91 10000 0.45 194 17:20 30.12.2020
4269 Clouds 2 1003 92 10000 1.79 213 16:41 30.12.2020
4270 Clouds 2 1002 90 10000 1.34 208 15:50 30.12.2020
4271 Clouds 3 1002 90 10000 1.34 149 15:29 30.12.2020
4272 Clouds 3 1002 88 10000 3.45 218 14:45 30.12.2020
4273 Clouds 4 1002 88 10000 0.89 180 14:26 30.12.2020
4274 Clouds 4 1002 86 10000 1.79 193 13:53 30.12.2020
4275 Clouds 4 1002 88 10000 0.89 175 12:56 30.12.2020
4276 Clouds 3 1002 88 10000 2.68 207 12:26 30.12.2020
4277 Clouds 2 1002 92 10000 0.45 128 11:39 30.12.2020
4278 Clear 2 1002 91 10000 4.05 196 11:21 30.12.2020
4279 Clear 2 1002 92 10000 4.05 196 11:21 30.12.2020
4280 Clear 2 1001 91 10000 4.05 196 10:56 30.12.2020
4281 Clear 1 1002 91 10000 2.24 141 10:37 30.12.2020
4282 Clouds 1 1002 91 10000 1.34 172 10:18 30.12.2020
4283 Clouds 1 1002 92 10000 3.61 192 09:41 30.12.2020
4284 Clouds 0 1001 92 10000 0.89 183 08:36 30.12.2020
4285 Clouds 0 1001 92 10000 1.79 183 07:50 30.12.2020
4286 Clear 0 1001 92 10000 3.54 202 07:24 30.12.2020
4287 Clear 0 1000 92 10000 4.16 200 06:40 30.12.2020
4288 Clear 0 999 92 10000 0.45 180 05:47 30.12.2020
4289 Clear 0 999 92 10000 2.68 159 05:28 30.12.2020
4290 Clear 1 999 91 10000 3.58 196 03:29 30.12.2020
4291 Clear 2 998 90 10000 4.52 203 02:52 30.12.2020
4292 Clear 1 998 91 10000 0.45 114 02:31 30.12.2020
4293 Clear 1 998 92 10000 3.13 184 01:44 30.12.2020
4294 Clouds 1 997 92 10000 0.89 215 01:26 30.12.2020
4295 Clear 1 997 92 10000 4.54 202 00:41 30.12.2020
4296 Clear 1 997 91 10000 0.45 160 00:22 30.12.2020
4297 Clear 1 997 91 10000 0.89 252 23:43 29.12.2020
4298 Clear 1 997 91 10000 2.24 135 23:24 29.12.2020
4299 Clear 1 996 90 10000 2.68 196 22:49 29.12.2020
4300 Clear 1 996 90 10000 0.89 183 22:31 29.12.2020
4301 Clear 1 996 89 10000 1.79 179 21:56 29.12.2020
4302 Clear 2 996 89 10000 0.89 145 21:37 29.12.2020
4303 Clear 2 995 90 10000 1.79 193 21:18 29.12.2020
4304 Clear 2 995 89 10000 1.79 167 20:41 29.12.2020
4305 Clear 2 995 88 10000 0.89 194 20:22 29.12.2020
4306 Clear 3 994 86 10000 0.89 149 19:43 29.12.2020
4307 Clouds 3 994 84 10000 1.34 177 19:21 29.12.2020
4308 Clouds 3 994 84 10000 3.58 197 18:50 29.12.2020
4309 Clouds 3 994 84 10000 0.89 186 18:28 29.12.2020
4310 Clouds 3 993 85 10000 2.24 155 17:46 29.12.2020
4311 Clouds 3 993 86 10000 3.58 179 17:21 29.12.2020
4312 Clouds 3 993 86 10000 3.58 179 17:21 29.12.2020
4313 Clouds 3 992 89 10000 3.13 160 16:54 29.12.2020
4314 Clouds 3 992 88 10000 0.89 180 16:26 29.12.2020
4315 Clouds 4 991 88 10000 0.45 183 15:42 29.12.2020
4316 Clouds 4 991 87 10000 3.28 238 15:23 29.12.2020
4317 Clouds 4 990 87 10000 2.24 183 14:45 29.12.2020
4318 Clouds 4 990 87 10000 0.45 218 14:27 29.12.2020
4319 Clouds 4 989 88 10000 0.89 203 13:55 29.12.2020
4320 Clouds 5 989 86 10000 1.34 173 13:24 29.12.2020
4321 Clouds 4 988 88 10000 3.64 232 12:45 29.12.2020
4322 Clouds 4 988 88 10000 1.34 196 12:26 29.12.2020
4323 Clouds 4 988 90 10000 1.34 153 11:58 29.12.2020
4324 Clouds 4 987 90 10000 1.34 179 11:32 29.12.2020
4325 Clouds 2 987 93 10000 3.35 201 10:40 29.12.2020
4326 Clouds 1 987 93 10000 2.68 211 10:20 29.12.2020
4327 Clouds 1 987 94 10000 0.45 170 09:40 29.12.2020
4328 Clear 0 986 94 10000 0.45 142 09:18 29.12.2020
4329 Clear 0 986 93 10000 2.82 201 08:47 29.12.2020
4330 Clear -1 985 92 10000 3.04 204 07:40 29.12.2020
4331 Clouds 0 984 93 10000 3.21 209 06:58 29.12.2020
4332 Clouds 0 984 92 10000 1.34 180 05:40 29.12.2020
4333 Clouds 2 982 91 9846 2.13 226 01:46 29.12.2020
4334 Clouds 2 982 91 33 1.92 130 00:24 29.12.2020
4335 Snow 2 982 91 33 1.92 130 23:37 28.12.2020
4336 Snow 1 982 91 31 1.34 115 22:48 28.12.2020
4337 Snow 1 982 90 10000 3.25 122 21:57 28.12.2020
4338 Snow 1 983 90 10000 0.45 86 21:39 28.12.2020
4339 Snow 2 983 90 10000 0.89 84 21:19 28.12.2020
4340 Rain 2 983 89 10000 2.68 134 20:40 28.12.2020
4341 Rain 2 983 89 10000 3.55 121 20:20 28.12.2020
4342 Rain 2 982 88 10000 2.24 110 19:41 28.12.2020
4343 Rain 3 983 88 10000 1.79 95 19:22 28.12.2020
4344 Rain 3 983 88 10000 2.24 108 18:49 28.12.2020
4345 Rain 3 983 88 10000 3.13 63 18:27 28.12.2020
4346 Rain 3 983 83 10000 4.02 101 17:41 28.12.2020
4347 Clouds 3 983 79 10000 2.24 103 17:18 28.12.2020
4348 Clouds 2 983 80 10000 1.34 118 16:33 28.12.2020
4349 Clouds 2 983 82 10000 2.24 115 15:59 28.12.2020
4350 Clouds 2 983 82 10000 2.68 103 15:41 28.12.2020
4351 Clouds 3 983 81 10000 2.24 112 14:54 28.12.2020
4352 Clouds 5 983 77 10000 3.61 168 13:54 28.12.2020
4353 Clouds 5 983 75 10000 2.24 105 13:25 28.12.2020
4354 Clouds 5 983 75 10000 2.24 105 13:25 28.12.2020
4355 Clouds 4 983 73 10000 3.13 146 12:41 28.12.2020
4356 Clouds 4 983 74 10000 3.13 169 12:22 28.12.2020
4357 Clouds 3 983 75 10000 1.34 163 11:45 28.12.2020
4358 Clouds 3 983 76 10000 2.24 158 11:24 28.12.2020
4359 Clouds 2 984 77 10000 2.24 156 10:45 28.12.2020
4360 Clouds 1 984 78 10000 2.68 184 10:27 28.12.2020
4361 Clouds 1 983 80 10000 2.68 155 09:46 28.12.2020
4362 Clouds 1 983 79 10000 4.02 146 09:19 28.12.2020
4363 Clouds 1 983 79 10000 1.79 84 07:40 28.12.2020
4364 Clouds 2 983 76 10000 4.02 121 06:50 28.12.2020
4365 Rain 2 983 65 10000 4.92 138 04:37 28.12.2020
4366 Clouds 3 984 61 10000 4.47 182 02:27 28.12.2020
4367 Clouds 3 985 70 10000 3.13 203 00:53 28.12.2020
4368 Clouds 3 985 70 10000 3.13 203 00:53 28.12.2020
4369 Clouds 2 985 65 10000 3.13 158 23:49 27.12.2020
4370 Rain 2 985 66 10000 5.36 83 23:19 27.12.2020
4371 Rain 2 985 60 10000 4.47 156 21:58 27.12.2020
4372 Rain 2 986 61 10000 1.34 71 21:27 27.12.2020
4373 Rain 2 986 62 10000 5.81 151 20:48 27.12.2020
4374 Rain 2 987 64 10000 6.26 163 19:48 27.12.2020
4375 Clouds 2 987 66 10000 6.71 118 19:22 27.12.2020
4376 Clouds 2 987 65 10000 6.26 125 18:47 27.12.2020
4377 Clouds 2 988 65 10000 4.02 67 18:20 27.12.2020
4378 Clouds 2 989 66 10000 5.36 131 17:52 27.12.2020
4379 Clouds 1 989 67 10000 4.02 74 17:34 27.12.2020
4380 Clouds 1 990 67 10000 8.49 131 16:54 27.12.2020
4381 Clouds 1 991 68 10000 4.47 145 16:21 27.12.2020
4382 Clouds 2 991 69 10000 7.6 151 15:30 27.12.2020
4383 Clouds 2 992 69 10000 9.39 174 14:49 27.12.2020
4384 Clouds 2 993 68 10000 7.15 131 14:31 27.12.2020
4385 Clouds 2 994 66 10000 4.92 129 13:36 27.12.2020
4386 Clouds 2 995 67 10000 4.47 166 12:55 27.12.2020
4387 Clouds 2 996 66 10000 6.26 167 12:24 27.12.2020
4388 Clouds 2 997 66 10000 5.81 128 11:42 27.12.2020
4389 Clouds 2 998 67 10000 4.02 165 11:19 27.12.2020
4390 Clouds 2 998 72 10000 8.94 151 10:40 27.12.2020
4391 Clouds 2 999 74 10000 3.13 179 10:19 27.12.2020
4392 Clouds 1 1000 76 10000 7.15 163 09:36 27.12.2020
4393 Clouds 1 1001 76 10000 7.6 167 08:28 27.12.2020
4394 Clouds 1 1002 77 10000 4.92 153 07:28 27.12.2020
4395 Clouds 1 1004 76 10000 5.81 143 05:56 27.12.2020
4396 Clouds 1 1005 79 10000 2.24 175 05:38 27.12.2020
4397 Clouds 2 1008 77 10000 8.49 136 03:24 27.12.2020
4398 Clouds 2 1009 78 10000 0.89 134 02:25 27.12.2020
4399 Clouds 2 1011 78 10000 6.71 199 00:56 27.12.2020
4400 Clouds 3 1013 78 10000 6.26 214 23:44 26.12.2020
4401 Clouds 3 1013 78 10000 4.47 81 23:24 26.12.2020
4402 Clouds 2 1013 78 10000 3.13 163 22:46 26.12.2020
4403 Clouds 3 1014 76 10000 4.92 163 22:19 26.12.2020
4404 Clouds 3 1014 75 10000 7.6 138 21:53 26.12.2020
4405 Clouds 3 1015 75 10000 3.13 88 21:29 26.12.2020
4406 Clouds 3 1015 77 10000 4.47 153 20:46 26.12.2020
4407 Clouds 3 1016 79 10000 2.68 194 20:24 26.12.2020
4408 Clouds 3 1016 80 10000 1.34 98 19:50 26.12.2020
4409 Clouds 3 1017 83 10000 0.45 149 19:22 26.12.2020
4410 Clouds 2 1018 87 10000 1.79 132 18:36 26.12.2020
4411 Clouds 1 1018 88 10000 0.89 98 17:48 26.12.2020
4412 Clouds 1 1018 87 10000 5.36 141 17:29 26.12.2020
4413 Clouds 3 1019 85 10000 2.24 151 16:40 26.12.2020
4414 Clouds 3 1019 84 10000 0.89 104 16:21 26.12.2020
4415 Clouds 3 1019 80 10000 3.65 235 15:24 26.12.2020
4416 Clouds 4 1020 80 10000 2.24 160 14:44 26.12.2020
4417 Clouds 4 1020 80 10000 1.34 231 14:20 26.12.2020
4418 Clouds 4 1021 79 10000 1.34 117 13:42 26.12.2020
4419 Clouds 4 1021 79 10000 1.34 117 13:42 26.12.2020
4420 Clouds 4 1021 81 10000 0.89 172 13:23 26.12.2020
4421 Clouds 4 1021 84 10000 0.45 163 12:44 26.12.2020
4422 Clouds 4 1022 83 10000 0.45 180 12:21 26.12.2020
4423 Clouds 4 1022 87 10000 0.89 276 11:51 26.12.2020
4424 Clouds 2 1022 89 10000 0.89 127 11:21 26.12.2020
4425 Clouds 2 1023 91 10000 4.61 257 10:53 26.12.2020
4426 Clouds 1 1023 92 10000 4.01 254 10:27 26.12.2020
4427 Clouds 1 1023 92 10000 4.01 254 09:49 26.12.2020
4428 Clouds 1 1023 92 10000 4.01 254 09:49 26.12.2020
4429 Clouds 0 1023 92 10000 0.89 190 09:25 26.12.2020
4430 Clouds -1 1023 92 10000 3.12 243 08:29 26.12.2020
4431 Clouds -1 1023 91 10000 3.12 243 07:50 26.12.2020
4432 Clouds -1 1023 91 10000 0.45 179 06:31 26.12.2020
4433 Clouds -2 1023 92 10000 2.98 267 03:19 26.12.2020
4434 Clear -2 1023 90 10000 1.34 244 01:32 26.12.2020
4435 Clear -2 1023 91 10000 0.89 200 00:25 26.12.2020
4436 Clear -2 1023 92 10000 2.24 249 23:39 25.12.2020
4437 Clear -2 1022 91 10000 3.44 286 23:21 25.12.2020
4438 Clear -2 1023 90 10000 3.44 286 22:42 25.12.2020
4439 Clouds -1 1023 90 10000 0.89 244 21:54 25.12.2020
4440 Clouds -1 1023 90 10000 1.79 247 21:34 25.12.2020
4441 Clouds -1 1022 90 10000 2.79 280 20:56 25.12.2020
4442 Clouds -1 1022 90 10000 0.45 275 20:37 25.12.2020
4443 Clouds 0 1022 89 10000 3.13 280 19:48 25.12.2020
4444 Clouds -1 1022 89 10000 0.89 247 19:21 25.12.2020
4445 Clouds -1 1022 88 10000 1.34 249 18:39 25.12.2020
4446 Clouds 0 1022 86 10000 2.24 271 17:53 25.12.2020
4447 Clouds 1 1022 85 10000 1.79 320 17:34 25.12.2020
4448 Clouds 2 1021 81 10000 1.79 273 16:33 25.12.2020
4449 Clouds 3 1021 80 10000 1.79 249 15:59 25.12.2020
4450 Clouds 3 1021 78 10000 3.58 296 15:36 25.12.2020
4451 Clouds 3 1020 77 10000 6.26 289 14:58 25.12.2020
4452 Clouds 3 1020 77 10000 2.24 292 14:30 25.12.2020
4453 Clouds 3 1020 76 10000 2.68 276 13:45 25.12.2020
4454 Clouds 4 1020 76 10000 4.47 292 13:26 25.12.2020
4455 Clouds 4 1020 74 10000 2.68 276 12:46 25.12.2020
4456 Clouds 4 1020 74 10000 3.13 285 12:46 25.12.2020
4457 Clouds 4 1021 71 10000 4.92 283 12:24 25.12.2020
4458 Clouds 4 1021 72 10000 2.68 273 11:45 25.12.2020
4459 Clouds 4 1021 73 10000 3.13 279 11:20 25.12.2020
4460 Clouds 3 1020 78 10000 5.81 203 10:30 25.12.2020
4461 Clouds 3 1020 84 10000 0.89 300 09:47 25.12.2020
4462 Clouds 2 1020 87 10000 0.89 273 08:49 25.12.2020
4463 Clouds 2 1020 87 10000 0.89 33 08:28 25.12.2020
4464 Rain 3 1018 84 10000 6.71 297 06:48 25.12.2020
4465 Clouds 3 1016 84 10000 1.79 310 04:47 25.12.2020
4466 Clouds 4 1015 90 10000 3.13 328 02:19 25.12.2020
4467 Rain 4 1013 87 10000 4.02 299 00:19 25.12.2020
4468 Clouds 5 1013 86 10000 1.34 280 23:29 24.12.2020
4469 Clouds 5 1012 86 10000 1.79 302 22:53 24.12.2020
4470 Clouds 5 1012 87 10000 1.79 256 22:24 24.12.2020
4471 Clouds 5 1012 87 10000 1.34 287 21:43 24.12.2020
4472 Clouds 5 1011 87 10000 2.24 296 20:58 24.12.2020
4473 Clouds 5 1011 87 10000 2.24 271 19:41 24.12.2020
4474 Clouds 4 1010 86 10000 4.02 272 18:21 24.12.2020
4475 Clouds 4 1009 86 10000 1.79 306 17:38 24.12.2020
4476 Clouds 4 1009 86 10000 2.68 286 17:20 24.12.2020
4477 Clouds 4 1009 86 10000 4.02 359 17:20 24.12.2020
4478 Clouds 4 1009 89 10000 1.34 313 16:25 24.12.2020
4479 Clouds 4 1008 84 10000 2.68 283 15:49 24.12.2020
4480 Clouds 4 1008 82 10000 3.13 316 15:25 24.12.2020
4481 Clouds 4 1007 85 10000 4.92 334 14:56 24.12.2020
4482 Clouds 4 1007 84 10000 4.02 287 14:38 24.12.2020
4483 Clouds 4 1007 82 10000 4.02 302 14:19 24.12.2020
4484 Clouds 4 1006 81 10000 2.24 292 13:39 24.12.2020
4485 Clouds 4 1006 80 10000 8.49 311 13:18 24.12.2020
4486 Clouds 4 1006 79 10000 7.6 278 12:40 24.12.2020
4487 Clouds 4 1005 80 10000 3.13 52 12:18 24.12.2020
4488 Rain 5 1005 79 10000 5.81 269 11:38 24.12.2020
4489 Rain 6 1005 78 10000 5.81 290 11:19 24.12.2020
4490 Rain 6 1004 81 10000 3.13 194 10:46 24.12.2020
4491 Clouds 7 1004 81 10000 0.45 235 10:27 24.12.2020
4492 Clouds 8 1003 79 10000 7.19 242 09:50 24.12.2020
4493 Clear 8 1004 82 10000 1.79 176 08:58 24.12.2020
4494 Clear 7 1004 86 10000 1.79 186 07:56 24.12.2020
4495 Clear 7 1004 86 10000 0.45 175 07:37 24.12.2020
4496 Clouds 7 1004 84 10000 1.34 255 06:27 24.12.2020
4497 Clouds 10 1004 88 10000 1.34 282 04:24 24.12.2020
4498 Clouds 9 1004 92 10000 0.45 214 01:53 24.12.2020
4499 Clouds 9 1005 92 10000 0.89 160 01:53 24.12.2020
4500 Clouds 9 1005 93 10000 4.53 236 01:28 24.12.2020
4501 Clouds 9 1005 92 10000 4.53 236 00:55 24.12.2020
4502 Clouds 9 1005 92 10000 4.08 250 00:19 24.12.2020
4503 Clouds 9 1005 92 10000 4.08 250 23:40 23.12.2020
4504 Clouds 9 1005 92 10000 5.07 232 23:21 23.12.2020
4505 Clouds 10 1005 92 10000 5.07 232 22:50 23.12.2020
4506 Clouds 10 1005 93 10000 0.89 197 22:29 23.12.2020
4507 Clouds 10 1005 93 10000 0.45 169 21:49 23.12.2020
4508 Clouds 10 1005 93 10000 3.93 218 21:23 23.12.2020
4509 Clouds 10 1005 93 10000 1.34 136 20:47 23.12.2020
4510 Clouds 10 1005 93 10000 1.34 136 20:47 23.12.2020
4511 Clouds 10 1006 93 10000 0.45 187 20:28 23.12.2020
4512 Rain 10 1006 93 10000 0.89 167 19:59 23.12.2020
4513 Rain 10 1006 93 10000 0.89 156 19:38 23.12.2020
4514 Rain 10 1006 93 9707 1.34 169 19:19 23.12.2020
4515 Rain 10 1007 93 5661 0.89 169 18:46 23.12.2020
4516 Rain 10 1007 93 10000 0.89 152 18:21 23.12.2020
4517 Rain 10 1008 93 10000 1.79 159 17:37 23.12.2020
4518 Rain 10 1008 93 10000 1.34 124 17:19 23.12.2020
4519 Rain 9 1009 93 10000 0.45 111 16:42 23.12.2020
4520 Rain 9 1009 92 10000 0.45 146 16:24 23.12.2020
4521 Clouds 9 1009 92 10000 0.45 56 15:50 23.12.2020
4522 Clouds 10 1010 91 10000 2.68 135 15:27 23.12.2020
4523 Clouds 9 1010 91 10000 3.13 179 14:58 23.12.2020
4524 Clouds 9 1010 91 10000 2.24 125 14:39 23.12.2020
4525 Clouds 9 1011 91 10000 3.48 139 14:20 23.12.2020
4526 Clouds 9 1012 90 10000 0.89 199 13:43 23.12.2020
4527 Clouds 9 1012 90 10000 0.89 199 13:19 23.12.2020
4528 Rain 9 1012 89 10000 1.34 107 12:51 23.12.2020
4529 Rain 9 1012 89 10000 0.45 108 12:25 23.12.2020
4530 Clouds 9 1013 88 10000 2.71 126 11:47 23.12.2020
4531 Clouds 9 1014 88 10000 0.89 90 11:19 23.12.2020
4532 Clouds 9 1014 89 10000 0.89 100 10:48 23.12.2020
4533 Clouds 8 1014 89 10000 0.45 103 10:30 23.12.2020
4534 Clouds 8 1015 90 10000 2.53 142 09:35 23.12.2020
4535 Clouds 8 1015 90 10000 2.19 135 08:49 23.12.2020
4536 Clouds 8 1015 90 10000 1.81 123 08:21 23.12.2020
4537 Clouds 8 1015 89 10000 1.81 123 07:37 23.12.2020
4538 Clouds 8 1015 89 10000 1.56 136 06:41 23.12.2020
4539 Clouds 8 1015 89 10000 1.19 105 05:41 23.12.2020
4540 Clouds 8 1015 89 10000 0.14 187 04:59 23.12.2020
4541 Rain 8 1015 89 10000 0.89 290 01:32 23.12.2020
4542 Clouds 8 1016 87 10000 1.45 256 00:25 23.12.2020
4543 Rain 9 1015 86 10000 1.45 256 23:38 22.12.2020
4544 Clouds 9 1016 86 10000 2.06 270 23:20 22.12.2020
4545 Clouds 9 1015 85 10000 2.06 270 22:42 22.12.2020
4546 Clouds 9 1015 84 10000 2.2 268 22:21 22.12.2020
4547 Clouds 9 1015 84 10000 1.34 247 21:45 22.12.2020
4548 Clouds 9 1015 84 10000 2.56 273 21:20 22.12.2020
4549 Clouds 9 1015 84 10000 0.89 302 20:50 22.12.2020
4550 Clouds 9 1015 83 10000 0.45 289 20:31 22.12.2020
4551 Clouds 9 1015 80 10000 3.13 306 19:52 22.12.2020
4552 Clouds 9 1014 80 10000 0.89 287 19:28 22.12.2020
4553 Clouds 10 1014 80 10000 2.68 300 18:58 22.12.2020
4554 Clouds 10 1014 79 10000 4.92 317 18:38 22.12.2020
4555 Clouds 11 1014 84 10000 1.34 314 18:19 22.12.2020
4556 Clouds 11 1014 86 10000 1.79 271 17:38 22.12.2020
4557 Clouds 12 1013 86 10000 2.24 283 17:18 22.12.2020
4558 Clouds 12 1012 84 10000 1.34 282 16:47 22.12.2020
4559 Clouds 12 1012 84 10000 2.24 182 16:47 22.12.2020
4560 Clouds 12 1012 81 10000 4.92 286 16:21 22.12.2020
4561 Clouds 12 1012 81 10000 2.68 249 15:47 22.12.2020
4562 Clouds 13 1011 81 10000 6.71 255 15:29 22.12.2020
4563 Clouds 13 1011 76 10000 8.94 251 14:57 22.12.2020
4564 Clouds 13 1010 77 10000 3.58 268 14:39 22.12.2020
4565 Clouds 14 1010 80 10000 4.02 273 14:19 22.12.2020
4566 Clouds 14 1010 82 10000 0.45 234 13:43 22.12.2020
4567 Clouds 14 1010 84 10000 3.58 255 13:19 22.12.2020
4568 Clouds 14 1010 84 10000 2.24 292 12:52 22.12.2020
4569 Clouds 13 1009 85 10000 3.13 160 12:33 22.12.2020
4570 Clouds 13 1009 84 10000 5.81 251 11:57 22.12.2020
4571 Clouds 13 1009 84 10000 4.02 266 11:39 22.12.2020
4572 Rain 13 1009 79 10000 1.79 280 11:20 22.12.2020
4573 Clouds 13 1009 82 10000 4.92 234 10:51 22.12.2020
4574 Rain 12 1009 83 10000 3.13 213 10:24 22.12.2020
4575 Clouds 11 1008 88 10000 0.45 159 09:56 22.12.2020
4576 Clouds 11 1008 89 10000 2.68 182 09:23 22.12.2020
4577 Clouds 11 1008 89 10000 1.34 327 08:53 22.12.2020
4578 Clouds 10 1008 90 10000 3.13 225 08:32 22.12.2020
4579 Clouds 10 1008 90 10000 5.36 214 07:55 22.12.2020
4580 Clouds 10 1008 90 10000 5.36 214 07:55 22.12.2020
4581 Clouds 9 1008 90 10000 2.68 180 06:58 22.12.2020
4582 Clouds 9 1004 86 10000 2.24 180 05:48 22.12.2020
4583 Clouds 9 1004 86 10000 2.24 180 05:48 22.12.2020
4584 Rain 7 1010 93 10000 3.13 166 03:46 22.12.2020
4585 Rain 7 1011 86 8342 2.24 152 01:35 22.12.2020
4586 Clouds 6 1013 88 10000 1.79 136 23:56 21.12.2020
4587 Clouds 6 1013 89 10000 3.58 104 23:37 21.12.2020
4588 Clouds 6 1013 90 10000 4.47 142 23:18 21.12.2020
4589 Clouds 6 1013 91 10000 6.26 135 22:36 21.12.2020
4590 Clouds 6 1014 91 10000 3.58 145 22:18 21.12.2020
4591 Clouds 6 1015 92 10000 4.47 142 21:42 21.12.2020
4592 Rain 5 1015 92 10000 2.24 145 21:24 21.12.2020
4593 Rain 6 1016 91 10000 4.47 103 20:42 21.12.2020
4594 Rain 5 1016 91 10000 4.02 131 20:20 21.12.2020
4595 Rain 6 1017 91 10000 1.79 159 19:46 21.12.2020
4596 Rain 6 1017 90 10000 3.58 104 19:20 21.12.2020
4597 Clouds 6 1018 89 10000 3.13 128 18:55 21.12.2020
4598 Clouds 6 1018 89 10000 1.79 128 18:36 21.12.2020
4599 Clouds 6 1018 90 10000 1.34 145 18:18 21.12.2020
4600 Clouds 5 1019 91 10000 1.79 166 17:42 21.12.2020
4601 Clouds 5 1019 92 10000 3.13 134 17:22 21.12.2020
4602 Clouds 5 1020 91 10000 3.13 35 16:39 21.12.2020
4603 Clouds 5 1020 91 10000 2.24 139 16:19 21.12.2020
4604 Clouds 5 1020 89 10000 1.34 184 15:41 21.12.2020
4605 Clear 7 1020 88 10000 2.24 172 14:58 21.12.2020
4606 Clear 7 1021 87 10000 3.13 187 14:23 21.12.2020
4607 Clear 8 1021 84 10000 2.24 187 13:54 21.12.2020
4608 Clear 8 1021 85 10000 4.02 149 13:35 21.12.2020
4609 Clouds 9 1021 85 10000 4.47 208 12:59 21.12.2020
4610 Clouds 8 1022 85 10000 3.13 183 12:39 21.12.2020
4611 Clouds 8 1022 87 10000 3.58 194 12:19 21.12.2020
4612 Clouds 7 1022 91 10000 2.24 200 11:43 21.12.2020
4613 Clear 6 1023 92 10000 0.45 135 11:22 21.12.2020
4614 Clear 5 1023 93 10000 3.93 201 10:57 21.12.2020
4615 Clear 4 1023 93 10000 1.34 142 10:39 21.12.2020
4616 Clear 3 1023 93 10000 1.34 162 09:55 21.12.2020
4617 Clear 4 1023 93 10000 1.34 175 09:37 21.12.2020
4618 Clear 3 1023 93 10000 1.34 194 09:19 21.12.2020
4619 Clear 2 1023 94 10000 1.79 169 08:26 21.12.2020
4620 Clouds 3 1023 93 10000 2.91 210 07:19 21.12.2020
4621 Clouds 4 1023 92 10000 1.79 189 05:39 21.12.2020
4622 Clouds 4 1023 93 10000 0.45 94 04:30 21.12.2020
4623 Clouds 5 1022 92 10000 3.26 203 00:37 21.12.2020
4624 Clouds 6 1022 92 10000 3.24 196 23:51 20.12.2020
4625 Clouds 6 1021 92 10000 3.02 202 23:21 20.12.2020
4626 Rain 6 1021 92 10000 3.02 202 22:55 20.12.2020
4627 Rain 6 1021 92 10000 3.02 202 22:37 20.12.2020
4628 Rain 6 1021 91 10000 2.59 218 22:19 20.12.2020
4629 Rain 6 1021 91 10000 2.59 218 21:38 20.12.2020
4630 Rain 6 1021 91 10000 0.45 145 21:19 20.12.2020
4631 Rain 6 1021 90 10000 1.79 169 20:45 20.12.2020
4632 Rain 6 1021 89 10000 1.34 86 20:22 20.12.2020
4633 Rain 6 1020 89 10000 3.27 235 19:44 20.12.2020
4634 Clouds 5 1020 88 10000 3.59 227 19:24 20.12.2020
4635 Clouds 5 1020 88 10000 2.75 192 18:54 20.12.2020
4636 Rain 6 1020 87 10000 2.75 192 18:36 20.12.2020
4637 Rain 6 1020 87 10000 2.75 192 18:36 20.12.2020
4638 Rain 6 1020 86 10000 0.45 100 17:57 20.12.2020
4639 Clouds 5 1020 86 10000 1.34 152 17:39 20.12.2020
4640 Clouds 6 1020 85 10000 1.79 163 17:18 20.12.2020
4641 Clouds 6 1020 83 10000 1.34 241 16:44 20.12.2020
4642 Clouds 6 1020 83 10000 0.89 145 16:24 20.12.2020
4643 Clouds 6 1020 83 10000 0.45 158 15:41 20.12.2020
4644 Clouds 6 1020 82 10000 1.34 215 15:22 20.12.2020
4645 Rain 7 1020 80 10000 0.45 139 14:49 20.12.2020
4646 Rain 7 1020 80 10000 1.79 163 14:29 20.12.2020
4647 Clouds 6 1020 78 10000 1.79 87 13:46 20.12.2020
4648 Clouds 7 1020 79 10000 1.79 136 13:23 20.12.2020
4649 Clouds 6 1020 79 10000 1.79 103 12:54 20.12.2020
4650 Rain 5 1020 79 10000 1.34 98 12:27 20.12.2020
4651 Clouds 5 1020 79 10000 1.79 125 11:57 20.12.2020
4652 Clouds 5 1021 80 10000 2.24 93 11:38 20.12.2020
4653 Clouds 5 1021 80 10000 2.68 110 10:55 20.12.2020
4654 Clouds 4 1021 81 10000 0.89 112 10:37 20.12.2020
4655 Clouds 5 1021 81 10000 1.34 158 10:19 20.12.2020
4656 Clouds 4 1021 82 10000 2.24 57 09:42 20.12.2020
4657 Clouds 4 1021 84 10000 3.68 165 09:24 20.12.2020
4658 Clouds 3 1021 85 10000 0.89 160 08:50 20.12.2020
4659 Clouds 3 1021 86 10000 1.79 153 08:32 20.12.2020
4660 Clouds 3 1020 89 10000 1.79 117 07:23 20.12.2020
4661 Clouds 3 1020 89 10000 2.24 139 05:44 20.12.2020
4662 Clouds 3 1020 90 10000 0.45 156 01:32 20.12.2020
4663 Clouds 3 1020 91 10000 1.79 134 00:22 20.12.2020
4664 Clouds 3 1020 92 10000 0.89 138 23:19 19.12.2020
4665 Clouds 3 1019 92 10000 1.34 145 22:56 19.12.2020
4666 Clouds 3 1019 92 10000 2.68 177 22:37 19.12.2020
4667 Clouds 3 1019 92 10000 2.24 172 22:18 19.12.2020
4668 Clouds 3 1019 92 10000 3.13 153 21:41 19.12.2020
4669 Clouds 3 1019 92 10000 3.13 153 21:41 19.12.2020
4670 Clouds 4 1019 92 10000 3.58 152 21:23 19.12.2020
4671 Clouds 4 1019 92 10000 2.24 146 20:44 19.12.2020
4672 Clouds 4 1019 92 10000 2.68 149 20:21 19.12.2020
4673 Clouds 4 1019 92 10000 3.13 152 19:51 19.12.2020
4674 Clouds 4 1019 92 10000 1.34 136 19:33 19.12.2020
4675 Clouds 4 1019 91 10000 4.83 178 18:41 19.12.2020
4676 Clouds 5 1019 91 10000 1.34 151 18:23 19.12.2020
4677 Clouds 5 1019 91 10000 1.79 149 17:48 19.12.2020
4678 Clear 5 1019 91 10000 1.79 158 17:25 19.12.2020
4679 Clear 6 1019 89 10000 2.68 118 16:55 19.12.2020
4680 Clear 6 1019 89 10000 2.24 162 16:36 19.12.2020
4681 Clear 6 1019 88 10000 2.24 162 16:18 19.12.2020
4682 Clear 7 1019 87 10000 4.31 175 15:47 19.12.2020
4683 Clear 7 1018 85 10000 5.04 176 14:49 19.12.2020
4684 Clear 8 1019 83 10000 5.68 179 14:24 19.12.2020
4685 Clear 8 1019 82 10000 5.68 179 13:42 19.12.2020
4686 Clear 8 1019 83 10000 5.76 177 13:21 19.12.2020
4687 Clear 7 1019 83 10000 5.76 177 12:55 19.12.2020
4688 Clear 7 1019 84 10000 5.83 175 12:37 19.12.2020
4689 Clear 7 1019 85 10000 5.74 174 12:18 19.12.2020
4690 Clear 6 1013 70 10000 5.74 174 11:41 19.12.2020
4691 Clear 4 1020 91 10000 5.81 166 10:48 19.12.2020
4692 Clear 3 1020 92 10000 2.24 142 10:28 19.12.2020
4693 Clear 3 1020 93 10000 0.89 107 10:00 19.12.2020
4694 Clear 2 1020 94 10000 3.13 103 09:40 19.12.2020
4695 Clear 2 1020 94 10000 4.01 161 08:57 19.12.2020
4696 Clear 1 1020 94 10000 0.45 125 08:18 19.12.2020
4697 Clear 1 1021 94 10000 2.68 97 07:19 19.12.2020
4698 Clear 1 1021 94 10000 3.86 165 06:44 19.12.2020
4699 Clear 2 1020 94 10000 1.79 167 05:23 19.12.2020
4700 Clear 2 1021 94 10000 1.34 136 03:48 19.12.2020
4701 Clear 1 1022 93 10000 3.88 170 00:42 19.12.2020
4702 Clear 2 1022 93 10000 0.89 175 00:22 19.12.2020
4703 Clear 2 1022 93 10000 1.34 158 23:52 18.12.2020
4704 Clear 2 1022 93 10000 1.79 100 23:33 18.12.2020
4705 Clear 3 1022 92 10000 3.58 163 22:59 18.12.2020
4706 Clear 3 1022 92 10000 4.05 173 22:41 18.12.2020
4707 Clear 3 1022 93 10000 3.13 136 22:19 18.12.2020
4708 Clear 3 1022 93 10000 2.24 179 21:46 18.12.2020
4709 Clear 3 1022 92 10000 2.68 167 21:25 18.12.2020
4710 Clear 3 1022 91 10000 3.74 178 20:26 18.12.2020
4711 Clear 3 1022 91 10000 0.89 156 19:51 18.12.2020
4712 Clouds 4 1023 90 10000 3.83 180 19:25 18.12.2020
4713 Clouds 4 1023 90 10000 3.83 180 19:25 18.12.2020
4714 Clouds 4 1023 89 10000 1.79 187 18:48 18.12.2020
4715 Clouds 4 1022 90 10000 5.81 158 18:28 18.12.2020
4716 Clouds 5 1023 89 10000 0.89 101 17:59 18.12.2020
4717 Clouds 5 1023 90 10000 1.34 138 17:21 18.12.2020
4718 Clouds 5 1023 90 10000 0.45 134 16:48 18.12.2020
4719 Clouds 6 1024 90 10000 0.45 129 16:26 18.12.2020
4720 Clouds 7 1024 89 10000 1.34 156 15:54 18.12.2020
4721 Clouds 7 1024 88 10000 0.45 121 15:36 18.12.2020
4722 Clouds 7 1024 87 10000 0.89 148 15:18 18.12.2020
4723 Clouds 8 1024 85 10000 3.62 181 14:51 18.12.2020
4724 Clouds 8 1024 83 10000 3.58 191 14:19 18.12.2020
4725 Clouds 9 1024 82 10000 1.79 182 13:45 18.12.2020
4726 Clouds 9 1024 82 10000 0.89 118 13:23 18.12.2020
4727 Clouds 8 1024 83 10000 4.47 183 12:46 18.12.2020
4728 Clouds 8 1024 83 10000 4.47 183 12:46 18.12.2020
4729 Clouds 8 1024 88 10000 4.47 165 11:45 18.12.2020
4730 Clouds 7 1024 91 10000 2.24 182 11:22 18.12.2020
4731 Clouds 5 1025 93 10000 0.45 159 10:39 18.12.2020
4732 Clouds 4 1025 93 10000 0.89 142 10:20 18.12.2020
4733 Clouds 3 1025 93 10000 3.45 194 09:39 18.12.2020
4734 Clouds 3 1025 93 10000 3.17 196 09:21 18.12.2020
4735 Clouds 2 1025 92 10000 0.45 189 08:53 18.12.2020
4736 Clouds 2 1025 92 10000 3.02 199 08:29 18.12.2020
4737 Clouds 3 1025 92 10000 2.24 186 07:39 18.12.2020
4738 Clouds 4 1025 92 10000 0.45 160 07:18 18.12.2020
4739 Clouds 4 1025 92 10000 2.76 203 06:49 18.12.2020
4740 Clouds 4 1025 92 10000 0.89 221 05:41 18.12.2020
4741 Clouds 3 1025 92 10000 0.89 179 04:51 18.12.2020
4742 Clear 6 1024 90 10000 3.02 211 01:58 18.12.2020
4743 Clear 6 1024 90 10000 3.02 211 01:39 18.12.2020
4744 Clouds 7 1023 85 10000 0.45 232 23:59 17.12.2020
4745 Clouds 7 1023 86 10000 0.89 215 23:37 17.12.2020
4746 Clouds 7 1023 87 10000 3.13 241 23:18 17.12.2020
4747 Clouds 7 1023 88 10000 0.45 162 22:45 17.12.2020
4748 Clear 7 1023 89 10000 1.79 190 22:26 17.12.2020
4749 Clear 7 1023 86 10000 1.79 208 21:43 17.12.2020
4750 Clear 7 1023 86 10000 1.79 208 21:43 17.12.2020
4751 Clear 7 1023 85 10000 1.34 155 21:19 17.12.2020
4752 Clear 7 1023 85 10000 4.02 204 20:42 17.12.2020
4753 Clear 7 1022 86 10000 2.24 142 20:19 17.12.2020
4754 Clear 7 1022 86 10000 4.47 165 19:48 17.12.2020
4755 Clouds 7 1022 87 10000 1.79 182 19:24 17.12.2020
4756 Clouds 7 1022 89 10000 2.68 197 18:47 17.12.2020
4757 Clouds 7 1022 87 10000 0.45 179 18:27 17.12.2020
4758 Clouds 8 1021 84 10000 1.79 162 17:58 17.12.2020
4759 Clouds 8 1021 85 10000 3.13 187 17:36 17.12.2020
4760 Clouds 8 1021 86 10000 2.68 190 17:18 17.12.2020
4761 Clouds 8 1021 85 10000 1.34 158 16:37 17.12.2020
4762 Clouds 9 1021 83 10000 2.68 199 16:18 17.12.2020
4763 Clouds 9 1020 82 10000 4.47 230 15:42 17.12.2020
4764 Clouds 9 1020 83 10000 1.79 210 15:23 17.12.2020
4765 Rain 9 1020 83 10000 2.24 186 14:47 17.12.2020
4766 Rain 9 1019 81 10000 0.89 275 14:20 17.12.2020
4767 Rain 10 1019 80 10000 1.34 206 13:42 17.12.2020
4768 Clouds 10 1019 80 10000 4.75 219 13:18 17.12.2020
4769 Rain 9 1019 81 10000 2.68 196 12:40 17.12.2020
4770 Clouds 9 1019 81 10000 3.58 151 12:21 17.12.2020
4771 Clouds 9 1019 83 10000 2.24 153 11:42 17.12.2020
4772 Clouds 8 1019 82 10000 3.58 177 11:21 17.12.2020
4773 Clouds 7 1019 84 10000 1.34 143 10:44 17.12.2020
4774 Clouds 6 1019 89 10000 3.13 148 09:37 17.12.2020
4775 Clouds 6 1019 90 10000 4.45 177 08:52 17.12.2020
4776 Clouds 6 1019 92 10000 4.02 187 07:44 17.12.2020
4777 Clouds 6 1019 92 10000 3.13 135 07:25 17.12.2020
4778 Rain 6 1019 92 10000 1.79 91 06:49 17.12.2020
4779 Rain 6 1019 92 10000 1.34 119 06:30 17.12.2020
4780 Clouds 4 1019 92 10000 4.38 177 03:31 17.12.2020
4781 Clear 7 1019 87 10000 2.24 149 00:28 17.12.2020
4782 Clear 7 1019 86 10000 4.47 172 23:42 16.12.2020
4783 Clear 7 1019 87 10000 4.02 135 23:19 16.12.2020
4784 Clear 7 1019 86 10000 5.36 134 22:49 16.12.2020
4785 Clear 7 1019 86 10000 2.24 139 22:31 16.12.2020
4786 Clear 7 1020 87 10000 1.34 112 21:45 16.12.2020
4787 Clear 7 1020 89 10000 1.79 149 21:25 16.12.2020
4788 Clear 7 1020 91 10000 2.68 127 20:52 16.12.2020
4789 Clear 7 1020 91 10000 3.58 122 20:20 16.12.2020
4790 Clear 8 1020 91 10000 1.34 97 19:45 16.12.2020
4791 Clear 8 1020 92 10000 0.45 146 19:18 16.12.2020
4792 Clear 8 1020 92 10000 6.26 76 18:52 16.12.2020
4793 Clear 8 1020 90 10000 2.24 104 18:27 16.12.2020
4794 Clear 9 1020 88 10000 3.53 126 17:43 16.12.2020
4795 Clear 8 1020 91 10000 2.24 160 16:58 16.12.2020
4796 Clear 8 1020 90 10000 1.34 98 16:39 16.12.2020
4797 Clear 9 1020 88 10000 1.34 117 16:20 16.12.2020
4798 Clear 9 1020 87 10000 2.24 97 15:49 16.12.2020
4799 Clear 10 1020 86 10000 1.79 101 15:24 16.12.2020
4800 Clear 10 1020 85 10000 1.79 98 14:46 16.12.2020
4801 Clear 10 1020 85 10000 1.79 153 14:28 16.12.2020
4802 Clear 10 1020 85 10000 1.34 160 13:45 16.12.2020
4803 Clouds 11 1020 84 10000 1.34 101 13:27 16.12.2020
4804 Clouds 11 1020 85 10000 3.13 31 12:55 16.12.2020
4805 Clouds 10 1020 88 10000 2.24 25 12:34 16.12.2020
4806 Clouds 10 1020 87 10000 3.16 126 11:39 16.12.2020
4807 Clouds 9 1020 86 10000 2.24 97 11:20 16.12.2020
4808 Clouds 9 1021 88 10000 3.16 126 10:43 16.12.2020
4809 Clouds 9 1021 90 10000 2.02 116 10:19 16.12.2020
4810 Clouds 8 1020 91 10000 2.02 116 09:40 16.12.2020
4811 Clouds 8 1020 91 10000 0.84 132 08:27 16.12.2020
4812 Clouds 8 1020 91 10000 0.84 132 07:52 16.12.2020
4813 Clouds 8 1020 91 10000 0.84 132 07:33 16.12.2020
4814 Clouds 8 1019 91 10000 0.82 166 06:41 16.12.2020
4815 Clouds 9 1018 89 10000 2.09 279 02:26 16.12.2020
4816 Clouds 9 1016 89 10000 2.83 268 00:26 16.12.2020
4817 Clouds 8 1015 89 10000 2.83 268 23:44 15.12.2020
4818 Clouds 8 1015 89 10000 0.45 259 22:47 15.12.2020
4819 Clouds 8 1014 89 10000 2.83 237 22:25 15.12.2020
4820 Clouds 8 1014 89 10000 0.45 235 21:57 15.12.2020
4821 Clouds 8 1014 89 10000 0.45 166 21:37 15.12.2020
4822 Clouds 8 1014 89 10000 0.89 213 21:19 15.12.2020
4823 Clouds 8 1014 89 10000 1.34 136 20:42 15.12.2020
4824 Clouds 8 1014 88 10000 2.24 193 20:23 15.12.2020
4825 Clouds 8 1013 88 10000 1.79 146 19:51 15.12.2020
4826 Rain 8 1013 88 10000 1.79 184 19:26 15.12.2020
4827 Rain 8 1013 87 10000 1.34 162 18:39 15.12.2020
4828 Rain 8 1012 87 10000 2.68 135 18:21 15.12.2020
4829 Rain 8 1012 87 10000 2.68 135 18:21 15.12.2020
4830 Rain 8 1012 86 10000 2.68 135 17:44 15.12.2020
4831 Rain 8 1012 85 10000 2.24 199 17:23 15.12.2020
4832 Rain 8 1012 83 10000 2.68 152 16:43 15.12.2020
4833 Rain 8 1012 83 10000 0.89 211 16:25 15.12.2020
4834 Clouds 9 1012 80 10000 1.79 165 15:38 15.12.2020
4835 Clouds 9 1011 79 10000 3.13 143 15:18 15.12.2020
4836 Clouds 10 1011 79 10000 4.92 149 14:42 15.12.2020
4837 Clouds 10 1011 78 10000 1.34 149 14:20 15.12.2020
4838 Clouds 10 1011 77 10000 1.79 206 13:51 15.12.2020
4839 Clouds 8 1013 74 10000 0.45 228 13:26 15.12.2020
4840 Clouds 9 1011 75 10000 1.34 139 12:46 15.12.2020
4841 Clouds 9 1012 76 10000 1.34 155 12:20 15.12.2020
4842 Clouds 9 1012 76 10000 2.24 159 11:52 15.12.2020
4843 Clouds 8 1012 76 10000 1.79 115 11:25 15.12.2020
4844 Clouds 8 1012 78 10000 3.58 139 10:52 15.12.2020
4845 Clouds 7 1011 78 10000 1.79 153 10:21 15.12.2020
4846 Clouds 7 1012 79 10000 3.58 64 09:45 15.12.2020
4847 Clouds 6 1012 81 10000 0.45 125 09:27 15.12.2020
4848 Rain 5 1012 83 10000 2.68 118 08:47 15.12.2020
4849 Rain 5 1012 82 10000 3.58 146 08:25 15.12.2020
4850 Clouds 5 1011 82 10000 1.79 103 07:49 15.12.2020
4851 Clouds 5 1011 82 10000 2.68 162 07:23 15.12.2020
4852 Clouds 4 1011 85 10000 1.79 203 06:28 15.12.2020
4853 Clouds 6 1012 84 10000 4.02 146 02:55 15.12.2020
4854 Clouds 7 1012 83 10000 1.34 125 00:34 15.12.2020
4855 Clouds 7 1012 82 10000 3.58 176 23:26 14.12.2020
4856 Clouds 7 1012 81 10000 2.68 112 22:55 14.12.2020
4857 Clouds 7 1012 81 10000 3.58 145 22:32 14.12.2020
4858 Clouds 7 1012 82 10000 4.02 146 21:45 14.12.2020
4859 Clouds 7 1012 81 10000 4.47 177 21:22 14.12.2020
4860 Clouds 8 1012 81 10000 3.58 114 20:51 14.12.2020
4861 Clouds 8 1012 81 10000 1.79 156 20:30 14.12.2020
4862 Clouds 7 1011 82 10000 2.24 166 19:53 14.12.2020
4863 Clouds 8 1012 83 10000 3.13 162 19:29 14.12.2020
4864 Clouds 7 1012 84 10000 4.92 127 18:51 14.12.2020
4865 Clouds 7 1011 84 10000 5.36 166 18:30 14.12.2020
4866 Clouds 8 1012 84 10000 2.24 138 17:46 14.12.2020
4867 Clouds 8 1012 84 10000 3.13 142 17:24 14.12.2020
4868 Clouds 8 1012 85 10000 2.24 158 16:50 14.12.2020
4869 Clouds 8 1012 85 10000 2.68 146 16:29 14.12.2020
4870 Clouds 8 1012 81 10000 2.24 159 15:40 14.12.2020
4871 Clouds 8 1012 80 10000 1.79 143 15:20 14.12.2020
4872 Clouds 9 1012 77 10000 1.79 173 14:43 14.12.2020
4873 Clouds 9 1012 76 10000 3.58 207 14:24 14.12.2020
4874 Clouds 9 1012 77 10000 6.71 141 13:43 14.12.2020
4875 Clouds 9 1012 78 10000 1.79 172 13:20 14.12.2020
4876 Clouds 9 1012 78 10000 4.02 151 12:52 14.12.2020
4877 Clouds 9 1012 79 10000 2.68 165 12:28 14.12.2020
4878 Clouds 8 1012 83 10000 5.36 125 11:35 14.12.2020
4879 Clouds 6 1013 90 10000 3.58 110 10:40 14.12.2020
4880 Clouds 6 1013 91 10000 4.47 158 10:21 14.12.2020
4881 Clouds 5 1013 93 10000 2.68 129 09:44 14.12.2020
4882 Clouds 4 1013 94 10000 0.89 151 08:48 14.12.2020
4883 Clouds 4 1013 94 10000 4.02 142 08:30 14.12.2020
4884 Clouds 3 1013 94 10000 0.89 165 07:45 14.12.2020
4885 Clouds 3 1013 94 10000 0.45 71 06:48 14.12.2020
4886 Clouds 3 1013 93 10000 3.73 173 05:37 14.12.2020
4887 Clouds 3 1014 93 10000 0.45 111 03:29 14.12.2020
4888 Clouds 4 1014 93 10000 2.92 191 00:57 14.12.2020
4889 Clouds 4 1014 93 10000 1.79 162 00:34 14.12.2020
4890 Clouds 4 1014 94 10000 2.34 176 23:58 13.12.2020
4891 Clouds 4 1014 93 10000 1.34 155 23:40 13.12.2020
4892 Clouds 5 1014 93 10000 0.89 163 22:51 13.12.2020
4893 Clouds 5 1013 94 10000 2 189 22:21 13.12.2020
4894 Clouds 5 1013 94 10000 2 189 21:50 13.12.2020
4895 Clouds 5 1013 94 10000 1.63 182 21:29 13.12.2020
4896 Clouds 5 1013 94 10000 0.89 162 20:49 13.12.2020
4897 Clouds 5 1013 94 10000 0.9 188 20:25 13.12.2020
4898 Clouds 4 1013 93 10000 0.9 188 19:45 13.12.2020
4899 Clouds 4 1013 91 10000 1.33 232 19:22 13.12.2020
4900 Clouds 5 1013 91 10000 0.96 231 18:44 13.12.2020
4901 Clouds 5 1013 91 10000 1.01 223 18:22 13.12.2020
4902 Clouds 5 1013 92 10000 1.01 223 17:59 13.12.2020
4903 Clouds 5 1013 92 10000 1.01 223 17:41 13.12.2020
4904 Clouds 5 1012 92 10000 0.78 200 17:18 13.12.2020
4905 Clouds 5 1012 91 10000 0.78 200 16:42 13.12.2020
4906 Clouds 5 1012 90 10000 0.61 182 16:21 13.12.2020
4907 Clouds 5 1012 90 10000 0.61 182 15:45 13.12.2020
4908 Clouds 5 1012 90 10000 0.61 182 15:45 13.12.2020
4909 Clouds 5 1012 90 10000 0.61 182 15:45 13.12.2020
4910 Clouds 5 1012 90 10000 0.61 182 15:45 13.12.2020
4911 Clouds 5 1012 90 10000 0.61 182 15:45 13.12.2020
4912 Clouds 5 1012 89 10000 0.71 148 15:25 13.12.2020
4913 Clouds 5 1012 88 10000 0.71 148 14:46 13.12.2020
4914 Clouds 5 1012 88 10000 1.11 132 14:28 13.12.2020
4915 Clouds 5 1011 88 10000 1.11 132 13:46 13.12.2020
4916 Clouds 5 1011 88 10000 0.9 133 13:27 13.12.2020
4917 Clouds 5 1011 88 10000 0.7 118 12:55 13.12.2020
4918 Clouds 5 1011 88 10000 0.91 150 12:24 13.12.2020
4919 Clouds 5 1011 88 10000 0.91 150 12:24 13.12.2020
4920 Clouds 5 1011 87 10000 1.79 29 11:58 13.12.2020
4921 Clouds 5 1011 87 10000 0.91 150 11:31 13.12.2020
4922 Clouds 5 1011 87 10000 1.08 124 10:43 13.12.2020
4923 Clouds 5 1011 88 10000 0.9 117 10:21 13.12.2020
4924 Clouds 4 1011 89 10000 0.9 117 09:38 13.12.2020
4925 Clouds 4 1010 90 10000 0.93 91 08:47 13.12.2020
4926 Clouds 4 1010 90 10000 0.79 68 08:28 13.12.2020
4927 Clouds 4 1010 90 10000 0.67 58 07:19 13.12.2020
4928 Clouds 4 1007 90 10000 0.99 93 02:44 13.12.2020
4929 Clouds 4 1007 91 10000 1.07 95 02:20 13.12.2020
4930 Clouds 4 1006 90 10000 0.45 15 01:34 13.12.2020
4931 Clouds 4 1006 91 10000 1.51 89 00:44 13.12.2020
4932 Clouds 4 1006 92 10000 1.68 86 23:40 12.12.2020
4933 Clouds 4 1005 92 10000 1.43 95 23:20 12.12.2020
4934 Clouds 4 1005 92 10000 1.43 95 22:34 12.12.2020
4935 Clouds 4 1004 92 10000 1.42 113 21:47 12.12.2020
4936 Clouds 4 1004 93 10000 1.86 120 21:20 12.12.2020
4937 Clouds 4 1004 93 10000 1.86 120 20:46 12.12.2020
4938 Clouds 4 1004 93 10000 2.21 116 20:21 12.12.2020
4939 Clouds 4 1004 93 10000 2.21 116 19:53 12.12.2020
4940 Clouds 4 1003 93 10000 2.21 116 19:34 12.12.2020
4941 Clouds 4 1003 93 10000 2.57 115 18:58 12.12.2020
4942 Clouds 4 1003 93 10000 2.57 115 18:38 12.12.2020
4943 Clouds 4 1003 93 10000 0.89 139 18:20 12.12.2020
4944 Clouds 4 1002 93 10000 2.24 95 17:41 12.12.2020
4945 Clouds 4 1002 92 10000 1.34 77 16:45 12.12.2020
4946 Clouds 4 1002 92 10000 1.34 77 16:45 12.12.2020
4947 Clouds 4 1002 91 10000 2.95 125 15:58 12.12.2020
4948 Clouds 4 1002 91 10000 2.95 125 15:58 12.12.2020
4949 Clouds 4 1001 91 10000 0.89 117 15:40 12.12.2020
4950 Rain 4 1001 91 10000 1.34 97 14:54 12.12.2020
4951 Rain 4 1001 91 10000 2.24 69 14:35 12.12.2020
4952 Rain 4 1001 90 10000 0.89 173 13:46 12.12.2020
4953 Rain 4 1001 90 10000 0.89 114 13:26 12.12.2020
4954 Rain 4 1000 90 10000 0.89 64 12:43 12.12.2020
4955 Rain 3 1000 90 10000 2.68 88 11:39 12.12.2020
4956 Rain 3 1000 90 10000 2.24 121 10:51 12.12.2020
4957 Rain 3 1000 90 10000 0.45 115 09:31 12.12.2020
4958 Rain 2 999 92 10000 1.34 129 08:42 12.12.2020
4959 Clouds 1 998 89 10000 1.34 175 02:28 12.12.2020
4960 Clouds 2 998 89 10000 3.58 114 23:53 11.12.2020
4961 Clouds 3 998 89 10000 2.24 100 22:21 11.12.2020
4962 Clouds 3 998 87 10000 2.68 103 20:25 11.12.2020
4963 Clouds 3 999 89 10000 3.13 128 17:40 11.12.2020
4964 Clouds 3 1000 86 10000 2.68 94 14:41 11.12.2020
4965 Clouds 3 1001 86 10000 3.13 104 13:58 11.12.2020
4966 Clouds 3 1001 87 10000 2.24 127 12:49 11.12.2020
4967 Clouds 3 1002 88 10000 3.13 175 11:58 11.12.2020
4968 Clouds 3 1002 89 10000 3.58 138 11:38 11.12.2020
4969 Clouds 2 1003 90 10000 2.24 111 10:44 11.12.2020
4970 Clouds 2 1004 91 10000 4.47 115 08:43 11.12.2020
4971 Clouds 2 1005 91 10000 2.68 158 05:40 11.12.2020
4972 Clouds 2 1005 91 10000 3.13 111 04:51 11.12.2020
4973 Clouds 2 1007 93 10000 3.58 125 01:32 11.12.2020
4974 Clouds 2 1007 93 10000 2.24 111 00:20 11.12.2020
4975 Clouds 2 1007 92 10000 0.45 111 22:44 10.12.2020
4976 Clouds 2 1008 92 10000 2.24 152 21:36 10.12.2020
4977 Clouds 2 1008 92 10000 2.24 108 20:41 10.12.2020
4978 Clouds 2 1008 92 10000 2.67 118 19:37 10.12.2020
4979 Clouds 2 1008 92 10000 2.79 116 18:53 10.12.2020
4980 Clouds 2 1008 91 10000 1.34 105 17:54 10.12.2020
4981 Clouds 2 1008 91 10000 1.34 73 16:30 10.12.2020
4982 Clouds 2 1008 91 10000 1.34 47 15:27 10.12.2020
4983 Clouds 2 1008 91 10000 0.45 66 14:51 10.12.2020
4984 Clouds 2 1008 90 10000 2.34 65 14:27 10.12.2020
4985 Clouds 3 1008 90 10000 2.45 78 12:54 10.12.2020
4986 Clouds 2 1009 91 10000 2.68 78 11:39 10.12.2020
4987 Clouds 2 1010 93 10000 3.13 81 08:52 10.12.2020
4988 Clouds 2 1010 92 10000 0.89 60 07:48 10.12.2020
4989 Clouds 3 1010 93 10000 0.89 26 06:42 10.12.2020
4990 Clouds 4 1010 93 10000 3.33 77 03:36 10.12.2020
4991 Clouds 4 1010 93 10000 1.34 12 02:23 10.12.2020
4992 Clouds 4 1011 94 10000 1.83 30 00:22 10.12.2020
4993 Rain 4 1011 94 10000 1.77 33 22:48 09.12.2020
4994 Rain 4 1011 94 10000 1.5 329 20:30 09.12.2020
4995 Rain 4 1011 94 10000 0.28 330 19:32 09.12.2020
4996 Clouds 4 1011 93 10000 0.21 96 17:44 09.12.2020
4997 Clouds 4 1010 93 10000 0.63 120 16:52 09.12.2020
4998 Clouds 4 1010 93 10000 0.5 124 16:23 09.12.2020
4999 Clouds 5 1010 93 10000 0.5 124 15:31 09.12.2020
5000 Clouds 5 1010 93 10000 0.68 128 14:40 09.12.2020
5001 Clouds 5 1010 94 10000 0.88 147 14:18 09.12.2020
5002 Clouds 4 1010 94 10000 1.39 135 13:19 09.12.2020
5003 Clouds 4 1010 94 10000 1.39 135 12:45 09.12.2020
5004 Clouds 4 1010 94 10000 1.52 131 11:53 09.12.2020
5005 Clouds 4 1010 95 10000 1.89 119 11:23 09.12.2020
5006 Clouds 3 1010 95 10000 2.1 94 09:39 09.12.2020
5007 Clouds 3 1010 95 10000 2.36 81 07:57 09.12.2020
5008 Rain 3 1009 95 10000 2.23 93 05:57 09.12.2020
5009 Clouds 3 1009 92 10000 2.38 75 04:20 09.12.2020
5010 Rain 2 1009 93 10000 1.79 11 01:59 09.12.2020
5011 Clouds 2 1008 95 10000 0.89 18 23:44 08.12.2020
5012 Clouds 2 1008 94 10000 1.34 25 23:21 08.12.2020
5013 Clouds 1 1008 94 10000 0.45 4 21:30 08.12.2020
5014 Clouds 2 1007 93 10000 1.79 14 19:46 08.12.2020
5015 Clouds 2 1007 93 10000 1.79 14 19:46 08.12.2020
5016 Clouds 2 1007 92 10000 0.89 354 18:59 08.12.2020
5017 Clear 2 1007 92 10000 2.8 90 18:27 08.12.2020
5018 Clear 4 1006 88 10000 2.28 88 15:54 08.12.2020
5019 Clear 7 1006 81 10000 2.07 107 14:31 08.12.2020
5020 Clouds 7 1006 77 10000 4.02 93 13:36 08.12.2020
5021 Clouds 7 1006 80 10000 1.79 100 12:32 08.12.2020
5022 Clouds 7 1006 81 10000 2.68 91 11:52 08.12.2020
5023 Clouds 6 1006 85 10000 2.34 123 10:49 08.12.2020
5024 Clouds 4 1006 86 10000 1.34 348 10:29 08.12.2020
5025 Clouds 3 1006 87 10000 1.98 88 08:57 08.12.2020
5026 Clouds 4 1006 86 10000 1.73 58 07:25 08.12.2020
5027 Clouds 4 1006 85 10000 1 98 03:43 08.12.2020
5028 Clouds 3 1006 88 10000 1.94 115 01:36 08.12.2020
5029 Clouds 4 1006 87 10000 1.97 118 00:43 08.12.2020
5030 Clouds 5 1005 83 10000 1.34 148 22:48 07.12.2020
5031 Clouds 4 1005 86 10000 2.08 153 21:58 07.12.2020
5032 Clouds 6 1005 80 10000 2.16 167 20:45 07.12.2020
5033 Clouds 6 1004 80 10000 2.24 167 18:48 07.12.2020
5034 Clouds 6 1004 77 10000 3.58 175 17:31 07.12.2020
5035 Clouds 6 1003 77 10000 2.24 152 16:56 07.12.2020
5036 Clouds 6 1003 78 10000 1.34 176 16:19 07.12.2020
5037 Clouds 7 1002 78 10000 2.68 148 15:24 07.12.2020
5038 Clouds 7 1002 76 10000 1.34 170 14:26 07.12.2020
5039 Clouds 7 1001 74 10000 1.34 141 13:34 07.12.2020
5040 Clouds 7 1001 75 10000 2.68 194 11:52 07.12.2020
5041 Clouds 7 1001 76 10000 3.58 199 11:32 07.12.2020
5042 Clouds 7 1000 80 10000 4.92 141 10:22 07.12.2020
5043 Clouds 8 998 87 10000 3.58 183 08:37 07.12.2020
5044 Clouds 8 997 81 10000 4.92 107 07:23 07.12.2020
5045 Clouds 6 997 91 10000 0.89 80 05:26 07.12.2020
5046 Clouds 9 997 83 10000 1.34 147 03:43 07.12.2020
5047 Clouds 8 998 84 10000 2.68 103 00:33 07.12.2020
5048 Clouds 8 998 85 10000 2.68 147 22:48 06.12.2020
5049 Clouds 7 997 82 10000 4.79 117 21:44 06.12.2020
5050 Clouds 7 1006 86 10000 0.45 313 20:41 06.12.2020
5051 Clouds 4 999 91 10000 2.36 78 20:19 06.12.2020
5052 Clouds 4 999 91 10000 1.93 71 19:20 06.12.2020
5053 Clouds 4 999 92 10000 1.19 255 17:28 06.12.2020
5054 Clouds 4 999 92 10000 1.19 255 16:33 06.12.2020
5055 Clouds 6 1000 91 10000 1.32 158 14:49 06.12.2020
5056 Clouds 6 1000 88 10000 1.92 131 12:59 06.12.2020
5057 Clouds 6 1001 88 10000 1.17 135 12:30 06.12.2020
5058 Clouds 5 1001 89 10000 1.63 61 11:42 06.12.2020
5059 Clouds 4 1001 90 10000 1.03 68 11:23 06.12.2020
5060 Clouds 4 1001 89 10000 0.89 313 10:34 06.12.2020
5061 Clouds 3 1002 92 10000 2.77 37 08:59 06.12.2020
5062 Clouds 3 1002 92 10000 0.45 337 07:29 06.12.2020
5063 Clouds 3 1003 92 10000 0.45 287 04:47 06.12.2020
5064 Clouds 3 1004 91 10000 4.14 50 00:45 06.12.2020
5065 Clouds 3 1004 90 10000 0.89 327 00:26 06.12.2020
5066 Clouds 3 1004 92 10000 1.34 21 23:55 05.12.2020
5067 Rain 3 1004 94 10000 1.37 38 22:24 05.12.2020
5068 Rain 3 1004 91 10000 1.79 307 21:55 05.12.2020
5069 Rain 3 1005 86 10000 0.75 71 21:28 05.12.2020
5070 Rain 3 1005 85 10000 0.77 122 19:54 05.12.2020
5071 Rain 3 1004 86 10000 1.61 165 18:46 05.12.2020
5072 Clouds 2 1004 85 10000 0.45 98 17:51 05.12.2020
5073 Clouds 3 1004 85 10000 0.45 104 16:45 05.12.2020
5074 Clouds 3 1004 84 10000 0.45 94 16:26 05.12.2020
5075 Clouds 5 1003 79 10000 0.89 122 14:52 05.12.2020
5076 Clouds 5 1002 76 10000 1.79 211 13:25 05.12.2020
5077 Clouds 5 1000 75 10000 1.34 127 11:50 05.12.2020
5078 Clouds 3 999 80 10000 4.02 183 10:35 05.12.2020
5079 Clouds 2 998 90 10000 1.34 163 09:31 05.12.2020
5080 Clouds 1 996 91 10000 3.21 173 07:48 05.12.2020
5081 Clouds 1 996 91 10000 3.02 107 05:34 05.12.2020
5082 Clouds 0 995 90 10000 2.07 105 00:55 05.12.2020
5083 Clouds 1 995 90 10000 1.94 133 23:39 04.12.2020
5084 Clouds 1 994 89 10000 0.45 8 21:37 04.12.2020
5085 Clouds 1 995 87 10000 1.34 62 19:35 04.12.2020
5086 Clouds 0 994 86 10000 2.37 90 18:40 04.12.2020
5087 Clouds 1 995 84 10000 2.58 121 17:48 04.12.2020
5088 Clouds 2 994 81 10000 3.54 113 16:52 04.12.2020
5089 Clouds 4 994 73 10000 1.79 143 15:26 04.12.2020
5090 Clouds 3 994 74 10000 2.68 87 13:38 04.12.2020
5091 Clouds 3 994 74 10000 3.13 141 13:20 04.12.2020
5092 Clouds 3 994 74 10000 3.13 132 12:41 04.12.2020
5093 Clouds 1 995 77 10000 3.13 239 10:38 04.12.2020
5094 Clouds 1 995 79 10000 3.13 118 09:30 04.12.2020
5095 Clouds 0 994 79 10000 2.68 115 06:40 04.12.2020
5096 Clouds 0 995 79 10000 2.24 118 05:20 04.12.2020
5097 Clouds 0 996 81 10000 2.68 166 01:54 04.12.2020
5098 Clear 0 998 84 10000 2.68 118 22:51 03.12.2020
5099 Clear 0 998 83 10000 2.24 145 21:56 03.12.2020
5100 Clear 1 999 81 10000 7.15 151 20:47 03.12.2020
5101 Clouds 2 1000 80 10000 5.36 180 19:26 03.12.2020
5102 Clouds 2 996 10 10000 4.84 164 18:49 03.12.2020
5103 Clouds 1 1001 80 10000 6.26 177 17:38 03.12.2020
5104 Clouds 1 1001 80 10000 1.79 100 17:18 03.12.2020
5105 Clouds 2 1002 80 10000 2.68 175 15:45 03.12.2020
5106 Clouds 2 1002 76 10000 3.13 119 15:27 03.12.2020
5107 Clouds 3 1003 74 10000 4.47 122 14:35 03.12.2020
5108 Clouds 2 1004 73 10000 3.58 105 13:36 03.12.2020
5109 Clouds 2 1005 71 10000 9.39 159 12:26 03.12.2020
5110 Clouds 2 1006 73 10000 2.24 50 11:24 03.12.2020
5111 Clouds 1 1008 80 10000 3.58 162 09:33 03.12.2020
5112 Clear 0 1010 84 10000 3.58 90 05:23 03.12.2020
5113 Clear -1 1012 86 10000 2.7 161 02:27 03.12.2020
5114 Clear -1 1013 88 10000 1.79 141 00:48 03.12.2020
5115 Clear -2 1014 91 10000 0.45 160 22:47 02.12.2020
5116 Clear -3 1014 91 10000 2.68 147 22:26 02.12.2020
5117 Clear -2 1015 90 10000 2.63 147 21:18 02.12.2020
5118 Clear -2 1015 90 10000 2.63 147 20:44 02.12.2020
5119 Clear -2 1015 90 10000 2.48 139 20:26 02.12.2020
5120 Clear -2 1016 90 10000 2.72 128 18:39 02.12.2020
5121 Clear -1 1016 89 10000 2.59 123 17:47 02.12.2020
5122 Clear -1 1016 88 10000 2.48 122 17:28 02.12.2020
5123 Clear 1 1017 81 10000 0.89 74 15:23 02.12.2020
5124 Clear 3 1019 78 10000 1.34 55 12:45 02.12.2020
5125 Clear 1 1021 87 10000 0.45 63 10:29 02.12.2020
5126 Clear -1 1022 91 10000 0.45 25 09:32 02.12.2020
5127 Clear 0 1022 90 10000 1.99 104 05:53 02.12.2020
5128 Clouds 4 1021 83 10000 0.89 35 22:54 01.12.2020
5129 Clouds 4 1021 83 10000 0.45 49 22:18 01.12.2020
5130 Clouds 4 1020 83 10000 0.45 53 19:36 01.12.2020
5131 Clouds 4 1020 83 10000 0.45 57 18:45 01.12.2020
5132 Clouds 4 1018 82 10000 1.79 88 16:47 01.12.2020
5133 Clouds 5 1017 80 10000 3.58 108 14:21 01.12.2020
5134 Clouds 5 1016 78 10000 1.79 107 12:29 01.12.2020
5135 Clouds 5 1015 79 10000 1.79 151 11:28 01.12.2020
5136 Clouds 4 1015 81 10000 2.68 173 10:46 01.12.2020
5137 Clouds 4 1015 81 10000 0.89 64 10:25 01.12.2020
5138 Clouds 3 1014 86 10000 2.68 101 07:26 01.12.2020
5139 Rain 3 1014 86 10000 3.58 146 02:41 01.12.2020
5140 Rain 3 1015 86 10000 4.4 187 00:57 01.12.2020
5141 Rain 4 1016 78 10000 1.34 247 23:49 30.11.2020
5142 Rain 4 1016 73 10000 2.24 179 23:18 30.11.2020
5143 Rain 4 1016 72 10000 3.36 197 22:36 30.11.2020
5144 Clouds 4 1016 73 10000 1.34 136 22:18 30.11.2020
5145 Clouds 3 1018 76 10000 0.45 139 19:46 30.11.2020
5146 Clouds 4 1019 75 10000 2.24 207 18:54 30.11.2020
5147 Clouds 3 1019 77 10000 3.13 158 18:21 30.11.2020
5148 Clouds 3 1020 76 10000 2.88 195 17:45 30.11.2020
5149 Clear 4 1021 74 10000 2.69 184 16:52 30.11.2020
5150 Clear 5 1022 67 10000 1.34 182 14:48 30.11.2020
5151 Clear 6 1023 64 10000 0.45 101 13:55 30.11.2020
5152 Clouds 6 1024 63 10000 2.68 194 12:59 30.11.2020
5153 Clouds 6 1025 64 10000 2.24 214 12:25 30.11.2020
5154 Clouds 5 1026 70 10000 1.79 163 11:34 30.11.2020
5155 Clouds 4 1027 75 10000 0.45 180 10:24 30.11.2020
5156 Clouds 3 1027 80 10000 2.1 242 08:53 30.11.2020
5157 Clouds 4 1027 87 10000 1.8 293 01:28 30.11.2020
5158 Clouds 4 1027 86 10000 0.45 306 23:28 29.11.2020
5159 Clouds 3 1023 10 10000 1.96 298 21:44 29.11.2020
5160 Clouds 3 1023 10 10000 2.06 304 21:26 29.11.2020
5161 Clouds 3 1023 10 10000 2.06 304 21:26 29.11.2020
5162 Clear 3 1023 10 10000 2.09 314 19:19 29.11.2020
5163 Clear 4 1023 10 10000 2.3 326 17:34 29.11.2020
5164 Clear 5 1027 80 10000 2.68 314 14:46 29.11.2020
5165 Clouds 6 1027 81 10000 0.45 316 12:45 29.11.2020
5166 Clouds 4 1028 85 10000 2.15 339 11:37 29.11.2020
5167 Clouds 1 1028 93 10000 1.64 342 08:54 29.11.2020
5168 Clouds 1 1028 93 10000 1.64 342 08:35 29.11.2020
5169 Clear 3 1023 10 10000 2.06 20 02:32 29.11.2020
5170 Clouds 3 1027 82 10000 1.77 68 23:18 28.11.2020
5171 Clouds 3 1027 83 10000 1.77 68 22:50 28.11.2020
5172 Clouds 3 1027 84 10000 3.05 79 20:27 28.11.2020
5173 Clouds 3 1026 82 10000 2.9 81 19:29 28.11.2020
5174 Clouds 3 1026 81 10000 2.9 81 18:59 28.11.2020
5175 Clouds 4 1026 75 10000 0.89 124 18:23 28.11.2020
5176 Clouds 4 1026 77 10000 1.79 62 17:33 28.11.2020
5177 Clouds 4 1026 77 10000 1.34 23 16:39 28.11.2020
5178 Clouds 4 1025 79 10000 2.68 36 14:25 28.11.2020
5179 Clear 5 1025 84 10000 0.89 94 11:29 28.11.2020
5180 Clear 4 1025 88 10000 2.68 108 09:38 28.11.2020
5181 Clear 4 1019 10 10000 2.08 92 06:26 28.11.2020
5182 Clear 5 1019 10 10000 1.79 110 03:26 28.11.2020
5183 Clear 6 1019 10 10000 2.2 93 00:49 28.11.2020
5184 Clear 6 1019 10 10000 1.84 105 22:55 27.11.2020
5185 Clear 7 1023 88 10000 1.71 114 21:33 27.11.2020
5186 Clear 7 1023 89 10000 1.79 115 20:30 27.11.2020
5187 Clouds 7 1022 89 10000 2.11 92 19:25 27.11.2020
5188 Clouds 7 1022 89 10000 1.86 87 18:44 27.11.2020
5189 Clouds 8 1022 85 10000 2.09 95 14:47 27.11.2020
5190 Clouds 8 1022 85 10000 1.68 84 13:29 27.11.2020
5191 Clouds 8 1022 86 10000 2.24 105 12:47 27.11.2020
5192 Clouds 8 1022 86 10000 1.58 97 11:49 27.11.2020
5193 Clouds 8 1023 86 10000 1.84 85 10:51 27.11.2020
5194 Clouds 7 1023 88 10000 1.29 96 10:22 27.11.2020
5195 Clouds 8 1022 91 10000 1.21 105 07:29 27.11.2020
5196 Clouds 8 1021 88 10000 1.49 297 22:42 26.11.2020
5197 Clouds 8 1021 88 10000 1.8 293 22:22 26.11.2020
5198 Clouds 8 1021 88 10000 1.89 290 21:25 26.11.2020
5199 Clouds 8 1021 87 10000 2.45 281 19:24 26.11.2020
5200 Clouds 8 1021 87 10000 2.75 283 18:31 26.11.2020
5201 Clouds 9 1021 83 10000 0.45 203 16:32 26.11.2020
5202 Clouds 10 1021 87 10000 1.34 191 13:43 26.11.2020
5203 Clouds 10 1021 87 10000 1.34 191 13:43 26.11.2020
5204 Clouds 9 1021 89 10000 2.4 257 12:49 26.11.2020
5205 Clouds 9 1021 89 10000 0.45 177 12:29 26.11.2020
5206 Clouds 7 1021 91 10000 2.84 236 10:38 26.11.2020
5207 Clouds 6 1022 92 10000 1.79 169 09:59 26.11.2020
5208 Clouds 5 1022 92 10000 2.64 219 09:31 26.11.2020
5209 Clouds 4 1022 93 10000 2.12 226 08:43 26.11.2020
5210 Clouds 4 1021 93 10000 2.07 228 07:49 26.11.2020
5211 Clear 0 1020 93 10000 1.67 221 00:46 26.11.2020
5212 Clouds 1 1020 92 10000 0.89 165 21:54 25.11.2020
5213 Clouds 1 1019 91 10000 1.52 215 20:31 25.11.2020
5214 Clouds 2 1019 91 10000 1.57 223 18:59 25.11.2020
5215 Clouds 3 1019 91 10000 1.97 189 17:27 25.11.2020
5216 Clouds 6 1018 86 10000 0.45 100 15:43 25.11.2020
5217 Clouds 7 1019 84 10000 0.45 88 14:57 25.11.2020
5218 Clouds 7 1019 82 10000 1.79 160 13:45 25.11.2020
5219 Clouds 7 1019 83 10000 1.79 153 12:47 25.11.2020
5220 Clouds 5 1020 88 10000 0.45 115 11:23 25.11.2020
5221 Clouds 3 1020 93 10000 2.46 172 09:21 25.11.2020
5222 Clouds 2 1020 93 10000 2.46 172 08:50 25.11.2020
5223 Clouds 2 1020 95 10000 2.53 170 07:21 25.11.2020
5224 Clouds 0 1020 92 10000 2.68 168 03:49 25.11.2020
5225 Clouds 0 1021 93 10000 2.83 166 01:49 25.11.2020
5226 Clouds 0 1021 92 10000 2.69 166 00:19 25.11.2020
5227 Clouds 1 1021 92 10000 1.34 151 23:35 24.11.2020
5228 Clouds 1 1021 92 10000 1.34 151 23:35 24.11.2020
5229 Clouds 1 1022 92 10000 2.6 168 22:39 24.11.2020
5230 Clouds 1 1022 91 10000 0.89 135 21:43 24.11.2020
5231 Clear 1 1022 91 10000 2.48 183 21:23 24.11.2020
5232 Clear 2 1023 91 10000 2.45 192 19:48 24.11.2020
5233 Clear 3 1023 90 10000 2.92 194 17:41 24.11.2020
5234 Clear 4 1023 90 10000 2.24 143 17:22 24.11.2020
5235 Clear 5 1023 88 10000 2.82 191 16:38 24.11.2020
5236 Clear 7 1024 86 10000 0.89 173 15:56 24.11.2020
5237 Clouds 8 1024 82 10000 0.45 167 15:20 24.11.2020
5238 Clouds 9 1024 80 10000 2.18 199 14:45 24.11.2020
5239 Clouds 10 1025 76 10000 2.24 206 13:38 24.11.2020
5240 Clouds 8 1025 78 10000 3.13 359 12:40 24.11.2020
5241 Clouds 9 1026 80 10000 1.79 163 12:20 24.11.2020
5242 Clouds 8 1026 83 10000 2.24 213 11:33 24.11.2020
5243 Clouds 5 1027 90 10000 2.68 201 10:25 24.11.2020
5244 Clouds 3 1027 94 10000 4.23 210 09:40 24.11.2020
5245 Clouds 2 1027 94 10000 3.71 205 09:21 24.11.2020
5246 Clouds 0 1027 92 10000 3.07 201 06:50 24.11.2020
5247 Clouds 1 1027 92 10000 0.89 245 03:59 24.11.2020
5248 Clouds 2 1029 89 10000 2.9 237 22:25 23.11.2020
5249 Clouds 3 1029 88 10000 0.89 172 21:34 23.11.2020
5250 Clouds 3 1029 87 10000 3.12 244 20:49 23.11.2020
5251 Clouds 4 1029 86 10000 3.35 252 20:19 23.11.2020
5252 Clouds 5 1028 85 10000 1.79 177 17:59 23.11.2020
5253 Clouds 6 1028 84 10000 1.34 265 17:23 23.11.2020
5254 Clouds 7 1028 81 10000 1.79 247 16:19 23.11.2020
5255 Clouds 9 1027 72 10000 1.79 286 14:46 23.11.2020
5256 Clouds 9 1027 71 10000 3.58 268 12:55 23.11.2020
5257 Clear 9 1027 72 10000 3.13 283 12:36 23.11.2020
5258 Clear 9 1027 75 10000 1.79 218 11:46 23.11.2020
5259 Clouds 8 1027 81 10000 0.89 199 10:47 23.11.2020
5260 Clouds 6 1026 88 10000 4.02 279 09:31 23.11.2020
5261 Clouds 4 1026 90 10000 0.89 271 08:40 23.11.2020
5262 Clouds 4 1025 91 10000 4.47 256 07:25 23.11.2020
5263 Clouds 8 1024 90 10000 3.07 250 00:34 23.11.2020
5264 Clouds 8 1024 88 10000 3.24 244 23:35 22.11.2020
5265 Clouds 8 1024 85 10000 3.25 244 22:18 22.11.2020
5266 Clouds 8 1024 85 10000 0.89 193 20:54 22.11.2020
5267 Clouds 8 1024 84 10000 3.17 247 19:55 22.11.2020
5268 Clouds 9 1024 83 10000 1.34 273 18:53 22.11.2020
5269 Rain 9 1024 81 10000 4.02 259 17:26 22.11.2020
5270 Clouds 10 1023 80 10000 4.02 266 15:53 22.11.2020
5271 Clouds 11 1023 78 10000 0.45 256 14:40 22.11.2020
5272 Clouds 11 1024 78 10000 4.47 256 12:50 22.11.2020
5273 Clouds 11 1023 78 10000 4.02 230 12:18 22.11.2020
5274 Clouds 11 1023 74 10000 0.45 269 11:35 22.11.2020
5275 Clouds 10 1024 75 10000 6.35 257 10:45 22.11.2020
5276 Clouds 9 1023 76 10000 0.45 18 09:42 22.11.2020
5277 Clouds 7 1025 73 10000 1.79 104 01:50 22.11.2020
5278 Clouds 7 1025 72 10000 2.68 265 23:54 21.11.2020
5279 Clouds 7 1026 71 10000 3.13 149 22:31 21.11.2020
5280 Clouds 7 1026 71 10000 6.26 180 21:30 21.11.2020
5281 Clouds 7 1026 72 10000 1.79 225 20:49 21.11.2020
5282 Clouds 7 1027 72 10000 4.02 247 19:57 21.11.2020
5283 Clouds 7 1027 71 10000 2.68 211 19:37 21.11.2020
5284 Clouds 7 1027 71 10000 5.81 145 18:39 21.11.2020
5285 Clouds 7 1028 68 10000 0.89 211 17:29 21.11.2020
5286 Clouds 7 1028 69 10000 2.24 193 16:44 21.11.2020
5287 Clouds 8 1028 67 10000 2.68 187 15:40 21.11.2020
5288 Clouds 8 1028 65 10000 4.92 151 15:19 21.11.2020
5289 Clouds 8 1028 63 10000 1.79 152 14:39 21.11.2020
5290 Clouds 7 1030 67 10000 2.68 234 12:44 21.11.2020
5291 Clouds 7 1030 68 10000 1.79 136 12:21 21.11.2020
5292 Clouds 7 1031 80 10000 3.58 190 11:36 21.11.2020
5293 Clouds 5 1032 83 10000 2.68 151 10:27 21.11.2020
5294 Clouds 2 1033 91 10000 0.45 153 08:52 21.11.2020
5295 Clouds 1 1033 92 10000 1.34 86 07:58 21.11.2020
5296 Clouds 0 1034 92 10000 0.89 119 05:40 21.11.2020
5297 Clear 0 1035 92 10000 1.34 159 01:56 21.11.2020
5298 Clouds 0 1035 92 10000 2.68 244 00:21 21.11.2020
5299 Clouds 1 1035 92 10000 5.81 359 22:43 20.11.2020
5300 Clouds 1 1034 92 10000 3.04 260 21:44 20.11.2020
5301 Clouds 1 1034 92 10000 3.04 260 21:44 20.11.2020
5302 Clouds 1 1034 92 10000 3.04 255 21:21 20.11.2020
5303 Clear 2 1034 91 10000 3.28 264 19:55 20.11.2020
5304 Clouds 2 1034 90 10000 3.17 267 18:54 20.11.2020
5305 Clouds 3 1034 90 10000 3.75 270 17:59 20.11.2020
5306 Clouds 3 1034 89 10000 3.34 272 17:29 20.11.2020
5307 Clouds 3 1033 88 10000 3.34 272 16:47 20.11.2020
5308 Clouds 5 1033 84 10000 3.6 277 15:59 20.11.2020
5309 Clouds 6 1032 81 10000 3.6 277 15:34 20.11.2020
5310 Clouds 7 1032 76 10000 3.13 238 13:49 20.11.2020
5311 Rain 7 1032 76 10000 4.47 262 13:19 20.11.2020
5312 Clouds 7 1032 75 10000 2.24 262 12:40 20.11.2020
5313 Clouds 7 1032 77 10000 1.79 287 11:48 20.11.2020
5314 Rain 7 1032 77 10000 2.24 197 11:21 20.11.2020
5315 Clouds 5 1031 89 10000 0.45 295 09:46 20.11.2020
5316 Rain 4 1031 89 10000 1.34 254 08:28 20.11.2020
5317 Rain 4 1030 88 10000 0.45 217 07:35 20.11.2020
5318 Clouds 4 1028 87 10000 4.56 287 03:45 20.11.2020
5319 Clouds 4 1026 89 10000 0.89 334 23:36 19.11.2020
5320 Clouds 4 1025 88 10000 4.34 289 22:29 19.11.2020
5321 Clouds 4 1025 88 10000 0.45 282 21:50 19.11.2020
5322 Clouds 6 1024 89 10000 4.41 296 20:42 19.11.2020
5323 Clouds 6 1023 89 10000 5.09 303 20:19 19.11.2020
5324 Clouds 7 1022 89 10000 0.45 271 19:26 19.11.2020
5325 Clouds 7 1021 87 10000 0.89 287 18:35 19.11.2020
5326 Rain 9 1018 100 10000 6.12 288 17:21 19.11.2020
5327 Rain 11 1018 72 10000 4.47 234 16:26 19.11.2020
5328 Clouds 11 1017 66 10000 4.92 223 15:29 19.11.2020
5329 Clouds 12 1016 62 10000 5.81 249 13:49 19.11.2020
5330 Clouds 12 1016 61 10000 2.68 261 13:30 19.11.2020
5331 Clouds 12 1016 58 10000 4.47 266 12:51 19.11.2020
5332 Clouds 12 1016 57 10000 4.47 221 12:28 19.11.2020
5333 Clouds 12 1016 63 10000 4.92 193 11:40 19.11.2020
5334 Clouds 11 1016 63 10000 4.02 241 11:20 19.11.2020
5335 Clouds 11 1016 67 10000 1.79 136 10:31 19.11.2020
5336 Clouds 11 1016 63 10000 2.68 231 09:47 19.11.2020
5337 Clouds 11 1016 69 10000 6.71 272 09:27 19.11.2020
5338 Clouds 12 1015 78 10000 6.26 227 08:25 19.11.2020
5339 Rain 12 1014 78 10000 1.34 273 07:35 19.11.2020
5340 Clouds 8 1015 83 10000 0.89 172 01:47 19.11.2020
5341 Clouds 8 1015 86 10000 1.34 103 00:32 19.11.2020
5342 Clouds 8 1016 88 10000 5.36 163 23:31 18.11.2020
5343 Clouds 8 1016 87 10000 2.24 160 22:59 18.11.2020
5344 Clouds 9 1017 85 10000 3.58 162 22:29 18.11.2020
5345 Clouds 10 1017 87 10000 2.24 131 21:43 18.11.2020
5346 Clouds 10 1018 88 10000 2.68 165 21:25 18.11.2020
5347 Clouds 10 1018 87 10000 1.79 143 20:35 18.11.2020
5348 Clouds 9 1019 88 10000 4.89 186 19:42 18.11.2020
5349 Clouds 10 1019 88 10000 1.34 176 19:22 18.11.2020
5350 Clear 10 1020 87 10000 1.34 201 18:40 18.11.2020
5351 Clouds 10 1020 87 10000 2.68 165 17:44 18.11.2020
5352 Clouds 11 1021 82 10000 0.89 166 16:35 18.11.2020
5353 Clouds 12 1022 79 10000 3.59 188 15:59 18.11.2020
5354 Clouds 13 1023 72 10000 4.02 177 14:41 18.11.2020
5355 Clouds 13 1023 69 10000 2.24 176 13:55 18.11.2020
5356 Clouds 13 1024 67 10000 2.24 149 13:22 18.11.2020
5357 Clouds 13 1024 65 10000 1.79 189 12:43 18.11.2020
5358 Clouds 13 1025 65 10000 0.89 196 11:51 18.11.2020
5359 Clouds 13 1025 69 10000 0.89 94 10:57 18.11.2020
5360 Clouds 13 1026 70 10000 1.79 196 10:27 18.11.2020
5361 Clouds 12 1026 76 10000 2.24 237 08:41 18.11.2020
5362 Clouds 11 1026 78 10000 2.9 221 06:49 18.11.2020
5363 Clouds 11 1026 79 10000 3.24 224 04:24 18.11.2020
5364 Clouds 12 1026 82 10000 3.92 223 00:20 18.11.2020
5365 Clouds 12 1025 83 10000 1.79 199 23:24 17.11.2020
5366 Clouds 11 1025 83 10000 0.45 272 22:44 17.11.2020
5367 Clouds 11 1025 83 10000 3.55 224 22:25 17.11.2020
5368 Clouds 11 1025 84 10000 3.55 224 21:46 17.11.2020
5369 Clouds 11 1025 84 10000 1.34 175 21:23 17.11.2020
5370 Clouds 12 1025 84 10000 0.45 203 20:43 17.11.2020
5371 Clouds 12 1025 84 10000 1.79 239 20:23 17.11.2020
5372 Clouds 11 1025 87 10000 4 235 19:24 17.11.2020
5373 Clouds 11 1024 85 10000 4.15 241 18:23 17.11.2020
5374 Clouds 12 1024 81 10000 4.11 238 17:27 17.11.2020
5375 Clouds 12 1023 82 10000 4.11 238 16:35 17.11.2020
5376 Clouds 12 1024 83 10000 3.91 237 15:54 17.11.2020
5377 Clouds 12 1024 84 10000 0.89 175 15:35 17.11.2020
5378 Clouds 12 1023 85 10000 0.89 149 14:58 17.11.2020
5379 Clouds 12 1023 83 10000 3.58 210 14:29 17.11.2020
5380 Clouds 12 1023 81 10000 0.45 149 13:45 17.11.2020
5381 Rain 12 1023 79 10000 1.79 306 13:21 17.11.2020
5382 Clouds 12 1023 78 10000 1.34 213 12:41 17.11.2020
5383 Rain 12 1023 78 10000 4.47 184 11:44 17.11.2020
5384 Clouds 12 1023 77 10000 1.79 145 11:21 17.11.2020
5385 Clouds 12 1023 77 10000 1.79 187 10:37 17.11.2020
5386 Clouds 12 1023 76 10000 1.79 152 09:53 17.11.2020
5387 Clouds 11 1023 80 10000 1.79 175 09:32 17.11.2020
5388 Clouds 9 1023 82 10000 1.34 153 08:25 17.11.2020
5389 Clouds 8 1023 84 10000 4.33 205 07:56 17.11.2020
5390 Clouds 8 1023 86 10000 0.45 146 07:28 17.11.2020
5391 Clouds 8 1022 86 10000 3.81 235 04:29 17.11.2020
5392 Clouds 9 1022 84 10000 1.34 271 03:22 17.11.2020
5393 Clouds 10 1021 85 10000 3.81 248 02:28 17.11.2020
5394 Clouds 9 1021 85 10000 1.34 213 00:56 17.11.2020
5395 Clouds 8 1020 89 10000 0.89 218 23:53 16.11.2020
5396 Clouds 8 1020 87 10000 3.91 251 23:30 16.11.2020
5397 Clouds 9 1020 84 10000 4.53 254 22:55 16.11.2020
5398 Rain 9 1019 86 10000 1.34 166 22:23 16.11.2020
5399 Clouds 9 1019 85 10000 4.27 243 21:56 16.11.2020
5400 Clouds 9 1019 84 10000 4.27 243 21:37 16.11.2020
5401 Clouds 9 1018 84 10000 0.89 211 21:19 16.11.2020
5402 Clouds 9 1018 84 10000 3.91 237 20:26 16.11.2020
5403 Clouds 9 1018 84 10000 3.91 237 19:53 16.11.2020
5404 Clouds 10 1018 82 10000 3.99 237 19:29 16.11.2020
5405 Clouds 11 1017 80 10000 3.13 256 18:51 16.11.2020
5406 Clouds 11 1017 77 10000 1.79 287 18:18 16.11.2020
5407 Clouds 11 1016 75 10000 3.96 235 17:36 16.11.2020
5408 Clouds 11 1016 75 10000 3.75 249 17:18 16.11.2020
5409 Clouds 11 1016 75 10000 0.89 239 16:49 16.11.2020
5410 Clouds 12 1015 75 10000 0.45 255 16:24 16.11.2020
5411 Clouds 12 1015 71 10000 4.3 247 15:44 16.11.2020
5412 Clouds 12 1015 64 10000 2.24 180 15:26 16.11.2020
5413 Clouds 13 1014 63 10000 3.58 242 14:47 16.11.2020
5414 Clouds 14 1014 63 10000 2.24 191 13:44 16.11.2020
5415 Clouds 13 1014 61 10000 1.79 261 12:59 16.11.2020
5416 Clouds 14 1013 59 10000 1.79 302 12:29 16.11.2020
5417 Clouds 13 1013 65 10000 1.34 245 11:40 16.11.2020
5418 Clouds 12 1013 69 10000 1.34 289 11:21 16.11.2020
5419 Clouds 13 1012 72 10000 0.89 331 10:44 16.11.2020
5420 Clouds 11 1012 78 10000 0.89 249 10:25 16.11.2020
5421 Clouds 10 1012 81 10000 0.89 201 09:49 16.11.2020
5422 Clouds 10 1011 82 10000 2.24 215 09:25 16.11.2020
5423 Clouds 8 1011 89 10000 5.78 224 08:42 16.11.2020
5424 Clouds 7 1010 90 10000 5.16 221 07:53 16.11.2020
5425 Clouds 8 1009 91 10000 4.39 238 06:56 16.11.2020
5426 Clouds 7 1009 90 10000 5.02 221 06:38 16.11.2020
5427 Clouds 8 1009 87 10000 2.18 236 05:22 16.11.2020
5428 Clouds 9 1008 86 10000 1.14 266 03:54 16.11.2020
5429 Clouds 10 1007 81 10000 0.89 136 01:44 16.11.2020
5430 Rain 10 1005 76 10000 1.34 128 00:26 16.11.2020
5431 Rain 11 1006 77 10000 3.58 132 23:29 15.11.2020
5432 Clouds 11 1006 77 10000 4.02 134 22:57 15.11.2020
5433 Clouds 11 1006 77 10000 3.13 94 22:24 15.11.2020
5434 Clouds 11 1007 76 10000 4.92 90 21:51 15.11.2020
5435 Clouds 11 1007 76 10000 5.36 114 21:29 15.11.2020
5436 Clouds 11 1007 76 10000 4.92 103 20:51 15.11.2020
5437 Clouds 12 1007 75 10000 4.92 145 20:32 15.11.2020
5438 Clouds 12 1007 76 10000 6.26 196 19:56 15.11.2020
5439 Clouds 12 1008 76 10000 4.02 128 19:38 15.11.2020
5440 Clouds 12 1008 77 10000 1.34 134 19:19 15.11.2020
5441 Clouds 12 1008 75 10000 6.71 136 18:45 15.11.2020
5442 Clouds 12 1008 78 10000 2.68 138 18:25 15.11.2020
5443 Clouds 12 1008 76 10000 4.47 107 17:57 15.11.2020
5444 Clouds 12 1009 77 10000 8.49 159 17:39 15.11.2020
5445 Clouds 12 1009 81 10000 6.71 148 17:19 15.11.2020
5446 Clouds 12 1009 81 10000 3.13 128 16:39 15.11.2020
5447 Clouds 12 1009 80 10000 4.92 115 16:18 15.11.2020
5448 Clouds 13 1010 79 10000 5.81 136 15:43 15.11.2020
5449 Clouds 14 1010 78 10000 2.68 107 15:23 15.11.2020
5450 Clouds 15 1011 75 10000 1.34 167 14:51 15.11.2020
5451 Clouds 15 1011 73 10000 2.24 180 14:26 15.11.2020
5452 Clouds 15 1012 69 10000 3.58 200 13:42 15.11.2020
5453 Clouds 16 1012 69 10000 4.92 176 13:21 15.11.2020
5454 Clouds 15 1012 69 10000 3.13 146 12:46 15.11.2020
5455 Clouds 15 1012 71 10000 2.24 170 12:19 15.11.2020
5456 Rain 15 1012 72 10000 1.79 159 11:44 15.11.2020
5457 Clouds 13 1013 73 10000 1.79 122 11:18 15.11.2020
5458 Clouds 13 1013 75 10000 2.24 158 10:51 15.11.2020
5459 Clouds 14 1014 76 10000 3.58 155 10:30 15.11.2020
5460 Rain 12 1014 75 10000 3.13 167 09:52 15.11.2020
5461 Clouds 12 1014 75 10000 4.47 187 09:32 15.11.2020
5462 Clouds 11 1015 80 10000 2.68 103 08:56 15.11.2020
5463 Clouds 11 1015 81 10000 2.24 127 08:38 15.11.2020
5464 Clouds 10 1014 84 10000 4.02 177 07:45 15.11.2020
5465 Clouds 9 1014 87 10000 1.34 177 06:42 15.11.2020
5466 Clouds 9 1014 90 10000 1.34 151 04:53 15.11.2020
5467 Clouds 8 1015 91 10000 0.45 98 01:54 15.11.2020
5468 Clouds 8 1016 91 10000 1.34 184 00:31 15.11.2020
5469 Clouds 9 1016 90 10000 0.45 199 23:49 14.11.2020
5470 Clouds 10 1016 92 10000 4.02 180 22:59 14.11.2020
5471 Clouds 10 1016 91 10000 0.89 128 22:41 14.11.2020
5472 Clouds 9 1016 90 10000 0.45 143 22:19 14.11.2020
5473 Clouds 10 1016 90 10000 0.89 136 21:39 14.11.2020
5474 Clouds 10 1016 90 10000 3.89 179 21:20 14.11.2020
5475 Clouds 10 1016 89 10000 3.89 179 20:47 14.11.2020
5476 Clouds 10 1016 90 10000 3.92 177 20:24 14.11.2020
5477 Clouds 11 1017 89 10000 3.92 177 19:36 14.11.2020
5478 Clouds 11 1017 88 10000 0.89 155 18:59 14.11.2020
5479 Clouds 12 1017 89 10000 3.58 169 18:39 14.11.2020
5480 Clouds 11 1017 89 10000 0.45 186 18:21 14.11.2020
5481 Clouds 11 1017 89 10000 3.58 183 17:45 14.11.2020
5482 Clouds 11 1017 89 10000 3.58 183 17:45 14.11.2020
5483 Clouds 12 1017 89 10000 3.1 180 17:27 14.11.2020
5484 Clouds 12 1017 88 10000 1.34 121 16:52 14.11.2020
5485 Clouds 13 1017 86 10000 3.58 190 16:33 14.11.2020
5486 Clouds 14 1018 80 10000 0.89 158 15:55 14.11.2020
5487 Clouds 14 1018 78 10000 1.34 175 15:32 14.11.2020
5488 Clouds 15 1018 76 10000 1.34 199 14:57 14.11.2020
5489 Clouds 15 1018 75 10000 0.45 166 14:30 14.11.2020
5490 Clouds 16 1018 72 10000 3.13 196 13:55 14.11.2020
5491 Clouds 16 1018 73 10000 1.79 177 13:37 14.11.2020
5492 Clouds 15 1018 74 10000 3.84 227 13:18 14.11.2020
5493 Clouds 16 1018 70 10000 2.68 230 12:39 14.11.2020
5494 Clouds 16 1018 73 10000 1.79 190 12:18 14.11.2020
5495 Clouds 15 1019 74 10000 2.68 184 11:39 14.11.2020
5496 Clouds 15 1019 76 10000 1.79 173 11:21 14.11.2020
5497 Clouds 14 1019 79 10000 2.24 186 10:40 14.11.2020
5498 Clouds 13 1019 81 10000 1.34 259 10:22 14.11.2020
5499 Clouds 13 1019 86 10000 1.79 254 09:45 14.11.2020
5500 Clouds 12 1019 89 10000 1.79 220 09:27 14.11.2020
5501 Clouds 11 1019 90 10000 2.96 218 08:44 14.11.2020
5502 Clouds 11 1019 91 10000 3.22 210 08:23 14.11.2020
5503 Clouds 10 1019 92 10000 0.89 180 07:42 14.11.2020
5504 Clouds 10 1019 93 10000 0.89 177 07:20 14.11.2020
5505 Clouds 10 1018 91 10000 2.15 218 06:28 14.11.2020
5506 Clouds 10 1019 90 10000 2.17 205 05:18 14.11.2020
5507 Clouds 10 1018 89 10000 2.72 215 03:28 14.11.2020
5508 Clouds 10 1018 86 10000 2.48 215 00:42 14.11.2020
5509 Clouds 10 1018 86 10000 2.6 218 23:38 13.11.2020
5510 Clouds 10 1018 86 10000 2.88 220 23:20 13.11.2020
5511 Clouds 10 1018 87 10000 0.89 159 22:42 13.11.2020
5512 Clouds 10 1018 88 10000 1.79 158 22:23 13.11.2020
5513 Clouds 9 1017 87 10000 3.14 218 21:51 13.11.2020
5514 Clouds 9 1017 86 10000 3.47 215 21:29 13.11.2020
5515 Clouds 9 1017 86 10000 3.47 215 20:56 13.11.2020
5516 Clouds 9 1017 87 10000 1.34 172 20:37 13.11.2020
5517 Clouds 9 1017 88 10000 1.34 172 20:19 13.11.2020
5518 Clouds 8 1017 91 10000 1.34 190 19:45 13.11.2020
5519 Clouds 8 1017 89 10000 0.45 127 19:22 13.11.2020
5520 Clouds 8 1017 89 10000 3.9 205 18:50 13.11.2020
5521 Clouds 8 1018 87 10000 3.54 193 17:59 13.11.2020
5522 Clouds 9 1018 85 10000 0.45 131 17:39 13.11.2020
5523 Clouds 9 1018 84 10000 3.28 196 17:18 13.11.2020
5524 Clouds 9 1018 85 10000 0.45 148 16:46 13.11.2020
5525 Clouds 9 1018 83 10000 2.24 149 16:21 13.11.2020
5526 Clouds 10 1018 82 10000 2.24 183 15:41 13.11.2020
5527 Clouds 11 1018 80 10000 4.02 151 15:23 13.11.2020
5528 Clouds 11 1018 79 10000 3.13 177 15:23 13.11.2020
5529 Clouds 12 1018 75 10000 3.13 163 14:41 13.11.2020
5530 Clouds 12 1018 75 10000 2.68 167 14:20 13.11.2020
5531 Clouds 12 1019 75 10000 2.68 166 13:45 13.11.2020
5532 Clouds 12 1019 73 10000 4.02 160 13:21 13.11.2020
5533 Clouds 12 1019 73 10000 1.79 177 12:45 13.11.2020
5534 Clear 11 1019 77 10000 4.47 90 12:24 13.11.2020
5535 Clear 11 1020 82 10000 2.24 131 11:48 13.11.2020
5536 Clouds 10 1020 83 10000 1.34 79 11:27 13.11.2020
5537 Clouds 9 1020 85 10000 1.79 172 10:55 13.11.2020
5538 Clouds 8 1021 90 10000 0.89 42 10:34 13.11.2020
5539 Clouds 7 1021 92 10000 4.47 190 09:56 13.11.2020
5540 Clouds 7 1021 92 10000 3.14 203 09:38 13.11.2020
5541 Clouds 6 1021 92 10000 1.34 203 09:19 13.11.2020
5542 Clouds 6 1021 92 10000 2.47 201 09:19 13.11.2020
5543 Clouds 6 1021 92 10000 2.47 201 09:19 13.11.2020
5544 Clouds 5 1021 92 10000 2.47 201 08:50 13.11.2020
5545 Clouds 4 1021 92 10000 2.25 216 08:20 13.11.2020
5546 Clouds 4 1021 92 10000 2.25 216 07:44 13.11.2020
5547 Clouds 4 1021 91 10000 2.39 223 07:26 13.11.2020
5548 Clouds 4 1021 92 10000 2.09 225 06:49 13.11.2020
5549 Clouds 5 1020 91 10000 2.54 234 05:43 13.11.2020
5550 Clouds 5 1021 91 10000 0.89 163 05:23 13.11.2020
5551 Clouds 8 1021 88 10000 2.87 229 01:45 13.11.2020
5552 Clouds 8 1021 90 10000 0.89 167 00:53 13.11.2020
5553 Clear 8 1021 90 10000 2.86 236 00:32 13.11.2020
5554 Clear 8 1021 90 10000 1.34 163 23:38 12.11.2020
5555 Clear 8 1020 91 10000 3.27 236 23:19 12.11.2020
5556 Clear 8 1020 91 10000 3.27 236 22:52 12.11.2020
5557 Clear 8 1020 92 10000 3.27 236 22:33 12.11.2020
5558 Clear 7 1020 92 10000 1.79 213 21:56 12.11.2020
5559 Clear 7 1020 93 10000 3.41 230 21:37 12.11.2020
5560 Clear 7 1020 93 10000 3.41 230 21:37 12.11.2020
5561 Clear 6 1020 91 10000 3.55 221 21:18 12.11.2020
5562 Clear 7 1020 91 10000 0.89 138 20:39 12.11.2020
5563 Clear 7 1020 91 10000 1.79 156 20:21 12.11.2020
5564 Clear 7 1020 90 10000 3.54 223 19:49 12.11.2020
5565 Clouds 7 1020 90 10000 0.89 142 19:31 12.11.2020
5566 Clouds 7 1019 89 10000 3.51 226 18:52 12.11.2020
5567 Clouds 8 1019 88 10000 2.24 206 18:24 12.11.2020
5568 Clouds 8 1019 86 10000 0.45 132 17:59 12.11.2020
5569 Clouds 9 1019 85 10000 3.1 244 17:38 12.11.2020
5570 Clouds 9 1019 81 10000 0.45 128 17:20 12.11.2020
5571 Clouds 10 1019 80 10000 1.34 189 16:44 12.11.2020
5572 Rain 10 1019 79 10000 2.53 201 16:22 12.11.2020
5573 Clouds 11 1019 78 10000 1.79 160 15:42 12.11.2020
5574 Clouds 11 1019 77 10000 1.34 167 15:23 12.11.2020
5575 Clouds 11 1019 77 10000 1.79 166 14:47 12.11.2020
5576 Clouds 11 1019 73 10000 1.79 199 14:27 12.11.2020
5577 Clouds 11 1019 74 10000 3.58 182 13:57 12.11.2020
5578 Clouds 11 1019 76 10000 3.58 167 13:37 12.11.2020
5579 Clouds 11 1019 74 10000 4.47 151 13:18 12.11.2020
5580 Clouds 11 1019 73 10000 5.81 163 12:44 12.11.2020
5581 Clouds 11 1019 74 10000 5.36 145 12:23 12.11.2020
5582 Clouds 11 1020 75 10000 3.13 117 11:52 12.11.2020
5583 Clouds 11 1020 75 10000 4.47 173 11:30 12.11.2020
5584 Clouds 10 1020 78 10000 4.02 172 10:45 12.11.2020
5585 Clouds 9 1020 80 10000 3.58 169 10:27 12.11.2020
5586 Clouds 8 1020 85 10000 3.13 162 09:49 12.11.2020
5587 Clouds 8 1020 91 10000 3.13 138 09:24 12.11.2020
5588 Clouds 7 1021 92 10000 2.24 138 08:58 12.11.2020
5589 Clouds 7 1020 93 10000 1.34 160 08:39 12.11.2020
5590 Clear 7 1021 93 10000 1.34 169 08:20 12.11.2020
5591 Clear 6 1021 92 10000 3.95 165 07:53 12.11.2020
5592 Clouds 7 1021 92 10000 3.56 165 07:25 12.11.2020
5593 Clouds 7 1021 91 10000 3.28 160 06:51 12.11.2020
5594 Clouds 8 1021 91 10000 2.82 166 06:22 12.11.2020
5595 Clear 8 1021 92 10000 2.45 168 03:43 12.11.2020
5596 Clear 8 1021 92 10000 2.42 168 03:18 12.11.2020
5597 Clouds 7 1023 90 10000 0.45 100 00:28 12.11.2020
5598 Clouds 7 1023 90 10000 2.49 149 23:42 11.11.2020
5599 Clouds 7 1023 89 10000 2.48 144 23:24 11.11.2020
5600 Clouds 7 1023 89 10000 0.45 176 22:47 11.11.2020
5601 Clouds 7 1023 89 10000 1.79 112 22:22 11.11.2020
5602 Clouds 7 1024 89 10000 2.49 129 21:57 11.11.2020
5603 Clouds 7 1024 89 10000 0.89 132 21:38 11.11.2020
5604 Clouds 7 1024 89 10000 0.89 151 21:19 11.11.2020
5605 Clouds 7 1024 90 10000 1.74 118 20:42 11.11.2020
5606 Clouds 6 1024 90 10000 1.53 110 20:22 11.11.2020
5607 Clouds 6 1024 89 10000 0.89 86 19:55 11.11.2020
5608 Clouds 6 1025 89 10000 1.53 110 19:37 11.11.2020
5609 Clouds 6 1025 89 10000 1.34 31 19:18 11.11.2020
5610 Clouds 6 1025 89 10000 1.34 31 19:18 11.11.2020
5611 Clouds 6 1025 88 10000 1.34 104 18:41 11.11.2020
5612 Clouds 6 1025 88 10000 0.45 7 18:21 11.11.2020
5613 Clouds 6 1025 88 10000 1.2 145 17:37 11.11.2020
5614 Clouds 7 1025 88 10000 1.32 160 17:19 11.11.2020
5615 Clouds 7 1025 88 10000 1.32 160 16:39 11.11.2020
5616 Clouds 7 1025 87 10000 1.34 164 16:21 11.11.2020
5617 Clouds 7 1025 86 10000 1.34 164 15:43 11.11.2020
5618 Clouds 6 1025 87 10000 1.79 156 15:23 11.11.2020
5619 Clouds 7 1025 85 10000 3.58 84 14:49 11.11.2020
5620 Clouds 6 1025 86 10000 1.79 62 14:30 11.11.2020
5621 Clouds 6 1026 85 10000 0.45 135 13:50 11.11.2020
5622 Clouds 6 1026 85 10000 1.79 83 13:32 11.11.2020
5623 Clouds 6 1027 86 10000 0.45 94 12:38 11.11.2020
5624 Clouds 6 1027 86 10000 0.89 69 12:20 11.11.2020
5625 Clouds 5 1027 87 10000 0.52 133 11:47 11.11.2020
5626 Clouds 5 1027 88 10000 0.67 152 11:25 11.11.2020
5627 Clouds 5 1028 89 10000 0.67 152 10:39 11.11.2020
5628 Clouds 5 1028 89 10000 0.95 153 10:20 11.11.2020
5629 Clouds 5 1028 90 10000 0.95 153 09:44 11.11.2020
5630 Clouds 4 1028 90 10000 0.89 95 09:24 11.11.2020
5631 Clouds 4 1028 92 10000 0.99 138 08:46 11.11.2020
5632 Clouds 4 1028 92 10000 0.89 132 08:27 11.11.2020
5633 Clouds 3 1028 92 10000 0.89 132 07:49 11.11.2020
5634 Clouds 3 1028 92 10000 0.45 103 06:33 11.11.2020
5635 Clouds 4 1028 93 10000 0.93 120 05:59 11.11.2020
5636 Clouds 4 1029 90 10000 0.45 108 02:48 11.11.2020
5637 Clouds 4 1029 92 10000 0.89 57 00:59 11.11.2020
5638 Clouds 3 1029 90 10000 1.34 56 00:26 11.11.2020
5639 Clouds 4 1029 90 10000 0.89 169 23:43 10.11.2020
5640 Clouds 4 1029 89 10000 0.89 70 23:24 10.11.2020
5641 Clouds 4 1029 89 10000 2.07 122 22:56 10.11.2020
5642 Clouds 4 1029 89 10000 0.89 156 22:27 10.11.2020
5643 Clouds 4 1029 89 10000 2.24 50 21:44 10.11.2020
5644 Clouds 4 1029 88 10000 0.89 146 21:25 10.11.2020
5645 Clouds 4 1029 88 10000 1.79 77 20:59 10.11.2020
5646 Clouds 4 1029 88 10000 2.34 125 20:41 10.11.2020
5647 Clouds 4 1029 88 10000 1.79 138 20:22 10.11.2020
5648 Clouds 4 1029 88 10000 0.89 114 19:49 10.11.2020
5649 Clear 4 1029 88 10000 2.24 173 19:30 10.11.2020
5650 Clear 3 1029 87 10000 2.24 125 18:59 10.11.2020
5651 Clear 3 1029 87 10000 0.89 162 18:40 10.11.2020
5652 Clear 4 1029 87 10000 1.79 88 18:19 10.11.2020
5653 Clear 4 1029 87 10000 2.24 111 17:44 10.11.2020
5654 Clear 4 1029 86 10000 1.34 118 17:26 10.11.2020
5655 Clear 5 1029 86 10000 2.68 149 16:57 10.11.2020
5656 Clear 5 1029 86 10000 2.68 149 16:57 10.11.2020
5657 Clear 5 1029 86 10000 0.89 163 16:37 10.11.2020
5658 Clear 5 1029 86 10000 1.34 155 16:18 10.11.2020
5659 Clear 6 1029 83 10000 2.43 107 15:45 10.11.2020
5660 Clear 6 1029 80 10000 1.34 143 15:23 10.11.2020
5661 Clear 7 1029 79 10000 1.34 56 14:41 10.11.2020
5662 Clear 7 1029 78 10000 0.89 184 14:22 10.11.2020
5663 Clear 7 1029 77 10000 3.58 177 13:57 10.11.2020
5664 Clear 7 1029 77 10000 1.34 108 13:36 10.11.2020
5665 Clouds 7 1029 76 10000 1.34 180 13:18 10.11.2020
5666 Clouds 7 1029 77 10000 2.68 173 12:44 10.11.2020
5667 Clouds 7 1029 77 10000 4.02 103 12:24 10.11.2020
5668 Clouds 6 1029 79 10000 3.13 129 11:39 10.11.2020
5669 Clouds 6 1029 79 10000 2.68 87 11:20 10.11.2020
5670 Clouds 6 1029 82 10000 2.68 101 10:45 10.11.2020
5671 Clouds 6 1029 82 10000 1.79 98 10:27 10.11.2020
5672 Clouds 5 1029 83 10000 0.45 141 09:51 10.11.2020
5673 Clouds 5 1029 83 10000 0.45 141 09:51 10.11.2020
5674 Clouds 5 1029 83 10000 3.13 114 09:29 10.11.2020
5675 Clouds 5 1029 84 10000 0.89 135 08:59 10.11.2020
5676 Clouds 5 1029 85 10000 2.24 119 08:40 10.11.2020
5677 Clouds 6 1029 85 10000 0.89 66 08:22 10.11.2020
5678 Clouds 6 1029 86 10000 1.34 111 07:39 10.11.2020
5679 Clear 6 1029 86 10000 0.89 117 07:20 10.11.2020
5680 Clear 5 1029 85 10000 1.79 143 06:38 10.11.2020
5681 Clear 6 1029 85 10000 3.58 42 05:34 10.11.2020
5682 Clear 6 1028 86 10000 2.24 143 04:36 10.11.2020
5683 Clear 6 1028 86 10000 1.79 112 01:41 10.11.2020
5684 Clear 6 1028 87 10000 2.51 121 00:55 10.11.2020
5685 Clear 6 1028 87 10000 0.89 70 23:51 09.11.2020
5686 Clear 6 1028 87 10000 1.34 62 23:23 09.11.2020
5687 Clear 6 1028 87 10000 1.34 104 22:42 09.11.2020
5688 Clear 6 1028 87 10000 0.45 74 22:23 09.11.2020
5689 Clear 6 1028 86 10000 1.79 98 21:45 09.11.2020
5690 Clear 6 1028 86 10000 1.79 98 21:45 09.11.2020
5691 Clouds 7 1028 86 10000 3.13 88 21:27 09.11.2020
5692 Clouds 6 1028 86 10000 1.79 79 20:44 09.11.2020
5693 Clouds 7 1028 86 10000 0.89 43 20:22 09.11.2020
5694 Clouds 6 1028 86 10000 2.24 90 19:57 09.11.2020
5695 Clouds 6 1028 86 10000 2.68 77 19:39 09.11.2020
5696 Clouds 7 1028 86 10000 2.68 90 19:19 09.11.2020
5697 Clouds 7 1027 86 10000 2.24 80 18:41 09.11.2020
5698 Clouds 7 1027 86 10000 2.68 112 18:20 09.11.2020
5699 Clouds 7 1027 85 10000 0.45 197 17:44 09.11.2020
5700 Clouds 7 1027 85 10000 2.68 111 17:26 09.11.2020
5701 Clouds 8 1027 85 10000 2.52 105 16:45 09.11.2020
5702 Clouds 8 1027 85 10000 0.45 108 16:26 09.11.2020
5703 Clouds 8 1027 84 10000 2.68 107 15:50 09.11.2020
5704 Clouds 8 1027 84 10000 0.89 86 15:30 09.11.2020
5705 Clouds 8 1027 84 10000 0.89 86 15:30 09.11.2020
5706 Clouds 8 1027 84 10000 2.35 100 14:57 09.11.2020
5707 Clouds 8 1027 83 10000 2.35 100 14:37 09.11.2020
5708 Clouds 8 1027 82 10000 2.41 107 14:19 09.11.2020
5709 Clouds 8 1027 80 10000 3.13 87 13:43 09.11.2020
5710 Clouds 8 1027 80 10000 1.79 104 13:19 09.11.2020
5711 Clouds 8 1028 79 10000 1.79 143 12:46 09.11.2020
5712 Clouds 8 1028 82 10000 1.79 93 12:21 09.11.2020
5713 Clouds 7 1028 83 10000 3.13 100 11:43 09.11.2020
5714 Clouds 7 1028 84 10000 0.89 108 11:25 09.11.2020
5715 Clouds 7 1028 82 10000 1.79 107 10:59 09.11.2020
5716 Clouds 7 1028 83 10000 1.79 66 10:41 09.11.2020
5717 Clouds 6 1028 84 10000 0.45 129 10:22 09.11.2020
5718 Clouds 6 1028 85 10000 2.71 117 09:41 09.11.2020
5719 Clouds 6 1028 87 10000 2.55 110 09:23 09.11.2020
5720 Clouds 6 1028 89 10000 2.55 110 08:37 09.11.2020
5721 Clouds 6 1028 89 10000 2.56 112 08:18 09.11.2020
5722 Clouds 6 1027 92 10000 2.56 112 07:38 09.11.2020
5723 Clouds 6 1027 92 10000 0.45 11 07:18 09.11.2020
5724 Clouds 5 1027 93 10000 2.22 114 06:22 09.11.2020
5725 Clouds 4 1027 94 10000 2.51 136 02:58 09.11.2020
5726 Clouds 4 1027 92 10000 2.45 133 01:42 09.11.2020
5727 Clouds 4 1026 92 10000 2.51 122 00:57 09.11.2020
5728 Clouds 4 1026 91 10000 2.36 111 23:50 08.11.2020
5729 Clouds 4 1026 91 10000 2.42 113 23:28 08.11.2020
5730 Clouds 5 1026 92 10000 2.42 113 22:45 08.11.2020
5731 Clouds 5 1026 91 10000 2.46 115 22:22 08.11.2020
5732 Clouds 5 1026 91 10000 2.46 115 21:54 08.11.2020
5733 Clouds 5 1026 90 10000 2.46 115 21:36 08.11.2020
5734 Clouds 6 1026 90 10000 2.36 114 21:18 08.11.2020
5735 Clouds 6 1026 90 10000 2.36 114 20:39 08.11.2020
5736 Clouds 6 1026 90 10000 2.28 107 20:20 08.11.2020
5737 Clouds 6 1025 90 10000 2.28 107 19:56 08.11.2020
5738 Clouds 7 1025 90 10000 0.45 15 19:37 08.11.2020
5739 Clear 7 1025 89 10000 2.32 118 19:18 08.11.2020
5740 Clear 7 1025 88 10000 0.45 43 18:45 08.11.2020
5741 Clear 7 1025 89 10000 2.35 123 18:21 08.11.2020
5742 Clear 7 1025 88 10000 2.35 123 17:57 08.11.2020
5743 Clear 8 1025 87 10000 2.35 123 17:37 08.11.2020
5744 Clear 8 1024 86 10000 2.4 109 17:18 08.11.2020
5745 Clear 9 1024 83 10000 2.4 109 16:46 08.11.2020
5746 Clear 9 1024 81 10000 0.45 107 16:21 08.11.2020
5747 Clear 11 1024 75 10000 2.41 100 15:56 08.11.2020
5748 Clear 12 1024 74 10000 1.34 71 15:37 08.11.2020
5749 Clear 12 1024 72 10000 0.45 83 15:19 08.11.2020
5750 Clear 12 1024 71 10000 0.45 97 14:38 08.11.2020
5751 Clear 12 1024 68 10000 1.34 117 14:20 08.11.2020
5752 Clear 13 1025 69 10000 0.45 19 13:44 08.11.2020
5753 Clear 13 1025 69 10000 0.45 19 13:44 08.11.2020
5754 Clear 13 1025 72 10000 1.8 93 13:21 08.11.2020
5755 Clear 12 1025 73 10000 2.24 15 12:42 08.11.2020
5756 Clear 12 1025 75 10000 0.45 354 12:24 08.11.2020
5757 Clear 12 1025 76 10000 1.79 81 11:57 08.11.2020
5758 Clear 14 1019 69 10000 1.65 116 11:39 08.11.2020
5759 Clear 9 1025 78 10000 1.34 35 11:20 08.11.2020
5760 Clear 10 1023 70 10000 0.45 135 10:49 08.11.2020
5761 Clear 12 1019 77 10000 1.51 105 10:18 08.11.2020
5762 Clear 10 1019 87 10000 1.51 105 09:44 08.11.2020
5763 Clear 9 1019 86 10000 1.19 115 09:24 08.11.2020
5764 Clear 7 1019 10 10000 1.19 115 08:58 08.11.2020
5765 Clear 5 1019 10 10000 1.19 115 08:39 08.11.2020
5766 Clear 3 1024 82 10000 1.11 102 08:18 08.11.2020
5767 Clear 4 1023 82 10000 1.11 102 07:51 08.11.2020
5768 Clouds 4 1023 82 10000 1.29 76 07:21 08.11.2020
5769 Clouds 4 1023 82 10000 1.08 47 06:22 08.11.2020
5770 Clouds 4 1023 82 10000 1.08 47 05:52 08.11.2020
5771 Clouds 4 1023 82 10000 0.64 39 04:31 08.11.2020
5772 Clouds 5 1023 81 10000 0.29 97 01:51 08.11.2020
5773 Clear 4 1024 91 10000 0.38 58 01:18 08.11.2020
5774 Clear 5 1023 81 10000 0.41 7 00:27 08.11.2020
5775 Clear 5 1024 81 10000 0.41 7 23:47 07.11.2020
5776 Clear 5 1024 81 10000 0.46 165 23:28 07.11.2020
5777 Clear 5 1024 81 10000 0.46 165 22:44 07.11.2020
5778 Clear 5 1025 95 10000 0.45 115 22:25 07.11.2020
5779 Clear 4 1024 90 10000 0.43 153 21:55 07.11.2020
5780 Clear 4 1024 90 10000 0.43 153 21:36 07.11.2020
5781 Clear 4 1024 90 10000 0.4 210 21:18 07.11.2020
5782 Clear 5 1024 89 10000 0.4 210 20:42 07.11.2020
5783 Clear 5 1025 89 10000 1.25 180 20:23 07.11.2020
5784 Clear 6 1025 89 10000 1.25 180 19:44 07.11.2020
5785 Clear 6 1024 89 10000 0.45 114 19:26 07.11.2020
5786 Clear 5 1025 88 10000 1.86 173 18:40 07.11.2020
5787 Clear 6 1025 87 10000 1.34 152 18:22 07.11.2020
5788 Clear 6 1025 85 10000 1.92 177 17:46 07.11.2020
5789 Clear 6 1025 85 10000 2.37 163 17:28 07.11.2020
5790 Clear 9 1025 80 10000 2.37 163 16:46 07.11.2020
5791 Clear 9 1025 77 10000 2.55 154 16:25 07.11.2020
5792 Clear 10 1025 70 10000 2.55 154 15:57 07.11.2020
5793 Clear 11 1025 67 10000 0.45 190 15:39 07.11.2020
5794 Clear 11 1025 66 10000 0.89 142 15:19 07.11.2020
5795 Clear 11 1026 65 10000 0.89 93 14:41 07.11.2020
5796 Clear 11 1026 64 10000 2.24 148 14:41 07.11.2020
5797 Clear 12 1026 63 10000 1.79 125 14:21 07.11.2020
5798 Clear 12 1026 62 10000 2.24 139 13:46 07.11.2020
5799 Clear 13 1026 60 10000 1.34 135 13:25 07.11.2020
5800 Clear 12 1027 61 10000 2.24 135 12:42 07.11.2020
5801 Clear 11 1027 66 10000 1.34 101 12:19 07.11.2020
5802 Clear 10 1027 68 10000 3.13 90 11:41 07.11.2020
5803 Clear 10 1028 71 10000 3.13 163 11:22 07.11.2020
5804 Clear 9 1028 73 10000 4.47 125 10:45 07.11.2020
5805 Clear 9 1028 75 10000 3.13 119 10:25 07.11.2020
5806 Clear 8 1029 81 10000 2.24 169 09:49 07.11.2020
5807 Clear 7 1029 83 10000 1.34 121 09:26 07.11.2020
5808 Clear 7 1029 85 10000 2.24 156 08:53 07.11.2020
5809 Clear 7 1029 87 10000 1.34 159 08:34 07.11.2020
5810 Clear 7 1029 87 10000 4.02 139 07:50 07.11.2020
5811 Clear 7 1029 88 10000 2.68 172 07:19 07.11.2020
5812 Clear 7 1029 88 10000 3.13 148 06:47 07.11.2020
5813 Clear 8 1030 89 10000 4.02 117 05:23 07.11.2020
5814 Clear 8 1024 10 10000 2.89 144 03:23 07.11.2020
5815 Clear 9 1025 10 10000 2.69 141 01:28 07.11.2020
5816 Clear 9 1025 10 10000 2.69 141 00:59 07.11.2020
5817 Clear 9 1032 86 10000 3.13 158 23:53 06.11.2020
5818 Clear 10 1032 86 10000 1.79 177 23:21 06.11.2020
5819 Clear 10 1032 86 10000 2.37 159 22:42 06.11.2020
5820 Clear 10 1032 86 10000 1.79 155 22:19 06.11.2020
5821 Clear 10 1032 87 10000 2.22 154 21:46 06.11.2020
5822 Clear 10 1032 87 10000 0.45 100 21:22 06.11.2020
5823 Clear 10 1032 87 10000 1.34 90 20:59 06.11.2020
5824 Clear 10 1032 87 10000 1.92 152 20:41 06.11.2020
5825 Clear 10 1032 88 10000 1.61 148 20:19 06.11.2020
5826 Clear 10 1033 88 10000 1.61 148 19:45 06.11.2020
5827 Clouds 10 1033 87 10000 1.2 135 19:26 06.11.2020
5828 Clear 10 1033 87 10000 1.23 122 18:46 06.11.2020
5829 Clear 10 1033 87 10000 0.55 116 18:24 06.11.2020
5830 Clear 10 1033 87 10000 0.55 116 17:51 06.11.2020
5831 Clear 10 1033 87 10000 1.34 180 17:27 06.11.2020
5832 Clear 10 1033 87 10000 0.16 351 17:27 06.11.2020
5833 Clear 10 1033 86 10000 0.89 167 16:50 06.11.2020
5834 Clear 10 1033 85 10000 0.44 312 16:32 06.11.2020
5835 Clear 10 1033 86 10000 0.89 190 16:32 06.11.2020
5836 Clear 10 1034 85 10000 0.44 312 15:55 06.11.2020
5837 Clear 11 1034 84 10000 0.94 279 15:33 06.11.2020
5838 Clear 11 1034 83 10000 0.94 279 14:54 06.11.2020
5839 Clear 11 1034 82 10000 1.46 280 14:28 06.11.2020
5840 Clear 11 1034 82 10000 0.45 217 13:50 06.11.2020
5841 Clouds 11 1034 80 10000 1.34 261 13:26 06.11.2020
5842 Clouds 11 1035 80 10000 1.34 271 12:56 06.11.2020
5843 Clouds 11 1035 80 10000 1.92 279 12:38 06.11.2020
5844 Clouds 11 1035 80 10000 2.2 276 12:18 06.11.2020
5845 Clouds 11 1035 82 10000 2.24 239 11:36 06.11.2020
5846 Clouds 11 1035 81 10000 2.24 293 10:58 06.11.2020
5847 Clouds 11 1035 82 10000 2.5 282 10:34 06.11.2020
5848 Clouds 10 1035 83 10000 0.89 228 09:57 06.11.2020
5849 Clouds 10 1036 84 10000 2.83 286 09:38 06.11.2020
5850 Clouds 10 1036 85 10000 3.25 285 09:20 06.11.2020
5851 Clouds 10 1036 87 10000 3.25 285 08:47 06.11.2020
5852 Clouds 9 1036 87 10000 3.22 272 08:27 06.11.2020
5853 Clouds 9 1036 88 10000 0.45 184 07:42 06.11.2020
5854 Clouds 9 1036 89 10000 3.08 268 07:19 06.11.2020
5855 Clouds 9 1035 89 10000 3.16 269 06:40 06.11.2020
5856 Clouds 8 1035 90 10000 0.89 241 05:38 06.11.2020
5857 Clouds 8 1036 86 10000 0.89 234 01:59 06.11.2020
5858 Clouds 8 1036 84 10000 1.79 235 00:29 06.11.2020
5859 Clouds 8 1036 83 10000 3.54 258 23:51 05.11.2020
5860 Clouds 8 1036 85 10000 2.24 261 23:24 05.11.2020
5861 Clouds 8 1036 86 10000 1.79 255 22:48 05.11.2020
5862 Clouds 8 1036 86 10000 0.45 326 22:26 05.11.2020
5863 Clouds 8 1036 84 10000 1.34 244 21:57 05.11.2020
5864 Clouds 8 1036 84 10000 1.34 227 21:38 05.11.2020
5865 Clouds 8 1036 85 10000 3.44 266 21:19 05.11.2020
5866 Clouds 7 1036 85 10000 1.34 241 20:43 05.11.2020
5867 Clouds 7 1036 87 10000 1.79 237 20:24 05.11.2020
5868 Clouds 7 1036 87 10000 1.34 206 20:24 05.11.2020
5869 Clouds 7 1036 85 10000 3.67 266 19:45 05.11.2020
5870 Clouds 8 1036 85 10000 3.13 247 19:27 05.11.2020
5871 Clouds 8 1036 84 10000 2.24 268 18:58 05.11.2020
5872 Clouds 8 1036 84 10000 0.89 290 18:39 05.11.2020
5873 Clouds 9 1036 83 10000 2.68 269 18:21 05.11.2020
5874 Clouds 9 1036 83 10000 0.89 206 17:45 05.11.2020
5875 Clouds 9 1036 82 10000 2.24 232 17:25 05.11.2020
5876 Clouds 9 1036 81 10000 1.79 289 16:49 05.11.2020
5877 Clouds 10 1036 81 10000 1.34 228 16:28 05.11.2020
5878 Clouds 10 1036 77 10000 0.45 262 15:55 05.11.2020
5879 Clouds 11 1036 75 10000 2.68 295 15:36 05.11.2020
5880 Clouds 11 1036 73 10000 0.45 190 15:18 05.11.2020
5881 Clouds 11 1037 70 10000 4.02 269 14:42 05.11.2020
5882 Clouds 12 1037 72 10000 2.68 238 14:23 05.11.2020
5883 Clouds 12 1037 73 10000 4.02 247 13:40 05.11.2020
5884 Clear 12 1037 75 10000 0.89 290 13:18 05.11.2020
5885 Clouds 12 1038 77 10000 2.68 280 12:42 05.11.2020
5886 Clear 11 1038 79 10000 2.24 223 12:23 05.11.2020
5887 Clear 10 1038 81 10000 0.45 263 11:43 05.11.2020
5888 Clouds 9 1038 82 10000 2.24 280 11:23 05.11.2020
5889 Clouds 9 1038 85 10000 0.89 261 10:49 05.11.2020
5890 Clouds 8 1038 89 10000 5.81 223 10:28 05.11.2020
5891 Clouds 8 1038 92 10000 2.24 269 09:50 05.11.2020
5892 Clear 6 1039 92 10000 2.68 234 09:25 05.11.2020
5893 Clear 5 1038 92 10000 1.79 279 08:59 05.11.2020
5894 Clear 6 1038 93 10000 0.45 191 08:41 05.11.2020
5895 Clear 3 1038 93 10000 2.94 274 08:23 05.11.2020
5896 Clear 3 1038 93 10000 1.34 139 07:29 05.11.2020
5897 Clear 3 1037 93 10000 3.13 272 06:51 05.11.2020
5898 Clear 3 1037 92 10000 2.24 285 06:32 05.11.2020
5899 Clear 3 1036 92 10000 3.29 269 03:46 05.11.2020
5900 Clear 4 1036 91 10000 0.45 142 00:45 05.11.2020
5901 Clear 4 1036 91 10000 3.08 271 00:25 05.11.2020
5902 Clear 3 1036 90 10000 1.34 242 23:43 04.11.2020
5903 Clear 4 1035 90 10000 3.11 270 23:24 04.11.2020
5904 Clear 5 1035 90 10000 0.45 193 22:44 04.11.2020
5905 Clear 5 1035 90 10000 3.17 272 22:23 04.11.2020
5906 Clear 5 1035 90 10000 1.79 275 21:48 04.11.2020
5907 Clear 5 1035 89 10000 1.34 232 21:28 04.11.2020
5908 Clear 5 1035 89 10000 0.89 234 20:56 04.11.2020
5909 Clear 5 1035 89 10000 0.89 234 20:56 04.11.2020
5910 Clear 5 1034 89 10000 3 267 20:37 04.11.2020
5911 Clear 5 1034 89 10000 2.95 277 20:18 04.11.2020
5912 Clear 5 1034 88 10000 2.95 277 19:42 04.11.2020
5913 Clear 5 1034 88 10000 3.14 284 19:24 04.11.2020
5914 Clear 5 1034 87 10000 3.04 276 18:43 04.11.2020
5915 Clear 6 1033 87 10000 2.89 276 18:24 04.11.2020
5916 Clear 6 1033 86 10000 2.89 276 17:54 04.11.2020
5917 Clear 7 1033 85 10000 2.89 276 17:36 04.11.2020
5918 Clear 8 1032 84 10000 2.79 273 17:18 04.11.2020
5919 Clear 9 1032 79 10000 2.79 273 16:37 04.11.2020
5920 Clear 10 1032 73 10000 2.86 271 16:18 04.11.2020
5921 Clear 11 1031 67 10000 1.79 237 15:42 04.11.2020
5922 Clear 11 1031 66 10000 4.03 277 15:23 04.11.2020
5923 Clear 12 1031 62 10000 3.58 287 14:47 04.11.2020
5924 Clear 12 1031 62 10000 0.89 217 14:26 04.11.2020
5925 Clear 12 1031 62 10000 0.89 295 13:56 04.11.2020
5926 Clear 12 1031 63 10000 1.79 204 13:37 04.11.2020
5927 Clear 12 1031 63 10000 2.68 307 13:18 04.11.2020
5928 Clear 13 1031 62 10000 1.34 352 12:42 04.11.2020
5929 Clear 12 1031 66 10000 2.68 303 12:24 04.11.2020
5930 Clear 12 1031 67 10000 4.95 281 11:46 04.11.2020
5931 Clear 11 1031 67 10000 4.92 289 11:24 04.11.2020
5932 Clear 11 1030 70 10000 1.34 321 10:52 04.11.2020
5933 Clear 9 1030 72 10000 1.34 204 10:24 04.11.2020
5934 Clear 9 1030 72 10000 4.02 259 09:58 04.11.2020
5935 Clear 9 1030 75 10000 1.79 272 09:40 04.11.2020
5936 Clear 8 1030 80 10000 4.99 264 09:20 04.11.2020
5937 Clear 7 1029 83 10000 1.34 141 08:41 04.11.2020
5938 Clear 6 1029 87 10000 1.79 159 08:18 04.11.2020
5939 Clear 6 1029 87 10000 1.79 159 08:18 04.11.2020
5940 Clear 6 1028 88 10000 3.86 250 07:44 04.11.2020
5941 Clouds 6 1028 87 10000 3.67 246 07:25 04.11.2020
5942 Clouds 6 1028 86 10000 3.48 247 06:41 04.11.2020
5943 Clouds 7 1027 82 10000 0.45 175 05:54 04.11.2020
5944 Clouds 8 1025 77 10000 3.13 249 02:31 04.11.2020
5945 Clouds 9 1025 76 10000 3.13 247 01:40 04.11.2020
5946 Clouds 9 1024 75 10000 1.34 262 00:40 04.11.2020
5947 Clouds 10 1023 74 10000 0.89 252 23:34 03.11.2020
5948 Clouds 10 1023 73 10000 1.34 182 22:59 03.11.2020
5949 Clouds 10 1023 78 10000 4.06 241 22:40 03.11.2020
5950 Clouds 9 1023 81 10000 4.13 221 22:20 03.11.2020
5951 Clouds 10 1023 80 10000 4.13 221 21:55 03.11.2020
5952 Clouds 9 1023 80 10000 4.13 221 21:37 03.11.2020
5953 Clouds 9 1022 80 10000 3.79 218 21:18 03.11.2020
5954 Clouds 9 1022 78 10000 3.79 218 20:42 03.11.2020
5955 Clouds 9 1022 80 10000 3.34 211 20:21 03.11.2020
5956 Clouds 9 1022 80 10000 3.34 211 19:43 03.11.2020
5957 Clouds 10 1022 80 10000 2.42 200 19:20 03.11.2020
5958 Clouds 10 1022 80 10000 2.81 201 18:44 03.11.2020
5959 Clouds 10 1022 78 10000 2.11 197 18:20 03.11.2020
5960 Clouds 10 1021 78 10000 2.11 197 17:55 03.11.2020
5961 Clouds 10 1021 78 10000 2.11 197 17:37 03.11.2020
5962 Clouds 10 1022 78 10000 1.42 206 17:37 03.11.2020
5963 Clouds 11 1022 77 10000 1.42 206 17:18 03.11.2020
5964 Clouds 11 1022 74 10000 1.42 206 16:43 03.11.2020
5965 Clouds 12 1021 71 10000 0.96 225 16:21 03.11.2020
5966 Clouds 13 1022 64 10000 0.96 225 15:41 03.11.2020
5967 Clouds 13 1022 65 10000 1.61 254 15:23 03.11.2020
5968 Clouds 14 1022 59 10000 1.61 254 14:46 03.11.2020
5969 Clouds 14 1022 57 10000 2.16 261 14:27 03.11.2020
5970 Clouds 13 1022 62 10000 0.45 327 13:46 03.11.2020
5971 Clouds 14 1022 57 10000 3.07 270 13:23 03.11.2020
5972 Clouds 14 1022 56 10000 0.45 215 12:56 03.11.2020
5973 Clouds 14 1022 56 10000 0.45 211 12:36 03.11.2020
5974 Clouds 14 1023 57 10000 1.79 287 12:18 03.11.2020
5975 Clouds 14 1023 60 10000 0.89 251 11:41 03.11.2020
5976 Clouds 13 1023 61 10000 2.24 290 11:20 03.11.2020
5977 Clouds 13 1023 69 10000 4.44 267 10:39 03.11.2020
5978 Clouds 13 1023 70 10000 4.02 230 10:20 03.11.2020
5979 Clouds 13 1022 69 10000 3.13 282 09:51 03.11.2020
5980 Clouds 13 1023 71 10000 1.34 241 09:33 03.11.2020
5981 Clouds 12 1022 74 10000 0.45 276 08:56 03.11.2020
5982 Clouds 11 1022 77 10000 0.45 23 08:35 03.11.2020
5983 Clear 11 1021 80 10000 3.71 258 07:49 03.11.2020
5984 Clouds 11 1021 78 10000 3.98 256 07:27 03.11.2020
5985 Clouds 11 1021 77 10000 3.13 225 06:49 03.11.2020
5986 Clouds 12 1019 79 10000 3.13 228 05:38 03.11.2020
5987 Clouds 14 1017 81 10000 4.39 270 02:43 03.11.2020
5988 Clouds 14 1015 84 10000 5.09 278 00:41 03.11.2020
5989 Rain 15 1014 88 10000 7.01 275 23:54 02.11.2020
5990 Rain 15 1014 87 10000 1.34 319 23:36 02.11.2020
5991 Clouds 16 1013 87 10000 3.58 297 22:56 02.11.2020
5992 Clear 16 1013 87 10000 0.89 311 22:36 02.11.2020
5993 Clear 18 1011 72 10000 4.47 155 21:59 02.11.2020
5994 Clear 18 1011 72 10000 3.58 176 21:38 02.11.2020
5995 Clear 19 1011 73 10000 0.89 230 21:19 02.11.2020
5996 Clear 18 1010 74 10000 2.68 193 20:41 02.11.2020
5997 Clear 19 1010 72 10000 2.24 175 20:20 02.11.2020
5998 Clear 18 1010 75 10000 4.02 180 19:57 02.11.2020
5999 Clear 18 1010 74 10000 1.79 132 19:38 02.11.2020
6000 Clouds 18 1010 74 10000 1.79 159 19:20 02.11.2020
6001 Clouds 18 1010 74 10000 4.92 177 18:39 02.11.2020
6002 Clouds 18 1009 73 10000 2.24 86 18:20 02.11.2020
6003 Clouds 18 1010 72 10000 1.79 186 17:56 02.11.2020
6004 Clouds 19 1009 74 10000 1.34 56 17:36 02.11.2020
6005 Clouds 18 1009 75 10000 2.24 79 17:18 02.11.2020
6006 Clouds 19 1009 73 10000 1.34 176 16:38 02.11.2020
6007 Clouds 19 1009 70 10000 1.34 201 16:20 02.11.2020
6008 Clouds 20 1009 67 10000 2.24 155 15:39 02.11.2020
6009 Clouds 20 1009 63 10000 1.34 190 15:20 02.11.2020
6010 Clouds 21 1009 61 10000 0.89 158 14:53 02.11.2020
6011 Clouds 21 1009 63 10000 3.58 223 14:20 02.11.2020
6012 Clouds 21 1009 62 10000 1.79 300 13:52 02.11.2020
6013 Clouds 21 1009 64 10000 1.34 278 13:23 02.11.2020
6014 Clouds 20 1009 67 10000 2.68 237 12:55 02.11.2020
6015 Clouds 21 1009 66 10000 3.13 214 12:30 02.11.2020
6016 Clouds 21 1009 66 10000 2.68 193 11:56 02.11.2020
6017 Clouds 21 1009 67 10000 2.24 160 11:37 02.11.2020
6018 Clouds 20 1009 67 10000 2.68 141 11:18 02.11.2020
6019 Clouds 19 1009 72 10000 4.47 172 10:41 02.11.2020
6020 Clouds 18 1009 78 10000 3.58 172 10:20 02.11.2020
6021 Clouds 18 1010 81 10000 3.58 175 09:49 02.11.2020
6022 Clouds 18 1009 81 10000 3.13 148 09:23 02.11.2020
6023 Clouds 17 1009 83 10000 2.68 163 08:40 02.11.2020
6024 Clouds 16 1009 84 10000 2.68 193 08:20 02.11.2020
6025 Clouds 16 1009 86 10000 1.34 155 07:50 02.11.2020
6026 Clouds 16 1009 85 10000 1.34 132 06:52 02.11.2020
6027 Clouds 16 1009 86 10000 3.58 173 06:34 02.11.2020
6028 Rain 16 1009 86 10000 3.58 135 03:24 02.11.2020
6029 Rain 16 1010 88 10000 2.24 179 01:24 02.11.2020
6030 Rain 16 1010 88 10000 2.24 179 01:24 02.11.2020
6031 Rain 16 1010 85 10000 1.34 186 00:35 02.11.2020
6032 Clouds 16 1010 83 10000 2.68 204 23:41 01.11.2020
6033 Clouds 16 1010 84 10000 2.24 214 23:23 01.11.2020
6034 Clouds 15 1010 85 10000 1.34 189 22:46 01.11.2020
6035 Clouds 15 1010 85 10000 2.24 162 22:25 01.11.2020
6036 Clouds 15 1010 85 10000 2.24 162 22:25 01.11.2020
6037 Clouds 15 1010 86 10000 2.24 194 21:58 01.11.2020
6038 Clouds 15 1010 87 10000 2.68 159 21:38 01.11.2020
6039 Clouds 15 1010 86 10000 2.68 155 21:20 01.11.2020
6040 Clouds 15 1010 84 10000 3.13 175 20:42 01.11.2020
6041 Clouds 15 1010 84 10000 1.34 182 20:23 01.11.2020
6042 Clouds 15 1010 83 10000 4.02 135 19:43 01.11.2020
6043 Clouds 15 1010 83 10000 0.89 183 19:25 01.11.2020
6044 Clouds 15 1011 82 10000 3.13 160 18:54 01.11.2020
6045 Clouds 15 1011 82 10000 4.02 179 18:36 01.11.2020
6046 Rain 15 1010 82 10000 2.24 179 18:18 01.11.2020
6047 Rain 15 1010 82 10000 2.24 179 18:18 01.11.2020
6048 Clouds 15 1011 83 10000 4.02 141 17:43 01.11.2020
6049 Clouds 15 1011 82 10000 1.79 25 17:24 01.11.2020
6050 Clouds 15 1010 81 10000 0.45 125 16:42 01.11.2020
6051 Clouds 15 1011 81 10000 1.34 148 16:21 01.11.2020
6052 Clouds 16 1012 80 10000 3.13 149 15:54 01.11.2020
6053 Clouds 16 1012 78 10000 2.68 124 15:36 01.11.2020
6054 Clouds 16 1012 78 10000 3.13 139 15:18 01.11.2020
6055 Clouds 16 1012 78 10000 2.68 142 14:44 01.11.2020
6056 Rain 16 1012 75 10000 3.58 191 14:22 01.11.2020
6057 Clouds 16 1013 75 10000 4.47 179 13:49 01.11.2020
6058 Clouds 16 1007 10 10000 5.31 187 13:31 01.11.2020
6059 Clouds 16 1013 75 10000 1.79 167 12:56 01.11.2020
6060 Clouds 16 1013 77 10000 5.36 173 12:37 01.11.2020
6061 Clouds 15 1014 78 10000 5.81 156 12:18 01.11.2020
6062 Clouds 15 1014 80 10000 1.34 104 11:44 01.11.2020
6063 Clouds 14 1014 82 10000 3.13 128 11:18 01.11.2020
6064 Clouds 14 1015 82 10000 1.79 135 10:41 01.11.2020
6065 Clouds 14 1015 84 10000 0.45 118 10:22 01.11.2020
6066 Rain 13 1015 85 10000 1.34 189 09:47 01.11.2020
6067 Rain 13 1015 88 10000 0.45 105 08:55 01.11.2020
6068 Rain 12 1015 90 10000 4.17 220 08:36 01.11.2020
6069 Rain 11 1015 92 10000 3.43 218 07:50 01.11.2020
6070 Clouds 12 1015 91 10000 3.41 197 06:23 01.11.2020
6071 Rain 12 1016 85 10000 3.76 210 01:59 01.11.2020
6072 Clouds 12 1016 86 10000 3.75 190 01:23 01.11.2020
6073 Clouds 11 1016 90 10000 2.24 149 23:42 31.10.2020
6074 Clouds 11 1016 89 10000 0.89 77 23:23 31.10.2020
6075 Clouds 11 1016 88 10000 2.68 84 22:45 31.10.2020
6076 Clouds 11 1016 88 10000 2.68 84 22:45 31.10.2020
6077 Clouds 12 1016 87 10000 1.79 175 22:24 31.10.2020
6078 Clouds 12 1017 87 10000 2.68 201 21:46 31.10.2020
6079 Clouds 12 1017 86 10000 5.36 166 21:22 31.10.2020
6080 Clouds 13 1017 85 10000 5.36 151 20:43 31.10.2020
6081 Clear 13 1017 86 10000 3.13 33 20:20 31.10.2020
6082 Clear 13 1017 83 10000 4.02 131 19:58 31.10.2020
6083 Clear 14 1018 82 10000 2.24 184 19:37 31.10.2020
6084 Clouds 14 1018 82 10000 3.58 145 19:18 31.10.2020
6085 Clear 14 1018 85 10000 3.13 155 18:42 31.10.2020
6086 Clouds 14 1019 86 10000 1.34 193 17:47 31.10.2020
6087 Clouds 14 1019 88 10000 2.68 165 17:29 31.10.2020
6088 Clouds 15 1019 87 10000 2.24 146 16:59 31.10.2020
6089 Clouds 15 1019 84 10000 0.45 138 16:39 31.10.2020
6090 Clouds 16 1019 79 10000 4.02 160 15:57 31.10.2020
6091 Clouds 16 1020 78 10000 4.02 153 15:36 31.10.2020
6092 Clouds 16 1020 77 10000 2.24 184 15:18 31.10.2020
6093 Clouds 17 1020 76 10000 1.34 136 14:46 31.10.2020
6094 Clouds 17 1020 74 10000 3.13 83 14:26 31.10.2020
6095 Clouds 18 1021 71 10000 1.34 203 13:50 31.10.2020
6096 Clouds 18 1021 70 10000 0.45 95 13:23 31.10.2020
6097 Clouds 15 1022 95 10000 2.57 182 12:35 31.10.2020
6098 Clouds 15 1023 97 10000 0.45 291 11:48 31.10.2020
6099 Clouds 15 1023 97 10000 0.89 286 11:29 31.10.2020
6100 Clouds 16 1022 78 10000 2.68 242 10:57 31.10.2020
6101 Clouds 16 1023 79 10000 1.79 280 10:35 31.10.2020
6102 Clouds 15 1023 81 10000 0.89 259 09:43 31.10.2020
6103 Clouds 15 1023 83 10000 2.43 282 09:25 31.10.2020
6104 Clouds 14 1023 89 10000 1.34 224 08:33 31.10.2020
6105 Clouds 14 1023 90 10000 0.45 241 07:58 31.10.2020
6106 Clouds 14 1023 89 10000 3.06 281 07:27 31.10.2020
6107 Clouds 14 1022 89 10000 3.16 281 06:42 31.10.2020
6108 Clouds 14 1022 89 10000 1.34 269 06:19 31.10.2020
6109 Clouds 14 1021 86 10000 0.89 249 03:46 31.10.2020
6110 Clouds 14 1021 85 10000 5.36 234 01:30 31.10.2020
6111 Clouds 14 1021 85 10000 4.49 273 00:47 31.10.2020
6112 Clouds 14 1021 86 10000 2.68 169 23:53 30.10.2020
6113 Clouds 14 1021 87 10000 2.68 201 23:26 30.10.2020
6114 Clouds 14 1020 88 10000 0.45 211 22:53 30.10.2020
6115 Clouds 14 1020 89 10000 2.68 237 22:27 30.10.2020
6116 Rain 14 1020 89 10000 1.79 35 21:59 30.10.2020
6117 Rain 14 1020 88 10000 0.89 225 21:40 30.10.2020
6118 Rain 14 1020 88 10000 3.58 227 21:21 30.10.2020
6119 Clouds 14 1020 88 10000 0.45 266 20:42 30.10.2020
6120 Rain 14 1019 89 10000 2.68 234 20:24 30.10.2020
6121 Rain 14 1019 89 10000 1.34 255 19:52 30.10.2020
6122 Clouds 14 1019 90 10000 7.13 277 19:19 30.10.2020
6123 Clouds 14 1019 90 10000 2.24 289 18:52 30.10.2020
6124 Clouds 14 1018 91 10000 2.68 234 18:33 30.10.2020
6125 Rain 14 1018 89 10000 1.79 239 17:57 30.10.2020
6126 Rain 14 1018 88 10000 0.45 300 17:39 30.10.2020
6127 Rain 14 1018 86 10000 1.34 227 17:20 30.10.2020
6128 Clouds 14 1018 86 10000 1.34 218 16:49 30.10.2020
6129 Rain 14 1018 85 10000 1.79 213 16:24 30.10.2020
6130 Clouds 15 1017 84 10000 2.24 237 15:41 30.10.2020
6131 Rain 15 1017 84 10000 2.68 237 15:20 30.10.2020
6132 Clouds 14 1017 86 10000 5.36 258 14:46 30.10.2020
6133 Rain 14 1017 86 10000 3.13 309 14:28 30.10.2020
6134 Clouds 14 1016 87 10000 3.13 252 13:57 30.10.2020
6135 Clouds 14 1016 88 10000 1.34 241 13:39 30.10.2020
6136 Rain 14 1016 88 10000 1.79 200 13:19 30.10.2020
6137 Rain 14 1016 86 10000 4.02 256 12:41 30.10.2020
6138 Rain 14 1016 86 10000 2.68 211 12:21 30.10.2020
6139 Clouds 14 1016 86 10000 4.02 193 11:44 30.10.2020
6140 Rain 14 1016 84 10000 0.89 238 11:20 30.10.2020
6141 Clouds 14 1016 86 10000 6.26 227 10:50 30.10.2020
6142 Rain 13 1016 86 10000 0.89 115 10:25 30.10.2020
6143 Clouds 13 1016 87 10000 2.68 163 09:46 30.10.2020
6144 Rain 13 1016 88 10000 1.79 191 09:24 30.10.2020
6145 Clouds 12 1015 88 10000 0.89 167 08:55 30.10.2020
6146 Clouds 12 1015 90 10000 0.89 290 08:31 30.10.2020
6147 Clouds 11 1015 91 10000 6.6 263 07:51 30.10.2020
6148 Clouds 11 1015 91 10000 6.6 263 07:51 30.10.2020
6149 Clouds 11 1015 91 10000 6.6 263 07:33 30.10.2020
6150 Clouds 11 1014 91 10000 6.47 264 06:49 30.10.2020
6151 Rain 10 1015 91 10000 1.79 172 05:31 30.10.2020
6152 Rain 9 1016 89 8287 1.34 167 02:30 30.10.2020
6153 Rain 9 1016 86 10000 2.24 173 00:47 30.10.2020
6154 Rain 9 1017 84 10000 1.79 160 23:57 29.10.2020
6155 Rain 9 1017 82 10000 0.45 104 23:39 29.10.2020
6156 Rain 9 1017 82 10000 3.13 152 23:21 29.10.2020
6157 Rain 9 1017 81 10000 1.34 194 22:43 29.10.2020
6158 Rain 9 1017 80 10000 3.72 207 22:24 29.10.2020
6159 Rain 9 1017 80 10000 3.72 207 21:43 29.10.2020
6160 Clouds 9 1017 80 10000 1.79 201 21:21 29.10.2020
6161 Clouds 9 1017 79 10000 3.13 217 20:42 29.10.2020
6162 Clouds 9 1017 78 10000 1.34 266 20:20 29.10.2020
6163 Clouds 9 1016 78 10000 3.13 326 20:20 29.10.2020
6164 Clouds 9 1016 78 10000 1.34 251 19:54 29.10.2020
6165 Clouds 9 1017 78 10000 1.79 273 19:36 29.10.2020
6166 Clouds 9 1017 78 10000 2.68 254 19:18 29.10.2020
6167 Clouds 9 1017 79 10000 1.79 285 18:41 29.10.2020
6168 Clouds 10 1016 78 10000 3.99 248 18:21 29.10.2020
6169 Clouds 11 1016 73 10000 1.79 218 17:42 29.10.2020
6170 Clouds 11 1016 71 10000 2.68 227 17:21 29.10.2020
6171 Clouds 12 1016 70 10000 2.68 248 16:52 29.10.2020
6172 Clouds 12 1016 69 10000 1.34 256 16:23 29.10.2020
6173 Clouds 12 1015 67 10000 2.24 224 15:57 29.10.2020
6174 Clouds 12 1015 66 10000 4.02 295 15:39 29.10.2020
6175 Clouds 12 1015 66 10000 2.24 231 15:21 29.10.2020
6176 Clouds 12 1015 64 10000 3.13 313 14:46 29.10.2020
6177 Clouds 13 1014 64 10000 5.36 221 14:24 29.10.2020
6178 Clouds 12 1014 64 10000 2.68 204 13:59 29.10.2020
6179 Clouds 13 1014 62 10000 0.89 347 13:39 29.10.2020
6180 Rain 13 1014 62 10000 2.68 263 13:21 29.10.2020
6181 Clouds 12 1014 66 10000 3.58 197 12:40 29.10.2020
6182 Clouds 12 1014 66 10000 2.68 231 12:19 29.10.2020
6183 Clouds 13 1013 62 10000 1.34 152 11:45 29.10.2020
6184 Clear 12 1013 65 10000 4.02 235 11:24 29.10.2020
6185 Clear 12 1013 73 10000 4.92 263 10:38 29.10.2020
6186 Clear 11 1012 75 10000 8.05 247 10:19 29.10.2020
6187 Clear 10 1012 75 10000 5.81 238 09:53 29.10.2020
6188 Clear 11 1012 77 10000 0.89 227 09:28 29.10.2020
6189 Clear 10 1011 77 10000 3.13 218 08:56 29.10.2020
6190 Clear 11 1011 76 10000 2.68 223 08:34 29.10.2020
6191 Clear 10 1010 82 10000 0.89 125 07:58 29.10.2020
6192 Clear 9 1010 85 10000 0.45 151 07:39 29.10.2020
6193 Clouds 9 1009 89 10000 0.89 187 06:57 29.10.2020
6194 Clouds 10 1008 86 10000 2.24 191 05:35 29.10.2020
6195 Rain 10 1008 88 10000 4.02 196 04:45 29.10.2020
6196 Clouds 11 1008 77 10000 2.24 163 01:24 29.10.2020
6197 Clouds 11 1009 79 10000 2.24 93 00:31 29.10.2020
6198 Clouds 11 1009 77 10000 3.13 189 23:48 28.10.2020
6199 Clouds 11 1009 76 10000 3.58 172 23:22 28.10.2020
6200 Clouds 11 1009 77 10000 1.79 187 22:45 28.10.2020
6201 Clouds 11 1009 78 10000 2.24 127 22:27 28.10.2020
6202 Clouds 11 1010 79 10000 3.58 235 21:59 28.10.2020
6203 Clouds 11 1010 79 10000 4.92 197 21:40 28.10.2020
6204 Clouds 11 1010 80 10000 1.34 156 21:20 28.10.2020
6205 Clouds 11 1010 82 10000 3.13 167 20:42 28.10.2020
6206 Clouds 11 1010 83 10000 1.34 143 20:22 28.10.2020
6207 Clouds 11 1010 86 10000 2.24 170 19:51 28.10.2020
6208 Clouds 11 1010 88 10000 2.24 194 19:29 28.10.2020
6209 Clouds 11 1010 86 10000 3.13 197 18:50 28.10.2020
6210 Clouds 12 1010 84 10000 0.89 166 18:22 28.10.2020
6211 Clouds 12 1010 84 10000 0.89 254 17:57 28.10.2020
6212 Clouds 12 1009 83 10000 0.45 194 17:39 28.10.2020
6213 Clouds 13 1010 80 10000 3.13 224 17:18 28.10.2020
6214 Clouds 13 1010 76 10000 2.68 196 16:44 28.10.2020
6215 Rain 14 1009 75 10000 1.79 152 16:23 28.10.2020
6216 Rain 14 1009 75 10000 1.79 152 16:23 28.10.2020
6217 Clouds 15 1009 70 10000 2.24 156 15:40 28.10.2020
6218 Clouds 15 1009 66 10000 1.79 221 15:19 28.10.2020
6219 Clouds 15 1009 67 10000 1.79 169 14:44 28.10.2020
6220 Clouds 16 1009 66 10000 2.24 151 14:26 28.10.2020
6221 Clouds 16 1009 66 10000 2.68 169 12:59 28.10.2020
6222 Clouds 15 1009 67 10000 0.45 180 12:36 28.10.2020
6223 Clouds 15 1009 68 10000 0.89 117 12:18 28.10.2020
6224 Clouds 15 1009 71 10000 2.24 221 11:42 28.10.2020
6225 Clouds 15 1009 71 10000 2.24 158 11:21 28.10.2020
6226 Clouds 15 1009 72 10000 2.24 225 10:53 28.10.2020
6227 Clouds 13 1009 75 10000 2.24 313 10:33 28.10.2020
6228 Clouds 12 1009 74 10000 0.89 163 09:56 28.10.2020
6229 Clouds 12 1009 76 10000 1.34 251 09:37 28.10.2020
6230 Clouds 12 1009 76 10000 2.24 203 09:19 28.10.2020
6231 Clouds 11 1009 78 10000 2.24 180 08:43 28.10.2020
6232 Clouds 11 1009 80 10000 0.45 170 08:23 28.10.2020
6233 Clouds 11 1008 80 10000 4.92 165 07:44 28.10.2020
6234 Clouds 10 1008 81 10000 1.34 186 07:26 28.10.2020
6235 Clouds 10 1007 80 10000 1.79 179 06:40 28.10.2020
6236 Clouds 10 1007 79 10000 0.45 175 05:48 28.10.2020
6237 Clouds 10 1007 78 10000 3.58 156 04:52 28.10.2020
6238 Clouds 10 1007 76 10000 1.34 162 04:24 28.10.2020
6239 Clouds 10 1007 78 10000 4.47 69 02:25 28.10.2020
6240 Clouds 9 1007 81 10000 4.92 193 00:51 28.10.2020
6241 Clouds 9 1008 82 10000 4.02 81 23:52 27.10.2020
6242 Clouds 9 1008 81 10000 2.68 36 23:23 27.10.2020
6243 Clouds 9 1008 82 10000 5.36 186 22:55 27.10.2020
6244 Clouds 9 1008 84 10000 2.24 167 22:37 27.10.2020
6245 Clouds 9 1008 84 10000 2.24 83 22:18 27.10.2020
6246 Clouds 9 1008 84 10000 3.13 132 21:55 27.10.2020
6247 Clouds 9 1008 82 10000 4.47 84 21:36 27.10.2020
6248 Clouds 9 1008 81 10000 2.68 199 21:18 27.10.2020
6249 Clouds 9 1008 81 10000 2.68 199 21:18 27.10.2020
6250 Clouds 10 1008 80 10000 1.34 128 20:39 27.10.2020
6251 Clouds 10 1008 80 10000 4.47 200 20:20 27.10.2020
6252 Clouds 10 1008 79 10000 0.89 131 19:39 27.10.2020
6253 Clouds 10 1008 78 10000 3.13 218 19:21 27.10.2020
6254 Clouds 11 1008 78 10000 2.24 180 18:58 27.10.2020
6255 Clouds 11 1008 77 10000 3.13 139 18:40 27.10.2020
6256 Clouds 11 1009 75 10000 3.58 177 18:19 27.10.2020
6257 Clouds 11 1009 74 10000 1.79 217 17:43 27.10.2020
6258 Clouds 11 1009 74 10000 1.79 213 17:21 27.10.2020
6259 Clouds 12 1008 73 10000 3.58 107 16:48 27.10.2020
6260 Clouds 12 1008 73 10000 3.13 187 16:28 27.10.2020
6261 Clouds 11 1008 73 10000 4.47 193 15:55 27.10.2020
6262 Clouds 12 1008 70 10000 2.24 166 15:37 27.10.2020
6263 Clouds 13 1009 69 10000 2.68 214 15:18 27.10.2020
6264 Clouds 14 1008 66 10000 2.24 194 14:41 27.10.2020
6265 Clouds 15 1008 63 10000 4.92 177 14:22 27.10.2020
6266 Clouds 13 1009 64 10000 1.79 225 13:46 27.10.2020
6267 Clouds 13 1009 66 10000 3.13 200 13:22 27.10.2020
6268 Clouds 13 1009 65 10000 6.71 180 12:40 27.10.2020
6269 Clouds 14 1008 65 10000 1.34 160 12:22 27.10.2020
6270 Clouds 13 1008 72 10000 0.89 182 11:42 27.10.2020
6271 Clouds 12 1008 72 10000 3.13 223 11:24 27.10.2020
6272 Clouds 12 1008 74 10000 2.68 103 10:47 27.10.2020
6273 Clouds 12 1008 80 10000 4.47 163 10:29 27.10.2020
6274 Clouds 11 1008 83 10000 2.24 187 09:47 27.10.2020
6275 Clouds 10 1008 84 10000 0.89 228 09:26 27.10.2020
6276 Clouds 10 1008 88 10000 4.02 163 08:44 27.10.2020
6277 Clouds 9 1008 90 10000 0.89 159 08:26 27.10.2020
6278 Clouds 7 1008 92 10000 0.45 172 07:47 27.10.2020
6279 Clouds 7 1008 92 10000 0.45 131 07:28 27.10.2020
6280 Clouds 7 1007 92 10000 2.68 145 06:39 27.10.2020
6281 Clouds 7 1007 91 10000 5.06 208 06:19 27.10.2020
6282 Clouds 7 1007 91 10000 5.06 208 05:44 27.10.2020
6283 Clouds 8 1007 91 10000 0.89 180 04:57 27.10.2020
6284 Clouds 8 1006 91 10000 1.34 211 02:40 27.10.2020
6285 Clouds 8 1006 91 10000 3.13 160 00:59 27.10.2020
6286 Clouds 8 1006 91 10000 3.73 203 23:59 26.10.2020
6287 Clouds 8 1006 91 10000 3.73 203 23:36 26.10.2020
6288 Clouds 9 1006 91 10000 0.89 193 22:56 26.10.2020
6289 Clouds 9 1006 91 10000 0.89 182 22:30 26.10.2020
6290 Clouds 9 1005 91 10000 0.45 170 21:56 26.10.2020
6291 Clouds 9 1005 91 10000 0.89 231 21:36 26.10.2020
6292 Clouds 9 1005 91 10000 3.39 224 21:18 26.10.2020
6293 Clouds 10 1005 91 10000 3.39 224 20:46 26.10.2020
6294 Clouds 10 1005 92 10000 4.1 226 20:26 26.10.2020
6295 Clouds 10 1005 91 10000 4.1 226 19:49 26.10.2020
6296 Clouds 10 1004 91 10000 4.51 234 19:28 26.10.2020
6297 Clouds 11 1005 91 10000 3.83 227 18:58 26.10.2020
6298 Rain 11 1004 91 10000 3.83 227 18:39 26.10.2020
6299 Clouds 11 1004 91 10000 3.37 214 18:19 26.10.2020
6300 Clouds 11 1004 91 10000 3.37 214 17:41 26.10.2020
6301 Rain 11 1004 90 10000 2.06 219 17:23 26.10.2020
6302 Clouds 12 1004 89 10000 2.06 219 16:45 26.10.2020
6303 Clouds 12 1004 89 10000 3.1 201 16:22 26.10.2020
6304 Rain 12 1003 89 10000 3.1 201 15:56 26.10.2020
6305 Rain 13 1004 90 10000 3.1 201 15:38 26.10.2020
6306 Rain 13 1004 90 10000 2.58 179 15:18 26.10.2020
6307 Clouds 13 1003 89 10000 2.58 179 14:44 26.10.2020
6308 Rain 13 1003 88 10000 0.45 141 14:18 26.10.2020
6309 Rain 13 1003 88 10000 2.23 188 13:41 26.10.2020
6310 Rain 13 1003 88 10000 0.89 158 13:22 26.10.2020
6311 Rain 13 1003 87 10000 2.24 218 12:45 26.10.2020
6312 Rain 13 1003 87 9614 3.33 240 12:26 26.10.2020
6313 Rain 13 1004 88 9614 3.33 240 11:48 26.10.2020
6314 Rain 12 1004 88 9055 0.89 193 11:27 26.10.2020
6315 Rain 12 1004 90 9055 1.79 207 10:59 26.10.2020
6316 Rain 12 1004 90 9055 2.24 172 10:40 26.10.2020
6317 Rain 12 1004 91 10000 0.89 191 10:20 26.10.2020
6318 Rain 11 1003 91 10000 2.9 206 09:43 26.10.2020
6319 Rain 12 1004 90 10000 1.03 206 09:23 26.10.2020
6320 Rain 11 1003 90 10000 3.03 167 08:29 26.10.2020
6321 Rain 11 1003 90 10000 3.03 167 07:53 26.10.2020
6322 Rain 11 1004 89 10000 3.03 167 07:35 26.10.2020
6323 Rain 11 1004 89 10000 0.89 258 06:37 26.10.2020
6324 Rain 12 1003 81 10000 1.34 156 04:43 26.10.2020
6325 Clouds 12 1003 81 10000 1.34 127 04:18 26.10.2020
6326 Clouds 12 1003 84 10000 2.9 204 01:52 26.10.2020
6327 Clouds 12 1003 85 10000 1.79 169 01:23 26.10.2020
6328 Clouds 12 1004 83 10000 3.8 200 00:32 26.10.2020
6329 Clouds 13 1003 82 10000 3.8 200 23:41 25.10.2020
6330 Clouds 13 1004 81 10000 4.01 202 23:21 25.10.2020
6331 Clouds 13 1004 80 10000 4.01 202 22:41 25.10.2020
6332 Clouds 13 1004 80 10000 1.34 179 22:21 25.10.2020
6333 Clouds 12 1004 81 10000 0.45 173 21:45 25.10.2020
6334 Clouds 12 1004 82 10000 0.45 125 21:26 25.10.2020
6335 Clouds 12 1004 82 10000 3.73 195 20:56 25.10.2020
6336 Rain 13 1004 82 10000 3.73 195 20:38 25.10.2020
6337 Rain 13 1004 79 10000 2.89 198 20:19 25.10.2020
6338 Rain 13 1004 77 10000 1.34 71 19:48 25.10.2020
6339 Rain 13 1004 75 10000 1.34 156 19:24 25.10.2020
6340 Clouds 14 1004 74 10000 2.68 98 18:55 25.10.2020
6341 Clouds 13 1005 74 10000 2.24 87 18:37 25.10.2020
6342 Clouds 13 1005 73 10000 1.79 163 18:19 25.10.2020
6343 Clouds 14 1005 74 10000 2.68 134 17:39 25.10.2020
6344 Clouds 14 1005 76 10000 2.68 179 17:21 25.10.2020
6345 Clouds 14 1005 76 10000 0.89 132 16:58 25.10.2020
6346 Clouds 14 1005 74 10000 2.68 158 16:38 25.10.2020
6347 Clouds 15 1005 70 10000 0.45 46 16:18 25.10.2020
6348 Clouds 15 1005 69 10000 1.79 114 15:46 25.10.2020
6349 Clouds 16 1005 68 10000 0.45 148 15:25 25.10.2020
6350 Clouds 16 1005 68 10000 0.89 104 15:25 25.10.2020
6351 Clouds 16 1006 67 10000 2.24 138 14:47 25.10.2020
6352 Clouds 16 1006 66 10000 3.13 172 14:28 25.10.2020
6353 Clouds 17 1006 61 10000 4.92 153 13:44 25.10.2020
6354 Clouds 17 1006 61 10000 4.92 93 13:21 25.10.2020
6355 Clouds 17 1006 61 10000 4.92 93 13:21 25.10.2020
6356 Clouds 17 1007 63 10000 2.24 184 12:49 25.10.2020
6357 Clouds 17 1007 61 10000 4.02 208 12:27 25.10.2020
6358 Clouds 17 1007 63 10000 6.71 200 11:57 25.10.2020
6359 Clouds 16 1007 65 10000 3.13 146 11:39 25.10.2020
6360 Clouds 16 1007 65 10000 3.13 146 11:39 25.10.2020
6361 Clouds 16 1008 69 10000 4.47 158 11:18 25.10.2020
6362 Clouds 16 1008 68 10000 6.26 180 10:44 25.10.2020
6363 Clouds 16 1008 68 10000 7.09 191 10:25 25.10.2020
6364 Clouds 15 1008 73 10000 4.92 158 09:48 25.10.2020
6365 Clear 14 1008 74 10000 3.58 213 09:20 25.10.2020
6366 Clear 14 1008 77 10000 4.47 183 08:51 25.10.2020
6367 Clear 13 1009 80 10000 6.26 208 08:32 25.10.2020
6368 Clouds 12 1009 80 10000 1.79 176 07:53 25.10.2020
6369 Clouds 11 1009 87 10000 4.47 197 07:34 25.10.2020
6370 Clouds 10 1009 88 10000 0.89 160 06:52 25.10.2020
6371 Clouds 10 1009 88 10000 3.58 125 06:19 25.10.2020
6372 Clouds 11 1009 86 10000 4.47 163 04:53 25.10.2020
6373 Clouds 11 1010 86 10000 0.89 180 03:53 25.10.2020
6374 Clouds 12 1011 84 10000 1.79 156 02:19 25.10.2020
6375 Clouds 13 1011 85 10000 1.79 167 00:49 25.10.2020
6376 Clouds 13 1012 84 10000 0.45 124 00:26 25.10.2020
6377 Clouds 13 1012 84 10000 2.68 151 23:54 24.10.2020
6378 Clouds 14 1012 81 10000 2.68 210 23:29 24.10.2020
6379 Clouds 14 1012 80 10000 1.79 180 22:57 24.10.2020
6380 Clouds 14 1012 79 10000 3.13 207 22:38 24.10.2020
6381 Clouds 14 1012 78 10000 3.58 173 22:20 24.10.2020
6382 Clouds 14 1012 80 10000 0.89 190 21:43 24.10.2020
6383 Clouds 13 1012 82 10000 2.24 162 21:21 24.10.2020
6384 Clouds 13 1012 83 10000 4.15 190 20:50 24.10.2020
6385 Clouds 13 1012 85 10000 0.45 158 20:27 24.10.2020
6386 Clouds 13 1012 85 10000 0.89 230 19:58 24.10.2020
6387 Clear 13 1012 84 10000 1.34 167 19:40 24.10.2020
6388 Clear 14 1012 83 10000 1.34 261 19:22 24.10.2020
6389 Clear 14 1012 84 10000 0.89 159 19:22 24.10.2020
6390 Clear 14 1012 80 10000 2.24 138 18:47 24.10.2020
6391 Clear 15 1012 80 10000 1.79 191 18:27 24.10.2020
6392 Clear 15 1012 81 10000 3.82 213 17:43 24.10.2020
6393 Clear 15 1012 80 10000 0.45 162 17:25 24.10.2020
6394 Clear 17 1013 77 10000 0.89 141 16:48 24.10.2020
6395 Clear 17 1013 76 10000 2.24 197 16:30 24.10.2020
6396 Clear 17 1013 76 10000 0.89 90 15:42 24.10.2020
6397 Clear 18 1013 79 10000 1.34 210 15:20 24.10.2020
6398 Clear 17 1013 79 10000 0.45 77 14:57 24.10.2020
6399 Clouds 17 1014 83 10000 1.79 300 14:29 24.10.2020
6400 Clear 17 1014 81 10000 1.34 306 13:55 24.10.2020
6401 Clear 17 1014 84 10000 5.81 359 13:36 24.10.2020
6402 Clear 17 1014 82 10000 1.34 210 13:18 24.10.2020
6403 Clouds 16 1014 86 10000 3.58 159 12:37 24.10.2020
6404 Clear 16 1014 87 10000 1.79 225 12:19 24.10.2020
6405 Clear 15 1014 89 10000 5.36 220 11:49 24.10.2020
6406 Clear 14 1014 91 10000 2.68 151 11:20 24.10.2020
6407 Clear 14 1014 92 10000 0.45 215 10:44 24.10.2020
6408 Clear 13 1014 92 10000 0.89 179 10:26 24.10.2020
6409 Clear 12 1014 93 10000 3.13 207 09:45 24.10.2020
6410 Clear 11 1014 92 10000 3.71 222 09:26 24.10.2020
6411 Clear 11 1013 92 10000 3.71 222 08:56 24.10.2020
6412 Clouds 10 1013 93 10000 3.34 221 08:19 24.10.2020
6413 Clouds 10 1013 93 10000 3.34 221 07:51 24.10.2020
6414 Clouds 10 1013 93 10000 3.33 230 07:21 24.10.2020
6415 Clouds 10 1013 93 10000 3.33 230 06:50 24.10.2020
6416 Clouds 10 1012 93 10000 3.18 238 05:46 24.10.2020
6417 Clouds 10 1012 93 10000 2.72 248 02:26 24.10.2020
6418 Clouds 10 1012 92 10000 1.34 186 00:57 24.10.2020
6419 Clouds 10 1011 92 10000 2.8 246 00:37 24.10.2020
6420 Clouds 10 1011 92 10000 2.8 246 00:37 24.10.2020
6421 Rain 11 1012 92 10000 2.35 239 00:19 24.10.2020
6422 Clouds 12 1011 92 10000 2.35 239 23:43 23.10.2020
6423 Rain 12 1011 92 10000 2.02 231 23:22 23.10.2020
6424 Rain 13 1011 92 10000 2.02 231 22:42 23.10.2020
6425 Rain 13 1011 92 10000 1.64 241 22:22 23.10.2020
6426 Clouds 13 1011 92 10000 1.64 241 21:59 23.10.2020
6427 Clouds 13 1011 92 10000 1.64 241 21:39 23.10.2020
6428 Rain 13 1011 92 10000 2.13 254 21:21 23.10.2020
6429 Clouds 13 1011 92 10000 2.13 254 20:39 23.10.2020
6430 Rain 13 1011 92 10000 0.59 250 20:20 23.10.2020
6431 Clouds 13 1011 92 4872 1.62 354 19:48 23.10.2020
6432 Rain 14 1010 92 5505 1.83 324 19:29 23.10.2020
6433 Clouds 14 1010 93 5505 1.83 324 18:49 23.10.2020
6434 Rain 14 1010 93 5505 1.83 324 18:30 23.10.2020
6435 Rain 14 1010 92 6512 0.89 341 17:47 23.10.2020
6436 Rain 15 1010 88 6858 3.58 296 17:23 23.10.2020
6437 Rain 15 1010 87 6858 0.83 216 16:56 23.10.2020
6438 Rain 15 1010 87 6858 0.83 216 16:56 23.10.2020
6439 Rain 15 1010 87 6858 0.83 216 16:56 23.10.2020
6440 Rain 15 1010 87 6858 0.83 216 16:56 23.10.2020
6441 Rain 15 1010 86 6858 0.89 149 16:36 23.10.2020
6442 Rain 16 1010 85 5680 0.89 160 15:59 23.10.2020
6443 Rain 16 1010 85 5680 0.45 224 15:41 23.10.2020
6444 Rain 16 1010 85 8226 2.94 175 15:23 23.10.2020
6445 Rain 16 1010 84 8226 0.89 158 14:50 23.10.2020
6446 Rain 16 1011 82 8226 2.94 175 14:32 23.10.2020
6447 Rain 16 1011 79 10000 1.79 159 13:55 23.10.2020
6448 Rain 17 1011 78 10000 1.79 139 13:37 23.10.2020
6449 Rain 17 1011 75 10000 2.68 115 13:18 23.10.2020
6450 Clouds 16 1012 76 10000 1.79 146 12:42 23.10.2020
6451 Clouds 16 1012 76 10000 1.34 100 12:23 23.10.2020
6452 Clouds 16 1012 78 10000 1.34 11 11:42 23.10.2020
6453 Clouds 16 1012 81 10000 0.4 125 11:20 23.10.2020
6454 Clouds 15 1012 81 10000 0.45 124 10:43 23.10.2020
6455 Clouds 15 1012 82 10000 0.35 220 10:23 23.10.2020
6456 Clouds 13 1012 87 10000 0.35 220 09:43 23.10.2020
6457 Clouds 12 1012 88 10000 1.35 232 09:23 23.10.2020
6458 Clouds 12 1012 89 10000 1.35 232 08:52 23.10.2020
6459 Clouds 12 1012 91 10000 1.74 239 08:28 23.10.2020
6460 Clouds 12 1012 90 10000 2.18 251 07:30 23.10.2020
6461 Clouds 12 1012 90 10000 2.8 244 06:57 23.10.2020
6462 Clouds 12 1012 89 10000 2.99 232 06:20 23.10.2020
6463 Clouds 12 1012 90 10000 3.09 230 04:45 23.10.2020
6464 Clouds 13 1012 89 10000 3.5 218 02:32 23.10.2020
6465 Clouds 14 1012 87 10000 3.23 219 01:23 23.10.2020
6466 Clouds 14 1012 86 10000 0.45 173 00:36 23.10.2020
6467 Rain 14 1012 83 10000 2.24 175 23:40 22.10.2020
6468 Rain 14 1012 83 10000 0.45 169 23:40 22.10.2020
6469 Rain 14 1012 83 10000 3.13 239 23:22 22.10.2020
6470 Rain 15 1013 79 10000 1.79 259 22:48 22.10.2020
6471 Clouds 15 1012 81 10000 1.79 199 22:26 22.10.2020
6472 Clouds 14 1012 82 10000 5.06 214 21:58 22.10.2020
6473 Clouds 14 1012 82 10000 1.79 158 21:40 22.10.2020
6474 Clouds 15 1011 80 10000 0.89 167 21:20 22.10.2020
6475 Clouds 15 1012 78 10000 2.24 234 20:45 22.10.2020
6476 Clouds 15 1012 77 10000 1.79 189 20:25 22.10.2020
6477 Clouds 15 1012 78 10000 2.68 210 19:58 22.10.2020
6478 Clouds 15 1012 80 10000 0.45 163 19:39 22.10.2020
6479 Clear 16 1012 80 10000 1.79 201 19:18 22.10.2020
6480 Clear 16 1012 78 10000 1.34 221 18:42 22.10.2020
6481 Clear 17 1012 76 10000 3.13 182 18:19 22.10.2020
6482 Clear 18 1012 72 10000 4.92 158 17:45 22.10.2020
6483 Clear 19 1012 70 10000 1.34 170 17:22 22.10.2020
6484 Clear 19 1012 66 10000 3.58 169 16:46 22.10.2020
6485 Clear 20 1012 65 10000 1.34 194 16:25 22.10.2020
6486 Clear 20 1012 66 10000 2.24 162 15:57 22.10.2020
6487 Clear 21 1012 65 10000 4.8 214 15:38 22.10.2020
6488 Clear 20 1012 61 10000 0.89 139 15:19 22.10.2020
6489 Clear 21 1012 60 10000 0.45 117 14:45 22.10.2020
6490 Clouds 21 1012 61 10000 1.79 207 14:24 22.10.2020
6491 Clouds 18 1013 71 10000 1.34 244 13:45 22.10.2020
6492 Clouds 19 1013 69 10000 0.89 173 13:23 22.10.2020
6493 Clouds 18 1013 70 10000 1.34 230 12:47 22.10.2020
6494 Clouds 18 1013 70 10000 1.34 223 12:23 22.10.2020
6495 Clouds 17 1013 72 10000 2.68 87 11:50 22.10.2020
6496 Clouds 17 1013 73 10000 2.68 146 11:20 22.10.2020
6497 Clouds 16 1013 79 10000 2.24 176 10:51 22.10.2020
6498 Clouds 15 1013 80 10000 2.24 186 10:27 22.10.2020
6499 Clouds 14 1013 84 10000 2.24 135 09:52 22.10.2020
6500 Clouds 14 1013 82 10000 2.24 172 09:33 22.10.2020
6501 Clouds 13 1012 87 10000 4.59 215 08:51 22.10.2020
6502 Clouds 13 1012 86 10000 4.59 215 08:30 22.10.2020
6503 Clouds 13 1011 86 10000 2.24 199 07:57 22.10.2020
6504 Clouds 13 1011 86 10000 1.34 176 07:34 22.10.2020
6505 Clouds 13 1011 84 10000 4.49 214 06:58 22.10.2020
6506 Clouds 13 1011 83 10000 4.61 216 06:27 22.10.2020
6507 Clouds 13 1010 82 10000 4.61 216 05:41 22.10.2020
6508 Clouds 14 1010 82 10000 4.02 196 05:18 22.10.2020
6509 Clear 14 1008 76 10000 2.24 166 01:50 22.10.2020
6510 Clear 14 1008 74 10000 3.58 203 00:26 22.10.2020
6511 Clear 14 1008 72 10000 3.58 245 23:57 21.10.2020
6512 Clear 14 1008 72 10000 4.02 173 23:33 21.10.2020
6513 Clear 14 1007 70 10000 2.68 179 22:44 21.10.2020
6514 Clear 14 1007 70 10000 4.47 149 22:20 21.10.2020
6515 Clear 14 1007 70 10000 4.47 149 22:20 21.10.2020
6516 Clear 14 1007 70 10000 7.6 176 22:20 21.10.2020
6517 Clear 14 1007 69 10000 2.24 167 21:57 21.10.2020
6518 Clear 14 1006 70 10000 1.79 269 21:38 21.10.2020
6519 Clear 14 1006 71 10000 3.58 193 21:19 21.10.2020
6520 Clear 13 1006 75 10000 1.79 156 20:48 21.10.2020
6521 Clouds 13 1006 78 10000 1.79 160 20:19 21.10.2020
6522 Clouds 13 1007 82 10000 0.45 189 19:57 21.10.2020
6523 Clouds 13 1006 79 10000 6.64 204 19:37 21.10.2020
6524 Clouds 14 1006 80 10000 0.89 203 19:18 21.10.2020
6525 Clouds 13 1006 81 10000 0.89 167 18:46 21.10.2020
6526 Clouds 14 1006 78 10000 2.24 156 18:21 21.10.2020
6527 Clouds 14 1006 76 10000 1.79 166 17:43 21.10.2020
6528 Clouds 15 1006 76 10000 1.34 148 17:20 21.10.2020
6529 Clouds 15 1006 75 10000 2.24 136 16:55 21.10.2020
6530 Clouds 15 1006 75 10000 1.79 142 16:36 21.10.2020
6531 Clouds 14 1007 76 10000 3.13 200 16:18 21.10.2020
6532 Clouds 15 1007 76 10000 2.68 127 15:42 21.10.2020
6533 Rain 15 1007 76 10000 1.34 129 15:20 21.10.2020
6534 Rain 15 1007 78 10000 3.37 204 14:45 21.10.2020
6535 Rain 15 1008 77 10000 0.89 162 14:27 21.10.2020
6536 Clouds 13 1008 80 10000 2.68 167 13:46 21.10.2020
6537 Clouds 13 1008 81 10000 3.58 182 13:26 21.10.2020
6538 Rain 13 1008 83 10000 4.02 166 12:48 21.10.2020
6539 Rain 13 1009 84 10000 2.24 159 12:25 21.10.2020
6540 Rain 12 1009 84 10000 4.02 177 11:59 21.10.2020
6541 Rain 12 1009 83 10000 4.47 122 11:40 21.10.2020
6542 Clouds 12 1009 84 10000 1.79 132 11:19 21.10.2020
6543 Rain 11 1009 87 10000 3.13 119 10:44 21.10.2020
6544 Rain 11 1009 88 10000 3.58 146 10:25 21.10.2020
6545 Rain 11 1010 89 10000 3.13 94 09:52 21.10.2020
6546 Rain 11 1010 89 10000 3.13 83 09:33 21.10.2020
6547 Rain 11 1010 89 10000 1.79 166 08:56 21.10.2020
6548 Rain 11 1010 89 10000 1.79 166 08:56 21.10.2020
6549 Rain 11 1010 89 10000 4.76 175 08:38 21.10.2020
6550 Rain 11 1010 89 10000 1.34 145 08:19 21.10.2020
6551 Rain 11 1010 90 10000 4.76 175 08:19 21.10.2020
6552 Rain 11 1010 89 10000 4.52 165 07:37 21.10.2020
6553 Clouds 11 1010 90 10000 4.94 170 06:52 21.10.2020
6554 Rain 11 1010 90 10000 1.34 88 06:27 21.10.2020
6555 Rain 11 1010 90 10000 2.24 143 04:47 21.10.2020
6556 Rain 11 1012 90 10000 2.24 189 00:52 21.10.2020
6557 Rain 11 1012 90 10000 4.19 192 23:49 20.10.2020
6558 Rain 11 1012 91 10000 1.34 175 22:54 20.10.2020
6559 Rain 11 1012 91 10000 1.34 165 22:29 20.10.2020
6560 Rain 11 1012 90 10000 0.89 80 21:50 20.10.2020
6561 Rain 11 1012 89 10000 0.89 162 21:21 20.10.2020
6562 Rain 11 1012 88 10000 3.13 219 20:57 20.10.2020
6563 Rain 11 1012 87 10000 0.89 153 20:38 20.10.2020
6564 Rain 11 1012 87 10000 1.34 158 20:20 20.10.2020
6565 Rain 11 1012 86 10000 1.34 191 19:44 20.10.2020
6566 Rain 11 1012 85 10000 0.89 155 19:22 20.10.2020
6567 Rain 11 1012 83 10000 0.89 176 18:55 20.10.2020
6568 Rain 11 1012 81 10000 0.89 148 18:36 20.10.2020
6569 Rain 12 1012 76 10000 0.45 66 17:50 20.10.2020
6570 Clouds 12 1012 77 10000 2.68 162 17:32 20.10.2020
6571 Rain 13 1012 70 10000 0.45 127 16:49 20.10.2020
6572 Clouds 14 1012 70 10000 3.58 155 16:31 20.10.2020
6573 Clouds 14 1012 67 10000 4.02 165 15:59 20.10.2020
6574 Clouds 14 1012 68 10000 2.24 176 15:41 20.10.2020
6575 Clouds 15 1012 66 10000 2.24 148 15:22 20.10.2020
6576 Clouds 14 1013 64 10000 4.47 151 14:44 20.10.2020
6577 Clouds 14 1013 68 10000 5.81 166 14:24 20.10.2020
6578 Clouds 14 1013 67 10000 2.68 132 13:57 20.10.2020
6579 Clouds 13 1014 67 10000 2.68 158 13:38 20.10.2020
6580 Clouds 13 1014 67 10000 4.92 177 13:19 20.10.2020
6581 Clouds 11 1014 69 10000 6.26 110 12:46 20.10.2020
6582 Clouds 11 1015 69 10000 4.02 167 12:28 20.10.2020
6583 Clouds 9 1015 75 10000 3.13 169 11:46 20.10.2020
6584 Clouds 10 1015 77 10000 4.02 101 11:27 20.10.2020
6585 Clouds 8 1015 81 10000 3.58 107 10:40 20.10.2020
6586 Clouds 8 1016 83 10000 4.47 148 10:22 20.10.2020
6587 Clouds 6 1016 86 10000 1.79 69 09:44 20.10.2020
6588 Clouds 6 1017 88 10000 0.89 186 09:19 20.10.2020
6589 Clouds 5 1017 90 10000 4.47 180 08:39 20.10.2020
6590 Clouds 5 1017 90 10000 1.34 103 08:19 20.10.2020
6591 Clouds 4 1017 91 10000 2.68 110 07:42 20.10.2020
6592 Clouds 4 1018 92 10000 1.79 105 07:21 20.10.2020
6593 Clouds 4 1018 91 10000 4.02 125 06:19 20.10.2020
6594 Clouds 4 1019 91 10000 3.52 152 04:26 20.10.2020
6595 Clouds 5 1020 92 10000 3.72 141 02:30 20.10.2020
6596 Clouds 5 1021 92 10000 0.45 124 01:22 20.10.2020
6597 Clouds 5 1021 91 10000 2.66 175 00:51 20.10.2020
6598 Clouds 6 1021 91 10000 3.02 172 00:26 20.10.2020
6599 Clouds 6 1021 91 10000 3.02 172 23:51 19.10.2020
6600 Clouds 6 1021 91 10000 3.2 180 23:25 19.10.2020
6601 Clouds 6 1021 91 10000 3.2 180 22:54 19.10.2020
6602 Clouds 6 1021 91 10000 2.76 179 22:26 19.10.2020
6603 Clouds 7 1021 91 10000 2.76 179 21:55 19.10.2020
6604 Clouds 7 1022 91 10000 2.76 179 21:37 19.10.2020
6605 Clouds 7 1021 91 10000 2.09 163 21:18 19.10.2020
6606 Clouds 8 1021 90 10000 2.09 163 20:42 19.10.2020
6607 Clouds 8 1021 89 10000 1.48 148 20:24 19.10.2020
6608 Clouds 9 1021 89 10000 1.34 77 19:45 19.10.2020
6609 Clouds 9 1022 86 10000 0.89 143 19:19 19.10.2020
6610 Clouds 10 1022 85 10000 0.6 122 18:50 19.10.2020
6611 Clouds 11 1022 83 10000 0.22 195 18:24 19.10.2020
6612 Clouds 11 1022 79 10000 0.22 195 17:47 19.10.2020
6613 Clouds 11 1022 77 10000 0.45 146 17:27 19.10.2020
6614 Clouds 12 1022 75 10000 0.89 221 16:54 19.10.2020
6615 Clouds 12 1022 74 10000 0.45 143 16:30 19.10.2020
6616 Clouds 13 1022 71 10000 0.89 163 15:50 19.10.2020
6617 Clouds 13 1022 70 10000 1.34 155 15:26 19.10.2020
6618 Clouds 14 1022 67 10000 1.79 190 14:59 19.10.2020
6619 Clouds 14 1022 66 10000 2.19 258 14:40 19.10.2020
6620 Clouds 14 1022 68 10000 0.45 299 14:21 19.10.2020
6621 Clouds 14 1023 65 10000 2.68 148 13:44 19.10.2020
6622 Clouds 14 1023 65 10000 0.89 111 13:26 19.10.2020
6623 Clouds 13 1023 73 10000 0.89 223 12:45 19.10.2020
6624 Clouds 13 1023 69 10000 1.34 259 12:26 19.10.2020
6625 Clouds 13 1023 72 10000 0.45 151 11:51 19.10.2020
6626 Clouds 12 1023 78 10000 0.89 122 11:24 19.10.2020
6627 Clouds 10 1023 80 10000 2.24 221 10:45 19.10.2020
6628 Clouds 9 1023 87 10000 2.3 250 10:25 19.10.2020
6629 Clouds 9 1023 89 10000 0.45 208 09:58 19.10.2020
6630 Clouds 9 1023 89 10000 0.45 108 09:37 19.10.2020
6631 Clouds 9 1023 90 10000 1.34 160 09:18 19.10.2020
6632 Clouds 8 1023 91 10000 0.89 218 08:44 19.10.2020
6633 Clouds 8 1023 92 10000 0.45 204 08:21 19.10.2020
6634 Clouds 8 1022 92 10000 2.83 262 07:21 19.10.2020
6635 Clouds 8 1023 93 10000 0.45 163 06:45 19.10.2020
6636 Clouds 8 1022 93 10000 3.18 259 05:40 19.10.2020
6637 Clouds 7 1022 92 10000 1.34 224 03:46 19.10.2020
6638 Clouds 8 1022 93 10000 3.43 257 01:43 19.10.2020
6639 Clouds 8 1021 91 10000 0.45 215 00:43 19.10.2020
6640 Clouds 8 1021 91 10000 3.96 262 23:59 18.10.2020
6641 Clouds 9 1021 92 10000 0.45 186 23:40 18.10.2020
6642 Clouds 9 1021 90 10000 3.13 224 23:21 18.10.2020
6643 Clouds 9 1021 89 10000 2.68 206 22:45 18.10.2020
6644 Clouds 9 1021 89 10000 0.89 217 22:19 18.10.2020
6645 Clouds 9 1020 88 10000 4.35 272 21:48 18.10.2020
6646 Clouds 9 1020 87 10000 4.61 273 21:29 18.10.2020
6647 Rain 9 1020 89 10000 4.61 273 20:47 18.10.2020
6648 Clouds 9 1020 90 10000 4.82 274 20:24 18.10.2020
6649 Clouds 9 1020 89 10000 1.34 245 19:56 18.10.2020
6650 Clouds 9 1020 89 10000 4.41 273 19:38 18.10.2020
6651 Clouds 9 1020 88 10000 4.6 275 19:19 18.10.2020
6652 Clouds 10 1020 88 10000 4.6 275 18:46 18.10.2020
6653 Clouds 10 1019 88 10000 3.13 159